<?xml version='1.0' encoding='UTF-8'?><gpx version="1.1" creator="JPX - https://github.com/jenetics/jpx" xmlns="http://www.topografix.com/GPX/1/1"><trk><trkseg><trkpt lat="40.84364404035607" lon="14.545822422460919"><ele>42.0</ele><time>2026-03-28T13:50:08.532Z</time></trkpt><trkpt lat="40.843747255951826" lon="14.545935464009782"><ele>42.0</ele><time>2026-03-28T13:50:09.999Z</time></trkpt><trkpt lat="40.843835437844334" lon="14.546001977087316"><ele>42.0</ele><time>2026-03-28T13:50:10.999Z</time></trkpt><trkpt lat="40.84392400585561" lon="14.546043782887056"><ele>42.0</ele><time>2026-03-28T13:50:11.999Z</time></trkpt><trkpt lat="40.84401420556057" lon="14.546065037918517"><ele>42.0</ele><time>2026-03-28T13:50:13Z</time></trkpt><trkpt lat="40.84410825123347" lon="14.546087554947878"><ele>42.0</ele><time>2026-03-28T13:50:14Z</time></trkpt><trkpt lat="40.84418017991085" lon="14.54611796645745"><ele>42.0</ele><time>2026-03-28T13:50:15Z</time></trkpt><trkpt lat="40.84429659778995" lon="14.546206823448603"><ele>42.0</ele><time>2026-03-28T13:50:17Z</time></trkpt><trkpt lat="40.844414997520296" lon="14.546281796382974"><ele>42.0</ele><time>2026-03-28T13:50:19Z</time></trkpt><trkpt lat="40.84448293086776" lon="14.546325847292984"><ele>42.0</ele><time>2026-03-28T13:50:20Z</time></trkpt><trkpt lat="40.84455451283705" lon="14.546371004850585"><ele>42.0</ele><time>2026-03-28T13:50:21Z</time></trkpt><trkpt lat="40.8446158723912" lon="14.546407216008495"><ele>42.0</ele><time>2026-03-28T13:50:22Z</time></trkpt><trkpt lat="40.844707830202935" lon="14.546471269466252"><ele>42.0</ele><time>2026-03-28T13:50:24Z</time></trkpt><trkpt lat="40.844782653171244" lon="14.5465487426295"><ele>42.0</ele><time>2026-03-28T13:50:26Z</time></trkpt><trkpt lat="40.844836538022726" lon="14.546620773243085"><ele>42.0</ele><time>2026-03-28T13:50:28Z</time></trkpt><trkpt lat="40.8449060572559" lon="14.546695800605137"><ele>42.0</ele><time>2026-03-28T13:50:30Z</time></trkpt><trkpt lat="40.844961818950516" lon="14.546814777350427"><ele>42.0</ele><time>2026-03-28T13:50:32Z</time></trkpt><trkpt lat="40.84502584751163" lon="14.54692042511722"><ele>42.0</ele><time>2026-03-28T13:50:34Z</time></trkpt><trkpt lat="40.84511389364912" lon="14.546970004429582"><ele>42.0</ele><time>2026-03-28T13:50:36Z</time></trkpt><trkpt lat="40.84514316727454" lon="14.547067578907358"><ele>42.0</ele><time>2026-03-28T13:50:37Z</time></trkpt><trkpt lat="40.84521984050766" lon="14.547115185128668"><ele>42.0</ele><time>2026-03-28T13:50:38Z</time></trkpt><trkpt lat="40.8452968396544" lon="14.547182660592293"><ele>41.833333333333336</ele><time>2026-03-28T13:50:39Z</time></trkpt><trkpt lat="40.84537864704129" lon="14.54714979728688"><ele>41.666666666666664</ele><time>2026-03-28T13:50:40Z</time></trkpt><trkpt lat="40.84546723038925" lon="14.547191160734855"><ele>41.5</ele><time>2026-03-28T13:50:42Z</time></trkpt><trkpt lat="40.84555185888388" lon="14.547248375610984"><ele>41.33333333333333</ele><time>2026-03-28T13:53:28.999Z</time></trkpt><trkpt lat="40.84563283089742" lon="14.547304120786455"><ele>41.166666666666664</ele><time>2026-03-28T13:53:30.999Z</time></trkpt><trkpt lat="40.845711277693574" lon="14.547333971546669"><ele>41.0</ele><time>2026-03-28T13:53:32.999Z</time></trkpt><trkpt lat="40.84580828810175" lon="14.547396805052893"><ele>41.0</ele><time>2026-03-28T13:53:34.999Z</time></trkpt><trkpt lat="40.84591080073011" lon="14.547492211265192"><ele>41.0</ele><time>2026-03-28T13:53:36.999Z</time></trkpt><trkpt lat="40.84595080289591" lon="14.547576453203552"><ele>41.0</ele><time>2026-03-28T13:53:37.999Z</time></trkpt><trkpt lat="40.84601278949449" lon="14.547619496527632"><ele>41.0</ele><time>2026-03-28T13:53:38.999Z</time></trkpt><trkpt lat="40.84607839151689" lon="14.547665321330287"><ele>41.0</ele><time>2026-03-28T13:53:39.999Z</time></trkpt><trkpt lat="40.84616949607657" lon="14.547728979193971"><ele>41.0</ele><time>2026-03-28T13:53:41.999Z</time></trkpt><trkpt lat="40.846288096124766" lon="14.54778872103222"><ele>41.0</ele><time>2026-03-28T13:53:43.999Z</time></trkpt><trkpt lat="40.84634495872943" lon="14.54785297999577"><ele>41.0</ele><time>2026-03-28T13:53:44.999Z</time></trkpt><trkpt lat="40.84648221875682" lon="14.547942626782799"><ele>41.0</ele><time>2026-03-28T13:53:46.999Z</time></trkpt><trkpt lat="40.846586778659514" lon="14.547999990574807"><ele>41.0</ele><time>2026-03-28T13:53:47.999Z</time></trkpt><trkpt lat="40.846692046843536" lon="14.548057149139716"><ele>41.0</ele><time>2026-03-28T13:53:48.999Z</time></trkpt><trkpt lat="40.84678175679812" lon="14.548105867426035"><ele>41.0</ele><time>2026-03-28T13:53:49.999Z</time></trkpt><trkpt lat="40.84687625905095" lon="14.548139481516484"><ele>41.0</ele><time>2026-03-28T13:53:50.999Z</time></trkpt><trkpt lat="40.84695447982721" lon="14.548191870131093"><ele>41.0</ele><time>2026-03-28T13:53:51.999Z</time></trkpt><trkpt lat="40.847049338009924" lon="14.548253507322467"><ele>41.0</ele><time>2026-03-28T13:53:52.999Z</time></trkpt><trkpt lat="40.84715732323183" lon="14.548320787170029"><ele>41.5</ele><time>2026-03-28T13:53:53.999Z</time></trkpt><trkpt lat="40.847281058930584" lon="14.54839253032144"><ele>42.0</ele><time>2026-03-28T13:53:54.999Z</time></trkpt><trkpt lat="40.847392476164124" lon="14.548457924165596"><ele>42.5</ele><time>2026-03-28T13:53:55.999Z</time></trkpt><trkpt lat="40.84748107895044" lon="14.548510285419765"><ele>43.0</ele><time>2026-03-28T13:53:56.999Z</time></trkpt><trkpt lat="40.84759150950134" lon="14.548573654569694"><ele>43.25</ele><time>2026-03-28T13:53:57.999Z</time></trkpt><trkpt lat="40.84768968448131" lon="14.54862899084741"><ele>43.5</ele><time>2026-03-28T13:53:58.999Z</time></trkpt><trkpt lat="40.84778721920691" lon="14.548690097900842"><ele>43.75</ele><time>2026-03-28T13:53:59.999Z</time></trkpt><trkpt lat="40.8479078101956" lon="14.548750947937572"><ele>44.0</ele><time>2026-03-28T13:54:00.999Z</time></trkpt><trkpt lat="40.848033233322184" lon="14.548813366873588"><ele>44.0</ele><time>2026-03-28T13:54:01.999Z</time></trkpt><trkpt lat="40.848165740257826" lon="14.548884400026301"><ele>44.0</ele><time>2026-03-28T13:54:02.999Z</time></trkpt><trkpt lat="40.84830013330863" lon="14.548989425859665"><ele>44.0</ele><time>2026-03-28T13:54:03.998Z</time></trkpt><trkpt lat="40.848453717445615" lon="14.549091269265315"><ele>44.33333333333333</ele><time>2026-03-28T13:54:04.998Z</time></trkpt><trkpt lat="40.84860016216048" lon="14.549198954388718"><ele>44.666666666666664</ele><time>2026-03-28T13:54:05.998Z</time></trkpt><trkpt lat="40.848730110528216" lon="14.549308625841137"><ele>45.0</ele><time>2026-03-28T13:54:06.998Z</time></trkpt><trkpt lat="40.8488440712916" lon="14.549407751475346"><ele>45.0</ele><time>2026-03-28T13:54:07.998Z</time></trkpt><trkpt lat="40.848942121450875" lon="14.549493545390046"><ele>45.0</ele><time>2026-03-28T13:54:08.998Z</time></trkpt><trkpt lat="40.849048628472396" lon="14.549583694395093"><ele>45.0</ele><time>2026-03-28T13:54:09.998Z</time></trkpt><trkpt lat="40.849165009621814" lon="14.54968055867821"><ele>45.0</ele><time>2026-03-28T13:54:10.998Z</time></trkpt><trkpt lat="40.849279136086494" lon="14.549779564373324"><ele>45.6</ele><time>2026-03-28T13:54:11.998Z</time></trkpt><trkpt lat="40.84937407988996" lon="14.549838559801794"><ele>46.2</ele><time>2026-03-28T13:54:12.998Z</time></trkpt><trkpt lat="40.849466214594784" lon="14.549882855524197"><ele>46.8</ele><time>2026-03-28T13:54:13.998Z</time></trkpt><trkpt lat="40.84954998955031" lon="14.54992120385336"><ele>47.4</ele><time>2026-03-28T13:54:14.998Z</time></trkpt><trkpt lat="40.84962620046891" lon="14.54997640634199"><ele>48.0</ele><time>2026-03-28T13:54:15.998Z</time></trkpt><trkpt lat="40.849666803979" lon="14.550063778400125"><ele>48.0</ele><time>2026-03-28T13:54:16.998Z</time></trkpt><trkpt lat="40.84971072029113" lon="14.55015955370606"><ele>48.0</ele><time>2026-03-28T13:54:17.998Z</time></trkpt><trkpt lat="40.84977982266937" lon="14.550263768421141"><ele>48.0</ele><time>2026-03-28T13:54:18.998Z</time></trkpt><trkpt lat="40.84990416606134" lon="14.550333965220506"><ele>48.0</ele><time>2026-03-28T13:54:19.998Z</time></trkpt><trkpt lat="40.850034249179934" lon="14.550425472312622"><ele>49.66666666666667</ele><time>2026-03-28T13:54:20.998Z</time></trkpt><trkpt lat="40.850187053219784" lon="14.550536231405559"><ele>51.333333333333336</ele><time>2026-03-28T13:54:22Z</time></trkpt><trkpt lat="40.85034026354686" lon="14.550683218329858"><ele>53.0</ele><time>2026-03-28T13:54:23Z</time></trkpt><trkpt lat="40.85048369178912" lon="14.550793151247765"><ele>53.0</ele><time>2026-03-28T13:54:24Z</time></trkpt><trkpt lat="40.850590257911186" lon="14.550902696844174"><ele>53.0</ele><time>2026-03-28T13:54:25Z</time></trkpt><trkpt lat="40.85066975390402" lon="14.551022359786836"><ele>53.0</ele><time>2026-03-28T13:54:26Z</time></trkpt><trkpt lat="40.850753059621226" lon="14.551134904400225"><ele>53.0</ele><time>2026-03-28T13:54:27Z</time></trkpt><trkpt lat="40.85082823302044" lon="14.551248668517553"><ele>53.25</ele><time>2026-03-28T13:54:28Z</time></trkpt><trkpt lat="40.85090064570501" lon="14.551357478632752"><ele>53.5</ele><time>2026-03-28T13:54:29Z</time></trkpt><trkpt lat="40.85097675547128" lon="14.551456377464948"><ele>53.75</ele><time>2026-03-28T13:54:30Z</time></trkpt><trkpt lat="40.851041499726264" lon="14.55161190323688"><ele>54.0</ele><time>2026-03-28T13:54:31Z</time></trkpt><trkpt lat="40.85112894464159" lon="14.551791784556782"><ele>54.33333333333333</ele><time>2026-03-28T13:54:32Z</time></trkpt><trkpt lat="40.851222118843026" lon="14.552009399161452"><ele>54.666666666666664</ele><time>2026-03-28T13:54:33Z</time></trkpt><trkpt lat="40.85131177874912" lon="14.55223928989124"><ele>55.0</ele><time>2026-03-28T13:54:34Z</time></trkpt><trkpt lat="40.85139667785997" lon="14.55247715718657"><ele>55.75</ele><time>2026-03-28T13:54:35Z</time></trkpt><trkpt lat="40.851466198972076" lon="14.552675161474241"><ele>56.5</ele><time>2026-03-28T13:54:36Z</time></trkpt><trkpt lat="40.85152446496309" lon="14.5528411127899"><ele>57.25</ele><time>2026-03-28T13:54:37Z</time></trkpt><trkpt lat="40.85158365944284" lon="14.552961778898318"><ele>58.0</ele><time>2026-03-28T13:54:38Z</time></trkpt><trkpt lat="40.851621642563735" lon="14.553082380661838"><ele>58.0</ele><time>2026-03-28T13:54:39Z</time></trkpt><trkpt lat="40.85166845288163" lon="14.553194114398767"><ele>58.0</ele><time>2026-03-28T13:54:40Z</time></trkpt><trkpt lat="40.851682558722764" lon="14.553286494020034"><ele>58.0</ele><time>2026-03-28T13:54:41Z</time></trkpt><trkpt lat="40.85172064036321" lon="14.553396745169461"><ele>58.0</ele><time>2026-03-28T13:54:43Z</time></trkpt><trkpt lat="40.85177763421077" lon="14.553520183092697"><ele>58.0</ele><time>2026-03-28T13:54:46Z</time></trkpt><trkpt lat="40.85181759136982" lon="14.553648709711393"><ele>58.25</ele><time>2026-03-28T13:54:47Z</time></trkpt><trkpt lat="40.85188924729222" lon="14.553778984497903"><ele>58.5</ele><time>2026-03-28T13:54:48Z</time></trkpt><trkpt lat="40.85197611129881" lon="14.553933176268528"><ele>58.75</ele><time>2026-03-28T13:54:49Z</time></trkpt><trkpt lat="40.852055469417124" lon="14.554104771449289"><ele>59.0</ele><time>2026-03-28T13:54:50Z</time></trkpt><trkpt lat="40.85208312488773" lon="14.554251708288868"><ele>59.0</ele><time>2026-03-28T13:54:51Z</time></trkpt><trkpt lat="40.85209689597301" lon="14.55443043147967"><ele>59.0</ele><time>2026-03-28T13:54:52Z</time></trkpt><trkpt lat="40.852102528858346" lon="14.554634050300454"><ele>59.0</ele><time>2026-03-28T13:54:53Z</time></trkpt><trkpt lat="40.85211169505136" lon="14.55487210766653"><ele>60.66666666666667</ele><time>2026-03-28T13:54:54Z</time></trkpt><trkpt lat="40.8521230284348" lon="14.555125752959063"><ele>62.33333333333333</ele><time>2026-03-28T13:54:55Z</time></trkpt><trkpt lat="40.85212860972199" lon="14.5553610160375"><ele>64.0</ele><time>2026-03-28T13:54:56Z</time></trkpt><trkpt lat="40.85211902585201" lon="14.5555905149564"><ele>65.33333333333333</ele><time>2026-03-28T13:54:57Z</time></trkpt><trkpt lat="40.85210161416155" lon="14.555843423797388"><ele>66.66666666666667</ele><time>2026-03-28T13:54:58Z</time></trkpt><trkpt lat="40.85208056266017" lon="14.556102530189769"><ele>68.0</ele><time>2026-03-28T13:54:59Z</time></trkpt><trkpt lat="40.85206262141477" lon="14.556321307079005"><ele>69.0</ele><time>2026-03-28T13:55:00Z</time></trkpt><trkpt lat="40.85204530996376" lon="14.556494293092646"><ele>70.0</ele><time>2026-03-28T13:55:01Z</time></trkpt><trkpt lat="40.852030356283905" lon="14.556617965573462"><ele>71.0</ele><time>2026-03-28T13:55:02Z</time></trkpt><trkpt lat="40.85201786482938" lon="14.556715539890684"><ele>72.0</ele><time>2026-03-28T13:55:03Z</time></trkpt><trkpt lat="40.85198419046076" lon="14.556843268998461"><ele>73.0</ele><time>2026-03-28T13:55:05Z</time></trkpt><trkpt lat="40.85183356880734" lon="14.556813288245728"><ele>73.2</ele><time>2026-03-28T13:55:06Z</time></trkpt><trkpt lat="40.85172044327246" lon="14.556850717950706"><ele>73.4</ele><time>2026-03-28T13:55:07Z</time></trkpt><trkpt lat="40.85160645187668" lon="14.556888537782816"><ele>73.60000000000001</ele><time>2026-03-28T13:55:08Z</time></trkpt><trkpt lat="40.85151016189542" lon="14.556920867069131"><ele>73.8</ele><time>2026-03-28T13:55:09Z</time></trkpt><trkpt lat="40.85144299636524" lon="14.556941773991971"><ele>74.0</ele><time>2026-03-28T13:55:10Z</time></trkpt><trkpt lat="40.85135733175356" lon="14.556967254521632"><ele>75.5</ele><time>2026-03-28T13:55:12Z</time></trkpt><trkpt lat="40.85141151165388" lon="14.557149922901885"><ele>77.0</ele><time>2026-03-28T13:55:13Z</time></trkpt><trkpt lat="40.85146636146831" lon="14.55724440978899"><ele>78.5</ele><time>2026-03-28T13:55:14Z</time></trkpt><trkpt lat="40.85154623500804" lon="14.557378965808093"><ele>80.0</ele><time>2026-03-28T13:55:14.999Z</time></trkpt><trkpt lat="40.85164958442977" lon="14.557513511475433"><ele>80.0</ele><time>2026-03-28T13:55:15.999Z</time></trkpt><trkpt lat="40.85173500906311" lon="14.557657812984818"><ele>80.0</ele><time>2026-03-28T13:55:16.999Z</time></trkpt><trkpt lat="40.851789644795524" lon="14.557776597204958"><ele>80.0</ele><time>2026-03-28T13:55:17.999Z</time></trkpt><trkpt lat="40.851793892479094" lon="14.557885005199243"><ele>80.0</ele><time>2026-03-28T13:55:18.999Z</time></trkpt><trkpt lat="40.851766770600236" lon="14.557970454606103"><ele>80.0</ele><time>2026-03-28T13:55:19.999Z</time></trkpt><trkpt lat="40.85173111707436" lon="14.558082447526214"><ele>81.0</ele><time>2026-03-28T13:55:20.999Z</time></trkpt><trkpt lat="40.85169708089425" lon="14.558238987861973"><ele>82.0</ele><time>2026-03-28T13:55:21.999Z</time></trkpt><trkpt lat="40.85165963585348" lon="14.558414891615623"><ele>83.0</ele><time>2026-03-28T13:55:22.999Z</time></trkpt><trkpt lat="40.85162328086615" lon="14.558571664654615"><ele>84.0</ele><time>2026-03-28T13:55:23.999Z</time></trkpt><trkpt lat="40.85162317197785" lon="14.558705308874092"><ele>85.5</ele><time>2026-03-28T13:55:24.999Z</time></trkpt><trkpt lat="40.851637415053375" lon="14.558812015041816"><ele>87.0</ele><time>2026-03-28T13:55:25.999Z</time></trkpt><trkpt lat="40.85166857325959" lon="14.558921163574821"><ele>88.5</ele><time>2026-03-28T13:55:26.999Z</time></trkpt><trkpt lat="40.85172010729646" lon="14.55907845037223"><ele>90.0</ele><time>2026-03-28T13:55:27.999Z</time></trkpt><trkpt lat="40.85177983082713" lon="14.55926904504555"><ele>91.66666666666667</ele><time>2026-03-28T13:55:28.999Z</time></trkpt><trkpt lat="40.85185158303493" lon="14.559496176109079"><ele>93.33333333333334</ele><time>2026-03-28T13:55:29.999Z</time></trkpt><trkpt lat="40.85192604475017" lon="14.559681924025753"><ele>95.0</ele><time>2026-03-28T13:55:30.999Z</time></trkpt><trkpt lat="40.85199777978392" lon="14.559867102684949"><ele>96.66666666666667</ele><time>2026-03-28T13:55:31.999Z</time></trkpt><trkpt lat="40.85208938719658" lon="14.560063788977496"><ele>98.33333333333334</ele><time>2026-03-28T13:55:32.999Z</time></trkpt><trkpt lat="40.8521909251854" lon="14.560298540510328"><ele>100.0</ele><time>2026-03-28T13:55:33.999Z</time></trkpt><trkpt lat="40.85229716870845" lon="14.560507879653123"><ele>101.66666666666667</ele><time>2026-03-28T13:55:34.999Z</time></trkpt><trkpt lat="40.852412944672984" lon="14.560751399284838"><ele>103.33333333333334</ele><time>2026-03-28T13:55:35.999Z</time></trkpt><trkpt lat="40.85252683429889" lon="14.561012193021273"><ele>105.0</ele><time>2026-03-28T13:55:36.999Z</time></trkpt><trkpt lat="40.8526272938458" lon="14.561295584271026"><ele>109.0</ele><time>2026-03-28T13:55:37.999Z</time></trkpt><trkpt lat="40.85270591136723" lon="14.56154207133989"><ele>113.0</ele><time>2026-03-28T13:55:38.999Z</time></trkpt><trkpt lat="40.852778732302134" lon="14.561753667695951"><ele>117.0</ele><time>2026-03-28T13:55:39.999Z</time></trkpt><trkpt lat="40.85281092293985" lon="14.561954545302202"><ele>117.0</ele><time>2026-03-28T13:55:40.999Z</time></trkpt><trkpt lat="40.85283013839637" lon="14.56213553654187"><ele>117.0</ele><time>2026-03-28T13:55:41.999Z</time></trkpt><trkpt lat="40.85286146826807" lon="14.562326983033678"><ele>117.0</ele><time>2026-03-28T13:55:42.999Z</time></trkpt><trkpt lat="40.85289302886406" lon="14.5625162881716"><ele>117.0</ele><time>2026-03-28T13:55:43.999Z</time></trkpt><trkpt lat="40.85289628993294" lon="14.562684848943046"><ele>117.0</ele><time>2026-03-28T13:55:44.999Z</time></trkpt><trkpt lat="40.85291324441169" lon="14.562810233065457"><ele>116.99999999999999</ele><time>2026-03-28T13:55:45.999Z</time></trkpt><trkpt lat="40.852926808457674" lon="14.562908811966945"><ele>116.99999999999999</ele><time>2026-03-28T13:55:46.999Z</time></trkpt><trkpt lat="40.85295062926847" lon="14.56306161126983"><ele>117.0</ele><time>2026-03-28T13:55:48.999Z</time></trkpt><trkpt lat="40.852974248342285" lon="14.563142945865104"><ele>117.0</ele><time>2026-03-28T13:55:50.999Z</time></trkpt><trkpt lat="40.85284540999607" lon="14.563116361995862"><ele>117.0</ele><time>2026-03-28T13:55:54.999Z</time></trkpt><trkpt lat="40.85278206482783" lon="14.56289953760941"><ele>116.99999999999999</ele><time>2026-03-28T13:55:56.999Z</time></trkpt><trkpt lat="40.852736585710694" lon="14.562778587588877"><ele>116.99999999999999</ele><time>2026-03-28T13:55:57.999Z</time></trkpt><trkpt lat="40.852682255914466" lon="14.562701546661353"><ele>117.0</ele><time>2026-03-28T13:55:58.999Z</time></trkpt><trkpt lat="40.85261144532452" lon="14.562640694499391"><ele>117.0</ele><time>2026-03-28T13:55:59.999Z</time></trkpt><trkpt lat="40.852499326971376" lon="14.562520579663152"><ele>119.33333333333334</ele><time>2026-03-28T13:56:00.999Z</time></trkpt><trkpt lat="40.85236783574143" lon="14.562377520332051"><ele>121.66666666666667</ele><time>2026-03-28T13:56:01.999Z</time></trkpt><trkpt lat="40.85221491217871" lon="14.562244625947352"><ele>124.0</ele><time>2026-03-28T13:56:02.999Z</time></trkpt><trkpt lat="40.852074415685415" lon="14.562117016206393"><ele>126.25</ele><time>2026-03-28T13:56:03.999Z</time></trkpt><trkpt lat="40.851933382893115" lon="14.562012163385198"><ele>128.5</ele><time>2026-03-28T13:56:04.999Z</time></trkpt><trkpt lat="40.85180867963955" lon="14.561895094153499"><ele>130.75</ele><time>2026-03-28T13:56:05.999Z</time></trkpt><trkpt lat="40.85171051094776" lon="14.56182900528522"><ele>133.0</ele><time>2026-03-28T13:56:06.999Z</time></trkpt><trkpt lat="40.8516401077473" lon="14.561764114706463"><ele>133.0</ele><time>2026-03-28T13:56:07.999Z</time></trkpt><trkpt lat="40.85159010356132" lon="14.561685838047664"><ele>133.0</ele><time>2026-03-28T13:56:08.999Z</time></trkpt><trkpt lat="40.851559714828895" lon="14.5615781142121"><ele>133.0</ele><time>2026-03-28T13:56:09.999Z</time></trkpt><trkpt lat="40.85154088219635" lon="14.561454757213516"><ele>133.0</ele><time>2026-03-28T13:56:10.999Z</time></trkpt><trkpt lat="40.85153023067008" lon="14.561336949989755"><ele>133.0</ele><time>2026-03-28T13:56:11.999Z</time></trkpt><trkpt lat="40.85150313915495" lon="14.56121197938074"><ele>133.0</ele><time>2026-03-28T13:56:12.999Z</time></trkpt><trkpt lat="40.85142911315649" lon="14.561106465224666"><ele>129.5</ele><time>2026-03-28T13:56:13.999Z</time></trkpt><trkpt lat="40.85130682516095" lon="14.560975378326688"><ele>126.0</ele><time>2026-03-28T13:56:14.998Z</time></trkpt><trkpt lat="40.85118436094731" lon="14.560873050046974"><ele>122.5</ele><time>2026-03-28T13:56:15.998Z</time></trkpt><trkpt lat="40.851088991505684" lon="14.56079414734461"><ele>119.0</ele><time>2026-03-28T13:56:16.998Z</time></trkpt><trkpt lat="40.85103142125538" lon="14.560713613702529"><ele>119.0</ele><time>2026-03-28T13:56:17.998Z</time></trkpt><trkpt lat="40.85095998315302" lon="14.560620892683799"><ele>119.0</ele><time>2026-03-28T13:56:18.998Z</time></trkpt><trkpt lat="40.85089012503569" lon="14.560564085341626"><ele>119.0</ele><time>2026-03-28T13:56:19.998Z</time></trkpt><trkpt lat="40.85079148293997" lon="14.560484720866052"><ele>119.0</ele><time>2026-03-28T13:56:20.998Z</time></trkpt><trkpt lat="40.85067823394383" lon="14.560409497235222"><ele>119.0</ele><time>2026-03-28T13:56:21.998Z</time></trkpt><trkpt lat="40.85058282706661" lon="14.560359705817227"><ele>119.66666666666666</ele><time>2026-03-28T13:56:22.998Z</time></trkpt><trkpt lat="40.850514258390774" lon="14.560300805628525"><ele>120.33333333333333</ele><time>2026-03-28T13:56:23.998Z</time></trkpt><trkpt lat="40.85046180907416" lon="14.560238115852426"><ele>121.0</ele><time>2026-03-28T13:56:24.998Z</time></trkpt><trkpt lat="40.85041573963706" lon="14.560170164723253"><ele>121.66666666666666</ele><time>2026-03-28T13:56:25.998Z</time></trkpt><trkpt lat="40.850334233629454" lon="14.560133227630669"><ele>122.33333333333333</ele><time>2026-03-28T13:56:28Z</time></trkpt><trkpt lat="40.85032675883918" lon="14.560249045809961"><ele>123.0</ele><time>2026-03-28T13:56:30Z</time></trkpt><trkpt lat="40.850419197818184" lon="14.560368482708279"><ele>126.66666666666667</ele><time>2026-03-28T13:56:32Z</time></trkpt><trkpt lat="40.850499626941144" lon="14.560453939211406"><ele>130.33333333333334</ele><time>2026-03-28T13:56:33Z</time></trkpt><trkpt lat="40.85058446450983" lon="14.560522043534148"><ele>134.0</ele><time>2026-03-28T13:56:34Z</time></trkpt><trkpt lat="40.85065695732202" lon="14.560574541865876"><ele>137.66666666666669</ele><time>2026-03-28T13:56:35Z</time></trkpt><trkpt lat="40.85072104097465" lon="14.560624536957882"><ele>141.33333333333334</ele><time>2026-03-28T13:56:36Z</time></trkpt><trkpt lat="40.85077355865122" lon="14.560704964205463"><ele>145.0</ele><time>2026-03-28T13:56:37Z</time></trkpt><trkpt lat="40.85082269473095" lon="14.560821207657824"><ele>145.0</ele><time>2026-03-28T13:56:38Z</time></trkpt><trkpt lat="40.85089570459687" lon="14.560980428231233"><ele>145.0</ele><time>2026-03-28T13:56:39Z</time></trkpt><trkpt lat="40.85097699770506" lon="14.561119770940362"><ele>145.0</ele><time>2026-03-28T13:56:40Z</time></trkpt><trkpt lat="40.85105931369698" lon="14.561232299016591"><ele>145.0</ele><time>2026-03-28T13:56:41Z</time></trkpt><trkpt lat="40.85111756536402" lon="14.561328838608388"><ele>142.6</ele><time>2026-03-28T13:56:42Z</time></trkpt><trkpt lat="40.85116240157797" lon="14.561402154214958"><ele>140.2</ele><time>2026-03-28T13:56:43Z</time></trkpt><trkpt lat="40.85120723649848" lon="14.561507989824426"><ele>137.8</ele><time>2026-03-28T13:56:45Z</time></trkpt><trkpt lat="40.85124397305592" lon="14.561593367278727"><ele>135.4</ele><time>2026-03-28T13:58:26.998Z</time></trkpt><trkpt lat="40.851280285628945" lon="14.561697886145618"><ele>133.0</ele><time>2026-03-28T13:58:28.998Z</time></trkpt><trkpt lat="40.85118679697165" lon="14.56196441154139"><ele>137.5</ele><time>2026-03-28T13:58:30.998Z</time></trkpt><trkpt lat="40.85120845258736" lon="14.56205178285656"><ele>142.0</ele><time>2026-03-28T13:58:31.998Z</time></trkpt><trkpt lat="40.85126094297751" lon="14.562194860302002"><ele>146.5</ele><time>2026-03-28T13:58:34Z</time></trkpt><trkpt lat="40.85134396633411" lon="14.562290136758962"><ele>151.0</ele><time>2026-03-28T13:58:36Z</time></trkpt><trkpt lat="40.85140867381932" lon="14.562330355286866"><ele>155.5</ele><time>2026-03-28T13:58:37Z</time></trkpt><trkpt lat="40.85147149922795" lon="14.562375555961447"><ele>160.0</ele><time>2026-03-28T13:58:38Z</time></trkpt><trkpt lat="40.85154747704708" lon="14.562423348893947"><ele>160.0</ele><time>2026-03-28T13:58:39Z</time></trkpt><trkpt lat="40.85166636260823" lon="14.562519716445452"><ele>160.0</ele><time>2026-03-28T13:58:41Z</time></trkpt><trkpt lat="40.85172571667292" lon="14.562568058927637"><ele>160.0</ele><time>2026-03-28T13:58:42Z</time></trkpt><trkpt lat="40.851803245903604" lon="14.562632001191691"><ele>160.0</ele><time>2026-03-28T13:58:44Z</time></trkpt><trkpt lat="40.85176376449317" lon="14.56271385458831"><ele>160.0</ele><time>2026-03-28T13:58:46Z</time></trkpt><trkpt lat="40.85166397234101" lon="14.562700772330352"><ele>160.0</ele><time>2026-03-28T13:58:48Z</time></trkpt><trkpt lat="40.85159676159214" lon="14.562661993324909"><ele>160.0</ele><time>2026-03-28T13:58:49Z</time></trkpt><trkpt lat="40.85150911519385" lon="14.562589545658582"><ele>160.0</ele><time>2026-03-28T13:58:51Z</time></trkpt><trkpt lat="40.8513686017528" lon="14.562579679197578"><ele>160.0</ele><time>2026-03-28T13:58:53Z</time></trkpt><trkpt lat="40.85126329610705" lon="14.562474477806841"><ele>160.0</ele><time>2026-03-28T13:58:55Z</time></trkpt><trkpt lat="40.851176349777255" lon="14.562408735758133"><ele>160.0</ele><time>2026-03-28T13:58:57Z</time></trkpt><trkpt lat="40.8511017084658" lon="14.56233800927598"><ele>160.0</ele><time>2026-03-28T13:59:00Z</time></trkpt><trkpt lat="40.85107383934347" lon="14.562253141143058"><ele>160.0</ele><time>2026-03-28T13:59:02Z</time></trkpt><trkpt lat="40.85102252475363" lon="14.562113579007823"><ele>160.0</ele><time>2026-03-28T14:00:42Z</time></trkpt><trkpt lat="40.85099694757249" lon="14.562028792872848"><ele>160.0</ele><time>2026-03-28T14:00:43Z</time></trkpt><trkpt lat="40.8509653035943" lon="14.561947577758634"><ele>160.0</ele><time>2026-03-28T14:00:44Z</time></trkpt><trkpt lat="40.85092655468031" lon="14.561868713128414"><ele>162.0</ele><time>2026-03-28T14:00:45Z</time></trkpt><trkpt lat="40.85086813731529" lon="14.561801998971003"><ele>164.0</ele><time>2026-03-28T14:00:46Z</time></trkpt><trkpt lat="40.85079291853654" lon="14.56171379066944"><ele>166.0</ele><time>2026-03-28T14:00:47Z</time></trkpt><trkpt lat="40.85067436544785" lon="14.561622231555292"><ele>168.0</ele><time>2026-03-28T14:00:48Z</time></trkpt><trkpt lat="40.85054606725339" lon="14.561527045355026"><ele>168.0</ele><time>2026-03-28T14:00:49Z</time></trkpt><trkpt lat="40.85044086738271" lon="14.561443711717473"><ele>168.0</ele><time>2026-03-28T14:00:50Z</time></trkpt><trkpt lat="40.850358966341304" lon="14.561361080515377"><ele>168.0</ele><time>2026-03-28T14:00:51Z</time></trkpt><trkpt lat="40.8502847450365" lon="14.561285279535216"><ele>168.0</ele><time>2026-03-28T14:00:52Z</time></trkpt><trkpt lat="40.85020682479036" lon="14.56118821812052"><ele>168.0</ele><time>2026-03-28T14:00:53Z</time></trkpt><trkpt lat="40.85011684600435" lon="14.561073331070117"><ele>169.60000000000002</ele><time>2026-03-28T14:00:54Z</time></trkpt><trkpt lat="40.849995636126906" lon="14.560950833875177"><ele>171.20000000000002</ele><time>2026-03-28T14:00:55Z</time></trkpt><trkpt lat="40.84992145229075" lon="14.560864807303979"><ele>172.8</ele><time>2026-03-28T14:00:56Z</time></trkpt><trkpt lat="40.84986683645521" lon="14.56080031673568"><ele>174.4</ele><time>2026-03-28T14:00:57Z</time></trkpt><trkpt lat="40.84980468425553" lon="14.560731994271412"><ele>176.0</ele><time>2026-03-28T14:00:59Z</time></trkpt><trkpt lat="40.84973230885419" lon="14.560765558280309"><ele>176.0</ele><time>2026-03-28T14:01:01Z</time></trkpt><trkpt lat="40.84976743369027" lon="14.560889463902276"><ele>176.0</ele><time>2026-03-28T14:01:03Z</time></trkpt><trkpt lat="40.84981818263356" lon="14.560953644327432"><ele>176.0</ele><time>2026-03-28T14:01:04Z</time></trkpt><trkpt lat="40.84987311281839" lon="14.561132633455856"><ele>176.0</ele><time>2026-03-28T14:01:06Z</time></trkpt><trkpt lat="40.84993074050948" lon="14.561262066870638"><ele>176.0</ele><time>2026-03-28T14:01:07Z</time></trkpt><trkpt lat="40.84996740824428" lon="14.561397897533187"><ele>174.4</ele><time>2026-03-28T14:01:08Z</time></trkpt><trkpt lat="40.85001645549726" lon="14.5615206488384"><ele>172.8</ele><time>2026-03-28T14:01:09Z</time></trkpt><trkpt lat="40.85005076807601" lon="14.561627063329741"><ele>171.20000000000002</ele><time>2026-03-28T14:01:10Z</time></trkpt><trkpt lat="40.85012687585746" lon="14.561724035044492"><ele>169.60000000000002</ele><time>2026-03-28T14:01:11Z</time></trkpt><trkpt lat="40.850198242294205" lon="14.561816187369189"><ele>168.0</ele><time>2026-03-28T14:01:12Z</time></trkpt><trkpt lat="40.850267838415505" lon="14.56190790255659"><ele>168.0</ele><time>2026-03-28T14:01:13Z</time></trkpt><trkpt lat="40.85035694349109" lon="14.561979984297427"><ele>168.0</ele><time>2026-03-28T14:01:14Z</time></trkpt><trkpt lat="40.85043917167611" lon="14.56207694180958"><ele>168.0</ele><time>2026-03-28T14:01:15Z</time></trkpt><trkpt lat="40.85049624066802" lon="14.56219313145848"><ele>168.0</ele><time>2026-03-28T14:01:16Z</time></trkpt><trkpt lat="40.850570979279944" lon="14.562347518792908"><ele>174.4</ele><time>2026-03-28T14:01:17Z</time></trkpt><trkpt lat="40.85061437470633" lon="14.562442927900271"><ele>180.8</ele><time>2026-03-28T14:01:18Z</time></trkpt><trkpt lat="40.8506487263062" lon="14.562544488920091"><ele>187.2</ele><time>2026-03-28T14:01:20Z</time></trkpt><trkpt lat="40.85056364362119" lon="14.56257407784248"><ele>193.6</ele><time>2026-03-28T14:01:23Z</time></trkpt><trkpt lat="40.85048330778148" lon="14.562441340412843"><ele>200.0</ele><time>2026-03-28T14:01:25Z</time></trkpt><trkpt lat="40.85039399238772" lon="14.562365307128996"><ele>200.0</ele><time>2026-03-28T14:01:26Z</time></trkpt><trkpt lat="40.850278041405126" lon="14.562321786612376"><ele>200.0</ele><time>2026-03-28T14:01:27Z</time></trkpt><trkpt lat="40.85018365616189" lon="14.562289674298405"><ele>200.0</ele><time>2026-03-28T14:01:28Z</time></trkpt><trkpt lat="40.85009038953465" lon="14.562199184001532"><ele>200.0</ele><time>2026-03-28T14:01:29Z</time></trkpt><trkpt lat="40.849949964395165" lon="14.562074797859976"><ele>200.5</ele><time>2026-03-28T14:01:30Z</time></trkpt><trkpt lat="40.84979124356651" lon="14.561924927246762"><ele>201.0</ele><time>2026-03-28T14:01:31Z</time></trkpt><trkpt lat="40.84969307885726" lon="14.561820021690588"><ele>201.5</ele><time>2026-03-28T14:01:32Z</time></trkpt><trkpt lat="40.84960828240377" lon="14.561733774686829"><ele>202.0</ele><time>2026-03-28T14:01:33Z</time></trkpt><trkpt lat="40.8495508399151" lon="14.56169013355118"><ele>202.0</ele><time>2026-03-28T14:01:34Z</time></trkpt><trkpt lat="40.84944857581393" lon="14.561738972473009"><ele>202.0</ele><time>2026-03-28T14:01:36Z</time></trkpt><trkpt lat="40.84947767636012" lon="14.561903232468094"><ele>202.0</ele><time>2026-03-28T14:01:38Z</time></trkpt><trkpt lat="40.84953189936828" lon="14.56200121775904"><ele>202.0</ele><time>2026-03-28T14:01:39Z</time></trkpt><trkpt lat="40.84959781120446" lon="14.562112909084789"><ele>202.0</ele><time>2026-03-28T14:01:40Z</time></trkpt><trkpt lat="40.84965549443171" lon="14.562236564620772"><ele>209.0</ele><time>2026-03-28T14:01:41Z</time></trkpt><trkpt lat="40.849722950311126" lon="14.562362320975526"><ele>216.0</ele><time>2026-03-28T14:01:42Z</time></trkpt><trkpt lat="40.8498122079759" lon="14.56248733324281"><ele>223.0</ele><time>2026-03-28T14:01:43Z</time></trkpt><trkpt lat="40.849883285352085" lon="14.562618392690135"><ele>230.0</ele><time>2026-03-28T14:01:44Z</time></trkpt><trkpt lat="40.84995493867595" lon="14.562762998745498"><ele>229.75</ele><time>2026-03-28T14:01:45Z</time></trkpt><trkpt lat="40.85003773047673" lon="14.562877647702683"><ele>229.5</ele><time>2026-03-28T14:01:46Z</time></trkpt><trkpt lat="40.85011494284057" lon="14.562990173561207"><ele>229.25</ele><time>2026-03-28T14:01:47Z</time></trkpt><trkpt lat="40.85019819659129" lon="14.563122733765436"><ele>229.0</ele><time>2026-03-28T14:01:47.999Z</time></trkpt><trkpt lat="40.85026271749967" lon="14.563244905699923"><ele>229.0</ele><time>2026-03-28T14:01:48.999Z</time></trkpt><trkpt lat="40.85033305855459" lon="14.563358485394485"><ele>229.0</ele><time>2026-03-28T14:01:49.999Z</time></trkpt><trkpt lat="40.850417389793904" lon="14.563482032754644"><ele>229.0</ele><time>2026-03-28T14:01:50.999Z</time></trkpt><trkpt lat="40.850506343969606" lon="14.563628262425603"><ele>229.0</ele><time>2026-03-28T14:01:51.999Z</time></trkpt><trkpt lat="40.85059863153611" lon="14.563744075085042"><ele>234.6</ele><time>2026-03-28T14:01:52.999Z</time></trkpt><trkpt lat="40.850671434158855" lon="14.563827223740114"><ele>240.2</ele><time>2026-03-28T14:01:53.999Z</time></trkpt><trkpt lat="40.850732234062306" lon="14.563896410793966"><ele>245.79999999999998</ele><time>2026-03-28T14:01:54.999Z</time></trkpt><trkpt lat="40.85079735214421" lon="14.563978445232811"><ele>251.39999999999998</ele><time>2026-03-28T14:01:55.999Z</time></trkpt><trkpt lat="40.85085725202163" lon="14.564075697782032"><ele>257.0</ele><time>2026-03-28T14:01:56.999Z</time></trkpt><trkpt lat="40.85092824962095" lon="14.56418158105305"><ele>253.39999999999998</ele><time>2026-03-28T14:01:57.999Z</time></trkpt><trkpt lat="40.85098342953625" lon="14.564297740875537"><ele>249.79999999999998</ele><time>2026-03-28T14:01:58.999Z</time></trkpt><trkpt lat="40.85102422586656" lon="14.56440938146948"><ele>246.2</ele><time>2026-03-28T14:01:59.999Z</time></trkpt><trkpt lat="40.85107197902907" lon="14.564541154148785"><ele>242.6</ele><time>2026-03-28T14:02:00.999Z</time></trkpt><trkpt lat="40.85110805053797" lon="14.564675806758423"><ele>239.0</ele><time>2026-03-28T14:02:01.999Z</time></trkpt><trkpt lat="40.85113783704002" lon="14.564788288215158"><ele>239.0</ele><time>2026-03-28T14:02:02.999Z</time></trkpt><trkpt lat="40.85118322847385" lon="14.564865045490722"><ele>238.99999999999997</ele><time>2026-03-28T14:02:03.999Z</time></trkpt><trkpt lat="40.85119346970612" lon="14.564949365203097"><ele>238.99999999999997</ele><time>2026-03-28T14:02:05.999Z</time></trkpt><trkpt lat="40.851040909515646" lon="14.564812252886274"><ele>239.0</ele><time>2026-03-28T14:02:10.999Z</time></trkpt><trkpt lat="40.8509601856925" lon="14.564714426451582"><ele>239.0</ele><time>2026-03-28T14:02:11.999Z</time></trkpt><trkpt lat="40.85089217917393" lon="14.564618478173843"><ele>243.5</ele><time>2026-03-28T14:02:12.999Z</time></trkpt><trkpt lat="40.85080228880756" lon="14.564500957754696"><ele>248.0</ele><time>2026-03-28T14:02:13.999Z</time></trkpt><trkpt lat="40.85070567169812" lon="14.564391402516497"><ele>252.5</ele><time>2026-03-28T14:02:14.999Z</time></trkpt><trkpt lat="40.85057617562794" lon="14.564270999664267"><ele>257.0</ele><time>2026-03-28T14:02:15.999Z</time></trkpt><trkpt lat="40.85047820558054" lon="14.564173848572997"><ele>257.0</ele><time>2026-03-28T14:02:16.999Z</time></trkpt><trkpt lat="40.850388939832925" lon="14.564086086840549"><ele>257.0</ele><time>2026-03-28T14:02:17.999Z</time></trkpt><trkpt lat="40.85030179838014" lon="14.564017690275815"><ele>257.0</ele><time>2026-03-28T14:02:18.999Z</time></trkpt><trkpt lat="40.850162695334454" lon="14.56394502492066"><ele>257.0</ele><time>2026-03-28T14:02:19.999Z</time></trkpt><trkpt lat="40.850005923140024" lon="14.56386151730026"><ele>257.0</ele><time>2026-03-28T14:02:20.999Z</time></trkpt><trkpt lat="40.84988324333703" lon="14.563794517557216"><ele>257.0</ele><time>2026-03-28T14:02:21.999Z</time></trkpt><trkpt lat="40.849750355565355" lon="14.563728346554596"><ele>257.0</ele><time>2026-03-28T14:02:22.999Z</time></trkpt><trkpt lat="40.849619173263285" lon="14.563682906357393"><ele>257.0</ele><time>2026-03-28T14:02:23.999Z</time></trkpt><trkpt lat="40.84950161192823" lon="14.563655972267663"><ele>257.0</ele><time>2026-03-28T14:02:24.999Z</time></trkpt><trkpt lat="40.849387392422294" lon="14.563634891543309"><ele>257.0</ele><time>2026-03-28T14:02:25.999Z</time></trkpt><trkpt lat="40.84929630762906" lon="14.563608925716341"><ele>257.0</ele><time>2026-03-28T14:02:26.999Z</time></trkpt><trkpt lat="40.84919011276467" lon="14.563580064604094"><ele>257.0</ele><time>2026-03-28T14:02:27.999Z</time></trkpt><trkpt lat="40.84907647509786" lon="14.563560959675357"><ele>257.0</ele><time>2026-03-28T14:02:28.999Z</time></trkpt><trkpt lat="40.849003550846156" lon="14.563556371913219"><ele>259.8</ele><time>2026-03-28T14:02:29.999Z</time></trkpt><trkpt lat="40.84891829620221" lon="14.563626114127313"><ele>262.6</ele><time>2026-03-28T14:02:31.999Z</time></trkpt><trkpt lat="40.84894740131087" lon="14.56373380820576"><ele>265.40000000000003</ele><time>2026-03-28T14:02:33.999Z</time></trkpt><trkpt lat="40.84904050397367" lon="14.563826934667192"><ele>268.2</ele><time>2026-03-28T14:02:35.999Z</time></trkpt><trkpt lat="40.8491309013671" lon="14.563887717181327"><ele>271.0</ele><time>2026-03-28T14:02:37.999Z</time></trkpt><trkpt lat="40.84919905586481" lon="14.563935685104338"><ele>273.16666666666663</ele><time>2026-03-28T14:02:38.999Z</time></trkpt><trkpt lat="40.849262986947465" lon="14.563984901966416"><ele>275.3333333333333</ele><time>2026-03-28T14:02:39.999Z</time></trkpt><trkpt lat="40.849339850464816" lon="14.564038021743169"><ele>277.5</ele><time>2026-03-28T14:02:40.999Z</time></trkpt><trkpt lat="40.849416060886554" lon="14.564102026171696"><ele>279.6666666666667</ele><time>2026-03-28T14:02:41.999Z</time></trkpt><trkpt lat="40.84948919158496" lon="14.564173882373405"><ele>281.83333333333337</ele><time>2026-03-28T14:02:42.999Z</time></trkpt><trkpt lat="40.84955346035348" lon="14.564265034665233"><ele>284.0</ele><time>2026-03-28T14:02:43.999Z</time></trkpt><trkpt lat="40.84963251507465" lon="14.56437647660605"><ele>284.0</ele><time>2026-03-28T14:02:45.001Z</time></trkpt><trkpt lat="40.84971075549552" lon="14.564500421667375"><ele>284.0</ele><time>2026-03-28T14:02:46.001Z</time></trkpt><trkpt lat="40.84978179992687" lon="14.564583855898551"><ele>284.0</ele><time>2026-03-28T14:02:47.001Z</time></trkpt><trkpt lat="40.84984998177786" lon="14.564670397481958"><ele>284.0</ele><time>2026-03-28T14:02:48.001Z</time></trkpt><trkpt lat="40.8499214496073" lon="14.564767726053475"><ele>284.0</ele><time>2026-03-28T14:02:49.001Z</time></trkpt><trkpt lat="40.84998232916161" lon="14.564878441942438"><ele>282.8</ele><time>2026-03-28T14:02:50.001Z</time></trkpt><trkpt lat="40.85005816620507" lon="14.56500079683299"><ele>281.59999999999997</ele><time>2026-03-28T14:02:51.001Z</time></trkpt><trkpt lat="40.85012444714849" lon="14.565114418712266"><ele>280.4</ele><time>2026-03-28T14:02:52.001Z</time></trkpt><trkpt lat="40.850178209775365" lon="14.565215574722504"><ele>279.2</ele><time>2026-03-28T14:02:53.001Z</time></trkpt><trkpt lat="40.85024915277048" lon="14.565341564201182"><ele>278.0</ele><time>2026-03-28T14:02:54.001Z</time></trkpt><trkpt lat="40.850305186397016" lon="14.565469493725459"><ele>282.2</ele><time>2026-03-28T14:02:55.001Z</time></trkpt><trkpt lat="40.85037032928081" lon="14.565586064802128"><ele>286.4</ele><time>2026-03-28T14:02:56Z</time></trkpt><trkpt lat="40.85042102208482" lon="14.565695275637905"><ele>290.59999999999997</ele><time>2026-03-28T14:02:57.001Z</time></trkpt><trkpt lat="40.850459811955766" lon="14.565831930874634"><ele>294.8</ele><time>2026-03-28T14:02:58.001Z</time></trkpt><trkpt lat="40.85051430312561" lon="14.565967231945622"><ele>299.0</ele><time>2026-03-28T14:02:59Z</time></trkpt><trkpt lat="40.85054809157208" lon="14.566110577137037"><ele>302.0</ele><time>2026-03-28T14:03:00Z</time></trkpt><trkpt lat="40.850575518576676" lon="14.566250445399067"><ele>305.0</ele><time>2026-03-28T14:03:01Z</time></trkpt><trkpt lat="40.850604287347245" lon="14.566403241848276"><ele>308.0</ele><time>2026-03-28T14:03:02Z</time></trkpt><trkpt lat="40.850637486828965" lon="14.56654255060631"><ele>311.0</ele><time>2026-03-28T14:03:03Z</time></trkpt><trkpt lat="40.85066402184913" lon="14.566666410118252"><ele>314.0</ele><time>2026-03-28T14:03:04Z</time></trkpt><trkpt lat="40.85069452075273" lon="14.566804486720219"><ele>314.0</ele><time>2026-03-28T14:03:05Z</time></trkpt><trkpt lat="40.85072493575078" lon="14.566947488523526"><ele>314.0</ele><time>2026-03-28T14:03:06Z</time></trkpt><trkpt lat="40.85075788690738" lon="14.56707951135732"><ele>314.0</ele><time>2026-03-28T14:03:07Z</time></trkpt><trkpt lat="40.85075632269022" lon="14.567221739796393"><ele>314.0</ele><time>2026-03-28T14:03:08Z</time></trkpt><trkpt lat="40.85077065946149" lon="14.567353396314726"><ele>314.0</ele><time>2026-03-28T14:03:09Z</time></trkpt><trkpt lat="40.850808699220316" lon="14.567499681730334"><ele>317.0</ele><time>2026-03-28T14:03:10Z</time></trkpt><trkpt lat="40.850835891308364" lon="14.567622632630842"><ele>320.0</ele><time>2026-03-28T14:03:11Z</time></trkpt><trkpt lat="40.850829166235755" lon="14.567721560540136"><ele>323.0</ele><time>2026-03-28T14:03:12Z</time></trkpt><trkpt lat="40.85080989393838" lon="14.56781757465985"><ele>326.0</ele><time>2026-03-28T14:03:13Z</time></trkpt><trkpt lat="40.850777959966415" lon="14.567921982014512"><ele>329.0</ele><time>2026-03-28T14:03:14Z</time></trkpt><trkpt lat="40.85067832877463" lon="14.568056210618867"><ele>330.0</ele><time>2026-03-28T14:03:16Z</time></trkpt><trkpt lat="40.850625797496846" lon="14.568187692102665"><ele>331.0</ele><time>2026-03-28T14:03:17Z</time></trkpt><trkpt lat="40.85055812838724" lon="14.568329231217371"><ele>332.0</ele><time>2026-03-28T14:03:18Z</time></trkpt><trkpt lat="40.85053268015776" lon="14.568475960672684"><ele>333.0</ele><time>2026-03-28T14:03:19Z</time></trkpt><trkpt lat="40.85051148825894" lon="14.568656194550751"><ele>334.0</ele><time>2026-03-28T14:03:20Z</time></trkpt><trkpt lat="40.85047293302866" lon="14.568855307967368"><ele>335.0</ele><time>2026-03-28T14:03:21Z</time></trkpt><trkpt lat="40.85044121374693" lon="14.569027550601788"><ele>336.0</ele><time>2026-03-28T14:03:22Z</time></trkpt><trkpt lat="40.85041667142719" lon="14.569178809878656"><ele>337.0</ele><time>2026-03-28T14:03:23Z</time></trkpt><trkpt lat="40.850392983278965" lon="14.56931393088433"><ele>337.0</ele><time>2026-03-28T14:03:24Z</time></trkpt><trkpt lat="40.850362194443" lon="14.569449584200722"><ele>337.0</ele><time>2026-03-28T14:03:25Z</time></trkpt><trkpt lat="40.85030799750173" lon="14.569586216565423"><ele>337.0</ele><time>2026-03-28T14:03:26Z</time></trkpt><trkpt lat="40.85026568745397" lon="14.569714272678262"><ele>337.0</ele><time>2026-03-28T14:03:27Z</time></trkpt><trkpt lat="40.85025132486915" lon="14.569819266890773"><ele>337.0</ele><time>2026-03-28T14:03:28Z</time></trkpt><trkpt lat="40.85021150186721" lon="14.56990904700196"><ele>337.5</ele><time>2026-03-28T14:03:29Z</time></trkpt><trkpt lat="40.850158133066465" lon="14.570012955683561"><ele>338.0</ele><time>2026-03-28T14:03:30Z</time></trkpt><trkpt lat="40.85013158459601" lon="14.570105187042113"><ele>338.5</ele><time>2026-03-28T14:03:31Z</time></trkpt><trkpt lat="40.850085309386685" lon="14.570203078048056"><ele>339.0</ele><time>2026-03-28T14:03:32Z</time></trkpt><trkpt lat="40.85003686728924" lon="14.570310661709781"><ele>339.5</ele><time>2026-03-28T14:03:33Z</time></trkpt><trkpt lat="40.85000459263336" lon="14.570406053612015"><ele>340.0</ele><time>2026-03-28T14:03:34Z</time></trkpt><trkpt lat="40.849986034409014" lon="14.570509402440008"><ele>344.3333333333333</ele><time>2026-03-28T14:03:35Z</time></trkpt><trkpt lat="40.84998531962717" lon="14.570626116564057"><ele>348.66666666666663</ele><time>2026-03-28T14:03:36Z</time></trkpt><trkpt lat="40.84996843239766" lon="14.570729893414736"><ele>353.0</ele><time>2026-03-28T14:03:37Z</time></trkpt><trkpt lat="40.849936412096035" lon="14.57082861959829"><ele>357.3333333333333</ele><time>2026-03-28T14:03:38Z</time></trkpt><trkpt lat="40.84989606487608" lon="14.570931707574685"><ele>361.6666666666667</ele><time>2026-03-28T14:03:39Z</time></trkpt><trkpt lat="40.849865370139135" lon="14.571034145592304"><ele>366.0</ele><time>2026-03-28T14:03:40Z</time></trkpt><trkpt lat="40.849823996695356" lon="14.571151442407599"><ele>367.0</ele><time>2026-03-28T14:03:41Z</time></trkpt><trkpt lat="40.849759609237324" lon="14.571253452510735"><ele>368.0</ele><time>2026-03-28T14:03:42Z</time></trkpt><trkpt lat="40.849691168550486" lon="14.571361422974016"><ele>369.0</ele><time>2026-03-28T14:03:43Z</time></trkpt><trkpt lat="40.849631033633564" lon="14.571478750427348"><ele>370.0</ele><time>2026-03-28T14:03:44Z</time></trkpt><trkpt lat="40.84956544416265" lon="14.571599375795314"><ele>371.0</ele><time>2026-03-28T14:03:45Z</time></trkpt><trkpt lat="40.849490937727424" lon="14.571726742338877"><ele>371.0</ele><time>2026-03-28T14:03:46Z</time></trkpt><trkpt lat="40.84940377595748" lon="14.57185115856066"><ele>371.0</ele><time>2026-03-28T14:03:47Z</time></trkpt><trkpt lat="40.849336526260245" lon="14.57196656089328"><ele>371.0</ele><time>2026-03-28T14:03:48Z</time></trkpt><trkpt lat="40.84928345298666" lon="14.572103595129764"><ele>371.0</ele><time>2026-03-28T14:03:49Z</time></trkpt><trkpt lat="40.84925023340879" lon="14.572249731394642"><ele>373.4</ele><time>2026-03-28T14:03:50Z</time></trkpt><trkpt lat="40.849227783145" lon="14.572366908104833"><ele>375.8</ele><time>2026-03-28T14:03:51Z</time></trkpt><trkpt lat="40.84919358510491" lon="14.572476827495032"><ele>378.2</ele><time>2026-03-28T14:03:52Z</time></trkpt><trkpt lat="40.849162131883546" lon="14.572583184299127"><ele>380.59999999999997</ele><time>2026-03-28T14:03:53Z</time></trkpt><trkpt lat="40.84913086372527" lon="14.572699731150845"><ele>383.0</ele><time>2026-03-28T14:03:54Z</time></trkpt><trkpt lat="40.84913073275295" lon="14.572830279475529"><ele>383.2</ele><time>2026-03-28T14:03:55Z</time></trkpt><trkpt lat="40.849133133571584" lon="14.572951571161772"><ele>383.4</ele><time>2026-03-28T14:03:55.999Z</time></trkpt><trkpt lat="40.84911706548691" lon="14.573070928916676"><ele>383.59999999999997</ele><time>2026-03-28T14:03:56.999Z</time></trkpt><trkpt lat="40.849101495415724" lon="14.573201793818681"><ele>383.79999999999995</ele><time>2026-03-28T14:03:57.999Z</time></trkpt><trkpt lat="40.849099805469905" lon="14.573323574445519"><ele>384.0</ele><time>2026-03-28T14:03:58.999Z</time></trkpt><trkpt lat="40.84910420434906" lon="14.573446462487109"><ele>384.0</ele><time>2026-03-28T14:03:59.999Z</time></trkpt><trkpt lat="40.84912277297971" lon="14.573570025622912"><ele>384.0</ele><time>2026-03-28T14:04:00.999Z</time></trkpt><trkpt lat="40.84915594414814" lon="14.573707092719545"><ele>384.0</ele><time>2026-03-28T14:04:01.999Z</time></trkpt><trkpt lat="40.84921241913214" lon="14.573869885917773"><ele>384.0</ele><time>2026-03-28T14:04:02.999Z</time></trkpt><trkpt lat="40.84926559783203" lon="14.574006475164737"><ele>383.5</ele><time>2026-03-28T14:04:03.999Z</time></trkpt><trkpt lat="40.84929800957746" lon="14.574112722977677"><ele>383.0</ele><time>2026-03-28T14:04:04.999Z</time></trkpt><trkpt lat="40.849331083160195" lon="14.57422892955838"><ele>382.5</ele><time>2026-03-28T14:04:06.999Z</time></trkpt><trkpt lat="40.84942723516843" lon="14.574255434992892"><ele>382.0</ele><time>2026-03-28T14:04:56Z</time></trkpt><trkpt lat="40.849368491542194" lon="14.574219485977057"><ele>381.5</ele><time>2026-03-28T14:06:59Z</time></trkpt><trkpt lat="40.849426294003905" lon="14.574317726559359"><ele>381.0</ele><time>2026-03-28T14:08:07.999Z</time></trkpt><trkpt lat="40.849495385759255" lon="14.574390233042086"><ele>381.0</ele><time>2026-03-28T14:08:09.999Z</time></trkpt><trkpt lat="40.8495842650732" lon="14.574423528614437"><ele>381.0</ele><time>2026-03-28T14:08:12.999Z</time></trkpt><trkpt lat="40.84965391884152" lon="14.574433076563855"><ele>381.0</ele><time>2026-03-28T14:08:20.998Z</time></trkpt><trkpt lat="40.84978748594973" lon="14.574439547683488"><ele>381.0</ele><time>2026-03-28T14:08:23.998Z</time></trkpt><trkpt lat="40.84986993002534" lon="14.574440717262286"><ele>381.0</ele><time>2026-03-28T14:08:24.998Z</time></trkpt><trkpt lat="40.84995719214528" lon="14.574465464424915"><ele>381.0</ele><time>2026-03-28T14:08:25.998Z</time></trkpt><trkpt lat="40.85006064112365" lon="14.574479705819828"><ele>381.0</ele><time>2026-03-28T14:08:26.998Z</time></trkpt><trkpt lat="40.85017545185881" lon="14.574479422929047"><ele>381.0</ele><time>2026-03-28T14:08:27.998Z</time></trkpt><trkpt lat="40.85028248480449" lon="14.574478852388792"><ele>381.0</ele><time>2026-03-28T14:08:28.998Z</time></trkpt><trkpt lat="40.850376002243244" lon="14.57446442321146"><ele>381.0</ele><time>2026-03-28T14:08:29.998Z</time></trkpt><trkpt lat="40.850466057453964" lon="14.574458195960386"><ele>381.0</ele><time>2026-03-28T14:08:30.998Z</time></trkpt><trkpt lat="40.85057379998536" lon="14.57445005191631"><ele>381.0</ele><time>2026-03-28T14:08:31.998Z</time></trkpt><trkpt lat="40.85067839900611" lon="14.574462257238444"><ele>381.0</ele><time>2026-03-28T14:08:32.998Z</time></trkpt><trkpt lat="40.85076086468188" lon="14.57448660457283"><ele>381.0</ele><time>2026-03-28T14:08:33.998Z</time></trkpt><trkpt lat="40.85083677391569" lon="14.574476618465818"><ele>381.0</ele><time>2026-03-28T14:08:34.998Z</time></trkpt><trkpt lat="40.85092537415945" lon="14.57444348007046"><ele>380.20000000000005</ele><time>2026-03-28T14:08:35.998Z</time></trkpt><trkpt lat="40.851035535690144" lon="14.574390923695661"><ele>379.40000000000003</ele><time>2026-03-28T14:08:36.998Z</time></trkpt><trkpt lat="40.85113460843679" lon="14.574344043644542"><ele>378.6</ele><time>2026-03-28T14:08:37.998Z</time></trkpt><trkpt lat="40.85122833159372" lon="14.574324655779863"><ele>377.8</ele><time>2026-03-28T14:08:38.998Z</time></trkpt><trkpt lat="40.85132736155556" lon="14.574319721586503"><ele>377.0</ele><time>2026-03-28T14:08:39.998Z</time></trkpt><trkpt lat="40.851402945515545" lon="14.574351184178266"><ele>377.0</ele><time>2026-03-28T14:08:40.998Z</time></trkpt><trkpt lat="40.85148183673619" lon="14.574378704322841"><ele>377.0</ele><time>2026-03-28T14:08:41.998Z</time></trkpt><trkpt lat="40.85157020741787" lon="14.574429272280245"><ele>377.0</ele><time>2026-03-28T14:08:42.998Z</time></trkpt><trkpt lat="40.85166709240197" lon="14.574503065279938"><ele>377.0</ele><time>2026-03-28T14:08:43.998Z</time></trkpt><trkpt lat="40.85174311885853" lon="14.574563154489807"><ele>377.0</ele><time>2026-03-28T14:08:44.998Z</time></trkpt><trkpt lat="40.8518358506319" lon="14.57461777495143"><ele>374.20000000000005</ele><time>2026-03-28T14:08:46.998Z</time></trkpt><trkpt lat="40.85191624876736" lon="14.574726811072233"><ele>371.4</ele><time>2026-03-28T14:08:48.998Z</time></trkpt><trkpt lat="40.851999539169334" lon="14.574828645556716"><ele>368.6</ele><time>2026-03-28T14:08:50.998Z</time></trkpt><trkpt lat="40.85207788155718" lon="14.574908063555599"><ele>365.79999999999995</ele><time>2026-03-28T14:08:52.998Z</time></trkpt><trkpt lat="40.852169082481296" lon="14.574998781105505"><ele>363.0</ele><time>2026-03-28T14:08:54.998Z</time></trkpt><trkpt lat="40.85223378954181" lon="14.575020623848841"><ele>363.0</ele><time>2026-03-28T14:08:55.998Z</time></trkpt><trkpt lat="40.85229577513885" lon="14.575043378186646"><ele>363.0</ele><time>2026-03-28T14:08:56.998Z</time></trkpt><trkpt lat="40.852363662592076" lon="14.575145222123286"><ele>363.0</ele><time>2026-03-28T14:08:58.998Z</time></trkpt><trkpt lat="40.852401582802706" lon="14.57523944774457"><ele>363.0</ele><time>2026-03-28T14:09:01.998Z</time></trkpt><trkpt lat="40.85242123808078" lon="14.575327192505808"><ele>363.0</ele><time>2026-03-28T14:09:04Z</time></trkpt><trkpt lat="40.85247116331102" lon="14.575395468275651"><ele>363.0</ele><time>2026-03-28T14:09:05Z</time></trkpt><trkpt lat="40.85251738316384" lon="14.575506739369317"><ele>366.0</ele><time>2026-03-28T14:09:07Z</time></trkpt><trkpt lat="40.85255645092872" lon="14.575637258012737"><ele>369.0</ele><time>2026-03-28T14:09:09Z</time></trkpt><trkpt lat="40.852586652431825" lon="14.57574378324904"><ele>372.0</ele><time>2026-03-28T14:09:11Z</time></trkpt><trkpt lat="40.85258327638244" lon="14.575835752827507"><ele>375.0</ele><time>2026-03-28T14:09:12Z</time></trkpt><trkpt lat="40.85272985996313" lon="14.576165942905394"><ele>369.0</ele><time>2026-03-28T14:09:16Z</time></trkpt><trkpt lat="40.85275916898055" lon="14.576316485219444"><ele>363.0</ele><time>2026-03-28T14:09:17Z</time></trkpt><trkpt lat="40.852775927987096" lon="14.576431700898095"><ele>357.0</ele><time>2026-03-28T14:09:18Z</time></trkpt><trkpt lat="40.85277840307742" lon="14.57657061918569"><ele>351.0</ele><time>2026-03-28T14:09:19Z</time></trkpt><trkpt lat="40.85276639783257" lon="14.576683619303795"><ele>345.0</ele><time>2026-03-28T14:09:20Z</time></trkpt><trkpt lat="40.85272673778832" lon="14.576814345979486"><ele>345.0</ele><time>2026-03-28T14:09:21Z</time></trkpt><trkpt lat="40.852720390178646" lon="14.576928949361282"><ele>345.0</ele><time>2026-03-28T14:09:22Z</time></trkpt><trkpt lat="40.8527391232825" lon="14.57702571184686"><ele>345.0</ele><time>2026-03-28T14:09:23Z</time></trkpt><trkpt lat="40.852774080027984" lon="14.577111429022544"><ele>345.0</ele><time>2026-03-28T14:09:24Z</time></trkpt><trkpt lat="40.85283103447445" lon="14.577193379541958"><ele>345.0</ele><time>2026-03-28T14:09:25Z</time></trkpt><trkpt lat="40.85290119789322" lon="14.57727887182158"><ele>345.0</ele><time>2026-03-28T14:09:26Z</time></trkpt><trkpt lat="40.852949136716035" lon="14.577344771780893"><ele>348.0</ele><time>2026-03-28T14:09:26.999Z</time></trkpt><trkpt lat="40.85302716762519" lon="14.577470251736955"><ele>351.0</ele><time>2026-03-28T14:09:28.999Z</time></trkpt><trkpt lat="40.8530689863346" lon="14.577559999641597"><ele>354.0</ele><time>2026-03-28T14:09:29.999Z</time></trkpt><trkpt lat="40.853099221783374" lon="14.57765193253762"><ele>357.0</ele><time>2026-03-28T14:09:30.999Z</time></trkpt><trkpt lat="40.85309987035638" lon="14.577750514260009"><ele>360.0</ele><time>2026-03-28T14:09:31.999Z</time></trkpt><trkpt lat="40.853050487659374" lon="14.57786715512653"><ele>364.1666666666667</ele><time>2026-03-28T14:09:32.999Z</time></trkpt><trkpt lat="40.85304033390376" lon="14.577963761081417"><ele>368.33333333333337</ele><time>2026-03-28T14:09:33.999Z</time></trkpt><trkpt lat="40.85302646530856" lon="14.578067852880647"><ele>372.5</ele><time>2026-03-28T14:09:34.999Z</time></trkpt><trkpt lat="40.853033768682806" lon="14.578163639720612"><ele>376.6666666666667</ele><time>2026-03-28T14:09:35.999Z</time></trkpt><trkpt lat="40.85309701592193" lon="14.578216681225218"><ele>380.83333333333337</ele><time>2026-03-28T14:09:36.999Z</time></trkpt><trkpt lat="40.852949366380436" lon="14.578220573825561"><ele>385.0</ele><time>2026-03-28T14:09:37.999Z</time></trkpt><trkpt lat="40.85330077734394" lon="14.57810793279526"><ele>385.0</ele><time>2026-03-28T14:09:39.999Z</time></trkpt><trkpt lat="40.85330038116074" lon="14.57798418311327"><ele>385.0</ele><time>2026-03-28T14:09:40.999Z</time></trkpt><trkpt lat="40.85333241283005" lon="14.577869888694202"><ele>385.0</ele><time>2026-03-28T14:09:41.999Z</time></trkpt><trkpt lat="40.85339564874426" lon="14.577797959598373"><ele>385.0</ele><time>2026-03-28T14:09:42.999Z</time></trkpt><trkpt lat="40.85348287921031" lon="14.577722262041373"><ele>385.0</ele><time>2026-03-28T14:09:43.999Z</time></trkpt><trkpt lat="40.85354574388533" lon="14.577654403570845"><ele>388.33333333333337</ele><time>2026-03-28T14:09:44.999Z</time></trkpt><trkpt lat="40.85358132386492" lon="14.577574242856603"><ele>391.6666666666667</ele><time>2026-03-28T14:09:45.999Z</time></trkpt><trkpt lat="40.85359003849535" lon="14.577485696765692"><ele>395.0</ele><time>2026-03-28T14:09:46.999Z</time></trkpt><trkpt lat="40.85358885811687" lon="14.577387492286162"><ele>398.33333333333337</ele><time>2026-03-28T14:09:47.999Z</time></trkpt><trkpt lat="40.853597365117686" lon="14.57729726483634"><ele>401.6666666666667</ele><time>2026-03-28T14:09:48.999Z</time></trkpt><trkpt lat="40.85361869000712" lon="14.5771795032354"><ele>405.0</ele><time>2026-03-28T14:09:49.999Z</time></trkpt><trkpt lat="40.85362459514634" lon="14.577040283701791"><ele>401.4</ele><time>2026-03-28T14:09:50.999Z</time></trkpt><trkpt lat="40.85365008599478" lon="14.576935458695056"><ele>397.8</ele><time>2026-03-28T14:09:51.999Z</time></trkpt><trkpt lat="40.85369450567581" lon="14.57682544963374"><ele>394.20000000000005</ele><time>2026-03-28T14:09:52.999Z</time></trkpt><trkpt lat="40.85374932005897" lon="14.576701549416072"><ele>390.6</ele><time>2026-03-28T14:09:53.999Z</time></trkpt><trkpt lat="40.85381309850937" lon="14.576586830511303"><ele>387.0</ele><time>2026-03-28T14:09:54.999Z</time></trkpt><trkpt lat="40.85386031026672" lon="14.576512346021328"><ele>387.0</ele><time>2026-03-28T14:09:55.999Z</time></trkpt><trkpt lat="40.8539001634917" lon="14.576439915568802"><ele>387.0</ele><time>2026-03-28T14:09:56.999Z</time></trkpt><trkpt lat="40.853958117491224" lon="14.576337345635693"><ele>387.0</ele><time>2026-03-28T14:09:57.999Z</time></trkpt><trkpt lat="40.85403494658144" lon="14.576234719346072"><ele>387.0</ele><time>2026-03-28T14:09:58.999Z</time></trkpt><trkpt lat="40.85410816071996" lon="14.576140860924287"><ele>387.0</ele><time>2026-03-28T14:09:59.999Z</time></trkpt><trkpt lat="40.85416526668431" lon="14.576063006306985"><ele>387.20000000000005</ele><time>2026-03-28T14:10:00.999Z</time></trkpt><trkpt lat="40.854209132842946" lon="14.57598726049149"><ele>387.4</ele><time>2026-03-28T14:10:01.999Z</time></trkpt><trkpt lat="40.8543236573223" lon="14.575901728464581"><ele>387.6</ele><time>2026-03-28T14:10:03.999Z</time></trkpt><trkpt lat="40.8543895326462" lon="14.575865057866787"><ele>387.79999999999995</ele><time>2026-03-28T14:10:04.999Z</time></trkpt><trkpt lat="40.85449516939521" lon="14.575772129654865"><ele>388.0</ele><time>2026-03-28T14:10:06.999Z</time></trkpt><trkpt lat="40.8545607200877" lon="14.575722538456516"><ele>388.0</ele><time>2026-03-28T14:10:07.999Z</time></trkpt><trkpt lat="40.85467377805931" lon="14.575696160193313"><ele>388.0</ele><time>2026-03-28T14:10:09.999Z</time></trkpt><trkpt lat="40.85474750735638" lon="14.575778521770715"><ele>388.0</ele><time>2026-03-28T14:10:11.999Z</time></trkpt><trkpt lat="40.854787773935094" lon="14.575843862140474"><ele>388.0</ele><time>2026-03-28T14:10:12.999Z</time></trkpt><trkpt lat="40.854870113460045" lon="14.575965164483637"><ele>388.0</ele><time>2026-03-28T14:10:14.999Z</time></trkpt><trkpt lat="40.85493384329201" lon="14.57610844580527"><ele>391.33333333333337</ele><time>2026-03-28T14:10:16.999Z</time></trkpt><trkpt lat="40.85500712985041" lon="14.576206583199095"><ele>394.6666666666667</ele><time>2026-03-28T14:10:17.999Z</time></trkpt><trkpt lat="40.855065042577586" lon="14.5763077401398"><ele>398.0</ele><time>2026-03-28T14:10:18.999Z</time></trkpt><trkpt lat="40.8551338595011" lon="14.576395388441501"><ele>401.33333333333337</ele><time>2026-03-28T14:10:19.999Z</time></trkpt><trkpt lat="40.85520073418138" lon="14.576452599504737"><ele>404.6666666666667</ele><time>2026-03-28T14:10:20.999Z</time></trkpt><trkpt lat="40.85526483304223" lon="14.576484228893715"><ele>408.0</ele><time>2026-03-28T14:10:21.999Z</time></trkpt><trkpt lat="40.85535714289081" lon="14.576409149427496"><ele>408.59999999999997</ele><time>2026-03-28T14:10:23.999Z</time></trkpt><trkpt lat="40.85537870398426" lon="14.576329155338765"><ele>409.2</ele><time>2026-03-28T14:10:24.998Z</time></trkpt><trkpt lat="40.855367287726715" lon="14.57617756713285"><ele>409.8</ele><time>2026-03-28T14:10:26.998Z</time></trkpt><trkpt lat="40.85532818573843" lon="14.57606803460911"><ele>410.4</ele><time>2026-03-28T14:10:27.998Z</time></trkpt><trkpt lat="40.855307527755244" lon="14.575937868535"><ele>411.0</ele><time>2026-03-28T14:10:28.998Z</time></trkpt><trkpt lat="40.85528968503807" lon="14.575818963507436"><ele>411.0</ele><time>2026-03-28T14:10:29.998Z</time></trkpt><trkpt lat="40.85528698595388" lon="14.575637686551588"><ele>411.0</ele><time>2026-03-28T14:10:30.998Z</time></trkpt><trkpt lat="40.855265957731056" lon="14.575426343786177"><ele>411.0</ele><time>2026-03-28T14:10:31.998Z</time></trkpt><trkpt lat="40.85523728265436" lon="14.575193208383155"><ele>410.4</ele><time>2026-03-28T14:10:32.998Z</time></trkpt><trkpt lat="40.85520107437037" lon="14.575010689519988"><ele>409.8</ele><time>2026-03-28T14:10:33.998Z</time></trkpt><trkpt lat="40.85516516000861" lon="14.574865707381123"><ele>409.2</ele><time>2026-03-28T14:10:34.998Z</time></trkpt><trkpt lat="40.855161574594334" lon="14.574760822335541"><ele>408.59999999999997</ele><time>2026-03-28T14:10:35.998Z</time></trkpt><trkpt lat="40.85513700681572" lon="14.574646800077842"><ele>408.0</ele><time>2026-03-28T14:10:36.998Z</time></trkpt><trkpt lat="40.85511670120166" lon="14.574530359333533"><ele>407.0</ele><time>2026-03-28T14:10:37.998Z</time></trkpt><trkpt lat="40.85511984659436" lon="14.574415624306438"><ele>406.0</ele><time>2026-03-28T14:10:38.998Z</time></trkpt><trkpt lat="40.85513421526042" lon="14.574285992045724"><ele>405.0</ele><time>2026-03-28T14:10:39.998Z</time></trkpt><trkpt lat="40.85515997773117" lon="14.574163918143988"><ele>404.0</ele><time>2026-03-28T14:10:40.998Z</time></trkpt><trkpt lat="40.855183063762574" lon="14.574051402896448"><ele>403.0</ele><time>2026-03-28T14:10:41.998Z</time></trkpt><trkpt lat="40.85523174460628" lon="14.573932336271746"><ele>403.0</ele><time>2026-03-28T14:10:42.998Z</time></trkpt><trkpt lat="40.85527638015216" lon="14.573802276839832"><ele>403.0</ele><time>2026-03-28T14:10:43.998Z</time></trkpt><trkpt lat="40.85533445773738" lon="14.573667298925658"><ele>403.0</ele><time>2026-03-28T14:10:44.998Z</time></trkpt><trkpt lat="40.85539637437997" lon="14.573523232624108"><ele>403.0</ele><time>2026-03-28T14:10:45.998Z</time></trkpt><trkpt lat="40.85547389534594" lon="14.573351648948508"><ele>400.0</ele><time>2026-03-28T14:10:46.998Z</time></trkpt><trkpt lat="40.855571621820935" lon="14.573176756267673"><ele>397.0</ele><time>2026-03-28T14:10:47.998Z</time></trkpt><trkpt lat="40.85568603445154" lon="14.572981863790252"><ele>394.0</ele><time>2026-03-28T14:10:48.998Z</time></trkpt><trkpt lat="40.855781614720335" lon="14.572818633278237"><ele>394.75</ele><time>2026-03-28T14:10:49.998Z</time></trkpt><trkpt lat="40.85586907042828" lon="14.57266871205278"><ele>395.5</ele><time>2026-03-28T14:10:50.998Z</time></trkpt><trkpt lat="40.85595242493349" lon="14.57253180349819"><ele>396.25</ele><time>2026-03-28T14:10:51.998Z</time></trkpt><trkpt lat="40.856064976020996" lon="14.572425851758325"><ele>397.0</ele><time>2026-03-28T14:10:52.998Z</time></trkpt><trkpt lat="40.856151848010676" lon="14.572313444441866"><ele>397.0</ele><time>2026-03-28T14:10:53.998Z</time></trkpt><trkpt lat="40.85623084468757" lon="14.572178498691217"><ele>397.0</ele><time>2026-03-28T14:10:54.998Z</time></trkpt><trkpt lat="40.85630309866902" lon="14.572007835492137"><ele>397.0</ele><time>2026-03-28T14:10:55.998Z</time></trkpt><trkpt lat="40.85641127920269" lon="14.571860031927017"><ele>397.0</ele><time>2026-03-28T14:10:56.998Z</time></trkpt><trkpt lat="40.85650567393721" lon="14.571716327183006"><ele>394.8</ele><time>2026-03-28T14:10:57.998Z</time></trkpt><trkpt lat="40.85659481176637" lon="14.571602968584507"><ele>392.6</ele><time>2026-03-28T14:10:58.998Z</time></trkpt><trkpt lat="40.85669481366447" lon="14.571524604425429"><ele>390.40000000000003</ele><time>2026-03-28T14:10:59.998Z</time></trkpt><trkpt lat="40.85676616537206" lon="14.57143616590337"><ele>388.20000000000005</ele><time>2026-03-28T14:11:00.998Z</time></trkpt><trkpt lat="40.85682661930897" lon="14.571372578078108"><ele>386.0</ele><time>2026-03-28T14:11:01.998Z</time></trkpt><trkpt lat="40.85690886333758" lon="14.571345451494377"><ele>386.0</ele><time>2026-03-28T14:11:03.998Z</time></trkpt><trkpt lat="40.85699047637937" lon="14.57136892651316"><ele>386.0</ele><time>2026-03-28T14:11:04.998Z</time></trkpt><trkpt lat="40.85707378098019" lon="14.571374859220635"><ele>386.0</ele><time>2026-03-28T14:11:05.998Z</time></trkpt><trkpt lat="40.85717235637218" lon="14.57143127758569"><ele>386.0</ele><time>2026-03-28T14:11:06.998Z</time></trkpt><trkpt lat="40.85725663907764" lon="14.57144011033401"><ele>386.0</ele><time>2026-03-28T14:11:07.998Z</time></trkpt><trkpt lat="40.8573636330432" lon="14.571427090218606"><ele>386.00000000000006</ele><time>2026-03-28T14:11:10Z</time></trkpt><trkpt lat="40.85741267915085" lon="14.571363535830494"><ele>386.0</ele><time>2026-03-28T14:11:12Z</time></trkpt><trkpt lat="40.857364508441435" lon="14.571263406559975"><ele>386.0</ele><time>2026-03-28T14:11:13Z</time></trkpt><trkpt lat="40.8573207380329" lon="14.571201384690536"><ele>386.0</ele><time>2026-03-28T14:11:14Z</time></trkpt><trkpt lat="40.857302331340996" lon="14.571107885475953"><ele>386.0</ele><time>2026-03-28T14:11:15Z</time></trkpt><trkpt lat="40.85729811924826" lon="14.57102022806263"><ele>386.00000000000006</ele><time>2026-03-28T14:11:16Z</time></trkpt><trkpt lat="40.85731393437526" lon="14.570909895613557"><ele>386.0</ele><time>2026-03-28T14:11:17Z</time></trkpt><trkpt lat="40.85734922355303" lon="14.570800751025164"><ele>384.4</ele><time>2026-03-28T14:11:18Z</time></trkpt><trkpt lat="40.857388391171376" lon="14.570704963110915"><ele>382.8</ele><time>2026-03-28T14:11:20Z</time></trkpt><trkpt lat="40.85745117123347" lon="14.570553469269004"><ele>381.2</ele><time>2026-03-28T14:11:39.999Z</time></trkpt><trkpt lat="40.857481894505064" lon="14.570432460301948"><ele>379.59999999999997</ele><time>2026-03-28T14:11:40.999Z</time></trkpt><trkpt lat="40.85749541610325" lon="14.570297391172646"><ele>378.0</ele><time>2026-03-28T14:11:41.999Z</time></trkpt><trkpt lat="40.85751369677626" lon="14.570130283081916"><ele>376.3333333333333</ele><time>2026-03-28T14:11:42.999Z</time></trkpt><trkpt lat="40.85752740211219" lon="14.569952248246743"><ele>374.66666666666663</ele><time>2026-03-28T14:11:43.999Z</time></trkpt><trkpt lat="40.857564699524964" lon="14.569746186491786"><ele>373.0</ele><time>2026-03-28T14:11:44.999Z</time></trkpt><trkpt lat="40.85759658306955" lon="14.569517792767389"><ele>373.4</ele><time>2026-03-28T14:11:45.999Z</time></trkpt><trkpt lat="40.857620623494604" lon="14.569335733843415"><ele>373.79999999999995</ele><time>2026-03-28T14:11:46.999Z</time></trkpt><trkpt lat="40.85764314278083" lon="14.569186770176179"><ele>374.2</ele><time>2026-03-28T14:11:47.999Z</time></trkpt><trkpt lat="40.857662752099976" lon="14.569059474129569"><ele>374.6</ele><time>2026-03-28T14:11:48.999Z</time></trkpt><trkpt lat="40.857664321358826" lon="14.568942799733827"><ele>375.0</ele><time>2026-03-28T14:11:49.999Z</time></trkpt><trkpt lat="40.85767121923548" lon="14.568822322656638"><ele>372.0</ele><time>2026-03-28T14:11:50.999Z</time></trkpt><trkpt lat="40.85767010680313" lon="14.568691335157316"><ele>369.0</ele><time>2026-03-28T14:11:51.999Z</time></trkpt><trkpt lat="40.857662592735075" lon="14.56857354768069"><ele>366.0</ele><time>2026-03-28T14:11:52.999Z</time></trkpt><trkpt lat="40.857649195110156" lon="14.568471624517338"><ele>363.0</ele><time>2026-03-28T14:11:53.999Z</time></trkpt><trkpt lat="40.857638326243475" lon="14.568386241677842"><ele>360.0</ele><time>2026-03-28T14:11:54.999Z</time></trkpt><trkpt lat="40.85762704163139" lon="14.568281930505975"><ele>357.0</ele><time>2026-03-28T14:11:56.999Z</time></trkpt><trkpt lat="40.85784796189715" lon="14.568225589196553"><ele>357.0</ele><time>2026-03-28T14:11:59.999Z</time></trkpt><trkpt lat="40.85793742845357" lon="14.568236505162094"><ele>357.0</ele><time>2026-03-28T14:12:00.999Z</time></trkpt><trkpt lat="40.85800364392593" lon="14.568305384275304"><ele>357.0</ele><time>2026-03-28T14:12:01.999Z</time></trkpt><trkpt lat="40.85805736770886" lon="14.568427091730399"><ele>357.0</ele><time>2026-03-28T14:12:02.999Z</time></trkpt><trkpt lat="40.858135087383275" lon="14.568538270404833"><ele>357.0</ele><time>2026-03-28T14:12:03.999Z</time></trkpt><trkpt lat="40.858207069386985" lon="14.56860754440752"><ele>357.0</ele><time>2026-03-28T14:12:04.999Z</time></trkpt><trkpt lat="40.858304736309265" lon="14.56863532934943"><ele>357.0</ele><time>2026-03-28T14:12:05.999Z</time></trkpt><trkpt lat="40.858402963789395" lon="14.56865534997293"><ele>357.0</ele><time>2026-03-28T14:12:06.999Z</time></trkpt><trkpt lat="40.858518620226725" lon="14.568640220176112"><ele>357.0</ele><time>2026-03-28T14:12:07.999Z</time></trkpt><trkpt lat="40.85862136018374" lon="14.568623544579296"><ele>357.0</ele><time>2026-03-28T14:12:08.999Z</time></trkpt><trkpt lat="40.8587215018193" lon="14.568636075480986"><ele>357.75</ele><time>2026-03-28T14:12:09.999Z</time></trkpt><trkpt lat="40.85883805034964" lon="14.568681984623417"><ele>358.5</ele><time>2026-03-28T14:12:10.999Z</time></trkpt><trkpt lat="40.858944582618484" lon="14.568728849534498"><ele>359.25</ele><time>2026-03-28T14:12:11.999Z</time></trkpt><trkpt lat="40.85904244179944" lon="14.568791077772287"><ele>360.0</ele><time>2026-03-28T14:12:12.999Z</time></trkpt><trkpt lat="40.859134364896505" lon="14.568892676609543"><ele>361.25</ele><time>2026-03-28T14:12:13.999Z</time></trkpt><trkpt lat="40.85924411042839" lon="14.569009173365801"><ele>362.5</ele><time>2026-03-28T14:12:14.999Z</time></trkpt><trkpt lat="40.85933171044184" lon="14.569154259654969"><ele>363.75</ele><time>2026-03-28T14:12:15.999Z</time></trkpt><trkpt lat="40.85941408558441" lon="14.569269685034984"><ele>365.0</ele><time>2026-03-28T14:12:16.999Z</time></trkpt><trkpt lat="40.85948168578018" lon="14.569393131535383"><ele>369.5</ele><time>2026-03-28T14:12:17.999Z</time></trkpt><trkpt lat="40.85952055578505" lon="14.569532225644421"><ele>374.0</ele><time>2026-03-28T14:12:18.999Z</time></trkpt><trkpt lat="40.859551399186635" lon="14.569695996051546"><ele>378.5</ele><time>2026-03-28T14:12:19.999Z</time></trkpt><trkpt lat="40.85958153100203" lon="14.569852434673377"><ele>383.0</ele><time>2026-03-28T14:12:20.999Z</time></trkpt><trkpt lat="40.85962685445563" lon="14.569982691209637"><ele>383.0</ele><time>2026-03-28T14:12:21.999Z</time></trkpt><trkpt lat="40.8596956684295" lon="14.570101016867737"><ele>383.0</ele><time>2026-03-28T14:12:22.999Z</time></trkpt><trkpt lat="40.85975119488145" lon="14.570204119114697"><ele>383.0</ele><time>2026-03-28T14:12:23.999Z</time></trkpt><trkpt lat="40.85982490667048" lon="14.57029109705466"><ele>383.0</ele><time>2026-03-28T14:12:24.999Z</time></trkpt><trkpt lat="40.859869178686345" lon="14.570409106243584"><ele>383.0</ele><time>2026-03-28T14:12:25.999Z</time></trkpt><trkpt lat="40.85989085872639" lon="14.570537269191044"><ele>387.25</ele><time>2026-03-28T14:12:26.999Z</time></trkpt><trkpt lat="40.85991433505297" lon="14.570684988349509"><ele>391.5</ele><time>2026-03-28T14:12:27.999Z</time></trkpt><trkpt lat="40.859941086643765" lon="14.570827505861027"><ele>395.75</ele><time>2026-03-28T14:12:28.999Z</time></trkpt><trkpt lat="40.85997919297515" lon="14.570979992923604"><ele>400.0</ele><time>2026-03-28T14:12:29.999Z</time></trkpt><trkpt lat="40.86002421247928" lon="14.571140782110128"><ele>398.25</ele><time>2026-03-28T14:12:30.999Z</time></trkpt><trkpt lat="40.86006534877112" lon="14.5713017212732"><ele>396.5</ele><time>2026-03-28T14:12:31.999Z</time></trkpt><trkpt lat="40.86009118123282" lon="14.57144189443051"><ele>394.75</ele><time>2026-03-28T14:12:32.999Z</time></trkpt><trkpt lat="40.860118659385755" lon="14.571579578048063"><ele>393.0</ele><time>2026-03-28T14:12:33.999Z</time></trkpt><trkpt lat="40.86016481549977" lon="14.571743372595769"><ele>393.0</ele><time>2026-03-28T14:12:34.999Z</time></trkpt><trkpt lat="40.860204972367995" lon="14.57189037149249"><ele>393.0</ele><time>2026-03-28T14:12:35.999Z</time></trkpt><trkpt lat="40.86021290773761" lon="14.571989630419091"><ele>393.0</ele><time>2026-03-28T14:12:36.999Z</time></trkpt><trkpt lat="40.86021948605343" lon="14.572116135714642"><ele>393.0</ele><time>2026-03-28T14:12:37.998Z</time></trkpt><trkpt lat="40.86021269934593" lon="14.572253598358436"><ele>393.0</ele><time>2026-03-28T14:12:38.998Z</time></trkpt><trkpt lat="40.86017501729733" lon="14.572385731587628"><ele>394.0</ele><time>2026-03-28T14:12:39.998Z</time></trkpt><trkpt lat="40.860129039683756" lon="14.572514937432032"><ele>395.0</ele><time>2026-03-28T14:12:40.998Z</time></trkpt><trkpt lat="40.86005049399703" lon="14.572622073403146"><ele>396.0</ele><time>2026-03-28T14:12:41.998Z</time></trkpt><trkpt lat="40.859992736060434" lon="14.572743577537686"><ele>397.0</ele><time>2026-03-28T14:12:42.998Z</time></trkpt><trkpt lat="40.85993655012671" lon="14.572864087588917"><ele>398.0</ele><time>2026-03-28T14:12:43.998Z</time></trkpt><trkpt lat="40.85987931943443" lon="14.57297603751568"><ele>401.79999999999995</ele><time>2026-03-28T14:12:44.998Z</time></trkpt><trkpt lat="40.85981077142835" lon="14.57308720452804"><ele>405.6</ele><time>2026-03-28T14:12:45.998Z</time></trkpt><trkpt lat="40.85975648789774" lon="14.573181327429625"><ele>409.4</ele><time>2026-03-28T14:12:46.998Z</time></trkpt><trkpt lat="40.85971044696453" lon="14.573301191857453"><ele>413.20000000000005</ele><time>2026-03-28T14:12:47.998Z</time></trkpt><trkpt lat="40.859643323774904" lon="14.573438731594305"><ele>417.0</ele><time>2026-03-28T14:12:48.998Z</time></trkpt><trkpt lat="40.859599567668724" lon="14.573570758426213"><ele>416.25</ele><time>2026-03-28T14:12:49.998Z</time></trkpt><trkpt lat="40.85957765263485" lon="14.573727317105844"><ele>415.5</ele><time>2026-03-28T14:12:50.998Z</time></trkpt><trkpt lat="40.85952773035181" lon="14.573868812469522"><ele>414.75</ele><time>2026-03-28T14:12:51.998Z</time></trkpt><trkpt lat="40.859504250156874" lon="14.574015547143235"><ele>414.0</ele><time>2026-03-28T14:12:52.998Z</time></trkpt><trkpt lat="40.859472067875345" lon="14.574170878610373"><ele>414.0</ele><time>2026-03-28T14:12:53.998Z</time></trkpt><trkpt lat="40.859438216657246" lon="14.574289419740346"><ele>414.0</ele><time>2026-03-28T14:12:54.998Z</time></trkpt><trkpt lat="40.85936114341378" lon="14.574392911966887"><ele>414.0</ele><time>2026-03-28T14:12:55.998Z</time></trkpt><trkpt lat="40.859310338032095" lon="14.57449380539477"><ele>414.0</ele><time>2026-03-28T14:12:56.998Z</time></trkpt><trkpt lat="40.85934286239015" lon="14.574668984739144"><ele>414.0</ele><time>2026-03-28T14:12:57.998Z</time></trkpt><trkpt lat="40.85930284508851" lon="14.574802991268243"><ele>417.0</ele><time>2026-03-28T14:12:58.998Z</time></trkpt><trkpt lat="40.859270479071064" lon="14.574931067848222"><ele>420.0</ele><time>2026-03-28T14:12:59.998Z</time></trkpt><trkpt lat="40.859230812994056" lon="14.575073453287809"><ele>423.0</ele><time>2026-03-28T14:13:00.998Z</time></trkpt><trkpt lat="40.85918486090856" lon="14.575205806599493"><ele>426.0</ele><time>2026-03-28T14:13:01.998Z</time></trkpt><trkpt lat="40.85913881460869" lon="14.575341937123103"><ele>429.0</ele><time>2026-03-28T14:13:02.998Z</time></trkpt><trkpt lat="40.85909061798826" lon="14.575484430312473"><ele>429.0</ele><time>2026-03-28T14:13:03.998Z</time></trkpt><trkpt lat="40.85905400118629" lon="14.575622525848969"><ele>429.0</ele><time>2026-03-28T14:13:04.998Z</time></trkpt><trkpt lat="40.85901769975993" lon="14.575749667592808"><ele>429.0</ele><time>2026-03-28T14:13:05.998Z</time></trkpt><trkpt lat="40.85898165983764" lon="14.575871573713"><ele>429.0</ele><time>2026-03-28T14:13:06.998Z</time></trkpt><trkpt lat="40.858948267503" lon="14.575985875118608"><ele>429.0</ele><time>2026-03-28T14:13:07.998Z</time></trkpt><trkpt lat="40.85893757334823" lon="14.576098205761825"><ele>430.1666666666667</ele><time>2026-03-28T14:13:08.998Z</time></trkpt><trkpt lat="40.85895301630123" lon="14.576216525054798"><ele>431.33333333333337</ele><time>2026-03-28T14:13:09.998Z</time></trkpt><trkpt lat="40.858977730737564" lon="14.57634333819659"><ele>432.5</ele><time>2026-03-28T14:13:10.998Z</time></trkpt><trkpt lat="40.859001350595044" lon="14.576451561861116"><ele>433.6666666666667</ele><time>2026-03-28T14:13:11.998Z</time></trkpt><trkpt lat="40.85901567570033" lon="14.576538808686307"><ele>434.83333333333337</ele><time>2026-03-28T14:13:12.998Z</time></trkpt><trkpt lat="40.85898264595797" lon="14.576636760299932"><ele>436.0</ele><time>2026-03-28T14:13:13.998Z</time></trkpt><trkpt lat="40.858951198322806" lon="14.576733930332932"><ele>436.0</ele><time>2026-03-28T14:13:15Z</time></trkpt><trkpt lat="40.858937025381394" lon="14.576881190285706"><ele>436.0</ele><time>2026-03-28T14:13:17Z</time></trkpt><trkpt lat="40.85890487140658" lon="14.577032650140248"><ele>436.0</ele><time>2026-03-28T14:13:19Z</time></trkpt><trkpt lat="40.85888275087318" lon="14.577136021910327"><ele>436.0</ele><time>2026-03-28T14:13:19.999Z</time></trkpt><trkpt lat="40.85887105814303" lon="14.577243224018092"><ele>436.0</ele><time>2026-03-28T14:13:20.999Z</time></trkpt><trkpt lat="40.85885538272891" lon="14.577328595787547"><ele>438.4</ele><time>2026-03-28T14:13:21.999Z</time></trkpt><trkpt lat="40.85895165173554" lon="14.57735220201695"><ele>440.8</ele><time>2026-03-28T14:13:24.999Z</time></trkpt><trkpt lat="40.85902430882353" lon="14.577380811780502"><ele>443.19999999999993</ele><time>2026-03-28T14:13:25.999Z</time></trkpt><trkpt lat="40.85909403976671" lon="14.577461568625878"><ele>445.59999999999997</ele><time>2026-03-28T14:13:26.999Z</time></trkpt><trkpt lat="40.859152792851965" lon="14.577535363264227"><ele>448.0</ele><time>2026-03-28T14:13:28Z</time></trkpt><trkpt lat="40.85916859840431" lon="14.577720701748124"><ele>448.0</ele><time>2026-03-28T14:13:30Z</time></trkpt><trkpt lat="40.85917060138661" lon="14.577840791128441"><ele>447.99999999999994</ele><time>2026-03-28T14:13:31Z</time></trkpt><trkpt lat="40.85921118472138" lon="14.577957244456934"><ele>447.99999999999994</ele><time>2026-03-28T14:13:33Z</time></trkpt><trkpt lat="40.859314125299875" lon="14.578016572133494"><ele>448.0</ele><time>2026-03-28T14:13:35Z</time></trkpt><trkpt lat="40.85938740946174" lon="14.577983991285489"><ele>448.0</ele><time>2026-03-28T14:13:36Z</time></trkpt><trkpt lat="40.85946031393605" lon="14.577932382512476"><ele>448.50000000000006</ele><time>2026-03-28T14:13:37Z</time></trkpt><trkpt lat="40.859529162902234" lon="14.578020383631847"><ele>449.0</ele><time>2026-03-28T14:13:39Z</time></trkpt><trkpt lat="40.85955468309683" lon="14.578115756344912"><ele>449.5</ele><time>2026-03-28T14:13:40Z</time></trkpt><trkpt lat="40.85955634673548" lon="14.578218252649004"><ele>450.0</ele><time>2026-03-28T14:13:40.999Z</time></trkpt><trkpt lat="40.85953577638966" lon="14.57831416481634"><ele>450.50000000000006</ele><time>2026-03-28T14:13:41.999Z</time></trkpt><trkpt lat="40.85952082777549" lon="14.578410535588368"><ele>451.0</ele><time>2026-03-28T14:13:42.999Z</time></trkpt><trkpt lat="40.859597287927514" lon="14.578462798425967"><ele>451.0</ele><time>2026-03-28T14:13:44.999Z</time></trkpt><trkpt lat="40.859682413704036" lon="14.578433046063521"><ele>451.0</ele><time>2026-03-28T14:13:45.999Z</time></trkpt><trkpt lat="40.859764897219875" lon="14.578414705857597"><ele>451.0</ele><time>2026-03-28T14:13:46.999Z</time></trkpt><trkpt lat="40.85983010437483" lon="14.578569143291329"><ele>451.0</ele><time>2026-03-28T14:13:48.999Z</time></trkpt><trkpt lat="40.85986195325246" lon="14.578675976612205"><ele>451.0</ele><time>2026-03-28T14:13:49.999Z</time></trkpt><trkpt lat="40.85988203395018" lon="14.57877124616809"><ele>452.8</ele><time>2026-03-28T14:13:50.999Z</time></trkpt><trkpt lat="40.860000861481424" lon="14.578801216043042"><ele>454.6</ele><time>2026-03-28T14:13:52.999Z</time></trkpt><trkpt lat="40.8600842480455" lon="14.578745134246276"><ele>456.4</ele><time>2026-03-28T14:13:53.999Z</time></trkpt><trkpt lat="40.860192793510265" lon="14.578642377721069"><ele>458.2</ele><time>2026-03-28T14:13:54.999Z</time></trkpt><trkpt lat="40.860263021154495" lon="14.578600633267392"><ele>460.0</ele><time>2026-03-28T14:13:55.999Z</time></trkpt><trkpt lat="40.86033543230102" lon="14.578576049545473"><ele>460.0</ele><time>2026-03-28T14:13:56.999Z</time></trkpt><trkpt lat="40.86038879254823" lon="14.578413509042086"><ele>460.0</ele><time>2026-03-28T14:13:58.999Z</time></trkpt><trkpt lat="40.86042686706353" lon="14.578331873391893"><ele>460.0</ele><time>2026-03-28T14:13:59.999Z</time></trkpt><trkpt lat="40.86048693398137" lon="14.578283856840072"><ele>460.0</ele><time>2026-03-28T14:14:00.999Z</time></trkpt><trkpt lat="40.86059141877723" lon="14.578256544923383"><ele>460.0</ele><time>2026-03-28T14:14:01.999Z</time></trkpt><trkpt lat="40.86068244206355" lon="14.578214470559184"><ele>460.0</ele><time>2026-03-28T14:14:02.999Z</time></trkpt><trkpt lat="40.86077240689998" lon="14.578168179125731"><ele>460.0</ele><time>2026-03-28T14:14:03.999Z</time></trkpt><trkpt lat="40.86087349801336" lon="14.578112123388044"><ele>460.0</ele><time>2026-03-28T14:14:04.999Z</time></trkpt><trkpt lat="40.86095897802441" lon="14.578078407118541"><ele>460.0</ele><time>2026-03-28T14:14:05.999Z</time></trkpt><trkpt lat="40.86102703017459" lon="14.57808267863198"><ele>460.0</ele><time>2026-03-28T14:14:06.999Z</time></trkpt><trkpt lat="40.86111202665779" lon="14.578124509719903"><ele>459.6666666666667</ele><time>2026-03-28T14:14:07.999Z</time></trkpt><trkpt lat="40.86118171435465" lon="14.578188667729512"><ele>459.33333333333337</ele><time>2026-03-28T14:14:08.999Z</time></trkpt><trkpt lat="40.86125464805675" lon="14.578218584731102"><ele>459.0</ele><time>2026-03-28T14:14:09.999Z</time></trkpt><trkpt lat="40.86131351018468" lon="14.578176558074066"><ele>458.66666666666663</ele><time>2026-03-28T14:14:10.999Z</time></trkpt><trkpt lat="40.86136165056909" lon="14.578082443178513"><ele>458.3333333333333</ele><time>2026-03-28T14:14:11.999Z</time></trkpt><trkpt lat="40.86140193946714" lon="14.57795144978298"><ele>458.0</ele><time>2026-03-28T14:14:12.999Z</time></trkpt><trkpt lat="40.86147641966366" lon="14.577850617899726"><ele>457.99999999999994</ele><time>2026-03-28T14:14:14.999Z</time></trkpt><trkpt lat="40.861575798102855" lon="14.57789958600719"><ele>458.0</ele><time>2026-03-28T14:14:16.999Z</time></trkpt><trkpt lat="40.86160360774079" lon="14.578063798609119"><ele>458.0</ele><time>2026-03-28T14:14:18.999Z</time></trkpt><trkpt lat="40.86155590079194" lon="14.578119752493835"><ele>458.0</ele><time>2026-03-28T14:14:19.999Z</time></trkpt><trkpt lat="40.86150530898757" lon="14.578181419461629"><ele>457.99999999999994</ele><time>2026-03-28T14:14:20.999Z</time></trkpt><trkpt lat="40.86148709524434" lon="14.578271372318893"><ele>458.0</ele><time>2026-03-28T14:14:21.999Z</time></trkpt><trkpt lat="40.8614381114092" lon="14.578441441488115"><ele>458.0</ele><time>2026-03-28T14:14:23.999Z</time></trkpt><trkpt lat="40.861377176293345" lon="14.57855573848356"><ele>457.99999999999994</ele><time>2026-03-28T14:14:24.999Z</time></trkpt><trkpt lat="40.86130391856366" lon="14.578689419188317"><ele>457.99999999999994</ele><time>2026-03-28T14:14:25.999Z</time></trkpt><trkpt lat="40.8612653885375" lon="14.578800925381115"><ele>458.0</ele><time>2026-03-28T14:14:26.999Z</time></trkpt><trkpt lat="40.86124018136773" lon="14.578916025410626"><ele>458.0</ele><time>2026-03-28T14:14:27.999Z</time></trkpt><trkpt lat="40.86122835000359" lon="14.579026098492346"><ele>458.16666666666663</ele><time>2026-03-28T14:14:28.999Z</time></trkpt><trkpt lat="40.86121731930813" lon="14.579125768685543"><ele>458.3333333333333</ele><time>2026-03-28T14:14:29.999Z</time></trkpt><trkpt lat="40.86119196846711" lon="14.579236482941358"><ele>458.5</ele><time>2026-03-28T14:14:30.999Z</time></trkpt><trkpt lat="40.86115378440904" lon="14.579320403687799"><ele>458.66666666666663</ele><time>2026-03-28T14:14:31.999Z</time></trkpt><trkpt lat="40.86110933593659" lon="14.579417987973995"><ele>458.8333333333333</ele><time>2026-03-28T14:14:32.999Z</time></trkpt><trkpt lat="40.86106402149954" lon="14.579514777504905"><ele>459.0</ele><time>2026-03-28T14:14:33.999Z</time></trkpt><trkpt lat="40.86102123009859" lon="14.579618253317138"><ele>459.0</ele><time>2026-03-28T14:14:34.999Z</time></trkpt><trkpt lat="40.86097836265087" lon="14.579731776000145"><ele>459.0</ele><time>2026-03-28T14:14:35.999Z</time></trkpt><trkpt lat="40.86093681700913" lon="14.579840936937813"><ele>459.0</ele><time>2026-03-28T14:14:36.999Z</time></trkpt><trkpt lat="40.86089395312623" lon="14.579974382525304"><ele>459.0</ele><time>2026-03-28T14:14:37.999Z</time></trkpt><trkpt lat="40.86085450484771" lon="14.580081516221071"><ele>459.0</ele><time>2026-03-28T14:14:38.999Z</time></trkpt><trkpt lat="40.860840056701576" lon="14.580184758614534"><ele>462.5</ele><time>2026-03-28T14:14:39.999Z</time></trkpt><trkpt lat="40.86085802258966" lon="14.580322212951918"><ele>466.0</ele><time>2026-03-28T14:14:41.999Z</time></trkpt><trkpt lat="40.860893013887306" lon="14.580404674293362"><ele>469.5</ele><time>2026-03-28T14:14:42.999Z</time></trkpt><trkpt lat="40.86089424846255" lon="14.58051421306408"><ele>473.0</ele><time>2026-03-28T14:14:43.999Z</time></trkpt><trkpt lat="40.860900113486785" lon="14.580615330499201"><ele>476.5</ele><time>2026-03-28T14:14:44.999Z</time></trkpt><trkpt lat="40.86088375420804" lon="14.58074108704543"><ele>480.0</ele><time>2026-03-28T14:14:46.999Z</time></trkpt><trkpt lat="40.860790965663455" lon="14.580748739649511"><ele>482.8</ele><time>2026-03-28T14:14:49.998Z</time></trkpt><trkpt lat="40.8607044471151" lon="14.580731745420788"><ele>485.6</ele><time>2026-03-28T14:14:51.998Z</time></trkpt><trkpt lat="40.86063049068928" lon="14.580720467385598"><ele>488.4</ele><time>2026-03-28T14:14:52.998Z</time></trkpt><trkpt lat="40.86050099771165" lon="14.580742093805169"><ele>491.2</ele><time>2026-03-28T14:14:54.998Z</time></trkpt><trkpt lat="40.860435818763825" lon="14.580784326963876"><ele>494.0</ele><time>2026-03-28T14:14:55.998Z</time></trkpt><trkpt lat="40.860353474127855" lon="14.580882070535582"><ele>493.99999999999994</ele><time>2026-03-28T14:14:57.998Z</time></trkpt><trkpt lat="40.86032092906099" lon="14.580967605313715"><ele>494.0</ele><time>2026-03-28T14:14:58.998Z</time></trkpt><trkpt lat="40.860296587545605" lon="14.581070135971652"><ele>494.0</ele><time>2026-03-28T14:14:59.998Z</time></trkpt><trkpt lat="40.860349781424915" lon="14.5811354577672"><ele>494.0</ele><time>2026-03-28T14:15:00.998Z</time></trkpt><trkpt lat="40.860420432064586" lon="14.58116671617498"><ele>493.99999999999994</ele><time>2026-03-28T14:15:01.998Z</time></trkpt><trkpt lat="40.860484903689525" lon="14.581175045045747"><ele>494.0</ele><time>2026-03-28T14:15:02.998Z</time></trkpt><trkpt lat="40.860604954819955" lon="14.581253544361232"><ele>497.8333333333333</ele><time>2026-03-28T14:15:04.998Z</time></trkpt><trkpt lat="40.86066766896765" lon="14.581329021030957"><ele>501.66666666666663</ele><time>2026-03-28T14:15:05.998Z</time></trkpt><trkpt lat="40.860724277907416" lon="14.581408092670179"><ele>505.5</ele><time>2026-03-28T14:15:06.998Z</time></trkpt><trkpt lat="40.86079071547811" lon="14.581493608191629"><ele>509.33333333333337</ele><time>2026-03-28T14:15:07.998Z</time></trkpt><trkpt lat="40.86085495105809" lon="14.58155737861899"><ele>513.1666666666667</ele><time>2026-03-28T14:15:08.998Z</time></trkpt><trkpt lat="40.860906259248" lon="14.581633982415328"><ele>517.0</ele><time>2026-03-28T14:15:09.998Z</time></trkpt><trkpt lat="40.86094602754097" lon="14.581702836307983"><ele>516.3333333333334</ele><time>2026-03-28T14:15:10.998Z</time></trkpt><trkpt lat="40.86099430246545" lon="14.581786543479595"><ele>515.6666666666667</ele><time>2026-03-28T14:15:11.998Z</time></trkpt><trkpt lat="40.86103206136813" lon="14.581876994403176"><ele>515.0</ele><time>2026-03-28T14:15:12.998Z</time></trkpt><trkpt lat="40.86105200175481" lon="14.581977458564982"><ele>514.3333333333334</ele><time>2026-03-28T14:15:13.998Z</time></trkpt><trkpt lat="40.8610268216672" lon="14.58207457909203"><ele>513.6666666666666</ele><time>2026-03-28T14:15:15.998Z</time></trkpt><trkpt lat="40.86094974862563" lon="14.582061856362275"><ele>513.0</ele><time>2026-03-28T14:15:17.998Z</time></trkpt><trkpt lat="40.860882054737544" lon="14.582063814236081"><ele>514.0</ele><time>2026-03-28T14:15:18.998Z</time></trkpt><trkpt lat="40.860754372540626" lon="14.582054652503249"><ele>515.0</ele><time>2026-03-28T14:15:19.998Z</time></trkpt><trkpt lat="40.86062765208857" lon="14.58202280341576"><ele>516.0</ele><time>2026-03-28T14:15:21Z</time></trkpt><trkpt lat="40.860519730355826" lon="14.581979181714317"><ele>517.0</ele><time>2026-03-28T14:15:22Z</time></trkpt><trkpt lat="40.860453987118035" lon="14.581901451070904"><ele>517.0</ele><time>2026-03-28T14:15:23Z</time></trkpt><trkpt lat="40.86036931623474" lon="14.581853238961578"><ele>517.0</ele><time>2026-03-28T14:15:24Z</time></trkpt><trkpt lat="40.86029957874183" lon="14.581827110740074"><ele>517.0</ele><time>2026-03-28T14:15:25Z</time></trkpt><trkpt lat="40.86017297980258" lon="14.58185927791974"><ele>517.0</ele><time>2026-03-28T14:15:27Z</time></trkpt><trkpt lat="40.860096119488524" lon="14.581881389880355"><ele>517.0</ele><time>2026-03-28T14:15:28Z</time></trkpt><trkpt lat="40.859982974676576" lon="14.581851816299976"><ele>520.3333333333334</ele><time>2026-03-28T14:15:30Z</time></trkpt><trkpt lat="40.85991571950185" lon="14.581832031129146"><ele>523.6666666666667</ele><time>2026-03-28T14:15:31Z</time></trkpt><trkpt lat="40.85984294639705" lon="14.581924566132756"><ele>527.0</ele><time>2026-03-28T14:15:33Z</time></trkpt><trkpt lat="40.859871915492555" lon="14.582037799807923"><ele>530.3333333333334</ele><time>2026-03-28T14:15:35Z</time></trkpt><trkpt lat="40.859917263758135" lon="14.582110406235971"><ele>533.6666666666666</ele><time>2026-03-28T14:15:36Z</time></trkpt><trkpt lat="40.86000465649264" lon="14.582124531729987"><ele>537.0</ele><time>2026-03-28T14:15:37Z</time></trkpt><trkpt lat="40.86011097429406" lon="14.58212090291899"><ele>537.6</ele><time>2026-03-28T14:15:38Z</time></trkpt><trkpt lat="40.86020980292254" lon="14.58211980777591"><ele>538.2</ele><time>2026-03-28T14:15:39Z</time></trkpt><trkpt lat="40.8602770690888" lon="14.582169154441436"><ele>538.8</ele><time>2026-03-28T14:15:40Z</time></trkpt><trkpt lat="40.86037913313209" lon="14.582256907790754"><ele>539.4</ele><time>2026-03-28T14:15:41Z</time></trkpt><trkpt lat="40.86047710339124" lon="14.582327851046864"><ele>540.0</ele><time>2026-03-28T14:15:42Z</time></trkpt><trkpt lat="40.860560076312815" lon="14.582393085904892"><ele>540.0</ele><time>2026-03-28T14:15:43Z</time></trkpt><trkpt lat="40.860629087340314" lon="14.582516067655142"><ele>540.0</ele><time>2026-03-28T14:15:45Z</time></trkpt><trkpt lat="40.86070572318395" lon="14.582617240560246"><ele>540.0</ele><time>2026-03-28T14:15:46Z</time></trkpt><trkpt lat="40.8607733866508" lon="14.582698328691567"><ele>540.0</ele><time>2026-03-28T14:15:47Z</time></trkpt><trkpt lat="40.86083698987289" lon="14.582783567597735"><ele>540.0</ele><time>2026-03-28T14:15:48Z</time></trkpt><trkpt lat="40.86090251859991" lon="14.582846648086376"><ele>538.5</ele><time>2026-03-28T14:15:49Z</time></trkpt><trkpt lat="40.860961222014836" lon="14.582907279423468"><ele>537.0</ele><time>2026-03-28T14:15:50Z</time></trkpt><trkpt lat="40.86100425119519" lon="14.583074401691707"><ele>535.5</ele><time>2026-03-28T14:15:52Z</time></trkpt><trkpt lat="40.86102527840657" lon="14.583171606472193"><ele>534.0</ele><time>2026-03-28T14:15:53Z</time></trkpt><trkpt lat="40.86105714474912" lon="14.58326777086796"><ele>532.5</ele><time>2026-03-28T14:15:54Z</time></trkpt><trkpt lat="40.86108777763568" lon="14.583363848471086"><ele>531.0</ele><time>2026-03-28T14:15:55Z</time></trkpt><trkpt lat="40.86109438053771" lon="14.583451844970295"><ele>531.0</ele><time>2026-03-28T14:15:56Z</time></trkpt><trkpt lat="40.861085630011516" lon="14.58355728917167"><ele>531.0</ele><time>2026-03-28T14:15:56.999Z</time></trkpt><trkpt lat="40.861065726521865" lon="14.583681796915318"><ele>531.0</ele><time>2026-03-28T14:15:57.999Z</time></trkpt><trkpt lat="40.86104759199483" lon="14.583782741898476"><ele>531.0</ele><time>2026-03-28T14:15:58.999Z</time></trkpt><trkpt lat="40.86098613819689" lon="14.583823984942203"><ele>531.0</ele><time>2026-03-28T14:16:00.999Z</time></trkpt><trkpt lat="40.86095522032538" lon="14.583712219323372"><ele>531.0</ele><time>2026-03-28T14:16:07.999Z</time></trkpt><trkpt lat="40.860976128774176" lon="14.583568404987078"><ele>535.6666666666666</ele><time>2026-03-28T14:16:10.999Z</time></trkpt><trkpt lat="40.860935160153204" lon="14.583472547436187"><ele>540.3333333333334</ele><time>2026-03-28T14:16:12.999Z</time></trkpt><trkpt lat="40.86087652438845" lon="14.583435200448992"><ele>545.0</ele><time>2026-03-28T14:16:33.999Z</time></trkpt><trkpt lat="40.860847831562396" lon="14.583355349629855"><ele>549.6666666666667</ele><time>2026-03-28T14:16:40.999Z</time></trkpt><trkpt lat="40.860756771571204" lon="14.583270118241748"><ele>554.3333333333334</ele><time>2026-03-28T14:16:42.999Z</time></trkpt><trkpt lat="40.860696482884805" lon="14.583209792662874"><ele>559.0</ele><time>2026-03-28T14:16:43.999Z</time></trkpt><trkpt lat="40.86061268024951" lon="14.583131970507567"><ele>559.0</ele><time>2026-03-28T14:16:45.999Z</time></trkpt><trkpt lat="40.86052661748914" lon="14.58308415977107"><ele>559.0</ele><time>2026-03-28T14:16:47.999Z</time></trkpt><trkpt lat="40.8604549492908" lon="14.583019102568324"><ele>559.0</ele><time>2026-03-28T14:16:48.999Z</time></trkpt><trkpt lat="40.860388598269054" lon="14.582979659171896"><ele>559.0</ele><time>2026-03-28T14:16:49.999Z</time></trkpt><trkpt lat="40.860327612416796" lon="14.58290039705675"><ele>559.0</ele><time>2026-03-28T14:16:50.999Z</time></trkpt><trkpt lat="40.860269756293306" lon="14.582846301434774"><ele>559.0</ele><time>2026-03-28T14:16:51.999Z</time></trkpt><trkpt lat="40.86019536446625" lon="14.582795748934796"><ele>558.8</ele><time>2026-03-28T14:16:52.999Z</time></trkpt><trkpt lat="40.8601159419798" lon="14.582750967341836"><ele>558.5999999999999</ele><time>2026-03-28T14:16:53.999Z</time></trkpt><trkpt lat="40.86002921278837" lon="14.58274711412605"><ele>558.4</ele><time>2026-03-28T14:16:54.998Z</time></trkpt><trkpt lat="40.859947129948786" lon="14.5827126061011"><ele>558.1999999999999</ele><time>2026-03-28T14:16:55.998Z</time></trkpt><trkpt lat="40.859798763482985" lon="14.58278843720242"><ele>558.0</ele><time>2026-03-28T14:16:57.998Z</time></trkpt><trkpt lat="40.85973341366822" lon="14.582831618906106"><ele>561.5</ele><time>2026-03-28T14:16:58.998Z</time></trkpt><trkpt lat="40.859728685388596" lon="14.582939892680722"><ele>565.0</ele><time>2026-03-28T14:17:00.998Z</time></trkpt><trkpt lat="40.85976903084724" lon="14.583031671248804"><ele>568.5</ele><time>2026-03-28T14:17:02.998Z</time></trkpt><trkpt lat="40.85980596741591" lon="14.583115347755015"><ele>572.0</ele><time>2026-03-28T14:17:05.998Z</time></trkpt><trkpt lat="40.85982926520664" lon="14.583257251794594"><ele>575.5</ele><time>2026-03-28T14:17:08.998Z</time></trkpt><trkpt lat="40.859848450393315" lon="14.583364280803377"><ele>579.0</ele><time>2026-03-28T14:17:09.998Z</time></trkpt><trkpt lat="40.859904209399026" lon="14.583458615988384"><ele>579.0</ele><time>2026-03-28T14:17:10.998Z</time></trkpt><trkpt lat="40.859961530042604" lon="14.583545810996354"><ele>579.0</ele><time>2026-03-28T14:17:11.998Z</time></trkpt><trkpt lat="40.86002324102285" lon="14.583645477146025"><ele>579.0</ele><time>2026-03-28T14:17:12.998Z</time></trkpt><trkpt lat="40.860035266374524" lon="14.583776353293759"><ele>579.0</ele><time>2026-03-28T14:17:14.998Z</time></trkpt><trkpt lat="40.85993684364078" lon="14.583735091936934"><ele>579.0</ele><time>2026-03-28T14:17:21.998Z</time></trkpt><trkpt lat="40.85986285302683" lon="14.58372593476543"><ele>579.0</ele><time>2026-03-28T14:17:24.998Z</time></trkpt><trkpt lat="40.85978082572128" lon="14.583722352314593"><ele>579.0</ele><time>2026-03-28T14:17:25.998Z</time></trkpt><trkpt lat="40.85931690927315" lon="14.583476123383612"><ele>579.0</ele><time>2026-03-28T14:17:30Z</time></trkpt><trkpt lat="40.85924645567676" lon="14.583496461163264"><ele>579.0</ele><time>2026-03-28T14:17:32Z</time></trkpt><trkpt lat="40.85931626332828" lon="14.583628864409095"><ele>579.0</ele><time>2026-03-28T14:17:35Z</time></trkpt><trkpt lat="40.85937401343102" lon="14.583758747861566"><ele>579.0</ele><time>2026-03-28T14:17:36Z</time></trkpt><trkpt lat="40.85946130197683" lon="14.583874362753635"><ele>579.0</ele><time>2026-03-28T14:17:37Z</time></trkpt><trkpt lat="40.85954560249124" lon="14.584062038178814"><ele>581.8</ele><time>2026-03-28T14:17:38Z</time></trkpt><trkpt lat="40.85959697498385" lon="14.584188492343536"><ele>584.5999999999999</ele><time>2026-03-28T14:17:39Z</time></trkpt><trkpt lat="40.85963547693716" lon="14.584318418616197"><ele>587.4</ele><time>2026-03-28T14:17:40Z</time></trkpt><trkpt lat="40.85965122266975" lon="14.584442309915596"><ele>590.1999999999999</ele><time>2026-03-28T14:17:41Z</time></trkpt><trkpt lat="40.85966337575647" lon="14.584551969299616"><ele>593.0</ele><time>2026-03-28T14:17:42Z</time></trkpt><trkpt lat="40.859684870920745" lon="14.584705000421014"><ele>594.5</ele><time>2026-03-28T14:17:43Z</time></trkpt><trkpt lat="40.85971862438327" lon="14.584851704985608"><ele>596.0</ele><time>2026-03-28T14:17:44Z</time></trkpt><trkpt lat="40.85972656466334" lon="14.584982707874856"><ele>597.5</ele><time>2026-03-28T14:17:45Z</time></trkpt><trkpt lat="40.85972142678267" lon="14.585125070394048"><ele>599.0</ele><time>2026-03-28T14:17:46Z</time></trkpt><trkpt lat="40.859667734190076" lon="14.58529894051643"><ele>601.2</ele><time>2026-03-28T14:17:47Z</time></trkpt><trkpt lat="40.85962481528657" lon="14.585433190733195"><ele>603.4</ele><time>2026-03-28T14:17:48Z</time></trkpt><trkpt lat="40.85958412067774" lon="14.585558594918556"><ele>605.6</ele><time>2026-03-28T14:17:49Z</time></trkpt><trkpt lat="40.85954601651123" lon="14.585672779738065"><ele>607.8</ele><time>2026-03-28T14:17:50Z</time></trkpt><trkpt lat="40.85951372898073" lon="14.585748969953315"><ele>610.0</ele><time>2026-03-28T14:17:51Z</time></trkpt><trkpt lat="40.859452116533305" lon="14.585836487108537"><ele>610.0</ele><time>2026-03-28T14:17:52Z</time></trkpt><trkpt lat="40.85939361078018" lon="14.585911653688012"><ele>610.0</ele><time>2026-03-28T14:17:53Z</time></trkpt><trkpt lat="40.859322173545614" lon="14.586006049746189"><ele>610.0</ele><time>2026-03-28T14:17:54Z</time></trkpt><trkpt lat="40.85922385100202" lon="14.586094776161184"><ele>610.0</ele><time>2026-03-28T14:17:55Z</time></trkpt><trkpt lat="40.8591151446631" lon="14.586179106246272"><ele>610.0</ele><time>2026-03-28T14:17:56Z</time></trkpt><trkpt lat="40.85904481722576" lon="14.586255048420751"><ele>616.0</ele><time>2026-03-28T14:17:57Z</time></trkpt><trkpt lat="40.859053613582006" lon="14.586337840462315"><ele>622.0</ele><time>2026-03-28T14:17:58Z</time></trkpt><trkpt lat="40.859046090668144" lon="14.586455706126374"><ele>628.0</ele><time>2026-03-28T14:17:59Z</time></trkpt><trkpt lat="40.859021279938425" lon="14.586608988993119"><ele>634.0</ele><time>2026-03-28T14:18:01Z</time></trkpt><trkpt lat="40.85894582221576" lon="14.58657498452855"><ele>640.0</ele><time>2026-03-28T14:18:02Z</time></trkpt><trkpt lat="40.8589237524876" lon="14.58633938042001"><ele>640.0</ele><time>2026-03-28T14:18:04Z</time></trkpt><trkpt lat="40.858956889797824" lon="14.586204089532954"><ele>640.0</ele><time>2026-03-28T14:18:05Z</time></trkpt><trkpt lat="40.859010656400294" lon="14.586088904313542"><ele>640.0</ele><time>2026-03-28T14:18:06Z</time></trkpt><trkpt lat="40.85906607853371" lon="14.585971920195501"><ele>640.0</ele><time>2026-03-28T14:18:07Z</time></trkpt><trkpt lat="40.859087573880224" lon="14.585837651903454"><ele>640.0</ele><time>2026-03-28T14:18:07.999Z</time></trkpt><trkpt lat="40.85909136061094" lon="14.585712497141099"><ele>637.0</ele><time>2026-03-28T14:18:08.999Z</time></trkpt><trkpt lat="40.85907491643323" lon="14.585594311780362"><ele>634.0</ele><time>2026-03-28T14:18:09.999Z</time></trkpt><trkpt lat="40.85903520918521" lon="14.585464872550332"><ele>631.0</ele><time>2026-03-28T14:18:10.999Z</time></trkpt><trkpt lat="40.85898730065618" lon="14.585346556059015"><ele>628.0</ele><time>2026-03-28T14:18:11.999Z</time></trkpt><trkpt lat="40.858922959732936" lon="14.585270852500786"><ele>625.0</ele><time>2026-03-28T14:18:12.999Z</time></trkpt><trkpt lat="40.85883411788562" lon="14.585209114554125"><ele>624.0</ele><time>2026-03-28T14:18:13.999Z</time></trkpt><trkpt lat="40.85875255259529" lon="14.58513284615887"><ele>623.0</ele><time>2026-03-28T14:18:14.999Z</time></trkpt><trkpt lat="40.85868933073665" lon="14.585073021783522"><ele>622.0</ele><time>2026-03-28T14:18:15.999Z</time></trkpt><trkpt lat="40.858634376597045" lon="14.585031387457077"><ele>621.0</ele><time>2026-03-28T14:18:17.999Z</time></trkpt><trkpt lat="40.85856806534106" lon="14.585031631964165"><ele>620.0</ele><time>2026-03-28T14:18:19.999Z</time></trkpt><trkpt lat="40.85864285018388" lon="14.585150764463783"><ele>619.0</ele><time>2026-03-28T14:18:22.999Z</time></trkpt><trkpt lat="40.85869475487211" lon="14.585225304565713"><ele>620.2</ele><time>2026-03-28T14:18:23.999Z</time></trkpt><trkpt lat="40.858742371477916" lon="14.585362794516465"><ele>621.4</ele><time>2026-03-28T14:18:25.999Z</time></trkpt><trkpt lat="40.858776148787456" lon="14.585449204161245"><ele>622.6</ele><time>2026-03-28T14:18:26.999Z</time></trkpt><trkpt lat="40.85879981228248" lon="14.5855731164697"><ele>623.8</ele><time>2026-03-28T14:18:27.999Z</time></trkpt><trkpt lat="40.858817188841215" lon="14.585705115333475"><ele>625.0</ele><time>2026-03-28T14:18:28.999Z</time></trkpt><trkpt lat="40.85885126683139" lon="14.585826206033405"><ele>625.0</ele><time>2026-03-28T14:18:29.999Z</time></trkpt><trkpt lat="40.85887143368251" lon="14.585959028189832"><ele>625.0</ele><time>2026-03-28T14:18:30.999Z</time></trkpt><trkpt lat="40.85887534639292" lon="14.586080561707115"><ele>625.0</ele><time>2026-03-28T14:18:31.999Z</time></trkpt><trkpt lat="40.858874120691915" lon="14.586185549403275"><ele>625.0</ele><time>2026-03-28T14:18:32.999Z</time></trkpt><trkpt lat="40.85881811457602" lon="14.586252357930782"><ele>625.0</ele><time>2026-03-28T14:18:33.999Z</time></trkpt><trkpt lat="40.85869231067524" lon="14.586333316306478"><ele>627.5</ele><time>2026-03-28T14:18:34.999Z</time></trkpt><trkpt lat="40.85864884215259" lon="14.58642067831948"><ele>630.0</ele><time>2026-03-28T14:18:35.999Z</time></trkpt><trkpt lat="40.85865947508245" lon="14.586505363474474"><ele>632.5</ele><time>2026-03-28T14:18:36.999Z</time></trkpt><trkpt lat="40.8586971074522" lon="14.586590610157545"><ele>635.0</ele><time>2026-03-28T14:18:37.999Z</time></trkpt><trkpt lat="40.85878282224141" lon="14.586662737910743"><ele>637.5</ele><time>2026-03-28T14:18:38.999Z</time></trkpt><trkpt lat="40.85887838890014" lon="14.5867127268753"><ele>640.0</ele><time>2026-03-28T14:18:39.999Z</time></trkpt><trkpt lat="40.858976599566724" lon="14.586737523361823"><ele>640.0</ele><time>2026-03-28T14:18:40.999Z</time></trkpt><trkpt lat="40.859085671985596" lon="14.58675156054024"><ele>640.0</ele><time>2026-03-28T14:18:41.999Z</time></trkpt><trkpt lat="40.859178562646896" lon="14.586733774891794"><ele>640.0</ele><time>2026-03-28T14:18:42.999Z</time></trkpt><trkpt lat="40.85925264304219" lon="14.586755919274793"><ele>640.0</ele><time>2026-03-28T14:18:43.999Z</time></trkpt><trkpt lat="40.859314290526214" lon="14.586821481055939"><ele>640.0</ele><time>2026-03-28T14:18:44.999Z</time></trkpt><trkpt lat="40.85939233549508" lon="14.586893925222594"><ele>641.0</ele><time>2026-03-28T14:18:45.999Z</time></trkpt><trkpt lat="40.85950119831458" lon="14.586986438436393"><ele>642.0</ele><time>2026-03-28T14:18:46.999Z</time></trkpt><trkpt lat="40.85960753275261" lon="14.58710809179121"><ele>643.0</ele><time>2026-03-28T14:18:47.999Z</time></trkpt><trkpt lat="40.85971772884012" lon="14.587286743066647"><ele>644.0</ele><time>2026-03-28T14:18:48.999Z</time></trkpt><trkpt lat="40.85985314521882" lon="14.587440000740319"><ele>644.0</ele><time>2026-03-28T14:18:49.999Z</time></trkpt><trkpt lat="40.85997070782694" lon="14.58759110562173"><ele>644.0</ele><time>2026-03-28T14:18:50.999Z</time></trkpt><trkpt lat="40.860073014187456" lon="14.587773018873177"><ele>644.0</ele><time>2026-03-28T14:18:51.999Z</time></trkpt><trkpt lat="40.860191432606705" lon="14.587902677978889"><ele>643.2</ele><time>2026-03-28T14:18:52.999Z</time></trkpt><trkpt lat="40.86026516357628" lon="14.588014866623388"><ele>642.4000000000001</ele><time>2026-03-28T14:18:53.999Z</time></trkpt><trkpt lat="40.86033897204284" lon="14.588146124662133"><ele>641.6</ele><time>2026-03-28T14:18:54.999Z</time></trkpt><trkpt lat="40.860389367463014" lon="14.588236501059075"><ele>640.8</ele><time>2026-03-28T14:18:55.999Z</time></trkpt><trkpt lat="40.86042330632514" lon="14.588307877635703"><ele>640.0</ele><time>2026-03-28T14:18:57.999Z</time></trkpt><trkpt lat="40.8604880126339" lon="14.588349302924065"><ele>640.0</ele><time>2026-03-28T14:19:00.999Z</time></trkpt><trkpt lat="40.86044620300499" lon="14.588412428373829"><ele>640.0</ele><time>2026-03-28T14:20:10Z</time></trkpt><trkpt lat="40.86037161268271" lon="14.58844709556131"><ele>640.0</ele><time>2026-03-28T14:20:14Z</time></trkpt><trkpt lat="40.86034137952059" lon="14.588584339740494"><ele>640.0</ele><time>2026-03-28T14:20:16Z</time></trkpt><trkpt lat="40.86031494214317" lon="14.58877478056246"><ele>640.0</ele><time>2026-03-28T14:20:16.999Z</time></trkpt><trkpt lat="40.86028138261699" lon="14.588923537757205"><ele>640.25</ele><time>2026-03-28T14:20:17.999Z</time></trkpt><trkpt lat="40.86025326345773" lon="14.58907341796586"><ele>640.5</ele><time>2026-03-28T14:20:18.999Z</time></trkpt><trkpt lat="40.86022930886008" lon="14.589262650435293"><ele>640.75</ele><time>2026-03-28T14:20:19.999Z</time></trkpt><trkpt lat="40.86020604329017" lon="14.589430837668548"><ele>641.0</ele><time>2026-03-28T14:20:20.999Z</time></trkpt><trkpt lat="40.86018814399452" lon="14.589565099991155"><ele>641.4</ele><time>2026-03-28T14:20:21.999Z</time></trkpt><trkpt lat="40.86017534126522" lon="14.589701840792076"><ele>641.8</ele><time>2026-03-28T14:20:22.999Z</time></trkpt><trkpt lat="40.8601445914399" lon="14.589826675783312"><ele>642.1999999999999</ele><time>2026-03-28T14:20:23.999Z</time></trkpt><trkpt lat="40.86009002251102" lon="14.589942585721401"><ele>642.5999999999999</ele><time>2026-03-28T14:20:24.999Z</time></trkpt><trkpt lat="40.8600187957755" lon="14.590032406826637"><ele>643.0</ele><time>2026-03-28T14:20:25.999Z</time></trkpt><trkpt lat="40.85993379230042" lon="14.590120463930125"><ele>643.0</ele><time>2026-03-28T14:20:26.999Z</time></trkpt><trkpt lat="40.859842312961646" lon="14.590191999697367"><ele>643.0</ele><time>2026-03-28T14:20:27.999Z</time></trkpt><trkpt lat="40.85978309008157" lon="14.590280414382402"><ele>643.0</ele><time>2026-03-28T14:20:28.999Z</time></trkpt><trkpt lat="40.85975258892059" lon="14.590360032859689"><ele>643.0</ele><time>2026-03-28T14:20:29.999Z</time></trkpt><trkpt lat="40.85973874442229" lon="14.590448850239536"><ele>643.0</ele><time>2026-03-28T14:20:30.999Z</time></trkpt><trkpt lat="40.85974646927872" lon="14.590561259729366"><ele>643.0</ele><time>2026-03-28T14:20:31.999Z</time></trkpt><trkpt lat="40.85977361761861" lon="14.590700461211785"><ele>643.5</ele><time>2026-03-28T14:20:32.999Z</time></trkpt><trkpt lat="40.859807941025394" lon="14.59084215487167"><ele>644.0</ele><time>2026-03-28T14:20:33.999Z</time></trkpt><trkpt lat="40.859844788275076" lon="14.59101990265459"><ele>644.5</ele><time>2026-03-28T14:20:34.999Z</time></trkpt><trkpt lat="40.8598772490887" lon="14.591193188069244"><ele>645.0</ele><time>2026-03-28T14:20:35.999Z</time></trkpt><trkpt lat="40.859907120196915" lon="14.591340334991179"><ele>645.75</ele><time>2026-03-28T14:20:36.999Z</time></trkpt><trkpt lat="40.85990658332869" lon="14.591488744423803"><ele>646.5</ele><time>2026-03-28T14:20:37.999Z</time></trkpt><trkpt lat="40.85986991002835" lon="14.591650508976954"><ele>647.25</ele><time>2026-03-28T14:20:38.999Z</time></trkpt><trkpt lat="40.85981710663246" lon="14.591829622070557"><ele>648.0</ele><time>2026-03-28T14:20:39.999Z</time></trkpt><trkpt lat="40.85977863666717" lon="14.591980866252012"><ele>647.5999999999999</ele><time>2026-03-28T14:20:40.999Z</time></trkpt><trkpt lat="40.859737915642185" lon="14.592130503835865"><ele>647.1999999999999</ele><time>2026-03-28T14:20:41.999Z</time></trkpt><trkpt lat="40.85967937711259" lon="14.592254329073059"><ele>646.8</ele><time>2026-03-28T14:20:42.999Z</time></trkpt><trkpt lat="40.85962871430769" lon="14.592353344618992"><ele>646.4</ele><time>2026-03-28T14:20:43.999Z</time></trkpt><trkpt lat="40.859614631587846" lon="14.592490016597138"><ele>646.0</ele><time>2026-03-28T14:20:44.999Z</time></trkpt><trkpt lat="40.859634141249664" lon="14.592637659528794"><ele>646.0</ele><time>2026-03-28T14:20:45.999Z</time></trkpt><trkpt lat="40.85968857736037" lon="14.59277210854489"><ele>646.0</ele><time>2026-03-28T14:20:46.999Z</time></trkpt><trkpt lat="40.85973081737324" lon="14.59290192478521"><ele>646.0</ele><time>2026-03-28T14:20:47.999Z</time></trkpt><trkpt lat="40.859736558608574" lon="14.593057632258988"><ele>646.0</ele><time>2026-03-28T14:20:48.999Z</time></trkpt><trkpt lat="40.859689623508366" lon="14.59322344876933"><ele>646.0</ele><time>2026-03-28T14:20:49.999Z</time></trkpt><trkpt lat="40.85962563183709" lon="14.593398643037927"><ele>646.0</ele><time>2026-03-28T14:20:50.999Z</time></trkpt><trkpt lat="40.8595564808743" lon="14.593558800019778"><ele>646.0</ele><time>2026-03-28T14:20:51.999Z</time></trkpt><trkpt lat="40.859476564924364" lon="14.593703363141053"><ele>646.0</ele><time>2026-03-28T14:20:52.999Z</time></trkpt><trkpt lat="40.859380591575565" lon="14.593846933101975"><ele>654.0</ele><time>2026-03-28T14:20:53.999Z</time></trkpt><trkpt lat="40.85926550976411" lon="14.594000170049133"><ele>662.0</ele><time>2026-03-28T14:20:54.999Z</time></trkpt><trkpt lat="40.85914866474091" lon="14.59415322159328"><ele>670.0</ele><time>2026-03-28T14:20:55.999Z</time></trkpt><trkpt lat="40.8590515260635" lon="14.59429158973803"><ele>670.0</ele><time>2026-03-28T14:20:56.999Z</time></trkpt><trkpt lat="40.858958624493724" lon="14.59445558791087"><ele>670.0</ele><time>2026-03-28T14:20:57.999Z</time></trkpt><trkpt lat="40.85885136392197" lon="14.594632294816508"><ele>670.0</ele><time>2026-03-28T14:20:58.999Z</time></trkpt><trkpt lat="40.858736774578794" lon="14.594783520515689"><ele>668.6666666666667</ele><time>2026-03-28T14:20:59.999Z</time></trkpt><trkpt lat="40.85861627784838" lon="14.594936481669292"><ele>667.3333333333334</ele><time>2026-03-28T14:21:00.999Z</time></trkpt><trkpt lat="40.8584957497836" lon="14.595078342622037"><ele>666.0</ele><time>2026-03-28T14:21:01.999Z</time></trkpt><trkpt lat="40.858384059506" lon="14.595166739860197"><ele>671.0</ele><time>2026-03-28T14:21:02.999Z</time></trkpt><trkpt lat="40.8582874827647" lon="14.595232766150488"><ele>676.0</ele><time>2026-03-28T14:21:03.999Z</time></trkpt><trkpt lat="40.85820517107173" lon="14.59528354818294"><ele>681.0</ele><time>2026-03-28T14:21:04.999Z</time></trkpt><trkpt lat="40.85812201673857" lon="14.595338160527001"><ele>686.0</ele><time>2026-03-28T14:21:05.999Z</time></trkpt><trkpt lat="40.8580410488862" lon="14.595374780175854"><ele>691.0</ele><time>2026-03-28T14:21:06.999Z</time></trkpt><trkpt lat="40.85795913833282" lon="14.59540509119548"><ele>691.1666666666667</ele><time>2026-03-28T14:21:07.999Z</time></trkpt><trkpt lat="40.857882084411536" lon="14.59540911801682"><ele>691.3333333333334</ele><time>2026-03-28T14:21:08.999Z</time></trkpt><trkpt lat="40.85780376374721" lon="14.595441757910907"><ele>691.5</ele><time>2026-03-28T14:21:09.999Z</time></trkpt><trkpt lat="40.8577328605218" lon="14.595458605761639"><ele>691.6666666666666</ele><time>2026-03-28T14:21:10.999Z</time></trkpt><trkpt lat="40.85763476426122" lon="14.595481766806138"><ele>691.8333333333333</ele><time>2026-03-28T14:21:11.999Z</time></trkpt><trkpt lat="40.85752371377827" lon="14.59551480856034"><ele>692.0</ele><time>2026-03-28T14:21:12.999Z</time></trkpt><trkpt lat="40.85741227098051" lon="14.595530030615242"><ele>696.0</ele><time>2026-03-28T14:21:13.999Z</time></trkpt><trkpt lat="40.85727322856276" lon="14.595538387261753"><ele>700.0</ele><time>2026-03-28T14:21:14.999Z</time></trkpt><trkpt lat="40.85710798643482" lon="14.59556710232953"><ele>704.0</ele><time>2026-03-28T14:21:15.999Z</time></trkpt><trkpt lat="40.85694241482091" lon="14.59563253536375"><ele>704.0</ele><time>2026-03-28T14:21:16.999Z</time></trkpt><trkpt lat="40.85679243687494" lon="14.595714853193988"><ele>704.0</ele><time>2026-03-28T14:21:17.999Z</time></trkpt><trkpt lat="40.85667193902756" lon="14.59580099228345"><ele>704.0</ele><time>2026-03-28T14:21:18.998Z</time></trkpt><trkpt lat="40.85658521055463" lon="14.595862756748046"><ele>704.0</ele><time>2026-03-28T14:21:19.998Z</time></trkpt><trkpt lat="40.856522517117185" lon="14.595907530975628"><ele>705.4000000000001</ele><time>2026-03-28T14:21:20.998Z</time></trkpt><trkpt lat="40.85646279244082" lon="14.595988574346414"><ele>706.8</ele><time>2026-03-28T14:21:22.998Z</time></trkpt><trkpt lat="40.8564164630944" lon="14.596150736003304"><ele>708.2</ele><time>2026-03-28T14:21:24.998Z</time></trkpt><trkpt lat="40.85635794710345" lon="14.596303788498277"><ele>709.5999999999999</ele><time>2026-03-28T14:21:26.998Z</time></trkpt><trkpt lat="40.856305477945774" lon="14.596352059347023"><ele>711.0</ele><time>2026-03-28T14:21:27.998Z</time></trkpt><trkpt lat="40.85623962553583" lon="14.596412639709149"><ele>711.5</ele><time>2026-03-28T14:21:28.998Z</time></trkpt><trkpt lat="40.856173291421086" lon="14.596468933623505"><ele>712.0</ele><time>2026-03-28T14:21:29.998Z</time></trkpt><trkpt lat="40.85610639762419" lon="14.596520636659601"><ele>712.5</ele><time>2026-03-28T14:21:30.998Z</time></trkpt><trkpt lat="40.85602598936319" lon="14.59659009920237"><ele>713.0</ele><time>2026-03-28T14:21:31.998Z</time></trkpt><trkpt lat="40.85595423887827" lon="14.596676121909724"><ele>713.5</ele><time>2026-03-28T14:21:32.998Z</time></trkpt><trkpt lat="40.8558848000626" lon="14.596741839225508"><ele>714.0</ele><time>2026-03-28T14:21:33.998Z</time></trkpt><trkpt lat="40.855799315548715" lon="14.596799245579119"><ele>714.0</ele><time>2026-03-28T14:21:34.998Z</time></trkpt><trkpt lat="40.855728684083715" lon="14.596857221544596"><ele>714.0</ele><time>2026-03-28T14:21:35.998Z</time></trkpt><trkpt lat="40.85566926260385" lon="14.596907389259421"><ele>714.0</ele><time>2026-03-28T14:21:36.998Z</time></trkpt><trkpt lat="40.85561563260687" lon="14.596981232838317"><ele>714.0</ele><time>2026-03-28T14:21:37.998Z</time></trkpt><trkpt lat="40.855551730155966" lon="14.59707241449997"><ele>714.0</ele><time>2026-03-28T14:21:39Z</time></trkpt><trkpt lat="40.85547971343399" lon="14.597140989587341"><ele>714.0</ele><time>2026-03-28T14:21:40Z</time></trkpt><trkpt lat="40.85537958420273" lon="14.597235602724657"><ele>713.6666666666666</ele><time>2026-03-28T14:21:42Z</time></trkpt><trkpt lat="40.85532665342657" lon="14.597331812562885"><ele>713.3333333333334</ele><time>2026-03-28T14:21:44Z</time></trkpt><trkpt lat="40.85526344231963" lon="14.597356050789516"><ele>713.0</ele><time>2026-03-28T14:21:53Z</time></trkpt><trkpt lat="40.855219614201964" lon="14.597437008413726"><ele>712.6666666666667</ele><time>2026-03-28T14:22:06Z</time></trkpt><trkpt lat="40.855163117866844" lon="14.597517648789994"><ele>712.3333333333334</ele><time>2026-03-28T14:22:08Z</time></trkpt><trkpt lat="40.855097737031855" lon="14.597592167968473"><ele>712.0</ele><time>2026-03-28T14:22:09Z</time></trkpt><trkpt lat="40.855038594934676" lon="14.597660846786045"><ele>712.0</ele><time>2026-03-28T14:22:10Z</time></trkpt><trkpt lat="40.854977446226684" lon="14.597743168997114"><ele>712.0</ele><time>2026-03-28T14:22:11Z</time></trkpt><trkpt lat="40.854893083804" lon="14.597852195099172"><ele>712.0</ele><time>2026-03-28T14:22:12Z</time></trkpt><trkpt lat="40.85480514489453" lon="14.597976007553223"><ele>712.0</ele><time>2026-03-28T14:22:13Z</time></trkpt><trkpt lat="40.85473581883645" lon="14.598054072239472"><ele>712.0</ele><time>2026-03-28T14:22:14Z</time></trkpt><trkpt lat="40.85468207582373" lon="14.598125319797193"><ele>717.0</ele><time>2026-03-28T14:22:15Z</time></trkpt><trkpt lat="40.85464076743529" lon="14.598203026648514"><ele>722.0</ele><time>2026-03-28T14:22:16Z</time></trkpt><trkpt lat="40.85460772496746" lon="14.598309903009502"><ele>727.0</ele><time>2026-03-28T14:22:17Z</time></trkpt><trkpt lat="40.854579898480345" lon="14.598394005232038"><ele>732.0</ele><time>2026-03-28T14:22:18Z</time></trkpt><trkpt lat="40.854523458604774" lon="14.59843374693584"><ele>737.0</ele><time>2026-03-28T14:22:19Z</time></trkpt><trkpt lat="40.85443929420444" lon="14.598454173890499"><ele>742.0</ele><time>2026-03-28T14:22:20Z</time></trkpt><trkpt lat="40.8543564733296" lon="14.598464703752493"><ele>742.0</ele><time>2026-03-28T14:22:21Z</time></trkpt><trkpt lat="40.85430033032799" lon="14.598521162655045"><ele>742.0</ele><time>2026-03-28T14:22:22Z</time></trkpt><trkpt lat="40.854217127624864" lon="14.598623837038266"><ele>742.0</ele><time>2026-03-28T14:22:23Z</time></trkpt><trkpt lat="40.85411756481863" lon="14.598748467699735"><ele>742.0</ele><time>2026-03-28T14:22:24Z</time></trkpt><trkpt lat="40.85401631746838" lon="14.598804752828244"><ele>742.0</ele><time>2026-03-28T14:22:25Z</time></trkpt><trkpt lat="40.85393845380936" lon="14.598842475468027"><ele>742.8</ele><time>2026-03-28T14:22:26Z</time></trkpt><trkpt lat="40.85386627678418" lon="14.598912561920596"><ele>743.6</ele><time>2026-03-28T14:22:27Z</time></trkpt><trkpt lat="40.85379760517971" lon="14.599059227744645"><ele>744.4</ele><time>2026-03-28T14:22:28Z</time></trkpt><trkpt lat="40.853746887055955" lon="14.599196863725856"><ele>745.1999999999999</ele><time>2026-03-28T14:22:29Z</time></trkpt><trkpt lat="40.853696085410554" lon="14.599331105697182"><ele>746.0</ele><time>2026-03-28T14:22:29.999Z</time></trkpt><trkpt lat="40.853636076966104" lon="14.59946149013599"><ele>742.8</ele><time>2026-03-28T14:22:30.999Z</time></trkpt><trkpt lat="40.8535671512859" lon="14.599579009713649"><ele>739.5999999999999</ele><time>2026-03-28T14:22:31.999Z</time></trkpt><trkpt lat="40.85349631757195" lon="14.599711936512549"><ele>736.4</ele><time>2026-03-28T14:22:32.999Z</time></trkpt><trkpt lat="40.85345023964645" lon="14.599812195482341"><ele>733.2</ele><time>2026-03-28T14:22:33.999Z</time></trkpt><trkpt lat="40.853409705055796" lon="14.599907100986385"><ele>730.0</ele><time>2026-03-28T14:22:34.999Z</time></trkpt><trkpt lat="40.85338401486822" lon="14.600011665750971"><ele>730.0</ele><time>2026-03-28T14:22:35.999Z</time></trkpt><trkpt lat="40.853358665142515" lon="14.600169447599392"><ele>730.0</ele><time>2026-03-28T14:22:36.999Z</time></trkpt><trkpt lat="40.85333410360689" lon="14.60032168670767"><ele>730.0</ele><time>2026-03-28T14:22:37.999Z</time></trkpt><trkpt lat="40.853322027198516" lon="14.600479051457587"><ele>730.0</ele><time>2026-03-28T14:22:38.999Z</time></trkpt><trkpt lat="40.85332257016239" lon="14.6006118062899"><ele>732.8</ele><time>2026-03-28T14:22:39.999Z</time></trkpt><trkpt lat="40.85331078903736" lon="14.600716858328756"><ele>735.6</ele><time>2026-03-28T14:22:40.999Z</time></trkpt><trkpt lat="40.85329869189782" lon="14.600811851024838"><ele>738.4000000000001</ele><time>2026-03-28T14:22:41.999Z</time></trkpt><trkpt lat="40.8532202462942" lon="14.600969673017367"><ele>741.2</ele><time>2026-03-28T14:22:43.999Z</time></trkpt><trkpt lat="40.853201794121034" lon="14.60107822086097"><ele>744.0</ele><time>2026-03-28T14:22:44.999Z</time></trkpt><trkpt lat="40.85319451980393" lon="14.601180029337186"><ele>745.0</ele><time>2026-03-28T14:22:45.999Z</time></trkpt><trkpt lat="40.853189426857234" lon="14.601272199321595"><ele>746.0</ele><time>2026-03-28T14:22:46.999Z</time></trkpt><trkpt lat="40.853180178557146" lon="14.601357629452128"><ele>747.0</ele><time>2026-03-28T14:22:47.999Z</time></trkpt><trkpt lat="40.85316785687542" lon="14.60144688903875"><ele>748.0</ele><time>2026-03-28T14:22:48.999Z</time></trkpt><trkpt lat="40.853162194899326" lon="14.601552959567742"><ele>749.0</ele><time>2026-03-28T14:22:49.999Z</time></trkpt><trkpt lat="40.853159384459" lon="14.60167203879535"><ele>750.0</ele><time>2026-03-28T14:22:50.999Z</time></trkpt><trkpt lat="40.853138990635735" lon="14.60178661438826"><ele>750.0</ele><time>2026-03-28T14:22:51.999Z</time></trkpt><trkpt lat="40.853102777005375" lon="14.601894430150244"><ele>750.0</ele><time>2026-03-28T14:22:52.999Z</time></trkpt><trkpt lat="40.853067742194725" lon="14.602018238041927"><ele>750.0</ele><time>2026-03-28T14:22:53.999Z</time></trkpt><trkpt lat="40.853033390522704" lon="14.602165023375896"><ele>750.0</ele><time>2026-03-28T14:22:54.999Z</time></trkpt><trkpt lat="40.85301296616151" lon="14.60230793938031"><ele>750.0</ele><time>2026-03-28T14:22:55.999Z</time></trkpt><trkpt lat="40.85299108296645" lon="14.602468903061247"><ele>751.75</ele><time>2026-03-28T14:22:56.999Z</time></trkpt><trkpt lat="40.85296817077594" lon="14.602619386533089"><ele>753.5</ele><time>2026-03-28T14:22:57.999Z</time></trkpt><trkpt lat="40.85294840212292" lon="14.602746919704964"><ele>755.25</ele><time>2026-03-28T14:22:58.999Z</time></trkpt><trkpt lat="40.852926265284296" lon="14.60290202230767"><ele>757.0</ele><time>2026-03-28T14:22:59.999Z</time></trkpt><trkpt lat="40.85289236939918" lon="14.603070434159566"><ele>758.5</ele><time>2026-03-28T14:23:00.999Z</time></trkpt><trkpt lat="40.85285037205109" lon="14.603250616855822"><ele>760.0</ele><time>2026-03-28T14:23:01.999Z</time></trkpt><trkpt lat="40.85282189736786" lon="14.603431917985267"><ele>761.5</ele><time>2026-03-28T14:23:02.999Z</time></trkpt><trkpt lat="40.85280387778946" lon="14.603600813390944"><ele>763.0</ele><time>2026-03-28T14:23:03.999Z</time></trkpt><trkpt lat="40.8527713275934" lon="14.603745129681307"><ele>764.5</ele><time>2026-03-28T14:23:04.999Z</time></trkpt><trkpt lat="40.852743754792584" lon="14.603905157278756"><ele>766.0</ele><time>2026-03-28T14:23:05.999Z</time></trkpt><trkpt lat="40.85273387651336" lon="14.604091456929783"><ele>767.5</ele><time>2026-03-28T14:23:06.999Z</time></trkpt><trkpt lat="40.85271910414699" lon="14.604252769495517"><ele>769.0</ele><time>2026-03-28T14:23:07.999Z</time></trkpt><trkpt lat="40.852707956454" lon="14.604372683723263"><ele>769.0</ele><time>2026-03-28T14:23:08.999Z</time></trkpt><trkpt lat="40.852704440506486" lon="14.604480833801318"><ele>769.0</ele><time>2026-03-28T14:23:09.999Z</time></trkpt><trkpt lat="40.852706421695714" lon="14.60462034756573"><ele>769.0</ele><time>2026-03-28T14:23:10.999Z</time></trkpt><trkpt lat="40.85270672896455" lon="14.604785813810718"><ele>769.0</ele><time>2026-03-28T14:23:11.999Z</time></trkpt><trkpt lat="40.85270359953133" lon="14.604956739798665"><ele>769.0</ele><time>2026-03-28T14:23:12.999Z</time></trkpt><trkpt lat="40.85269873741848" lon="14.605122525153009"><ele>769.8000000000001</ele><time>2026-03-28T14:23:13.999Z</time></trkpt><trkpt lat="40.85270811362166" lon="14.605281503321248"><ele>770.6</ele><time>2026-03-28T14:23:14.999Z</time></trkpt><trkpt lat="40.85273061840519" lon="14.605439997459829"><ele>771.4</ele><time>2026-03-28T14:23:15.999Z</time></trkpt><trkpt lat="40.85274256035089" lon="14.60558237948988"><ele>772.2</ele><time>2026-03-28T14:23:16.999Z</time></trkpt><trkpt lat="40.85274668263466" lon="14.605698727271216"><ele>773.0</ele><time>2026-03-28T14:23:17.999Z</time></trkpt><trkpt lat="40.85274980837321" lon="14.605831959474902"><ele>773.0</ele><time>2026-03-28T14:23:18.999Z</time></trkpt><trkpt lat="40.852745556839224" lon="14.605945734680468"><ele>773.0</ele><time>2026-03-28T14:23:19.999Z</time></trkpt><trkpt lat="40.8527607441647" lon="14.606065128682356"><ele>773.0</ele><time>2026-03-28T14:23:20.999Z</time></trkpt><trkpt lat="40.85276452711569" lon="14.60619492362103"><ele>773.0</ele><time>2026-03-28T14:23:21.999Z</time></trkpt><trkpt lat="40.852756156699556" lon="14.606326796491182"><ele>773.0</ele><time>2026-03-28T14:23:22.999Z</time></trkpt><trkpt lat="40.85276330891386" lon="14.606463968717328"><ele>773.0</ele><time>2026-03-28T14:23:23.999Z</time></trkpt><trkpt lat="40.85277379900848" lon="14.606620483689177"><ele>773.0</ele><time>2026-03-28T14:23:24.999Z</time></trkpt><trkpt lat="40.85276824037426" lon="14.606770050894587"><ele>773.0</ele><time>2026-03-28T14:23:25.999Z</time></trkpt><trkpt lat="40.8527568073932" lon="14.606918538777641"><ele>773.0</ele><time>2026-03-28T14:23:26.999Z</time></trkpt><trkpt lat="40.85275005404567" lon="14.607074801378515"><ele>774.25</ele><time>2026-03-28T14:23:27.999Z</time></trkpt><trkpt lat="40.85272785212441" lon="14.607248893851072"><ele>775.5</ele><time>2026-03-28T14:23:28.998Z</time></trkpt><trkpt lat="40.85270591716255" lon="14.607432733025277"><ele>776.75</ele><time>2026-03-28T14:23:29.998Z</time></trkpt><trkpt lat="40.85269344836116" lon="14.607612264144054"><ele>778.0</ele><time>2026-03-28T14:23:30.998Z</time></trkpt><trkpt lat="40.852697048814505" lon="14.607762495329052"><ele>778.4</ele><time>2026-03-28T14:23:31.998Z</time></trkpt><trkpt lat="40.85269566441223" lon="14.607880930794272"><ele>778.8</ele><time>2026-03-28T14:23:32.998Z</time></trkpt><trkpt lat="40.85265918971475" lon="14.608003112141917"><ele>779.2</ele><time>2026-03-28T14:23:33.998Z</time></trkpt><trkpt lat="40.85261292766784" lon="14.608140782122126"><ele>779.6</ele><time>2026-03-28T14:23:34.998Z</time></trkpt><trkpt lat="40.85257345901262" lon="14.608292248542886"><ele>780.0</ele><time>2026-03-28T14:23:35.998Z</time></trkpt><trkpt lat="40.852547016503856" lon="14.608440848929126"><ele>779.2</ele><time>2026-03-28T14:23:36.998Z</time></trkpt><trkpt lat="40.852532198963154" lon="14.608566546136958"><ele>778.4</ele><time>2026-03-28T14:23:37.998Z</time></trkpt><trkpt lat="40.85254061213905" lon="14.608700222946496"><ele>777.5999999999999</ele><time>2026-03-28T14:23:38.998Z</time></trkpt><trkpt lat="40.85257018383187" lon="14.608824601184029"><ele>776.8</ele><time>2026-03-28T14:23:39.998Z</time></trkpt><trkpt lat="40.8526064589316" lon="14.608943195871277"><ele>776.0</ele><time>2026-03-28T14:23:40.998Z</time></trkpt><trkpt lat="40.85266733984061" lon="14.609075896601814"><ele>776.0</ele><time>2026-03-28T14:23:41.998Z</time></trkpt><trkpt lat="40.852737177552434" lon="14.609209487453938"><ele>776.0</ele><time>2026-03-28T14:23:42.998Z</time></trkpt><trkpt lat="40.85277911422615" lon="14.609346079606746"><ele>776.0</ele><time>2026-03-28T14:23:43.998Z</time></trkpt><trkpt lat="40.852845207766016" lon="14.609474500876496"><ele>776.0</ele><time>2026-03-28T14:23:45Z</time></trkpt><trkpt lat="40.85292971132936" lon="14.609606104323696"><ele>775.1999999999999</ele><time>2026-03-28T14:23:46Z</time></trkpt><trkpt lat="40.853003133767146" lon="14.609724089408294"><ele>774.4</ele><time>2026-03-28T14:23:47Z</time></trkpt><trkpt lat="40.853082452370614" lon="14.609838690241823"><ele>773.6</ele><time>2026-03-28T14:23:48Z</time></trkpt><trkpt lat="40.85314375800352" lon="14.609934935670138"><ele>772.8</ele><time>2026-03-28T14:23:49Z</time></trkpt><trkpt lat="40.853228057813176" lon="14.610025910177477"><ele>772.0</ele><time>2026-03-28T14:23:50Z</time></trkpt><trkpt lat="40.85333238586713" lon="14.610087283025836"><ele>771.9999999999999</ele><time>2026-03-28T14:23:51Z</time></trkpt><trkpt lat="40.853394696304456" lon="14.610171744174387"><ele>772.0</ele><time>2026-03-28T14:23:52Z</time></trkpt><trkpt lat="40.85340944280616" lon="14.610275637126255"><ele>772.0</ele><time>2026-03-28T14:23:53Z</time></trkpt><trkpt lat="40.85341086841142" lon="14.610396727146481"><ele>772.0</ele><time>2026-03-28T14:23:54Z</time></trkpt><trkpt lat="40.85339593134402" lon="14.610527927296637"><ele>771.9999999999999</ele><time>2026-03-28T14:23:55Z</time></trkpt><trkpt lat="40.85337042212748" lon="14.610630839814592"><ele>772.0</ele><time>2026-03-28T14:23:56Z</time></trkpt><trkpt lat="40.853363447787785" lon="14.610760687032814"><ele>772.0</ele><time>2026-03-28T14:23:58Z</time></trkpt><trkpt lat="40.85333180885456" lon="14.610845807480901"><ele>772.0</ele><time>2026-03-28T14:24:00Z</time></trkpt><trkpt lat="40.85326811949772" lon="14.610875392756867"><ele>772.0</ele><time>2026-03-28T14:24:03Z</time></trkpt><trkpt lat="40.85313315608976" lon="14.610855488107841"><ele>772.0</ele><time>2026-03-28T14:24:06Z</time></trkpt><trkpt lat="40.85285176991252" lon="14.610860770770785"><ele>772.0</ele><time>2026-03-28T14:24:09Z</time></trkpt><trkpt lat="40.852719613801604" lon="14.610838369444444"><ele>772.0</ele><time>2026-03-28T14:24:10Z</time></trkpt><trkpt lat="40.852570462095855" lon="14.610827264768698"><ele>772.0</ele><time>2026-03-28T14:24:11Z</time></trkpt><trkpt lat="40.85241501702125" lon="14.61081958454114"><ele>772.0</ele><time>2026-03-28T14:24:12Z</time></trkpt><trkpt lat="40.85224447240855" lon="14.610807500958186"><ele>770.0</ele><time>2026-03-28T14:24:13Z</time></trkpt><trkpt lat="40.85209792882254" lon="14.610789487148818"><ele>768.0</ele><time>2026-03-28T14:24:14Z</time></trkpt><trkpt lat="40.85197317634761" lon="14.610775169460233"><ele>766.0</ele><time>2026-03-28T14:24:15Z</time></trkpt><trkpt lat="40.85184642930237" lon="14.61077144677917"><ele>764.0</ele><time>2026-03-28T14:24:16Z</time></trkpt><trkpt lat="40.85171305435395" lon="14.610795887603487"><ele>763.25</ele><time>2026-03-28T14:24:17Z</time></trkpt><trkpt lat="40.85157272560888" lon="14.61085858109157"><ele>762.5</ele><time>2026-03-28T14:24:18Z</time></trkpt><trkpt lat="40.851440405398066" lon="14.61095566214297"><ele>761.75</ele><time>2026-03-28T14:24:19Z</time></trkpt><trkpt lat="40.85132074100267" lon="14.611048084802087"><ele>761.0</ele><time>2026-03-28T14:24:20Z</time></trkpt><trkpt lat="40.85121268472264" lon="14.61111912477223"><ele>760.25</ele><time>2026-03-28T14:24:21Z</time></trkpt><trkpt lat="40.851121533070305" lon="14.611187233253359"><ele>759.5</ele><time>2026-03-28T14:24:22Z</time></trkpt><trkpt lat="40.85102804220725" lon="14.611270796292246"><ele>758.75</ele><time>2026-03-28T14:24:23Z</time></trkpt><trkpt lat="40.850968761926325" lon="14.611424369157438"><ele>758.0</ele><time>2026-03-28T14:24:24Z</time></trkpt><trkpt lat="40.85091838786815" lon="14.611602630577657"><ele>758.0</ele><time>2026-03-28T14:24:25Z</time></trkpt><trkpt lat="40.85088606252476" lon="14.61187178607512"><ele>758.0</ele><time>2026-03-28T14:24:26Z</time></trkpt><trkpt lat="40.85078565218789" lon="14.612018899495519"><ele>758.0</ele><time>2026-03-28T14:24:27Z</time></trkpt><trkpt lat="40.850696994668596" lon="14.612133688018785"><ele>757.75</ele><time>2026-03-28T14:24:28Z</time></trkpt><trkpt lat="40.85063246989006" lon="14.612283405583069"><ele>757.5</ele><time>2026-03-28T14:24:29Z</time></trkpt><trkpt lat="40.850603035992556" lon="14.612441324269744"><ele>757.25</ele><time>2026-03-28T14:24:30Z</time></trkpt><trkpt lat="40.8505715325632" lon="14.612580170930915"><ele>757.0</ele><time>2026-03-28T14:24:31Z</time></trkpt><trkpt lat="40.85053623034603" lon="14.612688245528185"><ele>757.0</ele><time>2026-03-28T14:24:32Z</time></trkpt><trkpt lat="40.85049413798879" lon="14.61277968218394"><ele>757.0</ele><time>2026-03-28T14:24:33Z</time></trkpt><trkpt lat="40.850458384568135" lon="14.612876597764938"><ele>757.0</ele><time>2026-03-28T14:24:34Z</time></trkpt><trkpt lat="40.850401698087" lon="14.612949059882789"><ele>757.0</ele><time>2026-03-28T14:24:35Z</time></trkpt><trkpt lat="40.8503273471263" lon="14.61300401338892"><ele>757.0</ele><time>2026-03-28T14:24:36Z</time></trkpt><trkpt lat="40.850234824458965" lon="14.61304535307426"><ele>757.0</ele><time>2026-03-28T14:24:37Z</time></trkpt><trkpt lat="40.850149386180746" lon="14.613059533697104"><ele>755.6</ele><time>2026-03-28T14:24:38Z</time></trkpt><trkpt lat="40.85004952504398" lon="14.613084748726903"><ele>754.2</ele><time>2026-03-28T14:24:38.999Z</time></trkpt><trkpt lat="40.849945845771025" lon="14.613152971606235"><ele>752.8</ele><time>2026-03-28T14:24:39.999Z</time></trkpt><trkpt lat="40.849854361777446" lon="14.613210456752922"><ele>751.4</ele><time>2026-03-28T14:24:40.999Z</time></trkpt><trkpt lat="40.84977400523807" lon="14.613243227461846"><ele>750.0</ele><time>2026-03-28T14:24:41.999Z</time></trkpt><trkpt lat="40.849684939864694" lon="14.613252404409538"><ele>750.0</ele><time>2026-03-28T14:24:42.999Z</time></trkpt><trkpt lat="40.849569439962906" lon="14.613265888910297"><ele>750.0</ele><time>2026-03-28T14:24:43.999Z</time></trkpt><trkpt lat="40.84944790593414" lon="14.613309571916016"><ele>750.0</ele><time>2026-03-28T14:24:44.999Z</time></trkpt><trkpt lat="40.84930447058818" lon="14.613351436116389"><ele>750.0</ele><time>2026-03-28T14:24:45.999Z</time></trkpt><trkpt lat="40.84918336789554" lon="14.613369731543981"><ele>748.6</ele><time>2026-03-28T14:24:46.999Z</time></trkpt><trkpt lat="40.849081385024874" lon="14.61337197308309"><ele>747.2</ele><time>2026-03-28T14:24:47.999Z</time></trkpt><trkpt lat="40.84897517070266" lon="14.613374765204618"><ele>745.8</ele><time>2026-03-28T14:24:48.999Z</time></trkpt><trkpt lat="40.8488608387916" lon="14.613406524867962"><ele>744.4</ele><time>2026-03-28T14:24:49.999Z</time></trkpt><trkpt lat="40.84875257443003" lon="14.613463439966598"><ele>743.0</ele><time>2026-03-28T14:24:50.999Z</time></trkpt><trkpt lat="40.848664159334376" lon="14.613565597302903"><ele>741.75</ele><time>2026-03-28T14:24:51.999Z</time></trkpt><trkpt lat="40.84859002130342" lon="14.61370180924411"><ele>740.5</ele><time>2026-03-28T14:24:52.999Z</time></trkpt><trkpt lat="40.8485140981627" lon="14.613839209624869"><ele>739.25</ele><time>2026-03-28T14:24:53.999Z</time></trkpt><trkpt lat="40.84843164457476" lon="14.613964116823828"><ele>738.0</ele><time>2026-03-28T14:24:54.999Z</time></trkpt><trkpt lat="40.84833041509464" lon="14.614075229573876"><ele>737.6666666666666</ele><time>2026-03-28T14:24:55.999Z</time></trkpt><trkpt lat="40.848207567935304" lon="14.614169642225747"><ele>737.3333333333333</ele><time>2026-03-28T14:24:56.999Z</time></trkpt><trkpt lat="40.84806597670125" lon="14.614260594108243"><ele>737.0</ele><time>2026-03-28T14:24:57.999Z</time></trkpt><trkpt lat="40.8479217161077" lon="14.614366929386728"><ele>737.0</ele><time>2026-03-28T14:24:58.999Z</time></trkpt><trkpt lat="40.847778796594454" lon="14.614518960551901"><ele>737.0</ele><time>2026-03-28T14:24:59.999Z</time></trkpt><trkpt lat="40.847646898231986" lon="14.614674803238772"><ele>737.0</ele><time>2026-03-28T14:25:00.999Z</time></trkpt><trkpt lat="40.84753453919367" lon="14.614798438271654"><ele>738.2</ele><time>2026-03-28T14:25:01.999Z</time></trkpt><trkpt lat="40.84744002094012" lon="14.614907961756685"><ele>739.4000000000001</ele><time>2026-03-28T14:25:02.999Z</time></trkpt><trkpt lat="40.847334819750266" lon="14.615017604975794"><ele>740.5999999999999</ele><time>2026-03-28T14:25:03.999Z</time></trkpt><trkpt lat="40.84724415713871" lon="14.61507144947903"><ele>741.8</ele><time>2026-03-28T14:25:04.999Z</time></trkpt><trkpt lat="40.84717845704163" lon="14.615099936818295"><ele>743.0</ele><time>2026-03-28T14:25:05.999Z</time></trkpt><trkpt lat="40.84709681760548" lon="14.6151221849198"><ele>743.0</ele><time>2026-03-28T14:25:06.999Z</time></trkpt><trkpt lat="40.846982896677304" lon="14.615111490090056"><ele>743.0</ele><time>2026-03-28T14:25:07.999Z</time></trkpt><trkpt lat="40.846862653595366" lon="14.615093958429272"><ele>743.0</ele><time>2026-03-28T14:25:08.999Z</time></trkpt><trkpt lat="40.84676853103755" lon="14.615084340499802"><ele>743.0</ele><time>2026-03-28T14:25:09.999Z</time></trkpt><trkpt lat="40.8466813864989" lon="14.615089500723908"><ele>743.0</ele><time>2026-03-28T14:25:10.999Z</time></trkpt><trkpt lat="40.84655436958681" lon="14.615099757918541"><ele>746.0</ele><time>2026-03-28T14:25:11.999Z</time></trkpt><trkpt lat="40.84641116661642" lon="14.615089722510348"><ele>749.0</ele><time>2026-03-28T14:25:12.999Z</time></trkpt><trkpt lat="40.846292339150075" lon="14.615095219520038"><ele>752.0</ele><time>2026-03-28T14:25:13.999Z</time></trkpt><trkpt lat="40.84616928128177" lon="14.615163512239764"><ele>755.0</ele><time>2026-03-28T14:25:14.999Z</time></trkpt><trkpt lat="40.84606737600699" lon="14.615251605656818"><ele>755.25</ele><time>2026-03-28T14:25:15.999Z</time></trkpt><trkpt lat="40.84597508812847" lon="14.615344616056076"><ele>755.5</ele><time>2026-03-28T14:25:16.999Z</time></trkpt><trkpt lat="40.8458879512466" lon="14.61545144409627"><ele>755.75</ele><time>2026-03-28T14:25:17.999Z</time></trkpt><trkpt lat="40.845816352442775" lon="14.615594490651784"><ele>756.0</ele><time>2026-03-28T14:25:18.999Z</time></trkpt><trkpt lat="40.845761171099966" lon="14.615739033019425"><ele>756.0</ele><time>2026-03-28T14:25:19.999Z</time></trkpt><trkpt lat="40.84572801428921" lon="14.615861450672094"><ele>756.0</ele><time>2026-03-28T14:25:20.999Z</time></trkpt><trkpt lat="40.84568329342222" lon="14.615957110232875"><ele>756.0</ele><time>2026-03-28T14:25:21.999Z</time></trkpt><trkpt lat="40.84563337627121" lon="14.616072382320375"><ele>756.0</ele><time>2026-03-28T14:25:22.999Z</time></trkpt><trkpt lat="40.84559849607617" lon="14.616228549012504"><ele>756.0</ele><time>2026-03-28T14:25:23.999Z</time></trkpt><trkpt lat="40.84558279601577" lon="14.616410132293172"><ele>757.25</ele><time>2026-03-28T14:25:24.999Z</time></trkpt><trkpt lat="40.845587310149064" lon="14.616586145873844"><ele>758.5</ele><time>2026-03-28T14:25:25.999Z</time></trkpt><trkpt lat="40.84556093740086" lon="14.616728389234792"><ele>759.75</ele><time>2026-03-28T14:25:26.999Z</time></trkpt><trkpt lat="40.845511550537985" lon="14.61685457613161"><ele>761.0</ele><time>2026-03-28T14:25:27.999Z</time></trkpt><trkpt lat="40.845465235599676" lon="14.61700612415488"><ele>761.6666666666666</ele><time>2026-03-28T14:25:28.999Z</time></trkpt><trkpt lat="40.845448849594064" lon="14.617183922894453"><ele>762.3333333333334</ele><time>2026-03-28T14:25:29.999Z</time></trkpt><trkpt lat="40.84546029124072" lon="14.617397059016595"><ele>763.0</ele><time>2026-03-28T14:25:30.999Z</time></trkpt><trkpt lat="40.84547525147874" lon="14.617648288389347"><ele>765.25</ele><time>2026-03-28T14:25:31.999Z</time></trkpt><trkpt lat="40.845477475553054" lon="14.617855199309005"><ele>767.5</ele><time>2026-03-28T14:25:32.999Z</time></trkpt><trkpt lat="40.84549888745587" lon="14.618005850038077"><ele>769.75</ele><time>2026-03-28T14:25:33.999Z</time></trkpt><trkpt lat="40.845542161358225" lon="14.618151682914284"><ele>772.0</ele><time>2026-03-28T14:25:34.999Z</time></trkpt><trkpt lat="40.84559668947948" lon="14.618319276346298"><ele>772.0</ele><time>2026-03-28T14:25:35.999Z</time></trkpt><trkpt lat="40.845632945470335" lon="14.618508309698093"><ele>772.0</ele><time>2026-03-28T14:25:36.999Z</time></trkpt><trkpt lat="40.84563613101399" lon="14.61870370051714"><ele>772.0</ele><time>2026-03-28T14:25:37.998Z</time></trkpt><trkpt lat="40.84563594366485" lon="14.618905131720597"><ele>772.0</ele><time>2026-03-28T14:25:38.998Z</time></trkpt><trkpt lat="40.84563583369624" lon="14.619122033385464"><ele>773.25</ele><time>2026-03-28T14:25:39.998Z</time></trkpt><trkpt lat="40.84564116519866" lon="14.61931198815615"><ele>774.5</ele><time>2026-03-28T14:25:40.998Z</time></trkpt><trkpt lat="40.84565956413555" lon="14.619495459006409"><ele>775.75</ele><time>2026-03-28T14:25:41.998Z</time></trkpt><trkpt lat="40.845677212008766" lon="14.619654627483074"><ele>777.0</ele><time>2026-03-28T14:25:42.998Z</time></trkpt><trkpt lat="40.84566924034089" lon="14.619810178434298"><ele>779.0</ele><time>2026-03-28T14:25:43.998Z</time></trkpt><trkpt lat="40.845621632223114" lon="14.619973190648967"><ele>781.0</ele><time>2026-03-28T14:25:44.998Z</time></trkpt><trkpt lat="40.845542629593936" lon="14.620145628621529"><ele>783.0</ele><time>2026-03-28T14:25:45.998Z</time></trkpt><trkpt lat="40.84544806565635" lon="14.620334128476081"><ele>783.6666666666667</ele><time>2026-03-28T14:25:46.998Z</time></trkpt><trkpt lat="40.845366086791266" lon="14.620541896524498"><ele>784.3333333333334</ele><time>2026-03-28T14:25:47.998Z</time></trkpt><trkpt lat="40.84530145631369" lon="14.620774517714963"><ele>785.0</ele><time>2026-03-28T14:25:48.998Z</time></trkpt><trkpt lat="40.845247734201216" lon="14.62100722309368"><ele>786.6666666666667</ele><time>2026-03-28T14:25:49.998Z</time></trkpt><trkpt lat="40.84520930663094" lon="14.621231426022298"><ele>788.3333333333333</ele><time>2026-03-28T14:25:51Z</time></trkpt><trkpt lat="40.845174911322616" lon="14.621444747043583"><ele>790.0</ele><time>2026-03-28T14:25:52Z</time></trkpt><trkpt lat="40.84512464474344" lon="14.621647832338239"><ele>791.3333333333333</ele><time>2026-03-28T14:25:53Z</time></trkpt><trkpt lat="40.84506751863384" lon="14.621841903084354"><ele>792.6666666666667</ele><time>2026-03-28T14:25:54Z</time></trkpt><trkpt lat="40.8450098067001" lon="14.622031751072884"><ele>794.0</ele><time>2026-03-28T14:25:55Z</time></trkpt><trkpt lat="40.84494487929121" lon="14.622215898016067"><ele>796.3333333333334</ele><time>2026-03-28T14:25:56Z</time></trkpt><trkpt lat="40.844864139566624" lon="14.62239290895015"><ele>798.6666666666667</ele><time>2026-03-28T14:25:57Z</time></trkpt><trkpt lat="40.84477069365421" lon="14.622558921372637"><ele>801.0</ele><time>2026-03-28T14:25:58Z</time></trkpt><trkpt lat="40.84469091512083" lon="14.622748962323998"><ele>804.6666666666667</ele><time>2026-03-28T14:25:59Z</time></trkpt><trkpt lat="40.844645857364924" lon="14.622977757769712"><ele>808.3333333333334</ele><time>2026-03-28T14:26:00Z</time></trkpt><trkpt lat="40.84461195474829" lon="14.623219816754307"><ele>812.0</ele><time>2026-03-28T14:26:01Z</time></trkpt><trkpt lat="40.8445774048289" lon="14.623429034508192"><ele>812.0</ele><time>2026-03-28T14:26:02Z</time></trkpt><trkpt lat="40.844547593997625" lon="14.623604363982466"><ele>812.0</ele><time>2026-03-28T14:26:03Z</time></trkpt><trkpt lat="40.844518574233675" lon="14.623773619102414"><ele>812.0</ele><time>2026-03-28T14:26:04Z</time></trkpt><trkpt lat="40.84444581085481" lon="14.623944994495336"><ele>812.0</ele><time>2026-03-28T14:26:05Z</time></trkpt><trkpt lat="40.84436272167674" lon="14.624120215853766"><ele>816.25</ele><time>2026-03-28T14:26:06Z</time></trkpt><trkpt lat="40.84431252572273" lon="14.624324053805223"><ele>820.5</ele><time>2026-03-28T14:26:07Z</time></trkpt><trkpt lat="40.84428627696315" lon="14.624504322840737"><ele>824.75</ele><time>2026-03-28T14:26:08Z</time></trkpt><trkpt lat="40.84424506684818" lon="14.624659299796132"><ele>829.0</ele><time>2026-03-28T14:26:09Z</time></trkpt><trkpt lat="40.844170203814" lon="14.624816506088447"><ele>829.0</ele><time>2026-03-28T14:26:10Z</time></trkpt><trkpt lat="40.84407333911434" lon="14.624969752964233"><ele>829.0</ele><time>2026-03-28T14:26:11Z</time></trkpt><trkpt lat="40.84396516952174" lon="14.625139029768725"><ele>829.0</ele><time>2026-03-28T14:26:12Z</time></trkpt><trkpt lat="40.84385452550934" lon="14.62531021038896"><ele>829.3333333333333</ele><time>2026-03-28T14:26:13Z</time></trkpt><trkpt lat="40.8437330558823" lon="14.625467997219616"><ele>829.6666666666667</ele><time>2026-03-28T14:26:14Z</time></trkpt><trkpt lat="40.843598401857236" lon="14.625606521284354"><ele>830.0</ele><time>2026-03-28T14:26:15Z</time></trkpt><trkpt lat="40.8434754210172" lon="14.625731990275387"><ele>830.0</ele><time>2026-03-28T14:26:16Z</time></trkpt><trkpt lat="40.84335232206124" lon="14.625875310333363"><ele>830.0</ele><time>2026-03-28T14:26:17Z</time></trkpt><trkpt lat="40.843229315854884" lon="14.626029428883038"><ele>830.0</ele><time>2026-03-28T14:26:18Z</time></trkpt><trkpt lat="40.843129429881486" lon="14.626171269082159"><ele>830.0</ele><time>2026-03-28T14:26:19Z</time></trkpt><trkpt lat="40.84303366527473" lon="14.62630728599117"><ele>830.0</ele><time>2026-03-28T14:26:20Z</time></trkpt><trkpt lat="40.84292139159964" lon="14.626452436755928"><ele>830.0</ele><time>2026-03-28T14:26:21Z</time></trkpt><trkpt lat="40.84279465284109" lon="14.626596897318068"><ele>830.0</ele><time>2026-03-28T14:26:22Z</time></trkpt><trkpt lat="40.84265897274743" lon="14.626738413011738"><ele>830.0</ele><time>2026-03-28T14:26:23Z</time></trkpt><trkpt lat="40.84255438432016" lon="14.62687640245032"><ele>830.0</ele><time>2026-03-28T14:26:24Z</time></trkpt><trkpt lat="40.84247035745195" lon="14.627020007031053"><ele>830.75</ele><time>2026-03-28T14:26:25Z</time></trkpt><trkpt lat="40.842413138028675" lon="14.627157957712006"><ele>831.5</ele><time>2026-03-28T14:26:26Z</time></trkpt><trkpt lat="40.84237201186134" lon="14.627307379410476"><ele>832.25</ele><time>2026-03-28T14:26:27Z</time></trkpt><trkpt lat="40.84235162744444" lon="14.62748555154419"><ele>833.0</ele><time>2026-03-28T14:26:28Z</time></trkpt><trkpt lat="40.842318154859676" lon="14.62766872150138"><ele>833.75</ele><time>2026-03-28T14:26:29Z</time></trkpt><trkpt lat="40.842278661591905" lon="14.62785555705277"><ele>834.5</ele><time>2026-03-28T14:26:30Z</time></trkpt><trkpt lat="40.84222319615404" lon="14.628036416192696"><ele>835.25</ele><time>2026-03-28T14:26:31Z</time></trkpt><trkpt lat="40.842171627869334" lon="14.628218996024152"><ele>836.0</ele><time>2026-03-28T14:26:32Z</time></trkpt><trkpt lat="40.842131312666105" lon="14.628409105260845"><ele>836.0</ele><time>2026-03-28T14:26:33Z</time></trkpt><trkpt lat="40.84209120698721" lon="14.628601619826455"><ele>836.0</ele><time>2026-03-28T14:26:34Z</time></trkpt><trkpt lat="40.842046313478534" lon="14.628804737911064"><ele>836.0</ele><time>2026-03-28T14:26:35Z</time></trkpt><trkpt lat="40.84199589019094" lon="14.62902153550459"><ele>837.6666666666667</ele><time>2026-03-28T14:26:36Z</time></trkpt><trkpt lat="40.84194357323417" lon="14.629251294413068"><ele>839.3333333333333</ele><time>2026-03-28T14:26:37Z</time></trkpt><trkpt lat="40.841897205017084" lon="14.62948083163991"><ele>841.0</ele><time>2026-03-28T14:26:38Z</time></trkpt><trkpt lat="40.84186141637838" lon="14.629706866449663"><ele>841.0</ele><time>2026-03-28T14:26:39Z</time></trkpt><trkpt lat="40.84182274021729" lon="14.629926323568034"><ele>841.0</ele><time>2026-03-28T14:26:40Z</time></trkpt><trkpt lat="40.84176670172307" lon="14.630127408717799"><ele>841.0</ele><time>2026-03-28T14:26:41Z</time></trkpt><trkpt lat="40.8416907242751" lon="14.630325963523953"><ele>842.3333333333333</ele><time>2026-03-28T14:26:42Z</time></trkpt><trkpt lat="40.84163891854421" lon="14.630532691181571"><ele>843.6666666666667</ele><time>2026-03-28T14:26:43Z</time></trkpt><trkpt lat="40.84159939394353" lon="14.630739192910681"><ele>845.0</ele><time>2026-03-28T14:26:44Z</time></trkpt><trkpt lat="40.841561381885285" lon="14.630944041467224"><ele>846.6666666666667</ele><time>2026-03-28T14:26:45Z</time></trkpt><trkpt lat="40.84153360190288" lon="14.63115496158817"><ele>848.3333333333333</ele><time>2026-03-28T14:26:46Z</time></trkpt><trkpt lat="40.84151079553185" lon="14.631357838683037"><ele>850.0</ele><time>2026-03-28T14:26:47Z</time></trkpt><trkpt lat="40.84150007822881" lon="14.631533372245208"><ele>850.0</ele><time>2026-03-28T14:26:48Z</time></trkpt><trkpt lat="40.84149675359857" lon="14.631684008032629"><ele>850.0</ele><time>2026-03-28T14:26:48.999Z</time></trkpt><trkpt lat="40.84149607847138" lon="14.6318222631942"><ele>850.0</ele><time>2026-03-28T14:26:49.999Z</time></trkpt><trkpt lat="40.84149922582805" lon="14.631970447660457"><ele>850.0</ele><time>2026-03-28T14:26:50.999Z</time></trkpt><trkpt lat="40.84150928946622" lon="14.632126896654428"><ele>852.3333333333333</ele><time>2026-03-28T14:26:51.999Z</time></trkpt><trkpt lat="40.84151385618259" lon="14.632268608671701"><ele>854.6666666666666</ele><time>2026-03-28T14:26:52.999Z</time></trkpt><trkpt lat="40.84149940159696" lon="14.632383943659459"><ele>857.0</ele><time>2026-03-28T14:26:53.999Z</time></trkpt><trkpt lat="40.841461800894976" lon="14.632472092442317"><ele>859.3333333333333</ele><time>2026-03-28T14:26:54.999Z</time></trkpt><trkpt lat="40.84140706407852" lon="14.632530312922134"><ele>861.6666666666666</ele><time>2026-03-28T14:26:55.999Z</time></trkpt><trkpt lat="40.84134313633212" lon="14.632573075114411"><ele>864.0</ele><time>2026-03-28T14:26:56.999Z</time></trkpt><trkpt lat="40.841270768433134" lon="14.632572081870764"><ele>864.0</ele><time>2026-03-28T14:26:57.999Z</time></trkpt><trkpt lat="40.841175962826455" lon="14.632578197957162"><ele>864.0</ele><time>2026-03-28T14:26:58.999Z</time></trkpt><trkpt lat="40.841060130432474" lon="14.63262251156653"><ele>864.0</ele><time>2026-03-28T14:26:59.999Z</time></trkpt><trkpt lat="40.8409360765722" lon="14.632711523192658"><ele>864.0</ele><time>2026-03-28T14:27:00.999Z</time></trkpt><trkpt lat="40.84081588493369" lon="14.632793254655853"><ele>867.75</ele><time>2026-03-28T14:27:01.999Z</time></trkpt><trkpt lat="40.84070650767562" lon="14.632885385796328"><ele>871.5</ele><time>2026-03-28T14:27:02.999Z</time></trkpt><trkpt lat="40.840608739417355" lon="14.63299093893566"><ele>875.25</ele><time>2026-03-28T14:27:03.999Z</time></trkpt><trkpt lat="40.84054657329295" lon="14.633121868724597"><ele>879.0</ele><time>2026-03-28T14:27:04.999Z</time></trkpt><trkpt lat="40.84049926676691" lon="14.633222894006755"><ele>879.0</ele><time>2026-03-28T14:27:05.999Z</time></trkpt><trkpt lat="40.840426095078584" lon="14.633305122266895"><ele>879.0000000000001</ele><time>2026-03-28T14:27:06.999Z</time></trkpt><trkpt lat="40.84033087248878" lon="14.633378321136606"><ele>879.0000000000001</ele><time>2026-03-28T14:27:07.999Z</time></trkpt><trkpt lat="40.840259067113166" lon="14.633454088095041"><ele>879.0</ele><time>2026-03-28T14:27:08.999Z</time></trkpt><trkpt lat="40.84022099124118" lon="14.633531006791745"><ele>879.0</ele><time>2026-03-28T14:27:09.999Z</time></trkpt><trkpt lat="40.84020644027011" lon="14.633663116581783"><ele>881.8000000000001</ele><time>2026-03-28T14:27:10.999Z</time></trkpt><trkpt lat="40.8401958974279" lon="14.633771853753304"><ele>884.6000000000001</ele><time>2026-03-28T14:27:11.999Z</time></trkpt><trkpt lat="40.84016823935358" lon="14.633900491058423"><ele>887.4</ele><time>2026-03-28T14:27:13.999Z</time></trkpt><trkpt lat="40.840053701750314" lon="14.633953298578092"><ele>890.2</ele><time>2026-03-28T14:27:15.999Z</time></trkpt><trkpt lat="40.839962548978264" lon="14.63394260027192"><ele>893.0</ele><time>2026-03-28T14:27:16.999Z</time></trkpt><trkpt lat="40.839867902769015" lon="14.633951408165714"><ele>893.0</ele><time>2026-03-28T14:27:17.999Z</time></trkpt><trkpt lat="40.83979874374772" lon="14.633967927241677"><ele>893.0</ele><time>2026-03-28T14:27:18.999Z</time></trkpt><trkpt lat="40.83972136210171" lon="14.63404744094936"><ele>893.0</ele><time>2026-03-28T14:27:20.999Z</time></trkpt><trkpt lat="40.83967950484246" lon="14.634129270209815"><ele>893.0</ele><time>2026-03-28T14:27:21.999Z</time></trkpt><trkpt lat="40.83962237421023" lon="14.634255956045617"><ele>893.0</ele><time>2026-03-28T14:27:22.999Z</time></trkpt><trkpt lat="40.83954709732918" lon="14.634380161071476"><ele>893.25</ele><time>2026-03-28T14:27:23.999Z</time></trkpt><trkpt lat="40.83944951317328" lon="14.634483537184092"><ele>893.5</ele><time>2026-03-28T14:27:24.999Z</time></trkpt><trkpt lat="40.839350606652154" lon="14.63461457394746"><ele>893.75</ele><time>2026-03-28T14:27:25.999Z</time></trkpt><trkpt lat="40.83926520428203" lon="14.63473279169674"><ele>894.0</ele><time>2026-03-28T14:27:26.999Z</time></trkpt><trkpt lat="40.83916929130248" lon="14.63483023090471"><ele>894.0</ele><time>2026-03-28T14:27:27.999Z</time></trkpt><trkpt lat="40.83906656325921" lon="14.63492919989151"><ele>894.0</ele><time>2026-03-28T14:27:28.999Z</time></trkpt><trkpt lat="40.838961972956625" lon="14.635008996184075"><ele>894.0</ele><time>2026-03-28T14:27:29.999Z</time></trkpt><trkpt lat="40.83886980457275" lon="14.635091773009087"><ele>894.0</ele><time>2026-03-28T14:27:30.999Z</time></trkpt><trkpt lat="40.838804462470705" lon="14.635201315640472"><ele>899.8000000000001</ele><time>2026-03-28T14:27:31.999Z</time></trkpt><trkpt lat="40.83875128121145" lon="14.635320353118065"><ele>905.6000000000001</ele><time>2026-03-28T14:27:32.999Z</time></trkpt><trkpt lat="40.83873771596189" lon="14.635459552162077"><ele>911.4</ele><time>2026-03-28T14:27:33.999Z</time></trkpt><trkpt lat="40.838743273060466" lon="14.635596475295491"><ele>917.2</ele><time>2026-03-28T14:27:34.999Z</time></trkpt><trkpt lat="40.838737867535215" lon="14.635703173934447"><ele>923.0</ele><time>2026-03-28T14:27:35.999Z</time></trkpt><trkpt lat="40.83867133025942" lon="14.63578840382038"><ele>923.0</ele><time>2026-03-28T14:27:36.999Z</time></trkpt><trkpt lat="40.838563196365" lon="14.635893237917093"><ele>923.0</ele><time>2026-03-28T14:27:37.999Z</time></trkpt><trkpt lat="40.838473583685854" lon="14.636025225008808"><ele>923.0</ele><time>2026-03-28T14:27:38.999Z</time></trkpt><trkpt lat="40.83840738767555" lon="14.636135380476926"><ele>923.0</ele><time>2026-03-28T14:27:39.999Z</time></trkpt><trkpt lat="40.83831213950232" lon="14.636198125754442"><ele>923.0</ele><time>2026-03-28T14:27:40.999Z</time></trkpt><trkpt lat="40.83824195224325" lon="14.636265642889272"><ele>923.0</ele><time>2026-03-28T14:27:41.999Z</time></trkpt><trkpt lat="40.83819311319687" lon="14.636374524597066"><ele>923.0</ele><time>2026-03-28T14:27:42.999Z</time></trkpt><trkpt lat="40.838163229564636" lon="14.636495402558475"><ele>923.0</ele><time>2026-03-28T14:27:43.999Z</time></trkpt><trkpt lat="40.83813281570604" lon="14.636586748214965"><ele>923.0</ele><time>2026-03-28T14:27:44.999Z</time></trkpt><trkpt lat="40.83803203519464" lon="14.636645444488504"><ele>923.0</ele><time>2026-03-28T14:27:46.999Z</time></trkpt><trkpt lat="40.83794609808464" lon="14.636645219689434"><ele>923.0</ele><time>2026-03-28T14:27:47.998Z</time></trkpt><trkpt lat="40.83783394174932" lon="14.636688058351771"><ele>923.0</ele><time>2026-03-28T14:27:48.998Z</time></trkpt><trkpt lat="40.83770681617561" lon="14.63673674176625"><ele>923.0</ele><time>2026-03-28T14:27:49.998Z</time></trkpt><trkpt lat="40.837588314066466" lon="14.636778731562659"><ele>924.25</ele><time>2026-03-28T14:27:50.998Z</time></trkpt><trkpt lat="40.837491995833446" lon="14.636843084418352"><ele>925.5</ele><time>2026-03-28T14:27:51.998Z</time></trkpt><trkpt lat="40.83740769154296" lon="14.636914631834951"><ele>926.75</ele><time>2026-03-28T14:27:52.998Z</time></trkpt><trkpt lat="40.83730511234489" lon="14.637010853257094"><ele>928.0</ele><time>2026-03-28T14:27:53.998Z</time></trkpt><trkpt lat="40.8371868995034" lon="14.637136843467616"><ele>928.0</ele><time>2026-03-28T14:27:54.998Z</time></trkpt><trkpt lat="40.83707988114504" lon="14.637263138231955"><ele>928.0</ele><time>2026-03-28T14:27:55.998Z</time></trkpt><trkpt lat="40.836997817153495" lon="14.637365169020649"><ele>928.0</ele><time>2026-03-28T14:27:57Z</time></trkpt><trkpt lat="40.836931070930554" lon="14.637474684240424"><ele>928.0</ele><time>2026-03-28T14:27:58Z</time></trkpt><trkpt lat="40.836871571841634" lon="14.637597925415346"><ele>928.0</ele><time>2026-03-28T14:27:59Z</time></trkpt><trkpt lat="40.83681144744022" lon="14.637713601317781"><ele>928.0</ele><time>2026-03-28T14:28:00Z</time></trkpt><trkpt lat="40.83675350974015" lon="14.637825986089647"><ele>928.0</ele><time>2026-03-28T14:28:01Z</time></trkpt><trkpt lat="40.83670347263891" lon="14.637922106707475"><ele>928.0</ele><time>2026-03-28T14:28:02Z</time></trkpt><trkpt lat="40.83665662406324" lon="14.638011428091634"><ele>928.0</ele><time>2026-03-28T14:28:03Z</time></trkpt><trkpt lat="40.836614322671444" lon="14.638129927994433"><ele>926.2</ele><time>2026-03-28T14:28:04Z</time></trkpt><trkpt lat="40.836569928838706" lon="14.638224756569088"><ele>924.4</ele><time>2026-03-28T14:28:05Z</time></trkpt><trkpt lat="40.836507265972756" lon="14.638354865934181"><ele>922.6000000000001</ele><time>2026-03-28T14:28:07Z</time></trkpt><trkpt lat="40.836463063116845" lon="14.638435548215007"><ele>920.8000000000001</ele><time>2026-03-28T14:28:09Z</time></trkpt><trkpt lat="40.83640250386051" lon="14.638556553174364"><ele>919.0</ele><time>2026-03-28T14:28:11Z</time></trkpt><trkpt lat="40.836362702458565" lon="14.638649395579376"><ele>917.2</ele><time>2026-03-28T14:28:12Z</time></trkpt><trkpt lat="40.83633980218926" lon="14.63877567107839"><ele>915.4000000000001</ele><time>2026-03-28T14:28:13Z</time></trkpt><trkpt lat="40.836312873923454" lon="14.638937330478452"><ele>913.6</ele><time>2026-03-28T14:28:14Z</time></trkpt><trkpt lat="40.83628811072412" lon="14.639071876701676"><ele>911.8</ele><time>2026-03-28T14:28:15Z</time></trkpt><trkpt lat="40.836253793197415" lon="14.639165270737365"><ele>910.0</ele><time>2026-03-28T14:28:16Z</time></trkpt><trkpt lat="40.83625276872325" lon="14.63927773876908"><ele>910.0</ele><time>2026-03-28T14:28:18Z</time></trkpt><trkpt lat="40.83631877618572" lon="14.639262194990193"><ele>910.0</ele><time>2026-03-28T14:28:20Z</time></trkpt><trkpt lat="40.83639326960281" lon="14.639195926531446"><ele>910.0</ele><time>2026-03-28T14:28:22Z</time></trkpt><trkpt lat="40.836484781760944" lon="14.639118906505423"><ele>910.0</ele><time>2026-03-28T14:28:24Z</time></trkpt><trkpt lat="40.83659888115002" lon="14.639145624218012"><ele>910.0</ele><time>2026-03-28T14:28:26Z</time></trkpt><trkpt lat="40.836670373415856" lon="14.639191668892598"><ele>909.9999999999999</ele><time>2026-03-28T14:28:27Z</time></trkpt><trkpt lat="40.836734210741106" lon="14.639254879682582"><ele>910.0</ele><time>2026-03-28T14:28:28Z</time></trkpt><trkpt lat="40.83679071243858" lon="14.639333680495318"><ele>910.0</ele><time>2026-03-28T14:28:29Z</time></trkpt><trkpt lat="40.836838764639836" lon="14.639416613527803"><ele>910.0</ele><time>2026-03-28T14:28:30Z</time></trkpt><trkpt lat="40.836881069592835" lon="14.639508480280801"><ele>909.9999999999999</ele><time>2026-03-28T14:28:31Z</time></trkpt><trkpt lat="40.836922958271614" lon="14.639614936778804"><ele>910.0</ele><time>2026-03-28T14:28:32Z</time></trkpt><trkpt lat="40.83696088651223" lon="14.639702137718801"><ele>911.4</ele><time>2026-03-28T14:28:33Z</time></trkpt><trkpt lat="40.83700945954905" lon="14.639838901139733"><ele>912.8</ele><time>2026-03-28T14:28:35Z</time></trkpt><trkpt lat="40.836977098319636" lon="14.639926555315228"><ele>914.2</ele><time>2026-03-28T14:28:37Z</time></trkpt><trkpt lat="40.83686642346052" lon="14.639916324877348"><ele>915.6</ele><time>2026-03-28T14:28:39Z</time></trkpt><trkpt lat="40.83680399984723" lon="14.639850845543124"><ele>917.0</ele><time>2026-03-28T14:28:40Z</time></trkpt><trkpt lat="40.836719664721116" lon="14.639784476916937"><ele>914.0000000000001</ele><time>2026-03-28T14:28:41Z</time></trkpt><trkpt lat="40.83662753404624" lon="14.639757702635386"><ele>911.0</ele><time>2026-03-28T14:28:42Z</time></trkpt><trkpt lat="40.83654715465574" lon="14.639786804963714"><ele>908.0</ele><time>2026-03-28T14:28:43Z</time></trkpt><trkpt lat="40.8364736699795" lon="14.63984574294957"><ele>905.0</ele><time>2026-03-28T14:28:44Z</time></trkpt><trkpt lat="40.83641940082963" lon="14.639942686406897"><ele>902.0000000000001</ele><time>2026-03-28T14:28:45Z</time></trkpt><trkpt lat="40.83638762292307" lon="14.640052536240834"><ele>899.0</ele><time>2026-03-28T14:28:46Z</time></trkpt><trkpt lat="40.83635976586009" lon="14.64021170098541"><ele>896.5</ele><time>2026-03-28T14:28:47Z</time></trkpt><trkpt lat="40.836331979565" lon="14.640373535870493"><ele>894.0</ele><time>2026-03-28T14:28:48Z</time></trkpt><trkpt lat="40.836288425778996" lon="14.640527064266404"><ele>891.5</ele><time>2026-03-28T14:28:49Z</time></trkpt><trkpt lat="40.83623674669529" lon="14.640682931605761"><ele>889.0</ele><time>2026-03-28T14:28:50Z</time></trkpt><trkpt lat="40.836195364213545" lon="14.640856813001394"><ele>889.0</ele><time>2026-03-28T14:28:51Z</time></trkpt><trkpt lat="40.836177746138056" lon="14.641053950834012"><ele>889.0</ele><time>2026-03-28T14:28:52Z</time></trkpt><trkpt lat="40.83616851938626" lon="14.641281816904527"><ele>889.0</ele><time>2026-03-28T14:28:53Z</time></trkpt><trkpt lat="40.83615820058057" lon="14.641512971617868"><ele>886.6666666666666</ele><time>2026-03-28T14:28:54Z</time></trkpt><trkpt lat="40.83613960971958" lon="14.641761904106925"><ele>884.3333333333333</ele><time>2026-03-28T14:28:55Z</time></trkpt><trkpt lat="40.836111375899286" lon="14.642009346492245"><ele>882.0</ele><time>2026-03-28T14:28:56Z</time></trkpt><trkpt lat="40.83609057917121" lon="14.64224210899431"><ele>881.3333333333333</ele><time>2026-03-28T14:28:57Z</time></trkpt><trkpt lat="40.83607347059667" lon="14.642480634211031"><ele>880.6666666666666</ele><time>2026-03-28T14:28:58Z</time></trkpt><trkpt lat="40.836054017472144" lon="14.642710336617805"><ele>880.0</ele><time>2026-03-28T14:28:59Z</time></trkpt><trkpt lat="40.83602656358196" lon="14.64293703332817"><ele>879.6666666666666</ele><time>2026-03-28T14:29:00Z</time></trkpt><trkpt lat="40.83599020103842" lon="14.643166782315621"><ele>879.3333333333333</ele><time>2026-03-28T14:29:00.999Z</time></trkpt><trkpt lat="40.83596133250609" lon="14.64341763567303"><ele>879.0</ele><time>2026-03-28T14:29:01.999Z</time></trkpt><trkpt lat="40.83594680258599" lon="14.64368660092357"><ele>874.6666666666667</ele><time>2026-03-28T14:29:02.999Z</time></trkpt><trkpt lat="40.83594386969265" lon="14.643923862932619"><ele>870.3333333333334</ele><time>2026-03-28T14:29:03.999Z</time></trkpt><trkpt lat="40.83593736509487" lon="14.64414404237594"><ele>866.0</ele><time>2026-03-28T14:29:04.999Z</time></trkpt><trkpt lat="40.83593071510253" lon="14.644350047601245"><ele>866.25</ele><time>2026-03-28T14:29:05.999Z</time></trkpt><trkpt lat="40.835923043073755" lon="14.644536348518079"><ele>866.5</ele><time>2026-03-28T14:29:06.999Z</time></trkpt><trkpt lat="40.8359108445648" lon="14.644713473674296"><ele>866.75</ele><time>2026-03-28T14:29:07.999Z</time></trkpt><trkpt lat="40.835895865802" lon="14.644901292208804"><ele>867.0</ele><time>2026-03-28T14:29:08.999Z</time></trkpt><trkpt lat="40.83588522235456" lon="14.645079281472855"><ele>867.0</ele><time>2026-03-28T14:29:09.999Z</time></trkpt><trkpt lat="40.83589496968063" lon="14.645242248482045"><ele>867.0</ele><time>2026-03-28T14:29:10.999Z</time></trkpt><trkpt lat="40.83592173578043" lon="14.645388565757727"><ele>867.0</ele><time>2026-03-28T14:29:11.999Z</time></trkpt><trkpt lat="40.83595005002576" lon="14.645525494221221"><ele>867.0</ele><time>2026-03-28T14:29:12.999Z</time></trkpt><trkpt lat="40.83596283681923" lon="14.645674883818076"><ele>866.4000000000001</ele><time>2026-03-28T14:29:13.999Z</time></trkpt><trkpt lat="40.83595628895318" lon="14.645830643691996"><ele>865.8000000000001</ele><time>2026-03-28T14:29:14.999Z</time></trkpt><trkpt lat="40.8359523756365" lon="14.645976283562776"><ele>865.2</ele><time>2026-03-28T14:29:15.999Z</time></trkpt><trkpt lat="40.83596040601483" lon="14.646109296987154"><ele>864.6</ele><time>2026-03-28T14:29:16.999Z</time></trkpt><trkpt lat="40.835969361977945" lon="14.64621696801566"><ele>864.0</ele><time>2026-03-28T14:29:17.999Z</time></trkpt><trkpt lat="40.83597433756414" lon="14.646302038425764"><ele>867.6</ele><time>2026-03-28T14:29:18.999Z</time></trkpt><trkpt lat="40.83598160809355" lon="14.646438076232648"><ele>871.2</ele><time>2026-03-28T14:29:20.999Z</time></trkpt><trkpt lat="40.83599366633302" lon="14.64659437677612"><ele>874.8000000000001</ele><time>2026-03-28T14:29:22.999Z</time></trkpt><trkpt lat="40.83599671190703" lon="14.646683632805086"><ele>878.4000000000001</ele><time>2026-03-28T14:29:23.999Z</time></trkpt><trkpt lat="40.83599699568014" lon="14.64682151812913"><ele>882.0</ele><time>2026-03-28T14:29:25.999Z</time></trkpt><trkpt lat="40.83599534441704" lon="14.646941051315135"><ele>880.8</ele><time>2026-03-28T14:29:27.999Z</time></trkpt><trkpt lat="40.83599231910893" lon="14.647075461393761"><ele>879.6</ele><time>2026-03-28T14:29:29.999Z</time></trkpt><trkpt lat="40.835993659278465" lon="14.647215740211875"><ele>878.3999999999999</ele><time>2026-03-28T14:29:31.999Z</time></trkpt><trkpt lat="40.83600618097651" lon="14.647367619139121"><ele>877.1999999999999</ele><time>2026-03-28T14:29:33.999Z</time></trkpt><trkpt lat="40.83602894833425" lon="14.647529076124071"><ele>876.0</ele><time>2026-03-28T14:29:35.999Z</time></trkpt><trkpt lat="40.83603770526027" lon="14.647613329194174"><ele>876.0</ele><time>2026-03-28T14:29:36.999Z</time></trkpt><trkpt lat="40.83604628814308" lon="14.647702250678677"><ele>876.0</ele><time>2026-03-28T14:29:37.999Z</time></trkpt><trkpt lat="40.83605838029359" lon="14.647857560995128"><ele>876.0</ele><time>2026-03-28T14:29:39.999Z</time></trkpt><trkpt lat="40.836063187312725" lon="14.647941352158309"><ele>876.0</ele><time>2026-03-28T14:29:40.999Z</time></trkpt><trkpt lat="40.836074589486465" lon="14.648043252028685"><ele>876.0</ele><time>2026-03-28T14:29:41.999Z</time></trkpt><trkpt lat="40.836084965443526" lon="14.648146493063116"><ele>876.0</ele><time>2026-03-28T14:29:42.999Z</time></trkpt><trkpt lat="40.83609001983774" lon="14.648256217030951"><ele>874.7142857142858</ele><time>2026-03-28T14:29:43.999Z</time></trkpt><trkpt lat="40.836092875691755" lon="14.648355679688033"><ele>873.4285714285713</ele><time>2026-03-28T14:29:44.999Z</time></trkpt><trkpt lat="40.83609534757559" lon="14.648442037274723"><ele>872.1428571428571</ele><time>2026-03-28T14:29:45.999Z</time></trkpt><trkpt lat="40.83609212311125" lon="14.648527596718369"><ele>870.8571428571429</ele><time>2026-03-28T14:29:46.999Z</time></trkpt><trkpt lat="40.83609333810864" lon="14.648617756804784"><ele>869.5714285714287</ele><time>2026-03-28T14:29:47.999Z</time></trkpt><trkpt lat="40.83609558142956" lon="14.648703680492991"><ele>868.2857142857142</ele><time>2026-03-28T14:29:48.999Z</time></trkpt><trkpt lat="40.836091690052754" lon="14.648801508670907"><ele>867.0</ele><time>2026-03-28T14:29:49.999Z</time></trkpt><trkpt lat="40.83608869005185" lon="14.648895841849317"><ele>866.0</ele><time>2026-03-28T14:29:50.999Z</time></trkpt><trkpt lat="40.836082657783614" lon="14.648987226275894"><ele>865.0</ele><time>2026-03-28T14:29:51.999Z</time></trkpt><trkpt lat="40.836077218860524" lon="14.649078385113912"><ele>864.0</ele><time>2026-03-28T14:29:52.999Z</time></trkpt><trkpt lat="40.83607327273727" lon="14.649162089663296"><ele>863.0</ele><time>2026-03-28T14:29:53.999Z</time></trkpt><trkpt lat="40.83607249325592" lon="14.649255290738015"><ele>862.0</ele><time>2026-03-28T14:29:54.999Z</time></trkpt><trkpt lat="40.83607897896265" lon="14.649344756936456"><ele>861.0</ele><time>2026-03-28T14:29:55.999Z</time></trkpt><trkpt lat="40.83609026529624" lon="14.64943889085726"><ele>860.0</ele><time>2026-03-28T14:29:56.999Z</time></trkpt><trkpt lat="40.83610191983276" lon="14.649521280412369"><ele>859.0</ele><time>2026-03-28T14:29:57.999Z</time></trkpt><trkpt lat="40.836117259816355" lon="14.649660509961452"><ele>858.0</ele><time>2026-03-28T14:29:59.998Z</time></trkpt><trkpt lat="40.83612833967365" lon="14.649748348439562"><ele>857.0</ele><time>2026-03-28T14:30:00.998Z</time></trkpt><trkpt lat="40.836157891469405" lon="14.64992325480106"><ele>856.0</ele><time>2026-03-28T14:30:03Z</time></trkpt><trkpt lat="40.83617785789822" lon="14.650029244355478"><ele>855.0</ele><time>2026-03-28T14:30:04Z</time></trkpt><trkpt lat="40.83618592285192" lon="14.650146488404516"><ele>855.0</ele><time>2026-03-28T14:30:05Z</time></trkpt><trkpt lat="40.83619310952504" lon="14.650281653657732"><ele>855.0</ele><time>2026-03-28T14:30:06Z</time></trkpt><trkpt lat="40.83621471664458" lon="14.650404557616627"><ele>855.0</ele><time>2026-03-28T14:30:07Z</time></trkpt><trkpt lat="40.836242168542384" lon="14.650514016114586"><ele>855.0</ele><time>2026-03-28T14:30:08Z</time></trkpt><trkpt lat="40.8362960132669" lon="14.650634025299528"><ele>855.0</ele><time>2026-03-28T14:30:09Z</time></trkpt><trkpt lat="40.83638713680689" lon="14.650769217141173"><ele>852.75</ele><time>2026-03-28T14:30:10Z</time></trkpt><trkpt lat="40.8364717796624" lon="14.650888653187106"><ele>850.5</ele><time>2026-03-28T14:30:11Z</time></trkpt><trkpt lat="40.83653083011903" lon="14.65102943108295"><ele>848.25</ele><time>2026-03-28T14:30:12Z</time></trkpt><trkpt lat="40.836576922200294" lon="14.651198762776215"><ele>846.0</ele><time>2026-03-28T14:30:13Z</time></trkpt><trkpt lat="40.836610142476644" lon="14.651363927484846"><ele>844.25</ele><time>2026-03-28T14:30:14Z</time></trkpt><trkpt lat="40.836641035318664" lon="14.651520934745035"><ele>842.5</ele><time>2026-03-28T14:30:15Z</time></trkpt><trkpt lat="40.83666260744259" lon="14.651688706126112"><ele>840.75</ele><time>2026-03-28T14:30:16Z</time></trkpt><trkpt lat="40.836676431035805" lon="14.651864897946659"><ele>839.0</ele><time>2026-03-28T14:30:17Z</time></trkpt><trkpt lat="40.83670057824547" lon="14.652001782186968"><ele>839.0</ele><time>2026-03-28T14:30:18Z</time></trkpt><trkpt lat="40.83673879861294" lon="14.652105233934279"><ele>839.0</ele><time>2026-03-28T14:30:19Z</time></trkpt><trkpt lat="40.83679539239392" lon="14.652179715997558"><ele>839.0</ele><time>2026-03-28T14:30:20Z</time></trkpt><trkpt lat="40.83687549179255" lon="14.652269165556001"><ele>839.0</ele><time>2026-03-28T14:30:21Z</time></trkpt><trkpt lat="40.83696885135565" lon="14.65237274873339"><ele>839.0</ele><time>2026-03-28T14:30:22Z</time></trkpt><trkpt lat="40.837050151835385" lon="14.652493953474684"><ele>839.0</ele><time>2026-03-28T14:30:23Z</time></trkpt><trkpt lat="40.83715159897469" lon="14.652661750370905"><ele>839.0</ele><time>2026-03-28T14:30:24Z</time></trkpt><trkpt lat="40.837223509078505" lon="14.652796002942933"><ele>839.0</ele><time>2026-03-28T14:30:25Z</time></trkpt><trkpt lat="40.83727374059355" lon="14.652912288508439"><ele>839.0</ele><time>2026-03-28T14:30:26Z</time></trkpt><trkpt lat="40.83733179818423" lon="14.653056473098754"><ele>839.5</ele><time>2026-03-28T14:30:27Z</time></trkpt><trkpt lat="40.83741348548466" lon="14.653212914526392"><ele>840.0</ele><time>2026-03-28T14:30:28Z</time></trkpt><trkpt lat="40.83750453096077" lon="14.653367175299373"><ele>840.5</ele><time>2026-03-28T14:30:29Z</time></trkpt><trkpt lat="40.83760381082142" lon="14.65351237780158"><ele>841.0</ele><time>2026-03-28T14:30:30Z</time></trkpt><trkpt lat="40.837718872372804" lon="14.653657950831628"><ele>842.0</ele><time>2026-03-28T14:30:31Z</time></trkpt><trkpt lat="40.83784263582571" lon="14.65381501976584"><ele>843.0</ele><time>2026-03-28T14:30:32Z</time></trkpt><trkpt lat="40.83796947787018" lon="14.65396906669957"><ele>844.0</ele><time>2026-03-28T14:30:33Z</time></trkpt><trkpt lat="40.83806864560075" lon="14.654089800646389"><ele>844.0</ele><time>2026-03-28T14:30:34Z</time></trkpt><trkpt lat="40.838137365906405" lon="14.654178485496919"><ele>844.0</ele><time>2026-03-28T14:30:35Z</time></trkpt><trkpt lat="40.83818793103214" lon="14.654240475690846"><ele>844.0</ele><time>2026-03-28T14:30:36Z</time></trkpt><trkpt lat="40.838238102789774" lon="14.654326248283722"><ele>844.0</ele><time>2026-03-28T14:30:38Z</time></trkpt><trkpt lat="40.83820899719749" lon="14.654444489975043"><ele>844.0</ele><time>2026-03-28T14:30:40Z</time></trkpt><trkpt lat="40.83809122169753" lon="14.65446911549021"><ele>844.25</ele><time>2026-03-28T14:30:42Z</time></trkpt><trkpt lat="40.83800040882511" lon="14.654467123907574"><ele>844.5</ele><time>2026-03-28T14:30:43Z</time></trkpt><trkpt lat="40.8378872161112" lon="14.654479757437354"><ele>844.75</ele><time>2026-03-28T14:30:44Z</time></trkpt><trkpt lat="40.83775485506593" lon="14.654514239423305"><ele>845.0</ele><time>2026-03-28T14:30:45Z</time></trkpt><trkpt lat="40.83760349232165" lon="14.654556390735571"><ele>845.0</ele><time>2026-03-28T14:30:46Z</time></trkpt><trkpt lat="40.837444667672976" lon="14.65458451194711"><ele>845.0</ele><time>2026-03-28T14:30:47Z</time></trkpt><trkpt lat="40.8372930964912" lon="14.654586175182525"><ele>845.0</ele><time>2026-03-28T14:30:48Z</time></trkpt><trkpt lat="40.83715756508577" lon="14.65459382375335"><ele>845.0</ele><time>2026-03-28T14:30:49Z</time></trkpt><trkpt lat="40.83703821326168" lon="14.654616438664338"><ele>845.0</ele><time>2026-03-28T14:30:50Z</time></trkpt><trkpt lat="40.83690665263464" lon="14.654613986615248"><ele>845.0</ele><time>2026-03-28T14:30:51Z</time></trkpt><trkpt lat="40.836750491210175" lon="14.654581100946293"><ele>845.0</ele><time>2026-03-28T14:30:52Z</time></trkpt><trkpt lat="40.83658479946984" lon="14.654536223823477"><ele>845.3333333333334</ele><time>2026-03-28T14:30:53Z</time></trkpt><trkpt lat="40.83640418905478" lon="14.654493201853166"><ele>845.6666666666667</ele><time>2026-03-28T14:30:54Z</time></trkpt><trkpt lat="40.83622185760914" lon="14.65446189413119"><ele>846.0</ele><time>2026-03-28T14:30:55Z</time></trkpt><trkpt lat="40.836041943415346" lon="14.654444569959267"><ele>844.0</ele><time>2026-03-28T14:30:56Z</time></trkpt><trkpt lat="40.83586022294171" lon="14.654430095495737"><ele>842.0</ele><time>2026-03-28T14:30:57Z</time></trkpt><trkpt lat="40.83568482330409" lon="14.654415809997596"><ele>840.0</ele><time>2026-03-28T14:30:58Z</time></trkpt><trkpt lat="40.83553433067146" lon="14.654385745061338"><ele>840.0</ele><time>2026-03-28T14:30:59Z</time></trkpt><trkpt lat="40.83538967026272" lon="14.654346883156476"><ele>840.0</ele><time>2026-03-28T14:31:00Z</time></trkpt><trkpt lat="40.835241635743515" lon="14.654322676127924"><ele>840.0</ele><time>2026-03-28T14:31:01Z</time></trkpt><trkpt lat="40.8351029661686" lon="14.654305799630222"><ele>840.0</ele><time>2026-03-28T14:31:02Z</time></trkpt><trkpt lat="40.834974678502114" lon="14.654287574886133"><ele>840.0</ele><time>2026-03-28T14:31:03Z</time></trkpt><trkpt lat="40.834846454190505" lon="14.654272247343027"><ele>840.0</ele><time>2026-03-28T14:31:04Z</time></trkpt><trkpt lat="40.83473074355821" lon="14.654247165012954"><ele>840.0</ele><time>2026-03-28T14:31:05Z</time></trkpt><trkpt lat="40.83461969548971" lon="14.654217211630499"><ele>840.0</ele><time>2026-03-28T14:31:06Z</time></trkpt><trkpt lat="40.83448893458194" lon="14.654178573489025"><ele>840.0</ele><time>2026-03-28T14:31:07Z</time></trkpt><trkpt lat="40.834361223359586" lon="14.654154838490205"><ele>840.0</ele><time>2026-03-28T14:31:08Z</time></trkpt><trkpt lat="40.83422256675971" lon="14.654149370722513"><ele>840.0</ele><time>2026-03-28T14:31:09Z</time></trkpt><trkpt lat="40.834065884966606" lon="14.654125129476999"><ele>840.0</ele><time>2026-03-28T14:31:10Z</time></trkpt><trkpt lat="40.83389703866151" lon="14.654095382744291"><ele>840.0</ele><time>2026-03-28T14:31:10.999Z</time></trkpt><trkpt lat="40.83375672659751" lon="14.654069002326805"><ele>840.0</ele><time>2026-03-28T14:31:11.999Z</time></trkpt><trkpt lat="40.83363778878731" lon="14.65404903940141"><ele>840.0</ele><time>2026-03-28T14:31:12.999Z</time></trkpt><trkpt lat="40.83352744280223" lon="14.654047311949999"><ele>840.0</ele><time>2026-03-28T14:31:13.999Z</time></trkpt><trkpt lat="40.833411261668715" lon="14.654035232346665"><ele>840.0</ele><time>2026-03-28T14:31:14.999Z</time></trkpt><trkpt lat="40.83330198605136" lon="14.654007997831682"><ele>840.0</ele><time>2026-03-28T14:31:15.999Z</time></trkpt><trkpt lat="40.833175491873334" lon="14.65397395645975"><ele>840.0</ele><time>2026-03-28T14:31:16.999Z</time></trkpt><trkpt lat="40.833007857133595" lon="14.653939708702655"><ele>840.0</ele><time>2026-03-28T14:31:17.999Z</time></trkpt><trkpt lat="40.832830519406116" lon="14.653906811838208"><ele>840.0</ele><time>2026-03-28T14:31:18.999Z</time></trkpt><trkpt lat="40.83266732164618" lon="14.653864571564126"><ele>840.0</ele><time>2026-03-28T14:31:19.999Z</time></trkpt><trkpt lat="40.83250852607826" lon="14.653819646474663"><ele>840.0</ele><time>2026-03-28T14:31:20.999Z</time></trkpt><trkpt lat="40.83234980522344" lon="14.653779176881093"><ele>840.75</ele><time>2026-03-28T14:31:21.999Z</time></trkpt><trkpt lat="40.832202839891536" lon="14.653750190444969"><ele>841.5</ele><time>2026-03-28T14:31:22.999Z</time></trkpt><trkpt lat="40.83206680768468" lon="14.653720358577338"><ele>842.25</ele><time>2026-03-28T14:31:23.999Z</time></trkpt><trkpt lat="40.83194625502689" lon="14.653673538402552"><ele>843.0</ele><time>2026-03-28T14:31:24.999Z</time></trkpt><trkpt lat="40.83182875552879" lon="14.653609386969006"><ele>842.0</ele><time>2026-03-28T14:31:25.999Z</time></trkpt><trkpt lat="40.83170599540759" lon="14.653572887850546"><ele>841.0</ele><time>2026-03-28T14:31:26.999Z</time></trkpt><trkpt lat="40.83158276052718" lon="14.653538526105784"><ele>840.0</ele><time>2026-03-28T14:31:27.999Z</time></trkpt><trkpt lat="40.831461829620594" lon="14.653494199287621"><ele>839.0</ele><time>2026-03-28T14:31:28.999Z</time></trkpt><trkpt lat="40.83133533057699" lon="14.65345610434238"><ele>839.0</ele><time>2026-03-28T14:31:29.999Z</time></trkpt><trkpt lat="40.831227780255595" lon="14.653427758669887"><ele>839.0</ele><time>2026-03-28T14:31:30.999Z</time></trkpt><trkpt lat="40.8311230898167" lon="14.653374289052563"><ele>839.0</ele><time>2026-03-28T14:31:31.999Z</time></trkpt><trkpt lat="40.83097536121721" lon="14.653299510090378"><ele>839.0</ele><time>2026-03-28T14:31:32.999Z</time></trkpt><trkpt lat="40.830811556930804" lon="14.653222662511029"><ele>839.75</ele><time>2026-03-28T14:31:33.999Z</time></trkpt><trkpt lat="40.830650964622954" lon="14.653157188413884"><ele>840.5</ele><time>2026-03-28T14:31:34.999Z</time></trkpt><trkpt lat="40.83051547326266" lon="14.653113005442421"><ele>841.25</ele><time>2026-03-28T14:31:35.999Z</time></trkpt><trkpt lat="40.83039583148022" lon="14.653075376585926"><ele>842.0</ele><time>2026-03-28T14:31:36.999Z</time></trkpt><trkpt lat="40.83028746219269" lon="14.653042258303941"><ele>842.0</ele><time>2026-03-28T14:31:37.999Z</time></trkpt><trkpt lat="40.830181207054125" lon="14.653016187635561"><ele>842.0</ele><time>2026-03-28T14:31:38.999Z</time></trkpt><trkpt lat="40.830071638533006" lon="14.653012265053356"><ele>842.0</ele><time>2026-03-28T14:31:39.999Z</time></trkpt><trkpt lat="40.829960031741834" lon="14.653036053771876"><ele>842.0</ele><time>2026-03-28T14:31:40.999Z</time></trkpt><trkpt lat="40.829835957828905" lon="14.653087167842498"><ele>842.5</ele><time>2026-03-28T14:31:41.999Z</time></trkpt><trkpt lat="40.82969727309355" lon="14.653155990687479"><ele>843.0</ele><time>2026-03-28T14:31:42.999Z</time></trkpt><trkpt lat="40.829554036678445" lon="14.653211973599607"><ele>843.5</ele><time>2026-03-28T14:31:43.999Z</time></trkpt><trkpt lat="40.829409726291566" lon="14.653260097831271"><ele>844.0</ele><time>2026-03-28T14:31:44.999Z</time></trkpt><trkpt lat="40.82926392657412" lon="14.653310369761165"><ele>845.0</ele><time>2026-03-28T14:31:45.999Z</time></trkpt><trkpt lat="40.829132944487114" lon="14.653358156654745"><ele>846.0</ele><time>2026-03-28T14:31:46.999Z</time></trkpt><trkpt lat="40.82902478722607" lon="14.653398878512732"><ele>847.0</ele><time>2026-03-28T14:31:47.999Z</time></trkpt><trkpt lat="40.82893082821962" lon="14.653440543174066"><ele>848.0</ele><time>2026-03-28T14:31:48.999Z</time></trkpt><trkpt lat="40.8288482604562" lon="14.653484268237225"><ele>849.0</ele><time>2026-03-28T14:31:49.999Z</time></trkpt><trkpt lat="40.828756390806106" lon="14.653502119123795"><ele>849.0</ele><time>2026-03-28T14:31:50.999Z</time></trkpt><trkpt lat="40.828650877951844" lon="14.653492095538038"><ele>849.0</ele><time>2026-03-28T14:31:51.999Z</time></trkpt><trkpt lat="40.82853962283077" lon="14.653472897221295"><ele>849.0</ele><time>2026-03-28T14:31:52.999Z</time></trkpt><trkpt lat="40.82842943367504" lon="14.65346801161274"><ele>849.0</ele><time>2026-03-28T14:31:53.999Z</time></trkpt><trkpt lat="40.828342820243954" lon="14.653487110837444"><ele>849.0</ele><time>2026-03-28T14:31:54.999Z</time></trkpt><trkpt lat="40.82827521578584" lon="14.653513685954909"><ele>850.2857142857143</ele><time>2026-03-28T14:31:55.999Z</time></trkpt><trkpt lat="40.828202989369665" lon="14.65353020345736"><ele>851.5714285714286</ele><time>2026-03-28T14:31:56.999Z</time></trkpt><trkpt lat="40.82813047975459" lon="14.653533240636195"><ele>852.8571428571429</ele><time>2026-03-28T14:31:57.999Z</time></trkpt><trkpt lat="40.82805197314774" lon="14.65352829091376"><ele>854.1428571428571</ele><time>2026-03-28T14:31:58.999Z</time></trkpt><trkpt lat="40.82798962287735" lon="14.653563446049958"><ele>855.4285714285714</ele><time>2026-03-28T14:31:59.999Z</time></trkpt><trkpt lat="40.82791510673577" lon="14.653583535503227"><ele>856.7142857142858</ele><time>2026-03-28T14:32:00.999Z</time></trkpt><trkpt lat="40.8278377821417" lon="14.653598346928504"><ele>858.0</ele><time>2026-03-28T14:32:01.999Z</time></trkpt><trkpt lat="40.82775453687727" lon="14.653627626195588"><ele>859.4</ele><time>2026-03-28T14:32:02.999Z</time></trkpt><trkpt lat="40.82767043184366" lon="14.653640353214072"><ele>860.8</ele><time>2026-03-28T14:32:03.999Z</time></trkpt><trkpt lat="40.82757816501161" lon="14.653640915972254"><ele>862.2</ele><time>2026-03-28T14:32:04.999Z</time></trkpt><trkpt lat="40.82747441976999" lon="14.653652294784564"><ele>863.6</ele><time>2026-03-28T14:32:05.999Z</time></trkpt><trkpt lat="40.827372153819915" lon="14.653678397585209"><ele>865.0</ele><time>2026-03-28T14:32:06.999Z</time></trkpt><trkpt lat="40.827297592651504" lon="14.653720555549427"><ele>867.3333333333333</ele><time>2026-03-28T14:32:07.999Z</time></trkpt><trkpt lat="40.82724053818135" lon="14.653782406418902"><ele>869.6666666666666</ele><time>2026-03-28T14:32:09Z</time></trkpt><trkpt lat="40.82717518661496" lon="14.653848430692307"><ele>872.0</ele><time>2026-03-28T14:32:10Z</time></trkpt><trkpt lat="40.8271197434045" lon="14.653888217555016"><ele>874.3333333333333</ele><time>2026-03-28T14:32:11Z</time></trkpt><trkpt lat="40.827051742210855" lon="14.653887176794731"><ele>876.6666666666666</ele><time>2026-03-28T14:32:12Z</time></trkpt><trkpt lat="40.82697441424262" lon="14.653861557194226"><ele>879.0</ele><time>2026-03-28T14:32:13Z</time></trkpt><trkpt lat="40.82688384686574" lon="14.653862697506845"><ele>880.8333333333334</ele><time>2026-03-28T14:32:14Z</time></trkpt><trkpt lat="40.82679724878032" lon="14.653835848573404"><ele>882.6666666666667</ele><time>2026-03-28T14:32:15Z</time></trkpt><trkpt lat="40.82672299165094" lon="14.6538068296909"><ele>884.5</ele><time>2026-03-28T14:32:16Z</time></trkpt><trkpt lat="40.82663965762606" lon="14.653808643527304"><ele>886.3333333333334</ele><time>2026-03-28T14:32:17Z</time></trkpt><trkpt lat="40.82654726262559" lon="14.653838810437883"><ele>888.1666666666667</ele><time>2026-03-28T14:32:18Z</time></trkpt><trkpt lat="40.82645466708863" lon="14.65384344981508"><ele>890.0</ele><time>2026-03-28T14:32:19Z</time></trkpt><trkpt lat="40.82636886547084" lon="14.653831754796604"><ele>890.0</ele><time>2026-03-28T14:32:20Z</time></trkpt><trkpt lat="40.82628643945802" lon="14.653853524758564"><ele>890.0</ele><time>2026-03-28T14:32:21Z</time></trkpt><trkpt lat="40.82620905088846" lon="14.653942144917547"><ele>890.0</ele><time>2026-03-28T14:32:23Z</time></trkpt><trkpt lat="40.82618951927222" lon="14.65409357177379"><ele>890.0</ele><time>2026-03-28T14:32:25Z</time></trkpt><trkpt lat="40.826202565638084" lon="14.654196596442903"><ele>890.0</ele><time>2026-03-28T14:32:26Z</time></trkpt><trkpt lat="40.82622172966899" lon="14.654291327794148"><ele>890.0</ele><time>2026-03-28T14:32:27Z</time></trkpt><trkpt lat="40.82621327302562" lon="14.654384835963109"><ele>890.0</ele><time>2026-03-28T14:32:28Z</time></trkpt><trkpt lat="40.82618358774272" lon="14.65446436528565"><ele>890.0</ele><time>2026-03-28T14:32:29Z</time></trkpt><trkpt lat="40.82615102159791" lon="14.654537982193446"><ele>890.0</ele><time>2026-03-28T14:32:30Z</time></trkpt><trkpt lat="40.826115931115616" lon="14.654620516156225"><ele>890.0</ele><time>2026-03-28T14:32:31Z</time></trkpt><trkpt lat="40.82609016795667" lon="14.654721226591038"><ele>890.0</ele><time>2026-03-28T14:32:32Z</time></trkpt><trkpt lat="40.82608495142375" lon="14.65480991049257"><ele>890.0</ele><time>2026-03-28T14:32:33Z</time></trkpt><trkpt lat="40.82608528989774" lon="14.654965603877626"><ele>891.6666666666667</ele><time>2026-03-28T14:32:35Z</time></trkpt><trkpt lat="40.82609899392053" lon="14.655053534972508"><ele>893.3333333333334</ele><time>2026-03-28T14:32:36Z</time></trkpt><trkpt lat="40.82610646066062" lon="14.655144117467504"><ele>895.0</ele><time>2026-03-28T14:32:37Z</time></trkpt><trkpt lat="40.82605644216334" lon="14.655277954569618"><ele>896.6666666666667</ele><time>2026-03-28T14:32:39Z</time></trkpt><trkpt lat="40.82604035993144" lon="14.655398686290418"><ele>898.3333333333334</ele><time>2026-03-28T14:32:41Z</time></trkpt><trkpt lat="40.825990196138086" lon="14.655450141230132"><ele>900.0</ele><time>2026-03-28T14:32:42Z</time></trkpt><trkpt lat="40.8259372750448" lon="14.655545279789239"><ele>900.0</ele><time>2026-03-28T14:32:42.999Z</time></trkpt><trkpt lat="40.82591049389138" lon="14.655631116591596"><ele>900.0</ele><time>2026-03-28T14:32:43.999Z</time></trkpt><trkpt lat="40.82589027933505" lon="14.655798358098446"><ele>900.0</ele><time>2026-03-28T14:32:45.999Z</time></trkpt><trkpt lat="40.82585883934973" lon="14.655883526465367"><ele>900.0</ele><time>2026-03-28T14:32:46.999Z</time></trkpt><trkpt lat="40.82580421251068" lon="14.65599057208235"><ele>900.0</ele><time>2026-03-28T14:32:47.999Z</time></trkpt><trkpt lat="40.825725758778674" lon="14.656095256251653"><ele>904.0</ele><time>2026-03-28T14:32:48.999Z</time></trkpt><trkpt lat="40.825653921408374" lon="14.656185964258828"><ele>908.0</ele><time>2026-03-28T14:32:49.999Z</time></trkpt><trkpt lat="40.825583360670706" lon="14.65625418755482"><ele>912.0</ele><time>2026-03-28T14:32:50.999Z</time></trkpt><trkpt lat="40.825521562698775" lon="14.656309429331683"><ele>916.0</ele><time>2026-03-28T14:32:51.999Z</time></trkpt><trkpt lat="40.825454028328366" lon="14.656398861740778"><ele>920.0</ele><time>2026-03-28T14:32:53.999Z</time></trkpt><trkpt lat="40.82543720006337" lon="14.656483247411964"><ele>924.0</ele><time>2026-03-28T14:32:55.999Z</time></trkpt><trkpt lat="40.82541714568143" lon="14.656621941070734"><ele>924.0</ele><time>2026-03-28T14:32:57.999Z</time></trkpt><trkpt lat="40.8253777838664" lon="14.656693115309796"><ele>924.0</ele><time>2026-03-28T14:32:58.999Z</time></trkpt><trkpt lat="40.825353670078194" lon="14.656783817915302"><ele>924.0</ele><time>2026-03-28T14:32:59.999Z</time></trkpt><trkpt lat="40.82533355236701" lon="14.656892268900116"><ele>924.0</ele><time>2026-03-28T14:33:00.999Z</time></trkpt><trkpt lat="40.82530657321169" lon="14.656990771911689"><ele>924.0</ele><time>2026-03-28T14:33:01.999Z</time></trkpt><trkpt lat="40.825289486056036" lon="14.657081708745627"><ele>924.0</ele><time>2026-03-28T14:33:02.999Z</time></trkpt><trkpt lat="40.825289557880545" lon="14.657173438732588"><ele>924.0</ele><time>2026-03-28T14:33:03.999Z</time></trkpt><trkpt lat="40.825302494143756" lon="14.657280282066216"><ele>925.2</ele><time>2026-03-28T14:33:04.999Z</time></trkpt><trkpt lat="40.82532270064983" lon="14.657391183662666"><ele>926.4000000000001</ele><time>2026-03-28T14:33:05.999Z</time></trkpt><trkpt lat="40.82535308533447" lon="14.657507308613043"><ele>927.6</ele><time>2026-03-28T14:33:06.999Z</time></trkpt><trkpt lat="40.82538797979621" lon="14.657625174622511"><ele>928.8</ele><time>2026-03-28T14:33:07.999Z</time></trkpt><trkpt lat="40.82542172798568" lon="14.657742011230882"><ele>930.0</ele><time>2026-03-28T14:33:08.999Z</time></trkpt><trkpt lat="40.8254644965382" lon="14.657860760323526"><ele>926.6</ele><time>2026-03-28T14:33:09.999Z</time></trkpt><trkpt lat="40.82552204321594" lon="14.65796308159276"><ele>923.2</ele><time>2026-03-28T14:33:10.999Z</time></trkpt><trkpt lat="40.82557896288987" lon="14.658055677125631"><ele>919.8</ele><time>2026-03-28T14:33:11.999Z</time></trkpt><trkpt lat="40.82565192645921" lon="14.658147415916323"><ele>916.4</ele><time>2026-03-28T14:33:12.999Z</time></trkpt><trkpt lat="40.825729350958426" lon="14.658242036710801"><ele>913.0</ele><time>2026-03-28T14:33:13.999Z</time></trkpt><trkpt lat="40.82583833051182" lon="14.658310714800452"><ele>912.9999999999999</ele><time>2026-03-28T14:33:14.999Z</time></trkpt><trkpt lat="40.825922343837874" lon="14.658382120210648"><ele>913.0</ele><time>2026-03-28T14:33:15.999Z</time></trkpt><trkpt lat="40.82599995890335" lon="14.65844943694653"><ele>913.0</ele><time>2026-03-28T14:33:16.999Z</time></trkpt><trkpt lat="40.826079194401736" lon="14.658517579365368"><ele>913.0</ele><time>2026-03-28T14:33:17.999Z</time></trkpt><trkpt lat="40.826169327181645" lon="14.658535569915642"><ele>912.9999999999999</ele><time>2026-03-28T14:33:18.999Z</time></trkpt><trkpt lat="40.82622345735993" lon="14.658587073227258"><ele>913.0</ele><time>2026-03-28T14:33:19.999Z</time></trkpt><trkpt lat="40.826276896575585" lon="14.658635898646802"><ele>912.1666666666666</ele><time>2026-03-28T14:33:20.999Z</time></trkpt><trkpt lat="40.82635761357362" lon="14.658699979709166"><ele>911.3333333333333</ele><time>2026-03-28T14:33:22.998Z</time></trkpt><trkpt lat="40.82642058361706" lon="14.65872989894182"><ele>910.5</ele><time>2026-03-28T14:33:24.998Z</time></trkpt><trkpt lat="40.82636354662375" lon="14.658783787664463"><ele>909.6666666666667</ele><time>2026-03-28T14:33:29.998Z</time></trkpt><trkpt lat="40.826303721009054" lon="14.658751106143207"><ele>908.8333333333334</ele><time>2026-03-28T14:33:30.998Z</time></trkpt><trkpt lat="40.82620436562662" lon="14.658755348365908"><ele>908.0</ele><time>2026-03-28T14:33:32.998Z</time></trkpt><trkpt lat="40.826136285036256" lon="14.6587644172706"><ele>903.5</ele><time>2026-03-28T14:33:35.998Z</time></trkpt><trkpt lat="40.82593290093819" lon="14.658738495360836"><ele>899.0</ele><time>2026-03-28T14:33:37.998Z</time></trkpt><trkpt lat="40.82583122126273" lon="14.658732616386287"><ele>894.5</ele><time>2026-03-28T14:33:39.998Z</time></trkpt><trkpt lat="40.825761769799186" lon="14.658739421605533"><ele>890.0</ele><time>2026-03-28T14:33:40.998Z</time></trkpt><trkpt lat="40.82568759472867" lon="14.658763246694045"><ele>890.0000000000001</ele><time>2026-03-28T14:33:42.998Z</time></trkpt><trkpt lat="40.825761865013746" lon="14.65882157335935"><ele>890.0</ele><time>2026-03-28T14:33:46.998Z</time></trkpt><trkpt lat="40.82570091788273" lon="14.658781370460163"><ele>890.0</ele><time>2026-03-28T14:34:26Z</time></trkpt><trkpt lat="40.825609901039" lon="14.6587481648089"><ele>890.0</ele><time>2026-03-28T14:34:29Z</time></trkpt><trkpt lat="40.82552684415092" lon="14.658711955521635"><ele>890.0000000000001</ele><time>2026-03-28T14:34:31Z</time></trkpt><trkpt lat="40.82545103158871" lon="14.65870843867786"><ele>890.0</ele><time>2026-03-28T14:34:32.999Z</time></trkpt><trkpt lat="40.8253960339201" lon="14.65876750211943"><ele>890.0000000000001</ele><time>2026-03-28T14:34:35.999Z</time></trkpt><trkpt lat="40.82543177420431" lon="14.658898532607196"><ele>890.0</ele><time>2026-03-28T14:34:37.999Z</time></trkpt><trkpt lat="40.82548923739102" lon="14.658967044678755"><ele>890.0</ele><time>2026-03-28T14:34:40.999Z</time></trkpt><trkpt lat="40.82542663741139" lon="14.659002104761496"><ele>890.0</ele><time>2026-03-28T14:35:02.999Z</time></trkpt><trkpt lat="40.82534726724088" lon="14.658948853181823"><ele>890.0000000000001</ele><time>2026-03-28T14:35:05.999Z</time></trkpt><trkpt lat="40.82528003465338" lon="14.65889733371125"><ele>890.0</ele><time>2026-03-28T14:35:19.999Z</time></trkpt><trkpt lat="40.82524224390203" lon="14.658813668477572"><ele>890.0000000000001</ele><time>2026-03-28T14:35:23.999Z</time></trkpt><trkpt lat="40.82521724601831" lon="14.65871201643232"><ele>890.0</ele><time>2026-03-28T14:35:27.999Z</time></trkpt><trkpt lat="40.825155123649175" lon="14.65869295508292"><ele>890.0</ele><time>2026-03-28T14:35:38.998Z</time></trkpt><trkpt lat="40.82513341161489" lon="14.658792031253885"><ele>890.0</ele><time>2026-03-28T14:35:45.998Z</time></trkpt><trkpt lat="40.825133843668304" lon="14.6588765250038"><ele>890.0000000000001</ele><time>2026-03-28T14:35:49.998Z</time></trkpt><trkpt lat="40.82512975479528" lon="14.658961728090254"><ele>890.0</ele><time>2026-03-28T14:35:52.998Z</time></trkpt><trkpt lat="40.825128916406115" lon="14.659125748910213"><ele>886.6666666666667</ele><time>2026-03-28T14:35:55.998Z</time></trkpt><trkpt lat="40.82508950224719" lon="14.659204751018187"><ele>883.3333333333334</ele><time>2026-03-28T14:35:57.998Z</time></trkpt><trkpt lat="40.82508178143837" lon="14.659293648547957"><ele>880.0</ele><time>2026-03-28T14:36:00.998Z</time></trkpt><trkpt lat="40.82506237726977" lon="14.659380065076068"><ele>876.6666666666667</ele><time>2026-03-28T14:36:05.998Z</time></trkpt><trkpt lat="40.825015588180264" lon="14.65946836178951"><ele>873.3333333333334</ele><time>2026-03-28T14:36:09.998Z</time></trkpt><trkpt lat="40.82494527679838" lon="14.659565624062857"><ele>870.0</ele><time>2026-03-28T14:36:11.998Z</time></trkpt><trkpt lat="40.824879380971375" lon="14.659611449906926"><ele>869.0</ele><time>2026-03-28T14:36:15.998Z</time></trkpt><trkpt lat="40.82481094524631" lon="14.659670320196831"><ele>868.0</ele><time>2026-03-28T14:36:32Z</time></trkpt><trkpt lat="40.82475618357895" lon="14.65975082395279"><ele>867.0</ele><time>2026-03-28T14:36:35Z</time></trkpt><trkpt lat="40.82473531759429" lon="14.65983890619239"><ele>866.0</ele><time>2026-03-28T14:36:37Z</time></trkpt><trkpt lat="40.82475328259299" lon="14.659956003321547"><ele>865.0</ele><time>2026-03-28T14:36:40Z</time></trkpt><trkpt lat="40.82469600055423" lon="14.660019540575444"><ele>864.0</ele><time>2026-03-28T14:36:42Z</time></trkpt><trkpt lat="40.824635910500426" lon="14.660048369720393"><ele>864.0</ele><time>2026-03-28T14:36:43.999Z</time></trkpt><trkpt lat="40.824608743327154" lon="14.66014555288466"><ele>864.0</ele><time>2026-03-28T14:36:45.999Z</time></trkpt><trkpt lat="40.82457653788784" lon="14.660260793405048"><ele>864.0</ele><time>2026-03-28T14:36:48.999Z</time></trkpt><trkpt lat="40.8245493085438" lon="14.660342626823477"><ele>864.0</ele><time>2026-03-28T14:36:50.999Z</time></trkpt><trkpt lat="40.824523750136336" lon="14.66044509605032"><ele>864.0</ele><time>2026-03-28T14:36:52.999Z</time></trkpt><trkpt lat="40.824503684726714" lon="14.66052726987302"><ele>864.0</ele><time>2026-03-28T14:36:54.999Z</time></trkpt><trkpt lat="40.824447125168035" lon="14.660620753825196"><ele>861.6</ele><time>2026-03-28T14:36:56.999Z</time></trkpt><trkpt lat="40.82441852480352" lon="14.660766018576753"><ele>859.2</ele><time>2026-03-28T14:36:58.999Z</time></trkpt><trkpt lat="40.82439654380631" lon="14.660899929053679"><ele>856.8000000000001</ele><time>2026-03-28T14:37:00.999Z</time></trkpt><trkpt lat="40.824365888600816" lon="14.661033459320834"><ele>854.4000000000001</ele><time>2026-03-28T14:37:02.999Z</time></trkpt><trkpt lat="40.824342701772544" lon="14.661160473380242"><ele>852.0</ele><time>2026-03-28T14:37:04.999Z</time></trkpt><trkpt lat="40.824332760100035" lon="14.661287451744023"><ele>849.0</ele><time>2026-03-28T14:37:06.999Z</time></trkpt><trkpt lat="40.82431230659713" lon="14.661445689882823"><ele>846.0</ele><time>2026-03-28T14:37:08.999Z</time></trkpt><trkpt lat="40.82429673613968" lon="14.66153658770246"><ele>843.0</ele><time>2026-03-28T14:37:09.999Z</time></trkpt><trkpt lat="40.82428204539377" lon="14.661628746837009"><ele>840.0</ele><time>2026-03-28T14:37:10.999Z</time></trkpt><trkpt lat="40.824258534525846" lon="14.661710603391919"><ele>837.0</ele><time>2026-03-28T14:37:11.999Z</time></trkpt><trkpt lat="40.8242199574478" lon="14.661784176503954"><ele>834.0</ele><time>2026-03-28T14:37:12.999Z</time></trkpt><trkpt lat="40.82417840549754" lon="14.661864991444794"><ele>834.1666666666666</ele><time>2026-03-28T14:37:13.999Z</time></trkpt><trkpt lat="40.82413338819836" lon="14.661950357272103"><ele>834.3333333333333</ele><time>2026-03-28T14:37:14.999Z</time></trkpt><trkpt lat="40.82408432296283" lon="14.66204866289881"><ele>834.5</ele><time>2026-03-28T14:37:15.999Z</time></trkpt><trkpt lat="40.82402446694552" lon="14.662143537817087"><ele>834.6666666666666</ele><time>2026-03-28T14:37:16.999Z</time></trkpt><trkpt lat="40.82396416053463" lon="14.662218442962427"><ele>834.8333333333333</ele><time>2026-03-28T14:37:17.999Z</time></trkpt><trkpt lat="40.8239234216568" lon="14.662324932989115"><ele>835.0</ele><time>2026-03-28T14:37:18.999Z</time></trkpt><trkpt lat="40.82388512793874" lon="14.66245558026002"><ele>835.0</ele><time>2026-03-28T14:37:19.999Z</time></trkpt><trkpt lat="40.823840334861835" lon="14.662591922057176"><ele>835.0</ele><time>2026-03-28T14:37:20.999Z</time></trkpt><trkpt lat="40.823780116068164" lon="14.662725639978898"><ele>835.0</ele><time>2026-03-28T14:37:21.999Z</time></trkpt><trkpt lat="40.823731669229375" lon="14.662871965046476"><ele>835.0</ele><time>2026-03-28T14:37:22.999Z</time></trkpt><trkpt lat="40.823700408801635" lon="14.663031358728034"><ele>834.4</ele><time>2026-03-28T14:37:23.999Z</time></trkpt><trkpt lat="40.823668239712156" lon="14.663155451970635"><ele>833.8</ele><time>2026-03-28T14:37:24.999Z</time></trkpt><trkpt lat="40.823628937138025" lon="14.663296697221439"><ele>833.2</ele><time>2026-03-28T14:37:25.999Z</time></trkpt><trkpt lat="40.82359251516177" lon="14.663436071330624"><ele>832.6</ele><time>2026-03-28T14:37:26.999Z</time></trkpt><trkpt lat="40.82356907181524" lon="14.663529628161571"><ele>832.0</ele><time>2026-03-28T14:37:27.999Z</time></trkpt><trkpt lat="40.823502846945146" lon="14.663649495080778"><ele>831.4999999999999</ele><time>2026-03-28T14:37:29.999Z</time></trkpt><trkpt lat="40.82347097753065" lon="14.663760136477954"><ele>831.0</ele><time>2026-03-28T14:37:31.999Z</time></trkpt><trkpt lat="40.82342552340254" lon="14.663846994308493"><ele>830.5</ele><time>2026-03-28T14:37:38.999Z</time></trkpt><trkpt lat="40.82338647333331" lon="14.663958484881807"><ele>830.0</ele><time>2026-03-28T14:37:40.999Z</time></trkpt><trkpt lat="40.82333835677612" lon="14.664071889342987"><ele>829.4999999999999</ele><time>2026-03-28T14:37:42.999Z</time></trkpt><trkpt lat="40.823290615760754" lon="14.66416487500716"><ele>829.0</ele><time>2026-03-28T14:37:44.998Z</time></trkpt><trkpt lat="40.82323670570344" lon="14.664276270529662"><ele>829.0</ele><time>2026-03-28T14:37:46.998Z</time></trkpt><trkpt lat="40.82317036410942" lon="14.664390368875429"><ele>829.0</ele><time>2026-03-28T14:37:48.998Z</time></trkpt><trkpt lat="40.82312721428607" lon="14.664460139574727"><ele>829.0</ele><time>2026-03-28T14:37:49.998Z</time></trkpt><trkpt lat="40.823039047756055" lon="14.664582485109783"><ele>829.0</ele><time>2026-03-28T14:37:51.998Z</time></trkpt><trkpt lat="40.82294236090498" lon="14.664697547407597"><ele>829.0</ele><time>2026-03-28T14:37:53.998Z</time></trkpt><trkpt lat="40.82289364319552" lon="14.664782878981924"><ele>829.1666666666666</ele><time>2026-03-28T14:37:54.998Z</time></trkpt><trkpt lat="40.82284814188633" lon="14.664878981206359"><ele>829.3333333333333</ele><time>2026-03-28T14:37:55.998Z</time></trkpt><trkpt lat="40.82280709269118" lon="14.664954923679296"><ele>829.5</ele><time>2026-03-28T14:37:56.998Z</time></trkpt><trkpt lat="40.82277004937224" lon="14.665035741684502"><ele>829.6666666666667</ele><time>2026-03-28T14:37:57.998Z</time></trkpt><trkpt lat="40.82272254728112" lon="14.665141117090332"><ele>829.8333333333334</ele><time>2026-03-28T14:37:58.998Z</time></trkpt><trkpt lat="40.82267943457453" lon="14.665245792420144"><ele>830.0</ele><time>2026-03-28T14:37:59.998Z</time></trkpt><trkpt lat="40.822609188631894" lon="14.665386427160481"><ele>827.1666666666667</ele><time>2026-03-28T14:38:01.998Z</time></trkpt><trkpt lat="40.8225718609316" lon="14.665468086244172"><ele>824.3333333333334</ele><time>2026-03-28T14:38:02.998Z</time></trkpt><trkpt lat="40.82254795457702" lon="14.665549891827233"><ele>821.5</ele><time>2026-03-28T14:38:03.998Z</time></trkpt><trkpt lat="40.82251900933228" lon="14.66562780988477"><ele>818.6666666666667</ele><time>2026-03-28T14:38:04.998Z</time></trkpt><trkpt lat="40.82248193651709" lon="14.665700366394471"><ele>815.8333333333334</ele><time>2026-03-28T14:38:05.998Z</time></trkpt><trkpt lat="40.82241701180486" lon="14.665811986216251"><ele>813.0</ele><time>2026-03-28T14:38:07.998Z</time></trkpt><trkpt lat="40.822503341483035" lon="14.6659292691725"><ele>813.0</ele><time>2026-03-28T14:38:09.998Z</time></trkpt><trkpt lat="40.82255843484492" lon="14.665983025604973"><ele>813.0</ele><time>2026-03-28T14:38:10.998Z</time></trkpt><trkpt lat="40.82260556657419" lon="14.66612028087607"><ele>813.0</ele><time>2026-03-28T14:38:12.998Z</time></trkpt><trkpt lat="40.822563511679526" lon="14.666185927170936"><ele>813.0</ele><time>2026-03-28T14:38:14.998Z</time></trkpt><trkpt lat="40.82252819576148" lon="14.666274124760406"><ele>813.0</ele><time>2026-03-28T14:38:15.998Z</time></trkpt><trkpt lat="40.822441469414166" lon="14.666334611000691"><ele>813.0</ele><time>2026-03-28T14:38:17.998Z</time></trkpt><trkpt lat="40.82234840986786" lon="14.666427910710134"><ele>811.0</ele><time>2026-03-28T14:38:19.998Z</time></trkpt><trkpt lat="40.822288765436625" lon="14.666512862853379"><ele>809.0</ele><time>2026-03-28T14:38:21.998Z</time></trkpt><trkpt lat="40.822297889751496" lon="14.666637980512409"><ele>807.0</ele><time>2026-03-28T14:38:23.998Z</time></trkpt><trkpt lat="40.822335136256015" lon="14.666763849941411"><ele>805.0</ele><time>2026-03-28T14:38:25.998Z</time></trkpt><trkpt lat="40.82239539031094" lon="14.666856518544899"><ele>803.0</ele><time>2026-03-28T14:38:28Z</time></trkpt><trkpt lat="40.82242486240214" lon="14.666950884327669"><ele>801.2</ele><time>2026-03-28T14:38:30Z</time></trkpt><trkpt lat="40.822421720236235" lon="14.667109787919381"><ele>799.4</ele><time>2026-03-28T14:38:32Z</time></trkpt><trkpt lat="40.82241988506004" lon="14.667219904715969"><ele>797.6</ele><time>2026-03-28T14:38:33Z</time></trkpt><trkpt lat="40.82238362989376" lon="14.66735313281346"><ele>795.8000000000001</ele><time>2026-03-28T14:38:34Z</time></trkpt><trkpt lat="40.82228281696085" lon="14.667476834959528"><ele>794.0</ele><time>2026-03-28T14:38:35Z</time></trkpt><trkpt lat="40.82232689035636" lon="14.667631491012687"><ele>794.0</ele><time>2026-03-28T14:38:37Z</time></trkpt><trkpt lat="40.82240976706994" lon="14.667687925337363"><ele>794.0</ele><time>2026-03-28T14:38:38Z</time></trkpt><trkpt lat="40.82252477515535" lon="14.66771628184659"><ele>794.0</ele><time>2026-03-28T14:38:39Z</time></trkpt><trkpt lat="40.82260373485917" lon="14.66775221427507"><ele>794.0</ele><time>2026-03-28T14:38:40Z</time></trkpt><trkpt lat="40.822657838921785" lon="14.667796181779988"><ele>794.0</ele><time>2026-03-28T14:38:41Z</time></trkpt><trkpt lat="40.82277543792886" lon="14.667881415239522"><ele>792.6666666666667</ele><time>2026-03-28T14:38:43Z</time></trkpt><trkpt lat="40.822837087346855" lon="14.66792808820636"><ele>791.3333333333334</ele><time>2026-03-28T14:38:44Z</time></trkpt><trkpt lat="40.82289248110012" lon="14.667974584050604"><ele>790.0</ele><time>2026-03-28T14:38:45Z</time></trkpt><trkpt lat="40.82296113461537" lon="14.668035998762972"><ele>788.6666666666667</ele><time>2026-03-28T14:38:46Z</time></trkpt><trkpt lat="40.823012014937966" lon="14.668088427920008"><ele>787.3333333333334</ele><time>2026-03-28T14:38:47Z</time></trkpt><trkpt lat="40.82310040931564" lon="14.668174202447448"><ele>786.0</ele><time>2026-03-28T14:38:49Z</time></trkpt><trkpt lat="40.82316526881706" lon="14.668233392442302"><ele>786.0</ele><time>2026-03-28T14:38:50Z</time></trkpt><trkpt lat="40.82322603763563" lon="14.668257863498553"><ele>786.0</ele><time>2026-03-28T14:38:51Z</time></trkpt><trkpt lat="40.823320759483956" lon="14.668274486084647"><ele>786.0</ele><time>2026-03-28T14:38:52.999Z</time></trkpt><trkpt lat="40.82339869624341" lon="14.668301951849589"><ele>786.0</ele><time>2026-03-28T14:39:03.999Z</time></trkpt><trkpt lat="40.8234720362519" lon="14.668343111856922"><ele>786.0</ele><time>2026-03-28T14:39:05.999Z</time></trkpt><trkpt lat="40.82356255266822" lon="14.66840365069036"><ele>786.0</ele><time>2026-03-28T14:39:07.999Z</time></trkpt><trkpt lat="40.823597413288034" lon="14.668474720375569"><ele>782.0</ele><time>2026-03-28T14:39:09.999Z</time></trkpt><trkpt lat="40.82364983629865" lon="14.668571368837581"><ele>778.0</ele><time>2026-03-28T14:39:11.999Z</time></trkpt><trkpt lat="40.82376342662885" lon="14.66871959464575"><ele>774.0</ele><time>2026-03-28T14:39:13.999Z</time></trkpt><trkpt lat="40.823831803486314" lon="14.668840222482306"><ele>770.0</ele><time>2026-03-28T14:39:15.999Z</time></trkpt><trkpt lat="40.82390384959785" lon="14.668952893131294"><ele>769.1666666666667</ele><time>2026-03-28T14:39:17.999Z</time></trkpt><trkpt lat="40.82396517956473" lon="14.669070861589073"><ele>768.3333333333334</ele><time>2026-03-28T14:39:19.999Z</time></trkpt><trkpt lat="40.82401539479001" lon="14.669149769800864"><ele>767.5</ele><time>2026-03-28T14:39:21.999Z</time></trkpt><trkpt lat="40.82406413456989" lon="14.669067595943874"><ele>766.6666666666667</ele><time>2026-03-28T14:39:44.999Z</time></trkpt><trkpt lat="40.82410154367067" lon="14.668984145898863"><ele>765.8333333333334</ele><time>2026-03-28T14:39:46.999Z</time></trkpt><trkpt lat="40.82416554478083" lon="14.668923169964218"><ele>765.0</ele><time>2026-03-28T14:39:48.998Z</time></trkpt><trkpt lat="40.82422681414257" lon="14.668861953255341"><ele>763.2</ele><time>2026-03-28T14:39:50.998Z</time></trkpt><trkpt lat="40.8243150994319" lon="14.66882608299046"><ele>761.4</ele><time>2026-03-28T14:39:52.998Z</time></trkpt><trkpt lat="40.82438680610823" lon="14.668823423748394"><ele>759.5999999999999</ele><time>2026-03-28T14:39:54.998Z</time></trkpt><trkpt lat="40.82449434930654" lon="14.668875770382357"><ele>757.8</ele><time>2026-03-28T14:39:56.998Z</time></trkpt><trkpt lat="40.82461627733066" lon="14.668907673420103"><ele>756.0</ele><time>2026-03-28T14:39:58.998Z</time></trkpt><trkpt lat="40.824693542073035" lon="14.668921028374218"><ele>756.0</ele><time>2026-03-28T14:39:59.998Z</time></trkpt><trkpt lat="40.8247612210766" lon="14.668936992507534"><ele>756.0</ele><time>2026-03-28T14:40:00.998Z</time></trkpt><trkpt lat="40.82483215955125" lon="14.668944958877342"><ele>756.0</ele><time>2026-03-28T14:40:01.998Z</time></trkpt><trkpt lat="40.824902151816026" lon="14.6689273023177"><ele>756.0</ele><time>2026-03-28T14:40:02.998Z</time></trkpt><trkpt lat="40.82496120541931" lon="14.668895366622777"><ele>756.0</ele><time>2026-03-28T14:40:03.998Z</time></trkpt><trkpt lat="40.82502740895336" lon="14.668854778109953"><ele>756.0</ele><time>2026-03-28T14:40:04.998Z</time></trkpt><trkpt lat="40.82511264116496" lon="14.668814242039847"><ele>756.0</ele><time>2026-03-28T14:40:05.998Z</time></trkpt><trkpt lat="40.82518911671221" lon="14.668778815987721"><ele>754.8</ele><time>2026-03-28T14:40:06.998Z</time></trkpt><trkpt lat="40.825268546077815" lon="14.668756552724235"><ele>753.5999999999999</ele><time>2026-03-28T14:40:07.998Z</time></trkpt><trkpt lat="40.82533517669955" lon="14.668733075883678"><ele>752.4</ele><time>2026-03-28T14:40:08.998Z</time></trkpt><trkpt lat="40.82544352842924" lon="14.668714852139349"><ele>751.2</ele><time>2026-03-28T14:40:09.998Z</time></trkpt><trkpt lat="40.82555781437213" lon="14.66869609855805"><ele>750.0</ele><time>2026-03-28T14:40:10.998Z</time></trkpt><trkpt lat="40.82567719410895" lon="14.6686788030561"><ele>750.0</ele><time>2026-03-28T14:40:11.998Z</time></trkpt><trkpt lat="40.82581346153839" lon="14.6686593016364"><ele>750.0</ele><time>2026-03-28T14:40:12.998Z</time></trkpt><trkpt lat="40.8259589164147" lon="14.668656799595388"><ele>750.0</ele><time>2026-03-28T14:40:13.998Z</time></trkpt><trkpt lat="40.82611322886383" lon="14.668661399371025"><ele>750.0</ele><time>2026-03-28T14:40:14.998Z</time></trkpt><trkpt lat="40.82627643905522" lon="14.668663049912666"><ele>749.6</ele><time>2026-03-28T14:40:15.998Z</time></trkpt><trkpt lat="40.82641128173498" lon="14.668651434997438"><ele>749.2</ele><time>2026-03-28T14:40:16.998Z</time></trkpt><trkpt lat="40.82652348921508" lon="14.66863861711438"><ele>748.8</ele><time>2026-03-28T14:40:17.998Z</time></trkpt><trkpt lat="40.82663051392424" lon="14.66862590570225"><ele>748.4</ele><time>2026-03-28T14:40:18.998Z</time></trkpt><trkpt lat="40.82672168568654" lon="14.668635134932943"><ele>748.0</ele><time>2026-03-28T14:40:19.998Z</time></trkpt><trkpt lat="40.826810263342004" lon="14.668674063071327"><ele>747.5</ele><time>2026-03-28T14:40:20.998Z</time></trkpt><trkpt lat="40.82693785228031" lon="14.668692300635204"><ele>747.0</ele><time>2026-03-28T14:40:21.998Z</time></trkpt><trkpt lat="40.82707335046461" lon="14.66867977740411"><ele>746.5</ele><time>2026-03-28T14:40:22.998Z</time></trkpt><trkpt lat="40.82721301841402" lon="14.668666437364527"><ele>746.0</ele><time>2026-03-28T14:40:23.998Z</time></trkpt><trkpt lat="40.827338532318535" lon="14.668675407550388"><ele>746.0</ele><time>2026-03-28T14:40:24.998Z</time></trkpt><trkpt lat="40.827451281720286" lon="14.66868760727305"><ele>746.0</ele><time>2026-03-28T14:40:25.998Z</time></trkpt><trkpt lat="40.827560668217316" lon="14.668703428259903"><ele>746.0</ele><time>2026-03-28T14:40:26.998Z</time></trkpt><trkpt lat="40.82764872723583" lon="14.668732430129127"><ele>746.0</ele><time>2026-03-28T14:40:27.998Z</time></trkpt><trkpt lat="40.827768872266034" lon="14.668771818126487"><ele>746.0</ele><time>2026-03-28T14:40:28.998Z</time></trkpt><trkpt lat="40.82793083788522" lon="14.668781741416321"><ele>745.75</ele><time>2026-03-28T14:40:29.998Z</time></trkpt><trkpt lat="40.82806988015393" lon="14.668768441970965"><ele>745.5</ele><time>2026-03-28T14:40:30.998Z</time></trkpt><trkpt lat="40.82819520350359" lon="14.668777074276987"><ele>745.25</ele><time>2026-03-28T14:40:31.998Z</time></trkpt><trkpt lat="40.82831518015626" lon="14.66879957603144"><ele>745.0</ele><time>2026-03-28T14:40:33Z</time></trkpt><trkpt lat="40.82843658078197" lon="14.668826777382504"><ele>745.0</ele><time>2026-03-28T14:40:34Z</time></trkpt><trkpt lat="40.82855052520464" lon="14.66883182462743"><ele>745.0</ele><time>2026-03-28T14:40:35Z</time></trkpt><trkpt lat="40.82864184958844" lon="14.66883629983492"><ele>745.0</ele><time>2026-03-28T14:40:36Z</time></trkpt><trkpt lat="40.828719460387894" lon="14.66882964648758"><ele>745.0</ele><time>2026-03-28T14:40:37Z</time></trkpt><trkpt lat="40.828797728173285" lon="14.668842537645961"><ele>745.0</ele><time>2026-03-28T14:40:38Z</time></trkpt><trkpt lat="40.82886752803902" lon="14.668890343949391"><ele>745.0</ele><time>2026-03-28T14:40:39Z</time></trkpt><trkpt lat="40.82894074214232" lon="14.668950789604962"><ele>745.0</ele><time>2026-03-28T14:40:40Z</time></trkpt><trkpt lat="40.82905052792783" lon="14.669027375304223"><ele>745.0</ele><time>2026-03-28T14:40:41Z</time></trkpt><trkpt lat="40.829175356985886" lon="14.669045325373554"><ele>745.0</ele><time>2026-03-28T14:40:42Z</time></trkpt><trkpt lat="40.82927380232984" lon="14.669073808929731"><ele>745.0</ele><time>2026-03-28T14:40:43Z</time></trkpt><trkpt lat="40.82935617301993" lon="14.669092394567675"><ele>745.0</ele><time>2026-03-28T14:40:44Z</time></trkpt><trkpt lat="40.82944019194096" lon="14.66910912258038"><ele>745.2</ele><time>2026-03-28T14:40:45Z</time></trkpt><trkpt lat="40.82952318704196" lon="14.669125054193218"><ele>745.4</ele><time>2026-03-28T14:40:46Z</time></trkpt><trkpt lat="40.82964052178284" lon="14.669138641474792"><ele>745.5999999999999</ele><time>2026-03-28T14:40:47Z</time></trkpt><trkpt lat="40.82975191854561" lon="14.66914928309057"><ele>745.8</ele><time>2026-03-28T14:40:48Z</time></trkpt><trkpt lat="40.82983382513325" lon="14.66915713934153"><ele>746.0</ele><time>2026-03-28T14:40:49Z</time></trkpt><trkpt lat="40.82991185181704" lon="14.66917216547011"><ele>746.0</ele><time>2026-03-28T14:40:50Z</time></trkpt><trkpt lat="40.83000971301779" lon="14.669199563384238"><ele>746.0</ele><time>2026-03-28T14:40:51Z</time></trkpt><trkpt lat="40.830098259573916" lon="14.669229255005662"><ele>746.0</ele><time>2026-03-28T14:40:52Z</time></trkpt><trkpt lat="40.83018312101634" lon="14.669264842191154"><ele>746.0</ele><time>2026-03-28T14:40:53Z</time></trkpt><trkpt lat="40.830259337417644" lon="14.669285597326674"><ele>746.0</ele><time>2026-03-28T14:40:54Z</time></trkpt><trkpt lat="40.83032246079227" lon="14.66930658600805"><ele>746.0</ele><time>2026-03-28T14:40:55Z</time></trkpt><trkpt lat="40.830397189910194" lon="14.669345550634477"><ele>745.5999999999999</ele><time>2026-03-28T14:40:56Z</time></trkpt><trkpt lat="40.83047539994126" lon="14.669369944540376"><ele>745.2</ele><time>2026-03-28T14:40:57Z</time></trkpt><trkpt lat="40.83055379212834" lon="14.669394395328041"><ele>744.8</ele><time>2026-03-28T14:40:58Z</time></trkpt><trkpt lat="40.83062686963001" lon="14.669364951935059"><ele>744.4000000000001</ele><time>2026-03-28T14:40:59Z</time></trkpt><trkpt lat="40.83074634974148" lon="14.669447063400218"><ele>744.0</ele><time>2026-03-28T14:41:01Z</time></trkpt><trkpt lat="40.83082804389789" lon="14.669511193980643"><ele>741.8333333333334</ele><time>2026-03-28T14:41:02Z</time></trkpt><trkpt lat="40.8309341703616" lon="14.66954729366387"><ele>739.6666666666666</ele><time>2026-03-28T14:41:03Z</time></trkpt><trkpt lat="40.83100384793345" lon="14.669543073030981"><ele>737.5</ele><time>2026-03-28T14:41:04Z</time></trkpt><trkpt lat="40.8310779911474" lon="14.669530934178905"><ele>735.3333333333333</ele><time>2026-03-28T14:41:04.999Z</time></trkpt><trkpt lat="40.83115464573635" lon="14.669558857980975"><ele>733.1666666666666</ele><time>2026-03-28T14:41:05.999Z</time></trkpt><trkpt lat="40.83123586982995" lon="14.669606538101355"><ele>731.0</ele><time>2026-03-28T14:41:06.999Z</time></trkpt><trkpt lat="40.83132093547779" lon="14.669648821715692"><ele>731.0</ele><time>2026-03-28T14:41:07.999Z</time></trkpt><trkpt lat="40.8314079519895" lon="14.669684482714915"><ele>731.0</ele><time>2026-03-28T14:41:08.999Z</time></trkpt><trkpt lat="40.8314936062718" lon="14.669708039577579"><ele>731.0</ele><time>2026-03-28T14:41:09.999Z</time></trkpt><trkpt lat="40.83157010952245" lon="14.669742280062428"><ele>731.0</ele><time>2026-03-28T14:41:10.999Z</time></trkpt><trkpt lat="40.831644467681386" lon="14.669794778339298"><ele>731.0</ele><time>2026-03-28T14:41:11.999Z</time></trkpt><trkpt lat="40.8317107536796" lon="14.669850056609578"><ele>731.0</ele><time>2026-03-28T14:41:12.999Z</time></trkpt><trkpt lat="40.83178036892372" lon="14.66991259207114"><ele>731.8333333333333</ele><time>2026-03-28T14:41:13.999Z</time></trkpt><trkpt lat="40.83183977231464" lon="14.669975424036467"><ele>732.6666666666666</ele><time>2026-03-28T14:41:14.999Z</time></trkpt><trkpt lat="40.831909413488575" lon="14.670009475870238"><ele>733.5</ele><time>2026-03-28T14:41:15.999Z</time></trkpt><trkpt lat="40.83199041613164" lon="14.670037416861186"><ele>734.3333333333334</ele><time>2026-03-28T14:41:16.999Z</time></trkpt><trkpt lat="40.83207206143585" lon="14.670072750889313"><ele>735.1666666666667</ele><time>2026-03-28T14:41:17.999Z</time></trkpt><trkpt lat="40.83215745343284" lon="14.670107213597214"><ele>736.0</ele><time>2026-03-28T14:41:18.999Z</time></trkpt><trkpt lat="40.83224097407502" lon="14.670142040397526"><ele>736.0</ele><time>2026-03-28T14:41:19.999Z</time></trkpt><trkpt lat="40.83231542308697" lon="14.670175082471168"><ele>736.0</ele><time>2026-03-28T14:41:20.999Z</time></trkpt><trkpt lat="40.83239016853467" lon="14.670207309792815"><ele>736.0</ele><time>2026-03-28T14:41:21.999Z</time></trkpt><trkpt lat="40.83247108573633" lon="14.670248889333982"><ele>736.0</ele><time>2026-03-28T14:41:22.999Z</time></trkpt><trkpt lat="40.83258365010345" lon="14.670327206165824"><ele>736.0</ele><time>2026-03-28T14:41:23.999Z</time></trkpt><trkpt lat="40.83270458791081" lon="14.6703937757694"><ele>732.5999999999999</ele><time>2026-03-28T14:41:24.999Z</time></trkpt><trkpt lat="40.83280135966005" lon="14.670441335079683"><ele>729.2</ele><time>2026-03-28T14:41:25.999Z</time></trkpt><trkpt lat="40.83289808718222" lon="14.67049568000022"><ele>725.8</ele><time>2026-03-28T14:41:26.999Z</time></trkpt><trkpt lat="40.832984589771826" lon="14.670556826821748"><ele>722.4000000000001</ele><time>2026-03-28T14:41:27.999Z</time></trkpt><trkpt lat="40.83306245427245" lon="14.670608734234298"><ele>719.0</ele><time>2026-03-28T14:41:28.999Z</time></trkpt><trkpt lat="40.83312755159982" lon="14.67065200757314"><ele>719.0</ele><time>2026-03-28T14:41:29.999Z</time></trkpt><trkpt lat="40.83321121850871" lon="14.670705491151796"><ele>719.0</ele><time>2026-03-28T14:41:31.999Z</time></trkpt><trkpt lat="40.83327391390313" lon="14.670752877311738"><ele>719.0</ele><time>2026-03-28T14:41:34.999Z</time></trkpt><trkpt lat="40.833170270013404" lon="14.670818916786732"><ele>719.0</ele><time>2026-03-28T14:41:37.999Z</time></trkpt><trkpt lat="40.83309234672997" lon="14.670839120814023"><ele>719.0</ele><time>2026-03-28T14:41:38.999Z</time></trkpt><trkpt lat="40.83299978136993" lon="14.670896822305897"><ele>719.0</ele><time>2026-03-28T14:41:40.999Z</time></trkpt><trkpt lat="40.832910786164284" lon="14.670964307393563"><ele>719.0</ele><time>2026-03-28T14:41:42.999Z</time></trkpt><trkpt lat="40.83285314666403" lon="14.671002661578159"><ele>719.0</ele><time>2026-03-28T14:41:43.999Z</time></trkpt><trkpt lat="40.83278657552185" lon="14.671077281718839"><ele>719.0</ele><time>2026-03-28T14:41:45.999Z</time></trkpt><trkpt lat="40.83280115424553" lon="14.671180435570934"><ele>719.0</ele><time>2026-03-28T14:41:47.999Z</time></trkpt><trkpt lat="40.83291374128851" lon="14.671254210068545"><ele>718.0</ele><time>2026-03-28T14:41:49.999Z</time></trkpt><trkpt lat="40.83298979863999" lon="14.671274442156014"><ele>717.0</ele><time>2026-03-28T14:41:50.999Z</time></trkpt><trkpt lat="40.83304695098841" lon="14.671337779617746"><ele>716.0</ele><time>2026-03-28T14:41:51.999Z</time></trkpt><trkpt lat="40.83308480771764" lon="14.671422400126355"><ele>715.0</ele><time>2026-03-28T14:41:52.999Z</time></trkpt><trkpt lat="40.833125637620284" lon="14.671517192497971"><ele>714.0</ele><time>2026-03-28T14:41:53.999Z</time></trkpt><trkpt lat="40.83317374549352" lon="14.671596063191966"><ele>713.0</ele><time>2026-03-28T14:41:54.999Z</time></trkpt><trkpt lat="40.833231981455555" lon="14.6716913982988"><ele>713.0</ele><time>2026-03-28T14:41:55.999Z</time></trkpt><trkpt lat="40.833283650568944" lon="14.67181548604885"><ele>713.0</ele><time>2026-03-28T14:41:56.999Z</time></trkpt><trkpt lat="40.83332388111537" lon="14.671916301978229"><ele>713.0</ele><time>2026-03-28T14:41:57.999Z</time></trkpt><trkpt lat="40.83337318218118" lon="14.672008619636033"><ele>713.0</ele><time>2026-03-28T14:41:58.999Z</time></trkpt><trkpt lat="40.83341482747931" lon="14.672082899594528"><ele>713.0</ele><time>2026-03-28T14:41:59.999Z</time></trkpt><trkpt lat="40.8334546528548" lon="14.67214997661522"><ele>713.0</ele><time>2026-03-28T14:42:00.999Z</time></trkpt><trkpt lat="40.83353590315053" lon="14.672281398197876"><ele>713.4</ele><time>2026-03-28T14:42:02.999Z</time></trkpt><trkpt lat="40.833579984081496" lon="14.67237572657126"><ele>713.8</ele><time>2026-03-28T14:42:03.999Z</time></trkpt><trkpt lat="40.833649319931084" lon="14.672437682574335"><ele>714.2</ele><time>2026-03-28T14:42:04.998Z</time></trkpt><trkpt lat="40.83374860997648" lon="14.672518940525487"><ele>714.6</ele><time>2026-03-28T14:42:05.998Z</time></trkpt><trkpt lat="40.83384391939509" lon="14.672606199350081"><ele>715.0</ele><time>2026-03-28T14:42:06.998Z</time></trkpt><trkpt lat="40.8339268525204" lon="14.672705680754675"><ele>715.8333333333334</ele><time>2026-03-28T14:42:07.998Z</time></trkpt><trkpt lat="40.83400000386252" lon="14.67278777599936"><ele>716.6666666666667</ele><time>2026-03-28T14:42:08.998Z</time></trkpt><trkpt lat="40.83406827145263" lon="14.672857797182882"><ele>717.5</ele><time>2026-03-28T14:42:09.998Z</time></trkpt><trkpt lat="40.83414201921785" lon="14.672934633162999"><ele>718.3333333333334</ele><time>2026-03-28T14:42:10.998Z</time></trkpt><trkpt lat="40.83420757720018" lon="14.673006415479385"><ele>719.1666666666666</ele><time>2026-03-28T14:42:11.998Z</time></trkpt><trkpt lat="40.83426119149377" lon="14.67308024820363"><ele>720.0</ele><time>2026-03-28T14:42:12.998Z</time></trkpt><trkpt lat="40.83433765600674" lon="14.67315242456342"><ele>720.0</ele><time>2026-03-28T14:42:13.998Z</time></trkpt><trkpt lat="40.83440163194898" lon="14.67322885011292"><ele>720.0</ele><time>2026-03-28T14:42:14.998Z</time></trkpt><trkpt lat="40.83447118050664" lon="14.673314162633424"><ele>720.0</ele><time>2026-03-28T14:42:15.998Z</time></trkpt><trkpt lat="40.834537224354236" lon="14.673422793894094"><ele>720.0</ele><time>2026-03-28T14:42:16.998Z</time></trkpt><trkpt lat="40.834575730903516" lon="14.673538064643898"><ele>720.0</ele><time>2026-03-28T14:42:17.998Z</time></trkpt><trkpt lat="40.83459687365283" lon="14.673635972355214"><ele>724.0</ele><time>2026-03-28T14:42:18.998Z</time></trkpt><trkpt lat="40.83473060825515" lon="14.673688262342003"><ele>728.0</ele><time>2026-03-28T14:42:20.998Z</time></trkpt><trkpt lat="40.83484633241073" lon="14.67369415149813"><ele>732.0</ele><time>2026-03-28T14:42:21.998Z</time></trkpt><trkpt lat="40.834960265173585" lon="14.673709813734124"><ele>736.0</ele><time>2026-03-28T14:42:22.998Z</time></trkpt><trkpt lat="40.83505525076145" lon="14.673798677897537"><ele>732.75</ele><time>2026-03-28T14:42:23.998Z</time></trkpt><trkpt lat="40.83516817619309" lon="14.673903702139434"><ele>729.5</ele><time>2026-03-28T14:42:24.998Z</time></trkpt><trkpt lat="40.835257155890964" lon="14.67399080467936"><ele>726.25</ele><time>2026-03-28T14:42:25.998Z</time></trkpt><trkpt lat="40.83535368176243" lon="14.674050092667882"><ele>723.0</ele><time>2026-03-28T14:42:26.998Z</time></trkpt><trkpt lat="40.83545380614698" lon="14.674120777468698"><ele>723.0</ele><time>2026-03-28T14:42:27.998Z</time></trkpt><trkpt lat="40.83553180968385" lon="14.674192909796037"><ele>723.0</ele><time>2026-03-28T14:42:28.998Z</time></trkpt><trkpt lat="40.83560223945282" lon="14.674257530724985"><ele>723.0</ele><time>2026-03-28T14:42:29.998Z</time></trkpt><trkpt lat="40.83574146219233" lon="14.674265051612073"><ele>723.0</ele><time>2026-03-28T14:42:31.998Z</time></trkpt><trkpt lat="40.83585327317484" lon="14.674249322377195"><ele>723.0</ele><time>2026-03-28T14:42:32.998Z</time></trkpt><trkpt lat="40.835962495164324" lon="14.674306109236117"><ele>721.2</ele><time>2026-03-28T14:42:33.998Z</time></trkpt><trkpt lat="40.83606248756867" lon="14.674389366007999"><ele>719.4</ele><time>2026-03-28T14:42:34.998Z</time></trkpt><trkpt lat="40.83614802507725" lon="14.674469436031487"><ele>717.6</ele><time>2026-03-28T14:42:35.998Z</time></trkpt><trkpt lat="40.836225432513906" lon="14.6745366901453"><ele>715.8000000000001</ele><time>2026-03-28T14:42:36.998Z</time></trkpt><trkpt lat="40.83628845828249" lon="14.674630160501705"><ele>714.0</ele><time>2026-03-28T14:42:37.998Z</time></trkpt><trkpt lat="40.83635709279947" lon="14.674761854763549"><ele>717.6</ele><time>2026-03-28T14:42:39Z</time></trkpt><trkpt lat="40.8364103414481" lon="14.674859560965544"><ele>721.2</ele><time>2026-03-28T14:42:40Z</time></trkpt><trkpt lat="40.83648561824123" lon="14.674947767326616"><ele>724.8000000000001</ele><time>2026-03-28T14:42:41Z</time></trkpt><trkpt lat="40.836563212896486" lon="14.675060968559654"><ele>728.4000000000001</ele><time>2026-03-28T14:42:42Z</time></trkpt><trkpt lat="40.83662893880781" lon="14.67518132809417"><ele>732.0</ele><time>2026-03-28T14:42:43Z</time></trkpt><trkpt lat="40.836680202004" lon="14.67528074266452"><ele>736.4000000000001</ele><time>2026-03-28T14:42:44Z</time></trkpt><trkpt lat="40.83670346306174" lon="14.675414971780645"><ele>740.8000000000001</ele><time>2026-03-28T14:42:45Z</time></trkpt><trkpt lat="40.83669429520171" lon="14.675569018707929"><ele>745.2</ele><time>2026-03-28T14:42:46Z</time></trkpt><trkpt lat="40.83667288043138" lon="14.675648101668754"><ele>749.6</ele><time>2026-03-28T14:42:47Z</time></trkpt><trkpt lat="40.83673110982629" lon="14.675759825931651"><ele>754.0</ele><time>2026-03-28T14:42:49Z</time></trkpt><trkpt lat="40.83679854038461" lon="14.675794063008961"><ele>754.3333333333334</ele><time>2026-03-28T14:42:50Z</time></trkpt><trkpt lat="40.83687731976391" lon="14.675790752451674"><ele>754.6666666666667</ele><time>2026-03-28T14:42:51Z</time></trkpt><trkpt lat="40.83695498528522" lon="14.67583065520593"><ele>755.0</ele><time>2026-03-28T14:42:52Z</time></trkpt><trkpt lat="40.83702745667891" lon="14.67588635306659"><ele>755.3333333333334</ele><time>2026-03-28T14:42:53Z</time></trkpt><trkpt lat="40.83706915611065" lon="14.675974266638736"><ele>755.6666666666666</ele><time>2026-03-28T14:42:54Z</time></trkpt><trkpt lat="40.837105789580235" lon="14.676100576257287"><ele>756.0</ele><time>2026-03-28T14:42:55Z</time></trkpt><trkpt lat="40.83717968066903" lon="14.676242586792215"><ele>756.0</ele><time>2026-03-28T14:42:57Z</time></trkpt><trkpt lat="40.83724159732231" lon="14.676278519610548"><ele>756.0</ele><time>2026-03-28T14:42:58Z</time></trkpt><trkpt lat="40.83734190729265" lon="14.67631130057608"><ele>756.0</ele><time>2026-03-28T14:42:59Z</time></trkpt><trkpt lat="40.83746610733087" lon="14.676333151065592"><ele>756.0</ele><time>2026-03-28T14:43:00Z</time></trkpt><trkpt lat="40.83756768928022" lon="14.6763563884407"><ele>756.0</ele><time>2026-03-28T14:43:01Z</time></trkpt><trkpt lat="40.83765672052829" lon="14.676428005040414"><ele>752.3333333333334</ele><time>2026-03-28T14:43:02Z</time></trkpt><trkpt lat="40.83771575195887" lon="14.676468071284303"><ele>748.6666666666666</ele><time>2026-03-28T14:43:03Z</time></trkpt><trkpt lat="40.837756131212586" lon="14.676539170862556"><ele>745.0</ele><time>2026-03-28T14:43:04Z</time></trkpt><trkpt lat="40.837798861519744" lon="14.676634012809759"><ele>741.3333333333333</ele><time>2026-03-28T14:43:05Z</time></trkpt><trkpt lat="40.83786807305938" lon="14.676720343670908"><ele>737.6666666666666</ele><time>2026-03-28T14:43:06Z</time></trkpt><trkpt lat="40.83792842425321" lon="14.676778153781312"><ele>734.0</ele><time>2026-03-28T14:43:07Z</time></trkpt><trkpt lat="40.837999482799205" lon="14.676790070154047"><ele>734.0</ele><time>2026-03-28T14:43:08Z</time></trkpt><trkpt lat="40.83808885997669" lon="14.676788451296348"><ele>734.0</ele><time>2026-03-28T14:43:09Z</time></trkpt><trkpt lat="40.83817816147486" lon="14.676774323780753"><ele>734.0</ele><time>2026-03-28T14:43:10Z</time></trkpt><trkpt lat="40.838305591464724" lon="14.676786431273808"><ele>734.0</ele><time>2026-03-28T14:43:11Z</time></trkpt><trkpt lat="40.838398769705286" lon="14.676820553736706"><ele>734.0</ele><time>2026-03-28T14:43:12Z</time></trkpt><trkpt lat="40.83848539012871" lon="14.676855808613542"><ele>735.5</ele><time>2026-03-28T14:43:12.999Z</time></trkpt><trkpt lat="40.83855755334103" lon="14.67690010557325"><ele>737.0</ele><time>2026-03-28T14:43:14.999Z</time></trkpt><trkpt lat="40.83859900728597" lon="14.67702790447581"><ele>738.5</ele><time>2026-03-28T14:43:16.999Z</time></trkpt><trkpt lat="40.838570204646345" lon="14.67712485731481"><ele>740.0</ele><time>2026-03-28T14:43:17.999Z</time></trkpt><trkpt lat="40.8385337388725" lon="14.677207055900261"><ele>741.5</ele><time>2026-03-28T14:43:18.999Z</time></trkpt><trkpt lat="40.838584779633166" lon="14.677275007823802"><ele>743.0</ele><time>2026-03-28T14:43:21.999Z</time></trkpt><trkpt lat="40.838854927543494" lon="14.677311982175771"><ele>743.0</ele><time>2026-03-28T14:43:26.999Z</time></trkpt><trkpt lat="40.83894259934781" lon="14.677348560297352"><ele>743.0</ele><time>2026-03-28T14:43:28.999Z</time></trkpt><trkpt lat="40.83903693323539" lon="14.677450352012643"><ele>743.0</ele><time>2026-03-28T14:43:30.999Z</time></trkpt><trkpt lat="40.83911055171436" lon="14.677515788119033"><ele>743.0</ele><time>2026-03-28T14:43:31.999Z</time></trkpt><trkpt lat="40.83918132539188" lon="14.677572993780023"><ele>743.0</ele><time>2026-03-28T14:43:32.999Z</time></trkpt><trkpt lat="40.839248376739086" lon="14.677624836102142"><ele>740.5</ele><time>2026-03-28T14:43:33.999Z</time></trkpt><trkpt lat="40.83930852388989" lon="14.677671642980485"><ele>738.0</ele><time>2026-03-28T14:43:34.999Z</time></trkpt><trkpt lat="40.839371023102466" lon="14.677703797583456"><ele>735.5</ele><time>2026-03-28T14:43:35.999Z</time></trkpt><trkpt lat="40.83944030761542" lon="14.677718117890455"><ele>733.0</ele><time>2026-03-28T14:43:36.999Z</time></trkpt><trkpt lat="40.839514733171505" lon="14.677755926148816"><ele>730.5</ele><time>2026-03-28T14:43:37.999Z</time></trkpt><trkpt lat="40.83959516477122" lon="14.677808291503217"><ele>728.0</ele><time>2026-03-28T14:43:38.999Z</time></trkpt><trkpt lat="40.83967629463415" lon="14.677843595935672"><ele>733.5999999999999</ele><time>2026-03-28T14:43:39.999Z</time></trkpt><trkpt lat="40.83975944869095" lon="14.677868798734158"><ele>739.1999999999999</ele><time>2026-03-28T14:43:40.999Z</time></trkpt><trkpt lat="40.83984294260999" lon="14.677904965920664"><ele>744.8</ele><time>2026-03-28T14:43:41.999Z</time></trkpt><trkpt lat="40.83993725975001" lon="14.67794768085385"><ele>750.4</ele><time>2026-03-28T14:43:42.999Z</time></trkpt><trkpt lat="40.84003638165523" lon="14.677986866776463"><ele>756.0</ele><time>2026-03-28T14:43:43.999Z</time></trkpt><trkpt lat="40.84014045653193" lon="14.678017696999381"><ele>756.0</ele><time>2026-03-28T14:43:44.999Z</time></trkpt><trkpt lat="40.840511742749335" lon="14.678058885198794"><ele>756.0</ele><time>2026-03-28T14:43:45.999Z</time></trkpt><trkpt lat="40.840619524561916" lon="14.678109486994526"><ele>756.0</ele><time>2026-03-28T14:43:46.999Z</time></trkpt><trkpt lat="40.840720876355746" lon="14.678143872188947"><ele>756.0</ele><time>2026-03-28T14:43:47.999Z</time></trkpt><trkpt lat="40.84080598086969" lon="14.678183015787774"><ele>756.0</ele><time>2026-03-28T14:43:48.999Z</time></trkpt><trkpt lat="40.84087481246405" lon="14.678240997795829"><ele>756.0</ele><time>2026-03-28T14:43:49.999Z</time></trkpt><trkpt lat="40.84096316852332" lon="14.678297510591019"><ele>756.0</ele><time>2026-03-28T14:43:50.999Z</time></trkpt><trkpt lat="40.84107279007383" lon="14.678370763775817"><ele>758.5</ele><time>2026-03-28T14:43:51.999Z</time></trkpt><trkpt lat="40.841167095395456" lon="14.678417737315568"><ele>761.0</ele><time>2026-03-28T14:43:52.999Z</time></trkpt><trkpt lat="40.84124061872555" lon="14.678461039970106"><ele>763.5</ele><time>2026-03-28T14:43:53.999Z</time></trkpt><trkpt lat="40.84130631521807" lon="14.678513155892897"><ele>766.0</ele><time>2026-03-28T14:43:54.999Z</time></trkpt><trkpt lat="40.84135219925016" lon="14.67860232344045"><ele>768.5</ele><time>2026-03-28T14:43:55.999Z</time></trkpt><trkpt lat="40.84139962491895" lon="14.678727404058254"><ele>771.0</ele><time>2026-03-28T14:43:56.999Z</time></trkpt><trkpt lat="40.84142428761659" lon="14.678865234112799"><ele>771.0</ele><time>2026-03-28T14:43:57.999Z</time></trkpt><trkpt lat="40.841427568757005" lon="14.678983546587572"><ele>771.0</ele><time>2026-03-28T14:43:58.999Z</time></trkpt><trkpt lat="40.841427733232855" lon="14.679097648781886"><ele>771.0</ele><time>2026-03-28T14:43:59.999Z</time></trkpt><trkpt lat="40.84143621516917" lon="14.679188329830488"><ele>771.0</ele><time>2026-03-28T14:44:00.999Z</time></trkpt><trkpt lat="40.841484094110776" lon="14.679263197569606"><ele>771.0</ele><time>2026-03-28T14:44:02.999Z</time></trkpt><trkpt lat="40.84154597996733" lon="14.679243182556055"><ele>771.0</ele><time>2026-03-28T14:44:04.999Z</time></trkpt><trkpt lat="40.8416009183362" lon="14.679120102617276"><ele>771.0</ele><time>2026-03-28T14:44:06.999Z</time></trkpt><trkpt lat="40.84168752813708" lon="14.679326420557414"><ele>771.0</ele><time>2026-03-28T14:44:07.999Z</time></trkpt><trkpt lat="40.84172186517446" lon="14.679243083890558"><ele>771.0</ele><time>2026-03-28T14:44:08.999Z</time></trkpt><trkpt lat="40.84176717645077" lon="14.679133273827441"><ele>771.0</ele><time>2026-03-28T14:44:10.999Z</time></trkpt><trkpt lat="40.84182779621347" lon="14.679083941827656"><ele>771.0</ele><time>2026-03-28T14:44:11.998Z</time></trkpt><trkpt lat="40.84188780642164" lon="14.679006201299691"><ele>772.5</ele><time>2026-03-28T14:44:12.998Z</time></trkpt><trkpt lat="40.84197511440549" lon="14.678940333979416"><ele>774.0</ele><time>2026-03-28T14:44:13.998Z</time></trkpt><trkpt lat="40.84204851972699" lon="14.678897813101303"><ele>775.5</ele><time>2026-03-28T14:44:14.998Z</time></trkpt><trkpt lat="40.84214617914049" lon="14.67885349505728"><ele>777.0</ele><time>2026-03-28T14:44:15.998Z</time></trkpt><trkpt lat="40.84222479058075" lon="14.678822149579204"><ele>778.5</ele><time>2026-03-28T14:44:16.998Z</time></trkpt><trkpt lat="40.84229944500837" lon="14.678805909881707"><ele>780.0</ele><time>2026-03-28T14:44:17.998Z</time></trkpt><trkpt lat="40.84237574179602" lon="14.678796150737163"><ele>780.0</ele><time>2026-03-28T14:44:18.998Z</time></trkpt><trkpt lat="40.84245996581693" lon="14.6787943151453"><ele>780.0</ele><time>2026-03-28T14:44:19.998Z</time></trkpt><trkpt lat="40.84256128041042" lon="14.678806726668057"><ele>780.0</ele><time>2026-03-28T14:44:20.998Z</time></trkpt><trkpt lat="40.84267593063364" lon="14.678828193758653"><ele>780.0</ele><time>2026-03-28T14:44:21.998Z</time></trkpt><trkpt lat="40.84279561156822" lon="14.678874683981213"><ele>780.0</ele><time>2026-03-28T14:44:22.998Z</time></trkpt><trkpt lat="40.84291049949602" lon="14.678919619424589"><ele>779.0</ele><time>2026-03-28T14:44:23.998Z</time></trkpt><trkpt lat="40.84303644270039" lon="14.678942327970939"><ele>778.0</ele><time>2026-03-28T14:44:24.998Z</time></trkpt><trkpt lat="40.843192115547346" lon="14.67903615913997"><ele>777.0</ele><time>2026-03-28T14:44:25.998Z</time></trkpt><trkpt lat="40.84345045964941" lon="14.679133049159264"><ele>772.75</ele><time>2026-03-28T14:44:26.998Z</time></trkpt><trkpt lat="40.84357670333696" lon="14.679186511918608"><ele>768.5</ele><time>2026-03-28T14:44:27.998Z</time></trkpt><trkpt lat="40.84368321148695" lon="14.679270461942036"><ele>764.25</ele><time>2026-03-28T14:44:28.998Z</time></trkpt><trkpt lat="40.84378268174667" lon="14.67933575617737"><ele>760.0</ele><time>2026-03-28T14:44:29.998Z</time></trkpt><trkpt lat="40.843902554012196" lon="14.67946033987135"><ele>766.8333333333334</ele><time>2026-03-28T14:44:31.998Z</time></trkpt><trkpt lat="40.84393174034729" lon="14.679570408909148"><ele>773.6666666666667</ele><time>2026-03-28T14:44:32.998Z</time></trkpt><trkpt lat="40.84395447713858" lon="14.67968724507102"><ele>780.5</ele><time>2026-03-28T14:44:33.998Z</time></trkpt><trkpt lat="40.84398285871038" lon="14.67979491678702"><ele>787.3333333333334</ele><time>2026-03-28T14:44:34.998Z</time></trkpt><trkpt lat="40.844038652320314" lon="14.67988760440057"><ele>794.1666666666666</ele><time>2026-03-28T14:44:35.998Z</time></trkpt><trkpt lat="40.844115332634324" lon="14.679930970690034"><ele>801.0</ele><time>2026-03-28T14:44:36.998Z</time></trkpt><trkpt lat="40.84419269038529" lon="14.679947280465681"><ele>801.0</ele><time>2026-03-28T14:44:37.998Z</time></trkpt><trkpt lat="40.84426698497401" lon="14.679939907403657"><ele>801.0</ele><time>2026-03-28T14:44:38.998Z</time></trkpt><trkpt lat="40.8443618493358" lon="14.679943486468888"><ele>801.0</ele><time>2026-03-28T14:44:39.998Z</time></trkpt><trkpt lat="40.84447590037574" lon="14.679965745629048"><ele>801.0</ele><time>2026-03-28T14:44:40.998Z</time></trkpt><trkpt lat="40.84460167343515" lon="14.679973460232732"><ele>801.0</ele><time>2026-03-28T14:44:41.998Z</time></trkpt><trkpt lat="40.84471766286784" lon="14.679967036610522"><ele>799.5</ele><time>2026-03-28T14:44:42.998Z</time></trkpt><trkpt lat="40.84480162332622" lon="14.679991078237315"><ele>798.0</ele><time>2026-03-28T14:44:44Z</time></trkpt><trkpt lat="40.84488250836524" lon="14.68003146115108"><ele>796.5</ele><time>2026-03-28T14:44:45Z</time></trkpt><trkpt lat="40.84496309690458" lon="14.680102937317796"><ele>795.0</ele><time>2026-03-28T14:44:46Z</time></trkpt><trkpt lat="40.84502413809813" lon="14.680174953115342"><ele>793.5</ele><time>2026-03-28T14:44:47Z</time></trkpt><trkpt lat="40.845096994606564" lon="14.680253105161988"><ele>792.0</ele><time>2026-03-28T14:44:48Z</time></trkpt><trkpt lat="40.845187264011216" lon="14.680313667124722"><ele>795.8</ele><time>2026-03-28T14:44:49Z</time></trkpt><trkpt lat="40.84528474097503" lon="14.680374301479253"><ele>799.6</ele><time>2026-03-28T14:44:50Z</time></trkpt><trkpt lat="40.84537775267655" lon="14.680441047911215"><ele>803.4</ele><time>2026-03-28T14:44:51Z</time></trkpt><trkpt lat="40.84546636628562" lon="14.680537312475396"><ele>807.1999999999999</ele><time>2026-03-28T14:44:52Z</time></trkpt><trkpt lat="40.845539587557276" lon="14.680602739736967"><ele>811.0</ele><time>2026-03-28T14:44:53Z</time></trkpt><trkpt lat="40.84563153930669" lon="14.680650509776353"><ele>811.0</ele><time>2026-03-28T14:44:54Z</time></trkpt><trkpt lat="40.84570807385643" lon="14.680698309198634"><ele>811.0</ele><time>2026-03-28T14:44:55Z</time></trkpt><trkpt lat="40.84578045533132" lon="14.680750530007156"><ele>811.0</ele><time>2026-03-28T14:44:56Z</time></trkpt><trkpt lat="40.84586309125669" lon="14.680782136901083"><ele>811.0</ele><time>2026-03-28T14:44:57Z</time></trkpt><trkpt lat="40.84594946821433" lon="14.680852303803714"><ele>811.0</ele><time>2026-03-28T14:44:58Z</time></trkpt><trkpt lat="40.846021388885745" lon="14.680944005338606"><ele>811.0</ele><time>2026-03-28T14:44:59Z</time></trkpt><trkpt lat="40.846070115956934" lon="14.681025729752191"><ele>811.0</ele><time>2026-03-28T14:45:00Z</time></trkpt><trkpt lat="40.84605861417934" lon="14.68110901448913"><ele>811.0</ele><time>2026-03-28T14:45:02Z</time></trkpt><trkpt lat="40.84594949822766" lon="14.681080963695933"><ele>811.0</ele><time>2026-03-28T14:45:04Z</time></trkpt><trkpt lat="40.84586964783956" lon="14.681037202568103"><ele>811.0</ele><time>2026-03-28T14:45:05Z</time></trkpt><trkpt lat="40.84575814113198" lon="14.6809878982629"><ele>810.9999999999999</ele><time>2026-03-28T14:45:07Z</time></trkpt><trkpt lat="40.84567762403665" lon="14.680993935645445"><ele>811.0</ele><time>2026-03-28T14:45:08Z</time></trkpt><trkpt lat="40.845596565441184" lon="14.681034214203493"><ele>811.0</ele><time>2026-03-28T14:45:09Z</time></trkpt><trkpt lat="40.845523905340606" lon="14.681066321411638"><ele>811.0</ele><time>2026-03-28T14:45:10Z</time></trkpt><trkpt lat="40.845442766558996" lon="14.681112316947157"><ele>810.9999999999999</ele><time>2026-03-28T14:45:11Z</time></trkpt><trkpt lat="40.845373723232925" lon="14.681164728059752"><ele>811.0</ele><time>2026-03-28T14:45:12Z</time></trkpt><trkpt lat="40.8453108297315" lon="14.68121144190895"><ele>813.5999999999999</ele><time>2026-03-28T14:45:13Z</time></trkpt><trkpt lat="40.84517886558501" lon="14.681243911976862"><ele>816.2</ele><time>2026-03-28T14:45:15Z</time></trkpt><trkpt lat="40.84510504068267" lon="14.681381996879965"><ele>818.8</ele><time>2026-03-28T14:45:17Z</time></trkpt><trkpt lat="40.84508577375578" lon="14.681480228359074"><ele>821.4000000000001</ele><time>2026-03-28T14:45:18Z</time></trkpt><trkpt lat="40.84506332888923" lon="14.681592607096816"><ele>824.0</ele><time>2026-03-28T14:45:19Z</time></trkpt><trkpt lat="40.84502886149556" lon="14.681712636382178"><ele>824.0</ele><time>2026-03-28T14:45:20Z</time></trkpt><trkpt lat="40.84500099979595" lon="14.681826928296326"><ele>824.0</ele><time>2026-03-28T14:45:21Z</time></trkpt><trkpt lat="40.84503722447557" lon="14.682008206984587"><ele>824.0</ele><time>2026-03-28T14:45:23Z</time></trkpt><trkpt lat="40.84509090656601" lon="14.682129720008827"><ele>824.0</ele><time>2026-03-28T14:45:24Z</time></trkpt><trkpt lat="40.84514567305173" lon="14.682259843891552"><ele>824.0</ele><time>2026-03-28T14:45:24.999Z</time></trkpt><trkpt lat="40.845190702032355" lon="14.682373304587095"><ele>824.0</ele><time>2026-03-28T14:45:25.999Z</time></trkpt><trkpt lat="40.84521994055273" lon="14.682470133803323"><ele>824.0</ele><time>2026-03-28T14:45:26.999Z</time></trkpt><trkpt lat="40.84519709197216" lon="14.682616746753563"><ele>824.0</ele><time>2026-03-28T14:45:28.999Z</time></trkpt><trkpt lat="40.845075180409495" lon="14.68261463978025"><ele>824.0</ele><time>2026-03-28T14:45:30.999Z</time></trkpt><trkpt lat="40.84500073121969" lon="14.682556891850396"><ele>824.5000000000001</ele><time>2026-03-28T14:45:31.999Z</time></trkpt><trkpt lat="40.844935675599935" lon="14.68260969726302"><ele>825.0</ele><time>2026-03-28T14:45:39.999Z</time></trkpt><trkpt lat="40.8449118954976" lon="14.682698422743737"><ele>825.5</ele><time>2026-03-28T14:45:42.999Z</time></trkpt><trkpt lat="40.84492969614448" lon="14.682788379244801"><ele>826.0</ele><time>2026-03-28T14:45:43.999Z</time></trkpt><trkpt lat="40.844901350746504" lon="14.682910971776227"><ele>826.5000000000001</ele><time>2026-03-28T14:45:45.999Z</time></trkpt><trkpt lat="40.844840397972646" lon="14.683006631565622"><ele>827.0</ele><time>2026-03-28T14:45:47.999Z</time></trkpt><trkpt lat="40.84477274599771" lon="14.683100078995881"><ele>827.0</ele><time>2026-03-28T14:45:49.999Z</time></trkpt><trkpt lat="40.844799277770456" lon="14.683220786646586"><ele>827.0</ele><time>2026-03-28T14:45:51.999Z</time></trkpt><trkpt lat="40.8448529278606" lon="14.683325040183288"><ele>827.0</ele><time>2026-03-28T14:45:53.999Z</time></trkpt><trkpt lat="40.84493681448801" lon="14.68345088969708"><ele>827.0</ele><time>2026-03-28T14:45:55.999Z</time></trkpt><trkpt lat="40.84504319076676" lon="14.683534616040635"><ele>827.0</ele><time>2026-03-28T14:45:57.999Z</time></trkpt><trkpt lat="40.84509705052664" lon="14.683580704324998"><ele>824.5000000000001</ele><time>2026-03-28T14:45:58.999Z</time></trkpt><trkpt lat="40.84515869281128" lon="14.683623876248973"><ele>822.0</ele><time>2026-03-28T14:45:59.999Z</time></trkpt><trkpt lat="40.84520326501095" lon="14.683682895906003"><ele>819.5</ele><time>2026-03-28T14:46:00.999Z</time></trkpt><trkpt lat="40.84525425711526" lon="14.683746764970499"><ele>817.0</ele><time>2026-03-28T14:46:01.999Z</time></trkpt><trkpt lat="40.845298181033485" lon="14.683841380502091"><ele>814.5000000000001</ele><time>2026-03-28T14:46:02.999Z</time></trkpt><trkpt lat="40.84541622734818" lon="14.683945204210307"><ele>812.0</ele><time>2026-03-28T14:46:03.999Z</time></trkpt><trkpt lat="40.84540947131041" lon="14.684080039861644"><ele>812.0000000000001</ele><time>2026-03-28T14:46:05.999Z</time></trkpt><trkpt lat="40.84541522477463" lon="14.684234657037461"><ele>812.0</ele><time>2026-03-28T14:46:07.999Z</time></trkpt><trkpt lat="40.84538812430529" lon="14.68432038092237"><ele>812.0</ele><time>2026-03-28T14:46:08.999Z</time></trkpt><trkpt lat="40.845348169595795" lon="14.684396157581336"><ele>812.0</ele><time>2026-03-28T14:46:09.999Z</time></trkpt><trkpt lat="40.84531254992476" lon="14.684467882608566"><ele>812.0000000000001</ele><time>2026-03-28T14:46:10.999Z</time></trkpt><trkpt lat="40.84532333273848" lon="14.684585934373958"><ele>812.0</ele><time>2026-03-28T14:46:12.999Z</time></trkpt><trkpt lat="40.845399435669414" lon="14.6845879825214"><ele>812.5000000000001</ele><time>2026-03-28T14:46:15.999Z</time></trkpt><trkpt lat="40.84545676077462" lon="14.684500739303973"><ele>813.0</ele><time>2026-03-28T14:46:17.999Z</time></trkpt><trkpt lat="40.84554200507452" lon="14.684455947633136"><ele>813.5</ele><time>2026-03-28T14:46:19.999Z</time></trkpt><trkpt lat="40.84562701289475" lon="14.684482260231947"><ele>814.0</ele><time>2026-03-28T14:46:21.999Z</time></trkpt><trkpt lat="40.845669617937524" lon="14.684588445899331"><ele>814.5000000000001</ele><time>2026-03-28T14:46:23.998Z</time></trkpt><trkpt lat="40.8456838593632" lon="14.684677646363006"><ele>815.0</ele><time>2026-03-28T14:46:25.998Z</time></trkpt><trkpt lat="40.84568331273151" lon="14.68476428813712"><ele>815.0</ele><time>2026-03-28T14:46:28.998Z</time></trkpt><trkpt lat="40.84569539491778" lon="14.684948362030081"><ele>815.0</ele><time>2026-03-28T14:46:31.998Z</time></trkpt><trkpt lat="40.84569611497006" lon="14.685085729758445"><ele>815.0</ele><time>2026-03-28T14:46:33.998Z</time></trkpt><trkpt lat="40.84568635405914" lon="14.685178709193595"><ele>815.0</ele><time>2026-03-28T14:46:34.998Z</time></trkpt><trkpt lat="40.8456776761476" lon="14.685279351472131"><ele>815.0</ele><time>2026-03-28T14:46:35.998Z</time></trkpt><trkpt lat="40.84566572615028" lon="14.685376839424693"><ele>817.8333333333334</ele><time>2026-03-28T14:46:36.998Z</time></trkpt><trkpt lat="40.84565459711402" lon="14.68548638950397"><ele>820.6666666666667</ele><time>2026-03-28T14:46:37.998Z</time></trkpt><trkpt lat="40.84564490890142" lon="14.685600105699338"><ele>823.5</ele><time>2026-03-28T14:46:38.998Z</time></trkpt><trkpt lat="40.84563418219389" lon="14.685692698043413"><ele>826.3333333333333</ele><time>2026-03-28T14:46:39.998Z</time></trkpt><trkpt lat="40.84565738303193" lon="14.685829177883686"><ele>829.1666666666666</ele><time>2026-03-28T14:46:41.998Z</time></trkpt><trkpt lat="40.84570532427311" lon="14.685909377455754"><ele>832.0</ele><time>2026-03-28T14:46:43.998Z</time></trkpt><trkpt lat="40.84577509661213" lon="14.685870053363583"><ele>832.0</ele><time>2026-03-28T14:46:45.998Z</time></trkpt><trkpt lat="40.845880673709694" lon="14.685898500143153"><ele>832.0</ele><time>2026-03-28T14:46:47.998Z</time></trkpt><trkpt lat="40.84598326508332" lon="14.685947266295194"><ele>832.0</ele><time>2026-03-28T14:46:50Z</time></trkpt><trkpt lat="40.84609456808156" lon="14.685991381999358"><ele>832.0</ele><time>2026-03-28T14:46:52Z</time></trkpt><trkpt lat="40.846155009905345" lon="14.686033446505789"><ele>832.0</ele><time>2026-03-28T14:47:51.999Z</time></trkpt><trkpt lat="40.84621519505606" lon="14.68609074939182"><ele>836.3333333333333</ele><time>2026-03-28T14:47:53.999Z</time></trkpt><trkpt lat="40.84630563456915" lon="14.686191588530377"><ele>840.6666666666666</ele><time>2026-03-28T14:47:55.999Z</time></trkpt><trkpt lat="40.84634856370216" lon="14.686260073586784"><ele>845.0</ele><time>2026-03-28T14:51:57.999Z</time></trkpt><trkpt lat="40.84642141990622" lon="14.686260111675255"><ele>849.3333333333333</ele><time>2026-03-28T14:54:36.999Z</time></trkpt><trkpt lat="40.84639055474863" lon="14.686333421139128"><ele>853.6666666666666</ele><time>2026-03-28T14:56:51.999Z</time></trkpt><trkpt lat="40.84633128369362" lon="14.686365509238682"><ele>858.0</ele><time>2026-03-28T14:58:49.999Z</time></trkpt><trkpt lat="40.8462635959402" lon="14.686339619760151"><ele>858.0</ele><time>2026-03-28T14:58:56.999Z</time></trkpt><trkpt lat="40.846200043559115" lon="14.686314658088367"><ele>858.0</ele><time>2026-03-28T14:59:03.999Z</time></trkpt><trkpt lat="40.84614250208856" lon="14.686275555573578"><ele>858.0</ele><time>2026-03-28T14:59:09.999Z</time></trkpt><trkpt lat="40.84607272205651" lon="14.686268064201215"><ele>858.0</ele><time>2026-03-28T14:59:14.999Z</time></trkpt><trkpt lat="40.84600826994166" lon="14.686288303036466"><ele>858.0</ele><time>2026-03-28T14:59:20.999Z</time></trkpt><trkpt lat="40.846034183558146" lon="14.68637300018352"><ele>858.0</ele><time>2026-03-28T14:59:30Z</time></trkpt><trkpt lat="40.846098231009734" lon="14.686435084147291"><ele>858.0</ele><time>2026-03-28T14:59:39Z</time></trkpt><trkpt lat="40.84614947163675" lon="14.68650041974621"><ele>858.0</ele><time>2026-03-28T14:59:46Z</time></trkpt><trkpt lat="40.84620718008552" lon="14.686552832086422"><ele>858.0</ele><time>2026-03-28T15:00:02Z</time></trkpt><trkpt lat="40.846255768472446" lon="14.686617889091492"><ele>858.0</ele><time>2026-03-28T15:00:13Z</time></trkpt><trkpt lat="40.846307362651714" lon="14.68667591081345"><ele>858.0</ele><time>2026-03-28T15:00:22Z</time></trkpt><trkpt lat="40.84635580868881" lon="14.686731504734759"><ele>858.0</ele><time>2026-03-28T15:00:28Z</time></trkpt><trkpt lat="40.84639143241394" lon="14.68680515505021"><ele>858.0</ele><time>2026-03-28T15:01:45.999Z</time></trkpt><trkpt lat="40.84640703323091" lon="14.686889692562522"><ele>858.0</ele><time>2026-03-28T15:01:52.999Z</time></trkpt><trkpt lat="40.84634705807137" lon="14.686928830245485"><ele>859.4285714285714</ele><time>2026-03-28T15:01:59.999Z</time></trkpt><trkpt lat="40.846285491144585" lon="14.68694701528403"><ele>860.8571428571429</ele><time>2026-03-28T15:02:05.999Z</time></trkpt><trkpt lat="40.84624477406725" lon="14.687014130021147"><ele>862.2857142857142</ele><time>2026-03-28T15:02:13.999Z</time></trkpt><trkpt lat="40.846246544261845" lon="14.68709787324025"><ele>863.7142857142858</ele><time>2026-03-28T15:02:20.999Z</time></trkpt><trkpt lat="40.84622831032446" lon="14.687184163829341"><ele>865.1428571428571</ele><time>2026-03-28T15:02:28.999Z</time></trkpt><trkpt lat="40.84623597808135" lon="14.687272175130994"><ele>866.5714285714286</ele><time>2026-03-28T15:02:35.999Z</time></trkpt><trkpt lat="40.846264952577" lon="14.687351196712497"><ele>868.0</ele><time>2026-03-28T15:02:43.998Z</time></trkpt><trkpt lat="40.8462827078262" lon="14.687434685250002"><ele>868.0</ele><time>2026-03-28T15:02:51.998Z</time></trkpt><trkpt lat="40.84630470613961" lon="14.68752086769852"><ele>868.0</ele><time>2026-03-28T15:02:58.998Z</time></trkpt><trkpt lat="40.846326441850145" lon="14.68760655433044"><ele>868.0</ele><time>2026-03-28T15:03:05.998Z</time></trkpt><trkpt lat="40.84634972163717" lon="14.687689304213489"><ele>868.0</ele><time>2026-03-28T15:03:12.998Z</time></trkpt><trkpt lat="40.84636816706655" lon="14.687774129758411"><ele>868.0</ele><time>2026-03-28T15:03:19.998Z</time></trkpt><trkpt lat="40.84638130938704" lon="14.687864904851027"><ele>868.0</ele><time>2026-03-28T15:03:27.998Z</time></trkpt><trkpt lat="40.846412332949974" lon="14.687940478687588"><ele>868.0</ele><time>2026-03-28T15:03:35Z</time></trkpt><trkpt lat="40.846456613147346" lon="14.688004757073971"><ele>867.9999999999999</ele><time>2026-03-28T15:03:43Z</time></trkpt><trkpt lat="40.84651656751507" lon="14.688048571168952"><ele>868.0</ele><time>2026-03-28T15:03:57.999Z</time></trkpt><trkpt lat="40.846448527183746" lon="14.688013389230893"><ele>868.0</ele><time>2026-03-28T15:21:01Z</time></trkpt><trkpt lat="40.84640533595345" lon="14.687918739522507"><ele>868.0</ele><time>2026-03-28T15:21:03Z</time></trkpt><trkpt lat="40.84637727961922" lon="14.687809422791041"><ele>867.9999999999999</ele><time>2026-03-28T15:21:05Z</time></trkpt><trkpt lat="40.84635320467912" lon="14.687706374709162"><ele>868.0</ele><time>2026-03-28T15:21:07Z</time></trkpt><trkpt lat="40.846329219390896" lon="14.687613717781385"><ele>868.0</ele><time>2026-03-28T15:21:09Z</time></trkpt><trkpt lat="40.84628822700942" lon="14.687505467300026"><ele>868.0</ele><time>2026-03-28T15:21:12Z</time></trkpt><trkpt lat="40.84626449622051" lon="14.687424801393416"><ele>868.0</ele><time>2026-03-28T15:21:14Z</time></trkpt><trkpt lat="40.846235164049645" lon="14.687327830042252"><ele>868.0</ele><time>2026-03-28T15:21:15.999Z</time></trkpt><trkpt lat="40.84621919269523" lon="14.68722794011768"><ele>868.0</ele><time>2026-03-28T15:21:18.999Z</time></trkpt><trkpt lat="40.846212589315456" lon="14.68714265150125"><ele>868.0</ele><time>2026-03-28T15:21:21.999Z</time></trkpt><trkpt lat="40.84622432458742" lon="14.687059957427676"><ele>868.0</ele><time>2026-03-28T15:21:24.999Z</time></trkpt><trkpt lat="40.846263576038574" lon="14.686979587657246"><ele>868.0</ele><time>2026-03-28T15:21:28.999Z</time></trkpt><trkpt lat="40.84632601542442" lon="14.686951632121103"><ele>868.0</ele><time>2026-03-28T15:21:31.999Z</time></trkpt><trkpt lat="40.84638626734181" lon="14.686904811106759"><ele>868.0</ele><time>2026-03-28T15:21:36.999Z</time></trkpt><trkpt lat="40.84639601293451" lon="14.686818033407507"><ele>868.0</ele><time>2026-03-28T15:21:40.999Z</time></trkpt><trkpt lat="40.84633171935564" lon="14.686741846052552"><ele>868.0</ele><time>2026-03-28T15:21:43.999Z</time></trkpt><trkpt lat="40.84627557171368" lon="14.686672492247112"><ele>868.0</ele><time>2026-03-28T15:21:49.999Z</time></trkpt><trkpt lat="40.8462230627037" lon="14.68660459381788"><ele>868.0</ele><time>2026-03-28T15:21:53.999Z</time></trkpt><trkpt lat="40.84616985410728" lon="14.686541552325679"><ele>866.3333333333333</ele><time>2026-03-28T15:21:56.999Z</time></trkpt><trkpt lat="40.84610945574043" lon="14.686465927377395"><ele>864.6666666666666</ele><time>2026-03-28T15:21:59.999Z</time></trkpt><trkpt lat="40.84604894263092" lon="14.686406159653409"><ele>863.0</ele><time>2026-03-28T15:22:02.999Z</time></trkpt><trkpt lat="40.846022355829135" lon="14.68632265024579"><ele>861.3333333333333</ele><time>2026-03-28T15:22:05.999Z</time></trkpt><trkpt lat="40.84609521892862" lon="14.686301944592763"><ele>859.6666666666666</ele><time>2026-03-28T15:22:09.999Z</time></trkpt><trkpt lat="40.84617295597273" lon="14.686334021275657"><ele>858.0</ele><time>2026-03-28T15:22:12.999Z</time></trkpt><trkpt lat="40.8462417289698" lon="14.686350822603496"><ele>858.0</ele><time>2026-03-28T15:22:15.998Z</time></trkpt><trkpt lat="40.84632571317294" lon="14.686348362869555"><ele>858.0</ele><time>2026-03-28T15:22:19.998Z</time></trkpt><trkpt lat="40.84637238434263" lon="14.68627731489501"><ele>858.0</ele><time>2026-03-28T15:22:37Z</time></trkpt><trkpt lat="40.84631868660117" lon="14.686231638261033"><ele>858.0</ele><time>2026-03-28T15:22:44Z</time></trkpt><trkpt lat="40.84625621578493" lon="14.686174635172"><ele>858.0</ele><time>2026-03-28T15:22:54Z</time></trkpt><trkpt lat="40.846222165749275" lon="14.686098011859709"><ele>858.0</ele><time>2026-03-28T15:23:02Z</time></trkpt><trkpt lat="40.846179054151136" lon="14.68603435877067"><ele>858.0</ele><time>2026-03-28T15:23:28.999Z</time></trkpt><trkpt lat="40.846120056282416" lon="14.685970871963695"><ele>853.6666666666666</ele><time>2026-03-28T15:23:34.999Z</time></trkpt><trkpt lat="40.84605814052012" lon="14.685896742399994"><ele>849.3333333333333</ele><time>2026-03-28T15:23:38.999Z</time></trkpt><trkpt lat="40.84600507343879" lon="14.685843727170516"><ele>845.0</ele><time>2026-03-28T15:23:41.999Z</time></trkpt><trkpt lat="40.84593013400079" lon="14.6857996901533"><ele>840.6666666666666</ele><time>2026-03-28T15:23:44.999Z</time></trkpt><trkpt lat="40.84585875580829" lon="14.685781741585622"><ele>836.3333333333333</ele><time>2026-03-28T15:23:48.999Z</time></trkpt><trkpt lat="40.84577255049349" lon="14.685781867587687"><ele>832.0</ele><time>2026-03-28T15:23:50.999Z</time></trkpt><trkpt lat="40.84572486164535" lon="14.685701572063794"><ele>831.9999999999999</ele><time>2026-03-28T15:23:52.999Z</time></trkpt><trkpt lat="40.8457304085371" lon="14.685582952640216"><ele>832.0</ele><time>2026-03-28T15:23:55.999Z</time></trkpt><trkpt lat="40.845688494472874" lon="14.685465908444627"><ele>832.0</ele><time>2026-03-28T15:23:57.999Z</time></trkpt><trkpt lat="40.84569601023496" lon="14.685372038422656"><ele>832.0</ele><time>2026-03-28T15:23:59.999Z</time></trkpt><trkpt lat="40.84568278821067" lon="14.68526792842358"><ele>831.9999999999999</ele><time>2026-03-28T15:24:01.999Z</time></trkpt><trkpt lat="40.84569116977467" lon="14.685172348932413"><ele>832.0</ele><time>2026-03-28T15:24:03.999Z</time></trkpt><trkpt lat="40.84569852909756" lon="14.685088437019422"><ele>829.1666666666666</ele><time>2026-03-28T15:24:05.999Z</time></trkpt><trkpt lat="40.845709719016774" lon="14.684973286650688"><ele>826.3333333333333</ele><time>2026-03-28T15:24:08.999Z</time></trkpt><trkpt lat="40.845709516812946" lon="14.684875687875737"><ele>823.5</ele><time>2026-03-28T15:24:11.999Z</time></trkpt><trkpt lat="40.84569680800307" lon="14.684781880180031"><ele>820.6666666666667</ele><time>2026-03-28T15:24:14.999Z</time></trkpt><trkpt lat="40.84568246206925" lon="14.684681099410978"><ele>817.8333333333334</ele><time>2026-03-28T15:24:17.999Z</time></trkpt><trkpt lat="40.845626777429906" lon="14.684628020030686"><ele>815.0</ele><time>2026-03-28T15:24:21.999Z</time></trkpt><trkpt lat="40.845579528972216" lon="14.684550895045358"><ele>815.0</ele><time>2026-03-28T15:24:24.998Z</time></trkpt><trkpt lat="40.84548675445863" lon="14.684533483131196"><ele>815.0</ele><time>2026-03-28T15:24:28.998Z</time></trkpt><trkpt lat="40.84540368865608" lon="14.684538184255558"><ele>815.0</ele><time>2026-03-28T15:24:33Z</time></trkpt><trkpt lat="40.845355147370846" lon="14.68448455338825"><ele>815.0</ele><time>2026-03-28T15:24:35Z</time></trkpt><trkpt lat="40.84536787991917" lon="14.684377194300971"><ele>815.0</ele><time>2026-03-28T15:24:38Z</time></trkpt><trkpt lat="40.84542630363386" lon="14.684156017517457"><ele>814.4</ele><time>2026-03-28T15:24:43Z</time></trkpt><trkpt lat="40.84540576963171" lon="14.684000121787284"><ele>813.8</ele><time>2026-03-28T15:24:45Z</time></trkpt><trkpt lat="40.84535479480542" lon="14.68386956983376"><ele>813.2</ele><time>2026-03-28T15:24:47Z</time></trkpt><trkpt lat="40.84530210527274" lon="14.683754152212561"><ele>812.6</ele><time>2026-03-28T15:24:49Z</time></trkpt><trkpt lat="40.845262492703014" lon="14.683663912430449"><ele>812.0</ele><time>2026-03-28T15:24:50Z</time></trkpt><trkpt lat="40.84517795926816" lon="14.683553213816706"><ele>814.5000000000001</ele><time>2026-03-28T15:24:52Z</time></trkpt><trkpt lat="40.84512363260363" lon="14.683505857844642"><ele>817.0</ele><time>2026-03-28T15:24:53Z</time></trkpt><trkpt lat="40.84500293897762" lon="14.68347244523204"><ele>819.5</ele><time>2026-03-28T15:24:55Z</time></trkpt><trkpt lat="40.844936808414616" lon="14.683436170558318"><ele>822.0</ele><time>2026-03-28T15:24:57Z</time></trkpt><trkpt lat="40.844852689998206" lon="14.683382999989723"><ele>824.5000000000001</ele><time>2026-03-28T15:24:59Z</time></trkpt><trkpt lat="40.844777988797006" lon="14.68330648514894"><ele>827.0</ele><time>2026-03-28T15:25:01Z</time></trkpt><trkpt lat="40.84470992273183" lon="14.683209513700255"><ele>827.0000000000001</ele><time>2026-03-28T15:25:03Z</time></trkpt><trkpt lat="40.844768876307484" lon="14.68311773277539"><ele>827.0</ele><time>2026-03-28T15:25:05Z</time></trkpt><trkpt lat="40.84485161024586" lon="14.683051912892845"><ele>827.0</ele><time>2026-03-28T15:25:07Z</time></trkpt><trkpt lat="40.84489705890449" lon="14.682986620169984"><ele>827.0</ele><time>2026-03-28T15:25:09Z</time></trkpt><trkpt lat="40.84494077946644" lon="14.682908979457629"><ele>827.0000000000001</ele><time>2026-03-28T15:25:10Z</time></trkpt><trkpt lat="40.844953593557506" lon="14.682816940349804"><ele>827.0</ele><time>2026-03-28T15:25:12Z</time></trkpt><trkpt lat="40.8450364653056" lon="14.682745746961922"><ele>827.3333333333334</ele><time>2026-03-28T15:25:14Z</time></trkpt><trkpt lat="40.84513178364447" lon="14.68267953546665"><ele>827.6666666666667</ele><time>2026-03-28T15:25:16Z</time></trkpt><trkpt lat="40.845203396809005" lon="14.682611963475283"><ele>828.0</ele><time>2026-03-28T15:25:18Z</time></trkpt><trkpt lat="40.84520145357142" lon="14.682523480192954"><ele>828.3333333333333</ele><time>2026-03-28T15:25:21Z</time></trkpt><trkpt lat="40.84518551304425" lon="14.682409224364354"><ele>828.6666666666666</ele><time>2026-03-28T15:25:25Z</time></trkpt><trkpt lat="40.84514837476111" lon="14.682334642671664"><ele>829.0</ele><time>2026-03-28T15:25:27Z</time></trkpt><trkpt lat="40.84511887117272" lon="14.682231249762498"><ele>828.9999999999999</ele><time>2026-03-28T15:25:29Z</time></trkpt><trkpt lat="40.84509329178151" lon="14.682142542944067"><ele>829.0</ele><time>2026-03-28T15:25:30Z</time></trkpt><trkpt lat="40.84504022420828" lon="14.682039650051026"><ele>829.0</ele><time>2026-03-28T15:25:32Z</time></trkpt><trkpt lat="40.84502033110812" lon="14.681897175081065"><ele>829.0</ele><time>2026-03-28T15:25:34Z</time></trkpt><trkpt lat="40.845041997575166" lon="14.681786903185841"><ele>828.9999999999999</ele><time>2026-03-28T15:25:35Z</time></trkpt><trkpt lat="40.84507157967322" lon="14.681705956538037"><ele>829.0</ele><time>2026-03-28T15:25:36Z</time></trkpt><trkpt lat="40.845123977086104" lon="14.681573160996699"><ele>828.0</ele><time>2026-03-28T15:25:38Z</time></trkpt><trkpt lat="40.84514444124795" lon="14.681450771892193"><ele>827.0</ele><time>2026-03-28T15:25:39.999Z</time></trkpt><trkpt lat="40.84516366855821" lon="14.681362579456945"><ele>826.0</ele><time>2026-03-28T15:25:41.999Z</time></trkpt><trkpt lat="40.84522016201832" lon="14.681310450592102"><ele>825.0</ele><time>2026-03-28T15:25:43.999Z</time></trkpt><trkpt lat="40.845365621462925" lon="14.681169109298493"><ele>824.0</ele><time>2026-03-28T15:25:45.999Z</time></trkpt><trkpt lat="40.845416894341476" lon="14.681120476745113"><ele>821.4000000000001</ele><time>2026-03-28T15:25:46.999Z</time></trkpt><trkpt lat="40.845521066862354" lon="14.681054433520655"><ele>818.8</ele><time>2026-03-28T15:25:48.999Z</time></trkpt><trkpt lat="40.8456276259881" lon="14.681020216675698"><ele>816.2</ele><time>2026-03-28T15:25:50.999Z</time></trkpt><trkpt lat="40.84568961335058" lon="14.68099589007614"><ele>813.5999999999999</ele><time>2026-03-28T15:25:51.999Z</time></trkpt><trkpt lat="40.845814278325484" lon="14.680978293769764"><ele>811.0</ele><time>2026-03-28T15:25:53.999Z</time></trkpt><trkpt lat="40.84592019578674" lon="14.681032741378463"><ele>810.9999999999999</ele><time>2026-03-28T15:25:55.999Z</time></trkpt><trkpt lat="40.84598369032525" lon="14.68108004507382"><ele>811.0</ele><time>2026-03-28T15:25:57.999Z</time></trkpt><trkpt lat="40.846051534528684" lon="14.681081614286043"><ele>811.0</ele><time>2026-03-28T15:25:59.999Z</time></trkpt><trkpt lat="40.846047165033134" lon="14.680984651311324"><ele>811.0</ele><time>2026-03-28T15:26:01.999Z</time></trkpt><trkpt lat="40.84599662592328" lon="14.680910573241425"><ele>810.9999999999999</ele><time>2026-03-28T15:26:02.999Z</time></trkpt><trkpt lat="40.84594592984666" lon="14.680844247607725"><ele>811.0</ele><time>2026-03-28T15:26:03.999Z</time></trkpt><trkpt lat="40.84586224988387" lon="14.680748235341893"><ele>811.0</ele><time>2026-03-28T15:26:05.999Z</time></trkpt><trkpt lat="40.84575827887077" lon="14.680685603080091"><ele>811.0</ele><time>2026-03-28T15:26:07.999Z</time></trkpt><trkpt lat="40.84565480392149" lon="14.680638343333502"><ele>811.0</ele><time>2026-03-28T15:26:09.999Z</time></trkpt><trkpt lat="40.84557695990003" lon="14.680571392521944"><ele>811.0</ele><time>2026-03-28T15:26:11.999Z</time></trkpt><trkpt lat="40.84546930414901" lon="14.680482489718822"><ele>811.0</ele><time>2026-03-28T15:26:13.999Z</time></trkpt><trkpt lat="40.84541824369851" lon="14.680433017737524"><ele>811.0</ele><time>2026-03-28T15:26:14.999Z</time></trkpt><trkpt lat="40.845363286121625" lon="14.68038454438716"><ele>811.0</ele><time>2026-03-28T15:26:15.999Z</time></trkpt><trkpt lat="40.845256158673294" lon="14.68031573460095"><ele>811.0</ele><time>2026-03-28T15:26:17.999Z</time></trkpt><trkpt lat="40.84520092565994" lon="14.68026385303521"><ele>811.0</ele><time>2026-03-28T15:26:18.999Z</time></trkpt><trkpt lat="40.84508936944834" lon="14.680198762360336"><ele>811.0</ele><time>2026-03-28T15:26:20.999Z</time></trkpt><trkpt lat="40.844995479718705" lon="14.680105007449926"><ele>807.1999999999999</ele><time>2026-03-28T15:26:22.999Z</time></trkpt><trkpt lat="40.844901224897335" lon="14.68004017684721"><ele>803.4</ele><time>2026-03-28T15:26:24.999Z</time></trkpt><trkpt lat="40.84477936398916" lon="14.679984694941265"><ele>799.6</ele><time>2026-03-28T15:26:26.999Z</time></trkpt><trkpt lat="40.84465591123968" lon="14.679976384639483"><ele>795.8</ele><time>2026-03-28T15:26:28.999Z</time></trkpt><trkpt lat="40.84458670901293" lon="14.6799828870607"><ele>792.0</ele><time>2026-03-28T15:26:29.999Z</time></trkpt><trkpt lat="40.84452123451899" lon="14.679978973759908"><ele>792.0</ele><time>2026-03-28T15:26:30.999Z</time></trkpt><trkpt lat="40.84444587736276" lon="14.679976856783703"><ele>792.0</ele><time>2026-03-28T15:26:31.999Z</time></trkpt><trkpt lat="40.84437993850352" lon="14.679973541165188"><ele>792.0</ele><time>2026-03-28T15:26:32.999Z</time></trkpt><trkpt lat="40.844316995317385" lon="14.67997046138834"><ele>792.0</ele><time>2026-03-28T15:26:33.999Z</time></trkpt><trkpt lat="40.84425370630169" lon="14.679956170160494"><ele>792.0</ele><time>2026-03-28T15:26:34.999Z</time></trkpt><trkpt lat="40.84418485782475" lon="14.679934948154749"><ele>792.0</ele><time>2026-03-28T15:26:35.999Z</time></trkpt><trkpt lat="40.844130756377815" lon="14.679883564131869"><ele>792.0</ele><time>2026-03-28T15:26:36.999Z</time></trkpt><trkpt lat="40.84407408298315" lon="14.679805719234082"><ele>793.8</ele><time>2026-03-28T15:26:38Z</time></trkpt><trkpt lat="40.844024917642685" lon="14.679727970225727"><ele>795.6</ele><time>2026-03-28T15:26:39Z</time></trkpt><trkpt lat="40.84398423332793" lon="14.679649480366573"><ele>797.4</ele><time>2026-03-28T15:26:40Z</time></trkpt><trkpt lat="40.843950172753495" lon="14.679569547394344"><ele>799.1999999999999</ele><time>2026-03-28T15:26:41Z</time></trkpt><trkpt lat="40.84389230309891" lon="14.679432414346135"><ele>801.0</ele><time>2026-03-28T15:26:43Z</time></trkpt><trkpt lat="40.84377288784141" lon="14.679353545689349"><ele>797.0</ele><time>2026-03-28T15:26:45Z</time></trkpt><trkpt lat="40.84371083575139" lon="14.679318839945273"><ele>793.0</ele><time>2026-03-28T15:26:46Z</time></trkpt><trkpt lat="40.84359655971845" lon="14.679268696784131"><ele>789.0</ele><time>2026-03-28T15:26:48Z</time></trkpt><trkpt lat="40.84353550443215" lon="14.67924808531955"><ele>785.0</ele><time>2026-03-28T15:26:49Z</time></trkpt><trkpt lat="40.843472913978644" lon="14.679211178083477"><ele>781.0</ele><time>2026-03-28T15:26:50Z</time></trkpt><trkpt lat="40.84340856995421" lon="14.679170889417712"><ele>777.0</ele><time>2026-03-28T15:26:51Z</time></trkpt><trkpt lat="40.84334328101671" lon="14.679147231724519"><ele>777.0</ele><time>2026-03-28T15:26:52Z</time></trkpt><trkpt lat="40.84327423910665" lon="14.679130370677836"><ele>777.0</ele><time>2026-03-28T15:26:53Z</time></trkpt><trkpt lat="40.8432078820294" lon="14.679109770749115"><ele>777.0</ele><time>2026-03-28T15:26:54Z</time></trkpt><trkpt lat="40.84313837590233" lon="14.679082193779173"><ele>777.0</ele><time>2026-03-28T15:26:55Z</time></trkpt><trkpt lat="40.84307031075258" lon="14.679043635383913"><ele>777.0</ele><time>2026-03-28T15:26:56Z</time></trkpt><trkpt lat="40.84300795771119" lon="14.679021552563439"><ele>777.0</ele><time>2026-03-28T15:26:57Z</time></trkpt><trkpt lat="40.842944861637676" lon="14.679007246911734"><ele>777.0</ele><time>2026-03-28T15:26:58Z</time></trkpt><trkpt lat="40.84282598118465" lon="14.67898549987707"><ele>777.0</ele><time>2026-03-28T15:27:00Z</time></trkpt><trkpt lat="40.84275595304934" lon="14.678974321182878"><ele>777.0</ele><time>2026-03-28T15:27:01Z</time></trkpt><trkpt lat="40.84268984179933" lon="14.678937903323925"><ele>777.0</ele><time>2026-03-28T15:27:02Z</time></trkpt><trkpt lat="40.84261246460916" lon="14.678908538198815"><ele>777.0</ele><time>2026-03-28T15:27:03Z</time></trkpt><trkpt lat="40.84252694510047" lon="14.678891759073768"><ele>777.0</ele><time>2026-03-28T15:27:04Z</time></trkpt><trkpt lat="40.84246290567319" lon="14.67888043687738"><ele>777.0</ele><time>2026-03-28T15:27:05Z</time></trkpt><trkpt lat="40.84239948822086" lon="14.67886341838427"><ele>777.0</ele><time>2026-03-28T15:27:06Z</time></trkpt><trkpt lat="40.84232375138145" lon="14.678864123882203"><ele>777.6</ele><time>2026-03-28T15:27:07Z</time></trkpt><trkpt lat="40.8422583159688" lon="14.678871926201575"><ele>778.2</ele><time>2026-03-28T15:27:08Z</time></trkpt><trkpt lat="40.84216213579314" lon="14.678857347000978"><ele>778.8</ele><time>2026-03-28T15:27:09Z</time></trkpt><trkpt lat="40.842088665680755" lon="14.67887494806167"><ele>779.4</ele><time>2026-03-28T15:27:10Z</time></trkpt><trkpt lat="40.841980316179075" lon="14.678919148404468"><ele>780.0</ele><time>2026-03-28T15:27:12Z</time></trkpt><trkpt lat="40.84189157580877" lon="14.678988849225318"><ele>780.0</ele><time>2026-03-28T15:27:13Z</time></trkpt><trkpt lat="40.841831886101836" lon="14.679030668224408"><ele>780.0</ele><time>2026-03-28T15:27:14Z</time></trkpt><trkpt lat="40.8417278887756" lon="14.679096259054605"><ele>780.0</ele><time>2026-03-28T15:27:16Z</time></trkpt><trkpt lat="40.84162998028614" lon="14.679157985197435"><ele>780.0</ele><time>2026-03-28T15:27:18Z</time></trkpt><trkpt lat="40.84153117528125" lon="14.67922524479446"><ele>780.0</ele><time>2026-03-28T15:27:20Z</time></trkpt><trkpt lat="40.84144346839151" lon="14.679204260954647"><ele>778.5</ele><time>2026-03-28T15:27:22Z</time></trkpt><trkpt lat="40.84139905760143" lon="14.679108293650948"><ele>777.0</ele><time>2026-03-28T15:27:24Z</time></trkpt><trkpt lat="40.84137507657047" lon="14.679015176559414"><ele>775.5</ele><time>2026-03-28T15:27:25Z</time></trkpt><trkpt lat="40.841356142853094" lon="14.678912462904224"><ele>774.0</ele><time>2026-03-28T15:27:26Z</time></trkpt><trkpt lat="40.84134120277115" lon="14.678812956223453"><ele>772.5</ele><time>2026-03-28T15:27:27Z</time></trkpt><trkpt lat="40.84132074669292" lon="14.67871777107994"><ele>771.0</ele><time>2026-03-28T15:27:28Z</time></trkpt><trkpt lat="40.84129251426285" lon="14.678633566070573"><ele>768.5</ele><time>2026-03-28T15:27:29Z</time></trkpt><trkpt lat="40.841262290074056" lon="14.678548506564153"><ele>766.0</ele><time>2026-03-28T15:27:30Z</time></trkpt><trkpt lat="40.84122144920352" lon="14.678477051281943"><ele>763.5</ele><time>2026-03-28T15:27:31Z</time></trkpt><trkpt lat="40.841138570393134" lon="14.678357302665233"><ele>761.0</ele><time>2026-03-28T15:27:33Z</time></trkpt><trkpt lat="40.841063056309345" lon="14.678318754987462"><ele>758.5</ele><time>2026-03-28T15:27:34Z</time></trkpt><trkpt lat="40.840981607234305" lon="14.67828452943613"><ele>756.0</ele><time>2026-03-28T15:27:35Z</time></trkpt><trkpt lat="40.84087665026919" lon="14.678234740763216"><ele>756.0</ele><time>2026-03-28T15:27:37Z</time></trkpt><trkpt lat="40.840821013577546" lon="14.678195365908067"><ele>756.0</ele><time>2026-03-28T15:27:38Z</time></trkpt><trkpt lat="40.84075163774226" lon="14.678156880286348"><ele>756.0</ele><time>2026-03-28T15:27:39Z</time></trkpt><trkpt lat="40.840683270457085" lon="14.678119425132936"><ele>756.0</ele><time>2026-03-28T15:27:40Z</time></trkpt><trkpt lat="40.84061743349322" lon="14.67809821133244"><ele>756.0</ele><time>2026-03-28T15:27:41Z</time></trkpt><trkpt lat="40.84054303324444" lon="14.678076426252195"><ele>756.0</ele><time>2026-03-28T15:27:42Z</time></trkpt><trkpt lat="40.840468829998606" lon="14.678046299520508"><ele>756.0</ele><time>2026-03-28T15:27:43Z</time></trkpt><trkpt lat="40.84039093053135" lon="14.678033915187624"><ele>756.0</ele><time>2026-03-28T15:27:44Z</time></trkpt><trkpt lat="40.84029608591957" lon="14.678018953360175"><ele>756.0</ele><time>2026-03-28T15:27:45Z</time></trkpt><trkpt lat="40.84021897899974" lon="14.677996760397725"><ele>756.0</ele><time>2026-03-28T15:27:45.999Z</time></trkpt><trkpt lat="40.840146300475524" lon="14.677962963161335"><ele>756.0</ele><time>2026-03-28T15:27:46.999Z</time></trkpt><trkpt lat="40.840076235239756" lon="14.677924657853882"><ele>756.0</ele><time>2026-03-28T15:27:47.999Z</time></trkpt><trkpt lat="40.83996522575818" lon="14.677876554220907"><ele>756.0</ele><time>2026-03-28T15:27:49.999Z</time></trkpt><trkpt lat="40.83990279172849" lon="14.677861200250097"><ele>757.4</ele><time>2026-03-28T15:27:50.999Z</time></trkpt><trkpt lat="40.8398407766859" lon="14.677830495422052"><ele>758.8</ele><time>2026-03-28T15:27:51.999Z</time></trkpt><trkpt lat="40.83972014652233" lon="14.677774299688384"><ele>760.1999999999999</ele><time>2026-03-28T15:27:53.999Z</time></trkpt><trkpt lat="40.83960354097241" lon="14.677697649571549"><ele>761.5999999999999</ele><time>2026-03-28T15:27:55.999Z</time></trkpt><trkpt lat="40.83953582139035" lon="14.677682264176147"><ele>763.0</ele><time>2026-03-28T15:27:56.999Z</time></trkpt><trkpt lat="40.83944152104948" lon="14.677659673231952"><ele>759.0</ele><time>2026-03-28T15:27:58.999Z</time></trkpt><trkpt lat="40.83934446962018" lon="14.67759483588353"><ele>755.0</ele><time>2026-03-28T15:28:00.999Z</time></trkpt><trkpt lat="40.83927891339984" lon="14.677543063685368"><ele>751.0</ele><time>2026-03-28T15:28:01.999Z</time></trkpt><trkpt lat="40.83919644521049" lon="14.677465664665934"><ele>747.0</ele><time>2026-03-28T15:28:02.999Z</time></trkpt><trkpt lat="40.839113913839675" lon="14.67739969580717"><ele>743.0</ele><time>2026-03-28T15:28:03.999Z</time></trkpt><trkpt lat="40.83905390305712" lon="14.677338391689556"><ele>743.0</ele><time>2026-03-28T15:28:04.999Z</time></trkpt><trkpt lat="40.83898098512047" lon="14.677284905256796"><ele>743.0</ele><time>2026-03-28T15:28:05.999Z</time></trkpt><trkpt lat="40.83890641393977" lon="14.677253095158585"><ele>743.0</ele><time>2026-03-28T15:28:06.999Z</time></trkpt><trkpt lat="40.83877715850356" lon="14.677280992710035"><ele>743.0</ele><time>2026-03-28T15:28:08.999Z</time></trkpt><trkpt lat="40.838701097109485" lon="14.67732804494122"><ele>743.0</ele><time>2026-03-28T15:28:10.999Z</time></trkpt><trkpt lat="40.838626562270505" lon="14.677288517993915"><ele>743.0</ele><time>2026-03-28T15:28:13.999Z</time></trkpt><trkpt lat="40.838613484056644" lon="14.677170814682558"><ele>743.0</ele><time>2026-03-28T15:28:15.999Z</time></trkpt><trkpt lat="40.83862490586936" lon="14.677041173266772"><ele>743.0</ele><time>2026-03-28T15:28:17.999Z</time></trkpt><trkpt lat="40.83859899519089" lon="14.676946518318582"><ele>743.0</ele><time>2026-03-28T15:28:19.999Z</time></trkpt><trkpt lat="40.838531681740704" lon="14.676885935353154"><ele>743.0</ele><time>2026-03-28T15:28:21.999Z</time></trkpt><trkpt lat="40.83844899154104" lon="14.676869094227325"><ele>743.0</ele><time>2026-03-28T15:28:24.999Z</time></trkpt><trkpt lat="40.83829343442325" lon="14.676825014697473"><ele>741.5</ele><time>2026-03-28T15:28:25.999Z</time></trkpt><trkpt lat="40.83820495074715" lon="14.676821502576043"><ele>740.0</ele><time>2026-03-28T15:28:26.999Z</time></trkpt><trkpt lat="40.83812479077851" lon="14.676819231808517"><ele>738.5</ele><time>2026-03-28T15:28:27.999Z</time></trkpt><trkpt lat="40.83805153268594" lon="14.676809701633763"><ele>737.0</ele><time>2026-03-28T15:28:28.999Z</time></trkpt><trkpt lat="40.83798391880402" lon="14.676784387507752"><ele>735.5</ele><time>2026-03-28T15:28:29.999Z</time></trkpt><trkpt lat="40.83791940070096" lon="14.676753731695635"><ele>734.0</ele><time>2026-03-28T15:28:30.999Z</time></trkpt><trkpt lat="40.83785498362852" lon="14.676707005446183"><ele>734.0</ele><time>2026-03-28T15:28:31.999Z</time></trkpt><trkpt lat="40.83780709145752" lon="14.676626290211301"><ele>734.0</ele><time>2026-03-28T15:28:32.999Z</time></trkpt><trkpt lat="40.83775117426413" lon="14.676536682240723"><ele>734.0</ele><time>2026-03-28T15:28:33.999Z</time></trkpt><trkpt lat="40.83769061425847" lon="14.676458673678908"><ele>734.0</ele><time>2026-03-28T15:28:34.999Z</time></trkpt><trkpt lat="40.83762409350476" lon="14.676387318182831"><ele>734.0</ele><time>2026-03-28T15:28:35.999Z</time></trkpt><trkpt lat="40.837560063025656" lon="14.67631932100692"><ele>734.0</ele><time>2026-03-28T15:28:36.999Z</time></trkpt><trkpt lat="40.837488373573855" lon="14.676267813801864"><ele>733.1666666666666</ele><time>2026-03-28T15:28:37.999Z</time></trkpt><trkpt lat="40.83741313912625" lon="14.676239085668724"><ele>732.3333333333333</ele><time>2026-03-28T15:28:38.999Z</time></trkpt><trkpt lat="40.83733095138477" lon="14.676217119325456"><ele>731.5</ele><time>2026-03-28T15:28:39.999Z</time></trkpt><trkpt lat="40.83724716292821" lon="14.676189886930326"><ele>730.6666666666666</ele><time>2026-03-28T15:28:40.999Z</time></trkpt><trkpt lat="40.83717952999498" lon="14.676150272270243"><ele>729.8333333333334</ele><time>2026-03-28T15:28:41.999Z</time></trkpt><trkpt lat="40.83712249526667" lon="14.676106732201182"><ele>729.0</ele><time>2026-03-28T15:28:42.999Z</time></trkpt><trkpt lat="40.83709641757421" lon="14.676014012425997"><ele>729.0</ele><time>2026-03-28T15:28:44Z</time></trkpt><trkpt lat="40.83703279608434" lon="14.675916804942108"><ele>729.0</ele><time>2026-03-28T15:28:45.001Z</time></trkpt><trkpt lat="40.83698370501634" lon="14.67584387427968"><ele>729.0</ele><time>2026-03-28T15:28:46Z</time></trkpt><trkpt lat="40.836926860403594" lon="14.675796891471954"><ele>729.0</ele><time>2026-03-28T15:28:47Z</time></trkpt><trkpt lat="40.83685753609975" lon="14.675766935367355"><ele>729.0</ele><time>2026-03-28T15:28:48.001Z</time></trkpt><trkpt lat="40.83679351836742" lon="14.675748087636473"><ele>729.0</ele><time>2026-03-28T15:28:49Z</time></trkpt><trkpt lat="40.83672719163148" lon="14.675740867280117"><ele>729.0</ele><time>2026-03-28T15:28:50Z</time></trkpt><trkpt lat="40.83665660425501" lon="14.675644458487755"><ele>729.5</ele><time>2026-03-28T15:28:52Z</time></trkpt><trkpt lat="40.836664625773636" lon="14.6755426485731"><ele>730.0</ele><time>2026-03-28T15:28:53Z</time></trkpt><trkpt lat="40.836691498217995" lon="14.675443486890684"><ele>730.5</ele><time>2026-03-28T15:28:54Z</time></trkpt><trkpt lat="40.83666670795368" lon="14.675299513662507"><ele>731.0</ele><time>2026-03-28T15:28:56Z</time></trkpt><trkpt lat="40.83664026830596" lon="14.675221771635961"><ele>731.5</ele><time>2026-03-28T15:28:57.001Z</time></trkpt><trkpt lat="40.836596052463676" lon="14.675114897741544"><ele>732.0</ele><time>2026-03-28T15:28:58Z</time></trkpt><trkpt lat="40.83653041882485" lon="14.674993849608217"><ele>732.0</ele><time>2026-03-28T15:28:59Z</time></trkpt><trkpt lat="40.836466332292105" lon="14.674905885204218"><ele>732.0</ele><time>2026-03-28T15:29:00Z</time></trkpt><trkpt lat="40.83641663344844" lon="14.674819377789946"><ele>732.0</ele><time>2026-03-28T15:29:01Z</time></trkpt><trkpt lat="40.836362075748234" lon="14.674730482704936"><ele>732.0</ele><time>2026-03-28T15:29:02Z</time></trkpt><trkpt lat="40.836310858019736" lon="14.674667370792026"><ele>732.0</ele><time>2026-03-28T15:29:03Z</time></trkpt><trkpt lat="40.83625678252739" lon="14.674609859263557"><ele>732.0</ele><time>2026-03-28T15:29:04Z</time></trkpt><trkpt lat="40.83620699566495" lon="14.674531195389816"><ele>732.0</ele><time>2026-03-28T15:29:05Z</time></trkpt><trkpt lat="40.83615081675566" lon="14.674454833526235"><ele>732.0</ele><time>2026-03-28T15:29:06Z</time></trkpt><trkpt lat="40.83607268277859" lon="14.67438569550162"><ele>732.0</ele><time>2026-03-28T15:29:07Z</time></trkpt><trkpt lat="40.83596066182902" lon="14.674308403885696"><ele>732.0</ele><time>2026-03-28T15:29:08Z</time></trkpt><trkpt lat="40.8358659807455" lon="14.674247036083084"><ele>732.0</ele><time>2026-03-28T15:29:09Z</time></trkpt><trkpt lat="40.835799268690835" lon="14.67422221202351"><ele>730.2</ele><time>2026-03-28T15:29:10Z</time></trkpt><trkpt lat="40.835722963337716" lon="14.674209558814523"><ele>728.4000000000001</ele><time>2026-03-28T15:29:11Z</time></trkpt><trkpt lat="40.83562661250193" lon="14.674203710106246"><ele>726.5999999999999</ele><time>2026-03-28T15:29:12Z</time></trkpt><trkpt lat="40.835551679517124" lon="14.674208870959848"><ele>724.8</ele><time>2026-03-28T15:29:13Z</time></trkpt><trkpt lat="40.8354192248406" lon="14.674119859968997"><ele>723.0</ele><time>2026-03-28T15:29:15Z</time></trkpt><trkpt lat="40.83532333878764" lon="14.674007628134428"><ele>723.0</ele><time>2026-03-28T15:29:16Z</time></trkpt><trkpt lat="40.83521923721816" lon="14.673924934369081"><ele>723.0</ele><time>2026-03-28T15:29:17Z</time></trkpt><trkpt lat="40.835089568357326" lon="14.673843941466624"><ele>723.0</ele><time>2026-03-28T15:29:18Z</time></trkpt><trkpt lat="40.83497950934363" lon="14.67376306603975"><ele>723.0</ele><time>2026-03-28T15:29:19Z</time></trkpt><trkpt lat="40.83488754860783" lon="14.673703394891513"><ele>722.4</ele><time>2026-03-28T15:29:20Z</time></trkpt><trkpt lat="40.83481084205551" lon="14.673661641070456"><ele>721.8</ele><time>2026-03-28T15:29:21Z</time></trkpt><trkpt lat="40.834724345531086" lon="14.673629737633286"><ele>721.2</ele><time>2026-03-28T15:29:22Z</time></trkpt><trkpt lat="40.83463684671177" lon="14.673621155171269"><ele>720.6</ele><time>2026-03-28T15:29:23Z</time></trkpt><trkpt lat="40.83453164491325" lon="14.673518036716796"><ele>720.0</ele><time>2026-03-28T15:29:25Z</time></trkpt><trkpt lat="40.834474123195314" lon="14.673459087287688"><ele>720.0</ele><time>2026-03-28T15:29:26Z</time></trkpt><trkpt lat="40.83441846170496" lon="14.673307575937091"><ele>720.0</ele><time>2026-03-28T15:29:27Z</time></trkpt><trkpt lat="40.83435234556482" lon="14.673210239819044"><ele>720.0</ele><time>2026-03-28T15:29:28Z</time></trkpt><trkpt lat="40.8342476802508" lon="14.673091590160437"><ele>720.0</ele><time>2026-03-28T15:29:29Z</time></trkpt><trkpt lat="40.83415746845296" lon="14.67299297048883"><ele>719.0</ele><time>2026-03-28T15:29:30Z</time></trkpt><trkpt lat="40.83406938341741" lon="14.67290166653486"><ele>718.0</ele><time>2026-03-28T15:29:31Z</time></trkpt><trkpt lat="40.83400555563665" lon="14.672832006435854"><ele>717.0</ele><time>2026-03-28T15:29:32Z</time></trkpt><trkpt lat="40.83394008352433" lon="14.672752466060794"><ele>716.0</ele><time>2026-03-28T15:29:33Z</time></trkpt><trkpt lat="40.83386363720068" lon="14.672676964035974"><ele>715.0</ele><time>2026-03-28T15:29:34Z</time></trkpt><trkpt lat="40.833783185917866" lon="14.672604197588528"><ele>715.0</ele><time>2026-03-28T15:29:35Z</time></trkpt><trkpt lat="40.833712942142505" lon="14.672539668728149"><ele>715.0</ele><time>2026-03-28T15:29:36Z</time></trkpt><trkpt lat="40.83364899230044" lon="14.67247723354051"><ele>715.0</ele><time>2026-03-28T15:29:37Z</time></trkpt><trkpt lat="40.833540271040235" lon="14.672373687490396"><ele>715.0</ele><time>2026-03-28T15:29:39Z</time></trkpt><trkpt lat="40.83349498347616" lon="14.672302806045279"><ele>715.0</ele><time>2026-03-28T15:29:40Z</time></trkpt><trkpt lat="40.833459334701004" lon="14.672225673474887"><ele>715.0</ele><time>2026-03-28T15:29:41Z</time></trkpt><trkpt lat="40.83342353885359" lon="14.672144593703228"><ele>714.6666666666667</ele><time>2026-03-28T15:29:42Z</time></trkpt><trkpt lat="40.83337831781992" lon="14.672048687071962"><ele>714.3333333333334</ele><time>2026-03-28T15:29:43Z</time></trkpt><trkpt lat="40.83334030999102" lon="14.671967851916621"><ele>714.0</ele><time>2026-03-28T15:29:44Z</time></trkpt><trkpt lat="40.833297451915534" lon="14.671893165196066"><ele>713.6666666666666</ele><time>2026-03-28T15:29:45Z</time></trkpt><trkpt lat="40.83325581773806" lon="14.671815153463514"><ele>713.3333333333333</ele><time>2026-03-28T15:29:46Z</time></trkpt><trkpt lat="40.83321227304348" lon="14.671659126776053"><ele>713.0</ele><time>2026-03-28T15:29:48Z</time></trkpt><trkpt lat="40.83317915522655" lon="14.671567793801483"><ele>713.0</ele><time>2026-03-28T15:29:49Z</time></trkpt><trkpt lat="40.833129756519014" lon="14.67148721908837"><ele>713.0</ele><time>2026-03-28T15:29:50Z</time></trkpt><trkpt lat="40.83306247684345" lon="14.671424527301003"><ele>713.0</ele><time>2026-03-28T15:29:51Z</time></trkpt><trkpt lat="40.833028750254606" lon="14.671353126357408"><ele>713.0</ele><time>2026-03-28T15:29:52Z</time></trkpt><trkpt lat="40.83295086415086" lon="14.671217518054844"><ele>713.0</ele><time>2026-03-28T15:29:54Z</time></trkpt><trkpt lat="40.83288748162854" lon="14.671206407917827"><ele>713.0</ele><time>2026-03-28T15:29:54.999Z</time></trkpt><trkpt lat="40.8328314468249" lon="14.671165299409713"><ele>714.0</ele><time>2026-03-28T15:29:55.998Z</time></trkpt><trkpt lat="40.832771768933924" lon="14.671102231012961"><ele>715.0</ele><time>2026-03-28T15:29:56.998Z</time></trkpt><trkpt lat="40.832732591355466" lon="14.671024694349027"><ele>716.0</ele><time>2026-03-28T15:29:59.998Z</time></trkpt><trkpt lat="40.8328244671087" lon="14.670939167795593"><ele>717.0</ele><time>2026-03-28T15:30:02.998Z</time></trkpt><trkpt lat="40.83289020170221" lon="14.670908512309817"><ele>718.0</ele><time>2026-03-28T15:30:03.998Z</time></trkpt><trkpt lat="40.83296667482684" lon="14.670854534903913"><ele>719.0</ele><time>2026-03-28T15:30:04.998Z</time></trkpt><trkpt lat="40.83307080838967" lon="14.670813936441462"><ele>719.0</ele><time>2026-03-28T15:30:05.998Z</time></trkpt><trkpt lat="40.83316828129652" lon="14.67079988978231"><ele>719.0</ele><time>2026-03-28T15:30:06.998Z</time></trkpt><trkpt lat="40.833251489831774" lon="14.67079572568683"><ele>719.0</ele><time>2026-03-28T15:30:07.998Z</time></trkpt><trkpt lat="40.83336644509812" lon="14.670850538151514"><ele>719.0</ele><time>2026-03-28T15:30:09.998Z</time></trkpt><trkpt lat="40.83347047158477" lon="14.670879751162664"><ele>719.0</ele><time>2026-03-28T15:30:11.998Z</time></trkpt><trkpt lat="40.833584423484" lon="14.670910621965216"><ele>720.1666666666666</ele><time>2026-03-28T15:30:13.998Z</time></trkpt><trkpt lat="40.83364783590541" lon="14.67091632480541"><ele>721.3333333333333</ele><time>2026-03-28T15:30:14.998Z</time></trkpt><trkpt lat="40.83372986218804" lon="14.670921594753478"><ele>722.5</ele><time>2026-03-28T15:30:15.998Z</time></trkpt><trkpt lat="40.83381149322013" lon="14.670922537483005"><ele>723.6666666666666</ele><time>2026-03-28T15:30:16.998Z</time></trkpt><trkpt lat="40.83391587160692" lon="14.670951543163918"><ele>724.8333333333334</ele><time>2026-03-28T15:30:17.998Z</time></trkpt><trkpt lat="40.83398793068823" lon="14.670993437831582"><ele>726.0</ele><time>2026-03-28T15:30:18.998Z</time></trkpt><trkpt lat="40.83407028442767" lon="14.671016285727493"><ele>726.0</ele><time>2026-03-28T15:30:19.998Z</time></trkpt><trkpt lat="40.834175323946724" lon="14.671032406061713"><ele>726.0</ele><time>2026-03-28T15:30:20.998Z</time></trkpt><trkpt lat="40.83429235304248" lon="14.671058386780487"><ele>726.0</ele><time>2026-03-28T15:30:21.998Z</time></trkpt><trkpt lat="40.83439650070768" lon="14.671091403460865"><ele>726.0</ele><time>2026-03-28T15:30:22.998Z</time></trkpt><trkpt lat="40.83448303528232" lon="14.671133276323536"><ele>726.0</ele><time>2026-03-28T15:30:23.998Z</time></trkpt><trkpt lat="40.83455475370793" lon="14.671170954686943"><ele>723.75</ele><time>2026-03-28T15:30:24.998Z</time></trkpt><trkpt lat="40.83464161708925" lon="14.671217422892454"><ele>721.5</ele><time>2026-03-28T15:30:25.998Z</time></trkpt><trkpt lat="40.83475080116738" lon="14.671279371157828"><ele>719.25</ele><time>2026-03-28T15:30:26.998Z</time></trkpt><trkpt lat="40.8348840013861" lon="14.67132558072949"><ele>717.0</ele><time>2026-03-28T15:30:27.998Z</time></trkpt><trkpt lat="40.83502184352348" lon="14.671357588741651"><ele>718.5</ele><time>2026-03-28T15:30:28.998Z</time></trkpt><trkpt lat="40.83515057171292" lon="14.671392597118013"><ele>720.0</ele><time>2026-03-28T15:30:29.998Z</time></trkpt><trkpt lat="40.83528087350551" lon="14.671439486155311"><ele>721.5</ele><time>2026-03-28T15:30:30.998Z</time></trkpt><trkpt lat="40.835394275454526" lon="14.671489550620473"><ele>723.0</ele><time>2026-03-28T15:30:31.998Z</time></trkpt><trkpt lat="40.83551156417599" lon="14.67154927828911"><ele>723.0</ele><time>2026-03-28T15:30:32.998Z</time></trkpt><trkpt lat="40.83562543277705" lon="14.67161819837459"><ele>723.0</ele><time>2026-03-28T15:30:33.998Z</time></trkpt><trkpt lat="40.83571370257437" lon="14.671676594828208"><ele>723.0</ele><time>2026-03-28T15:30:34.998Z</time></trkpt><trkpt lat="40.83580373273937" lon="14.671734483165611"><ele>723.0</ele><time>2026-03-28T15:30:35.998Z</time></trkpt><trkpt lat="40.83588381721198" lon="14.671778799376481"><ele>723.0</ele><time>2026-03-28T15:30:36.998Z</time></trkpt><trkpt lat="40.83596451714392" lon="14.671828858933297"><ele>720.4</ele><time>2026-03-28T15:30:37.998Z</time></trkpt><trkpt lat="40.83605521947843" lon="14.671886494442262"><ele>717.8</ele><time>2026-03-28T15:30:38.998Z</time></trkpt><trkpt lat="40.83614999776039" lon="14.671945749255432"><ele>715.2</ele><time>2026-03-28T15:30:39.998Z</time></trkpt><trkpt lat="40.83623861063933" lon="14.671991397720479"><ele>712.6</ele><time>2026-03-28T15:30:40.998Z</time></trkpt><trkpt lat="40.83633024665045" lon="14.672034219084958"><ele>710.0</ele><time>2026-03-28T15:30:41.998Z</time></trkpt><trkpt lat="40.83641500638075" lon="14.672069788316861"><ele>710.0</ele><time>2026-03-28T15:30:42.998Z</time></trkpt><trkpt lat="40.83650185895341" lon="14.672121278001665"><ele>710.0</ele><time>2026-03-28T15:30:43.998Z</time></trkpt><trkpt lat="40.836593243229316" lon="14.67219198060547"><ele>710.0</ele><time>2026-03-28T15:30:44.998Z</time></trkpt><trkpt lat="40.83665931654514" lon="14.672258223098266"><ele>710.0</ele><time>2026-03-28T15:30:45.998Z</time></trkpt><trkpt lat="40.83673143775942" lon="14.672333812288608"><ele>710.0</ele><time>2026-03-28T15:30:46.998Z</time></trkpt><trkpt lat="40.83683020644998" lon="14.672406260378425"><ele>707.8</ele><time>2026-03-28T15:30:47.998Z</time></trkpt><trkpt lat="40.83692218461752" lon="14.672463415407444"><ele>705.6</ele><time>2026-03-28T15:30:48.998Z</time></trkpt><trkpt lat="40.83701427605996" lon="14.67252534625919"><ele>703.4000000000001</ele><time>2026-03-28T15:30:50Z</time></trkpt><trkpt lat="40.83711033314533" lon="14.672608671321102"><ele>701.2</ele><time>2026-03-28T15:30:51Z</time></trkpt><trkpt lat="40.83718091791626" lon="14.672689713452396"><ele>699.0</ele><time>2026-03-28T15:30:52Z</time></trkpt><trkpt lat="40.837240817994974" lon="14.67277682789932"><ele>699.0</ele><time>2026-03-28T15:30:53Z</time></trkpt><trkpt lat="40.837336999352914" lon="14.672852516372043"><ele>699.0</ele><time>2026-03-28T15:30:54Z</time></trkpt><trkpt lat="40.837418862786684" lon="14.672941286134284"><ele>699.0</ele><time>2026-03-28T15:30:55Z</time></trkpt><trkpt lat="40.83749686526011" lon="14.672998623178474"><ele>699.0</ele><time>2026-03-28T15:30:56Z</time></trkpt><trkpt lat="40.83758182365061" lon="14.67305638729728"><ele>699.0</ele><time>2026-03-28T15:30:57Z</time></trkpt><trkpt lat="40.83768211778708" lon="14.673113959564086"><ele>701.0</ele><time>2026-03-28T15:30:58Z</time></trkpt><trkpt lat="40.83778029864721" lon="14.6731654906364"><ele>703.0</ele><time>2026-03-28T15:30:59Z</time></trkpt><trkpt lat="40.83787879796607" lon="14.673193763328937"><ele>705.0</ele><time>2026-03-28T15:31:00Z</time></trkpt><trkpt lat="40.83797651722994" lon="14.673223095966488"><ele>707.0</ele><time>2026-03-28T15:31:01Z</time></trkpt><trkpt lat="40.83806331246478" lon="14.67325928736274"><ele>709.0</ele><time>2026-03-28T15:31:02Z</time></trkpt><trkpt lat="40.8381448584267" lon="14.673300597892375"><ele>709.0</ele><time>2026-03-28T15:31:03Z</time></trkpt><trkpt lat="40.838209913197815" lon="14.673323391805512"><ele>709.0</ele><time>2026-03-28T15:31:04Z</time></trkpt><trkpt lat="40.838300974740754" lon="14.673372077941373"><ele>709.0</ele><time>2026-03-28T15:31:05Z</time></trkpt><trkpt lat="40.83838421860032" lon="14.673423186466946"><ele>709.0</ele><time>2026-03-28T15:31:06Z</time></trkpt><trkpt lat="40.838484685048535" lon="14.673466628193136"><ele>709.0</ele><time>2026-03-28T15:31:06.999Z</time></trkpt><trkpt lat="40.83858395948251" lon="14.673511723181509"><ele>710.4000000000001</ele><time>2026-03-28T15:31:07.999Z</time></trkpt><trkpt lat="40.8386795357278" lon="14.673552620409772"><ele>711.8</ele><time>2026-03-28T15:31:08.999Z</time></trkpt><trkpt lat="40.83878387225189" lon="14.673574059105079"><ele>713.2</ele><time>2026-03-28T15:31:09.999Z</time></trkpt><trkpt lat="40.838877555898634" lon="14.673582845532264"><ele>714.5999999999999</ele><time>2026-03-28T15:31:10.999Z</time></trkpt><trkpt lat="40.83898496502543" lon="14.673588546892509"><ele>716.0</ele><time>2026-03-28T15:31:11.999Z</time></trkpt><trkpt lat="40.83909257852601" lon="14.673618537798127"><ele>709.4</ele><time>2026-03-28T15:31:12.999Z</time></trkpt><trkpt lat="40.83919101988174" lon="14.673607270098133"><ele>702.8</ele><time>2026-03-28T15:31:13.999Z</time></trkpt><trkpt lat="40.83927582574956" lon="14.673637589097604"><ele>696.1999999999999</ele><time>2026-03-28T15:31:14.999Z</time></trkpt><trkpt lat="40.839364772871285" lon="14.673622226447078"><ele>689.5999999999999</ele><time>2026-03-28T15:31:15.999Z</time></trkpt><trkpt lat="40.83945008074935" lon="14.673637766439608"><ele>683.0</ele><time>2026-03-28T15:31:16.999Z</time></trkpt><trkpt lat="40.839538969244394" lon="14.673659062601367"><ele>682.25</ele><time>2026-03-28T15:31:17.999Z</time></trkpt><trkpt lat="40.83964517714841" lon="14.673724305531499"><ele>681.5</ele><time>2026-03-28T15:31:18.999Z</time></trkpt><trkpt lat="40.839762256938954" lon="14.673743262213335"><ele>680.75</ele><time>2026-03-28T15:31:19.999Z</time></trkpt><trkpt lat="40.8398812600236" lon="14.673767658305525"><ele>680.0</ele><time>2026-03-28T15:31:20.999Z</time></trkpt><trkpt lat="40.83999499727308" lon="14.673776694655388"><ele>680.0</ele><time>2026-03-28T15:31:21.999Z</time></trkpt><trkpt lat="40.84009563259948" lon="14.67378443876495"><ele>680.0</ele><time>2026-03-28T15:31:22.999Z</time></trkpt><trkpt lat="40.84019606305192" lon="14.673787894513321"><ele>680.0</ele><time>2026-03-28T15:31:23.999Z</time></trkpt><trkpt lat="40.840287621863006" lon="14.673808807615517"><ele>680.0</ele><time>2026-03-28T15:31:24.999Z</time></trkpt><trkpt lat="40.84038988918333" lon="14.673820338022526"><ele>680.0</ele><time>2026-03-28T15:31:25.999Z</time></trkpt><trkpt lat="40.840492817984" lon="14.673822041578521"><ele>678.6</ele><time>2026-03-28T15:31:26.999Z</time></trkpt><trkpt lat="40.84060809724146" lon="14.673823735372444"><ele>677.2</ele><time>2026-03-28T15:31:27.999Z</time></trkpt><trkpt lat="40.84071962595623" lon="14.673802246605117"><ele>675.8</ele><time>2026-03-28T15:31:28.999Z</time></trkpt><trkpt lat="40.840819657507986" lon="14.673823659410365"><ele>674.4</ele><time>2026-03-28T15:31:29.999Z</time></trkpt><trkpt lat="40.840916543632886" lon="14.673837564481044"><ele>673.0</ele><time>2026-03-28T15:31:30.999Z</time></trkpt><trkpt lat="40.841019108599426" lon="14.673826765397932"><ele>671.5999999999999</ele><time>2026-03-28T15:31:31.999Z</time></trkpt><trkpt lat="40.84112158443744" lon="14.673802766881217"><ele>670.1999999999999</ele><time>2026-03-28T15:31:32.999Z</time></trkpt><trkpt lat="40.841221201025206" lon="14.673787416015122"><ele>668.8</ele><time>2026-03-28T15:31:33.999Z</time></trkpt><trkpt lat="40.84133130956086" lon="14.673757896324531"><ele>667.4</ele><time>2026-03-28T15:31:34.999Z</time></trkpt><trkpt lat="40.841433273262545" lon="14.673751495039893"><ele>666.0</ele><time>2026-03-28T15:31:35.999Z</time></trkpt><trkpt lat="40.84157629508339" lon="14.673751708271787"><ele>666.0</ele><time>2026-03-28T15:31:36.999Z</time></trkpt><trkpt lat="40.841723128117096" lon="14.673743737247577"><ele>666.0</ele><time>2026-03-28T15:31:37.999Z</time></trkpt><trkpt lat="40.84187647408899" lon="14.673746183293481"><ele>666.0</ele><time>2026-03-28T15:31:38.999Z</time></trkpt><trkpt lat="40.842027361047336" lon="14.673678824194171"><ele>664.25</ele><time>2026-03-28T15:31:39.999Z</time></trkpt><trkpt lat="40.84216385471409" lon="14.673663586812532"><ele>662.5</ele><time>2026-03-28T15:31:40.999Z</time></trkpt><trkpt lat="40.842285110019624" lon="14.673694027811326"><ele>660.75</ele><time>2026-03-28T15:31:41.999Z</time></trkpt><trkpt lat="40.8424136860676" lon="14.67368136494947"><ele>659.0</ele><time>2026-03-28T15:31:42.999Z</time></trkpt><trkpt lat="40.84252610518346" lon="14.673674922656277"><ele>659.0</ele><time>2026-03-28T15:31:43.999Z</time></trkpt><trkpt lat="40.84264018004608" lon="14.673672316237063"><ele>659.0</ele><time>2026-03-28T15:31:44.999Z</time></trkpt><trkpt lat="40.842755380369326" lon="14.673678209945798"><ele>659.0</ele><time>2026-03-28T15:31:45.999Z</time></trkpt><trkpt lat="40.84285434503308" lon="14.67369306297437"><ele>659.0</ele><time>2026-03-28T15:31:46.999Z</time></trkpt><trkpt lat="40.8429451893856" lon="14.673715575735718"><ele>659.0</ele><time>2026-03-28T15:31:47.999Z</time></trkpt><trkpt lat="40.84306272503624" lon="14.673705560544965"><ele>659.0</ele><time>2026-03-28T15:31:48.999Z</time></trkpt><trkpt lat="40.84317923155657" lon="14.673754669424177"><ele>659.0</ele><time>2026-03-28T15:31:49.999Z</time></trkpt><trkpt lat="40.84329044909174" lon="14.673788250599543"><ele>659.0</ele><time>2026-03-28T15:31:50.999Z</time></trkpt><trkpt lat="40.843385278892484" lon="14.673816039054893"><ele>659.0</ele><time>2026-03-28T15:31:51.999Z</time></trkpt><trkpt lat="40.843483836409405" lon="14.67384031006025"><ele>659.0</ele><time>2026-03-28T15:31:52.999Z</time></trkpt><trkpt lat="40.84358004572697" lon="14.67383270073808"><ele>657.6666666666666</ele><time>2026-03-28T15:31:53.999Z</time></trkpt><trkpt lat="40.843648415927284" lon="14.673827650873953"><ele>656.3333333333333</ele><time>2026-03-28T15:31:54.999Z</time></trkpt><trkpt lat="40.843747748464054" lon="14.673844961639155"><ele>655.0</ele><time>2026-03-28T15:31:56.999Z</time></trkpt><trkpt lat="40.84381564644742" lon="14.673863934244102"><ele>653.6666666666666</ele><time>2026-03-28T15:31:59.999Z</time></trkpt><trkpt lat="40.843878978054754" lon="14.673863934241753"><ele>652.3333333333334</ele><time>2026-03-28T15:32:12.998Z</time></trkpt><trkpt lat="40.84394888108829" lon="14.673794651693118"><ele>651.0</ele><time>2026-03-28T15:33:48.999Z</time></trkpt><trkpt lat="40.84401231825366" lon="14.673829805204555"><ele>651.0</ele><time>2026-03-28T15:34:56.998Z</time></trkpt><trkpt lat="40.84413551139967" lon="14.673831382682884"><ele>651.0</ele><time>2026-03-28T15:36:02.999Z</time></trkpt><trkpt lat="40.84400647038618" lon="14.673847028268234"><ele>651.0</ele><time>2026-03-28T15:37:44.999Z</time></trkpt><trkpt lat="40.84389596254515" lon="14.673822883673251"><ele>651.0</ele><time>2026-03-28T15:37:46.999Z</time></trkpt><trkpt lat="40.84382152281387" lon="14.673821451626285"><ele>651.0</ele><time>2026-03-28T15:37:47.999Z</time></trkpt><trkpt lat="40.843750474111644" lon="14.673818132880958"><ele>651.0</ele><time>2026-03-28T15:37:48.999Z</time></trkpt><trkpt lat="40.84363715629857" lon="14.673796698319995"><ele>651.0</ele><time>2026-03-28T15:37:50.999Z</time></trkpt><trkpt lat="40.84357076133221" lon="14.67377335887608"><ele>651.0</ele><time>2026-03-28T15:37:51.999Z</time></trkpt><trkpt lat="40.843500555689175" lon="14.673747400412676"><ele>651.0</ele><time>2026-03-28T15:37:52.999Z</time></trkpt><trkpt lat="40.84343182618011" lon="14.673724267025312"><ele>651.0</ele><time>2026-03-28T15:37:53.999Z</time></trkpt><trkpt lat="40.84335613535141" lon="14.67368980702504"><ele>651.0</ele><time>2026-03-28T15:37:54.999Z</time></trkpt><trkpt lat="40.843255596401974" lon="14.673635553092712"><ele>662.75</ele><time>2026-03-28T15:37:55.999Z</time></trkpt><trkpt lat="40.84313744459349" lon="14.673580165857837"><ele>674.5</ele><time>2026-03-28T15:37:56.999Z</time></trkpt><trkpt lat="40.84304305055288" lon="14.673520073473144"><ele>686.25</ele><time>2026-03-28T15:37:57.999Z</time></trkpt><trkpt lat="40.842925955614895" lon="14.673457690148387"><ele>698.0</ele><time>2026-03-28T15:37:58.999Z</time></trkpt><trkpt lat="40.842792450373175" lon="14.673415755351291"><ele>698.0</ele><time>2026-03-28T15:37:59.999Z</time></trkpt><trkpt lat="40.842699474974005" lon="14.673412262696148"><ele>698.0</ele><time>2026-03-28T15:38:00.999Z</time></trkpt><trkpt lat="40.84262807873395" lon="14.673405032198854"><ele>698.0</ele><time>2026-03-28T15:38:01.999Z</time></trkpt><trkpt lat="40.8425486664842" lon="14.673321422725111"><ele>698.0</ele><time>2026-03-28T15:38:03.999Z</time></trkpt><trkpt lat="40.84261565008835" lon="14.673197674018375"><ele>698.0</ele><time>2026-03-28T15:38:05.999Z</time></trkpt><trkpt lat="40.84269138135369" lon="14.673178211231193"><ele>698.0</ele><time>2026-03-28T15:38:06.999Z</time></trkpt><trkpt lat="40.842791005383404" lon="14.67318608684648"><ele>698.0</ele><time>2026-03-28T15:38:07.999Z</time></trkpt><trkpt lat="40.84292976101643" lon="14.673187815279377"><ele>698.0</ele><time>2026-03-28T15:38:08.999Z</time></trkpt><trkpt lat="40.84306760802409" lon="14.67317383241423"><ele>698.0</ele><time>2026-03-28T15:38:09.999Z</time></trkpt><trkpt lat="40.84320322664024" lon="14.673157165060413"><ele>698.0</ele><time>2026-03-28T15:38:10.999Z</time></trkpt><trkpt lat="40.84337366377222" lon="14.673120824630246"><ele>698.0</ele><time>2026-03-28T15:38:11.999Z</time></trkpt><trkpt lat="40.843515911159365" lon="14.67307880935466"><ele>698.0</ele><time>2026-03-28T15:38:12.999Z</time></trkpt><trkpt lat="40.84365713285486" lon="14.673024565273398"><ele>696.0</ele><time>2026-03-28T15:38:13.999Z</time></trkpt><trkpt lat="40.84378770446072" lon="14.672958121577182"><ele>694.0</ele><time>2026-03-28T15:38:14.999Z</time></trkpt><trkpt lat="40.843902745222195" lon="14.672877473203917"><ele>692.0</ele><time>2026-03-28T15:38:15.999Z</time></trkpt><trkpt lat="40.84401271046191" lon="14.672797751065334"><ele>690.0</ele><time>2026-03-28T15:38:16.999Z</time></trkpt><trkpt lat="40.84411663864603" lon="14.67271103256058"><ele>694.2</ele><time>2026-03-28T15:38:17.999Z</time></trkpt><trkpt lat="40.844206909986404" lon="14.672631675001837"><ele>698.4</ele><time>2026-03-28T15:38:18.999Z</time></trkpt><trkpt lat="40.844285465328475" lon="14.672576612098208"><ele>702.5999999999999</ele><time>2026-03-28T15:38:19.999Z</time></trkpt><trkpt lat="40.84438534745823" lon="14.67255609581473"><ele>706.8</ele><time>2026-03-28T15:38:20.999Z</time></trkpt><trkpt lat="40.844508469265975" lon="14.672563219357755"><ele>711.0</ele><time>2026-03-28T15:38:21.999Z</time></trkpt><trkpt lat="40.84464714235443" lon="14.672573698268184"><ele>711.0</ele><time>2026-03-28T15:38:22.999Z</time></trkpt><trkpt lat="40.8447952954278" lon="14.67255160338001"><ele>711.0</ele><time>2026-03-28T15:38:23.999Z</time></trkpt><trkpt lat="40.84494828634034" lon="14.672520009184208"><ele>711.0</ele><time>2026-03-28T15:38:24.999Z</time></trkpt><trkpt lat="40.84510687346402" lon="14.672486637740349"><ele>708.0</ele><time>2026-03-28T15:38:25.999Z</time></trkpt><trkpt lat="40.84527480662747" lon="14.672445194449793"><ele>705.0</ele><time>2026-03-28T15:38:26.999Z</time></trkpt><trkpt lat="40.84544316492666" lon="14.672387948811684"><ele>702.0</ele><time>2026-03-28T15:38:27.999Z</time></trkpt><trkpt lat="40.84561202878222" lon="14.672328951097217"><ele>702.0</ele><time>2026-03-28T15:38:28.999Z</time></trkpt><trkpt lat="40.84578424471918" lon="14.672278998546233"><ele>702.0</ele><time>2026-03-28T15:38:29.999Z</time></trkpt><trkpt lat="40.84595197950459" lon="14.672232985777491"><ele>702.0</ele><time>2026-03-28T15:38:30.999Z</time></trkpt><trkpt lat="40.84611111231175" lon="14.672185450166236"><ele>697.6666666666666</ele><time>2026-03-28T15:38:31.999Z</time></trkpt><trkpt lat="40.84627313265407" lon="14.672142820402847"><ele>693.3333333333333</ele><time>2026-03-28T15:38:32.999Z</time></trkpt><trkpt lat="40.84643173224951" lon="14.672093752919546"><ele>689.0</ele><time>2026-03-28T15:38:33.999Z</time></trkpt><trkpt lat="40.84657537960916" lon="14.672032388560856"><ele>689.0</ele><time>2026-03-28T15:38:34.999Z</time></trkpt><trkpt lat="40.84670842990229" lon="14.671956478631865"><ele>689.0</ele><time>2026-03-28T15:38:35.999Z</time></trkpt><trkpt lat="40.84684371072129" lon="14.67185786116681"><ele>689.0</ele><time>2026-03-28T15:38:36.999Z</time></trkpt><trkpt lat="40.84696967016825" lon="14.67174282587056"><ele>691.75</ele><time>2026-03-28T15:38:37.998Z</time></trkpt><trkpt lat="40.8470753721068" lon="14.671628633322484"><ele>694.5</ele><time>2026-03-28T15:38:38.998Z</time></trkpt><trkpt lat="40.847184985120265" lon="14.671521620031678"><ele>697.25</ele><time>2026-03-28T15:38:39.998Z</time></trkpt><trkpt lat="40.84728844882514" lon="14.671420735216332"><ele>700.0</ele><time>2026-03-28T15:38:40.998Z</time></trkpt><trkpt lat="40.84739420446129" lon="14.671384667386215"><ele>700.0</ele><time>2026-03-28T15:38:41.998Z</time></trkpt><trkpt lat="40.84745432291534" lon="14.671307497434237"><ele>700.0</ele><time>2026-03-28T15:38:42.998Z</time></trkpt><trkpt lat="40.84748910585695" lon="14.671228382402145"><ele>700.0</ele><time>2026-03-28T15:38:43.998Z</time></trkpt><trkpt lat="40.847473068567005" lon="14.671111897602714"><ele>700.0</ele><time>2026-03-28T15:38:44.998Z</time></trkpt><trkpt lat="40.84737541694791" lon="14.671064107355036"><ele>700.0</ele><time>2026-03-28T15:38:45.998Z</time></trkpt><trkpt lat="40.84727044656455" lon="14.671067547512564"><ele>700.0</ele><time>2026-03-28T15:38:47.998Z</time></trkpt><trkpt lat="40.847155072334004" lon="14.67108056699873"><ele>700.0</ele><time>2026-03-28T15:38:49.998Z</time></trkpt><trkpt lat="40.847055941530556" lon="14.671115565421937"><ele>700.0</ele><time>2026-03-28T15:38:50.998Z</time></trkpt><trkpt lat="40.84695072627303" lon="14.67115535446794"><ele>700.0</ele><time>2026-03-28T15:38:51.998Z</time></trkpt><trkpt lat="40.84684805460081" lon="14.671194181648609"><ele>700.0</ele><time>2026-03-28T15:38:52.998Z</time></trkpt><trkpt lat="40.84675504738307" lon="14.671228509606266"><ele>704.75</ele><time>2026-03-28T15:38:53.998Z</time></trkpt><trkpt lat="40.84665232015897" lon="14.67126007476183"><ele>709.5</ele><time>2026-03-28T15:38:54.998Z</time></trkpt><trkpt lat="40.84652694958457" lon="14.671298597639288"><ele>714.25</ele><time>2026-03-28T15:38:55.998Z</time></trkpt><trkpt lat="40.84639047519047" lon="14.671340532404601"><ele>719.0</ele><time>2026-03-28T15:38:56.998Z</time></trkpt><trkpt lat="40.84627874680923" lon="14.67137515376025"><ele>719.0</ele><time>2026-03-28T15:38:57.998Z</time></trkpt><trkpt lat="40.846106591095634" lon="14.671439998835352"><ele>719.0</ele><time>2026-03-28T15:38:58.998Z</time></trkpt><trkpt lat="40.8459305253247" lon="14.671459300024992"><ele>719.0</ele><time>2026-03-28T15:38:59.998Z</time></trkpt><trkpt lat="40.84574909930759" lon="14.671472644206002"><ele>723.6666666666666</ele><time>2026-03-28T15:39:00.998Z</time></trkpt><trkpt lat="40.84558466458672" lon="14.671482272023665"><ele>728.3333333333334</ele><time>2026-03-28T15:39:01.998Z</time></trkpt><trkpt lat="40.8454133957924" lon="14.67149762520138"><ele>733.0</ele><time>2026-03-28T15:39:02.998Z</time></trkpt><trkpt lat="40.84523415791187" lon="14.671507604921343"><ele>736.6666666666667</ele><time>2026-03-28T15:39:03.998Z</time></trkpt><trkpt lat="40.8450653912558" lon="14.671502027002484"><ele>740.3333333333334</ele><time>2026-03-28T15:39:04.998Z</time></trkpt><trkpt lat="40.844910885023666" lon="14.671514731958279"><ele>744.0</ele><time>2026-03-28T15:39:05.998Z</time></trkpt><trkpt lat="40.84474384202283" lon="14.671529074131099"><ele>744.0</ele><time>2026-03-28T15:39:06.998Z</time></trkpt><trkpt lat="40.84457650148862" lon="14.671527238962938"><ele>744.0</ele><time>2026-03-28T15:39:07.998Z</time></trkpt><trkpt lat="40.844405525004625" lon="14.671536251995642"><ele>744.0</ele><time>2026-03-28T15:39:08.998Z</time></trkpt><trkpt lat="40.84423514864697" lon="14.67155529124319"><ele>749.0</ele><time>2026-03-28T15:39:09.998Z</time></trkpt><trkpt lat="40.844070869336406" lon="14.67157267695979"><ele>754.0</ele><time>2026-03-28T15:39:10.998Z</time></trkpt><trkpt lat="40.84390658964486" lon="14.67159429931713"><ele>759.0</ele><time>2026-03-28T15:39:11.998Z</time></trkpt><trkpt lat="40.84374351084701" lon="14.67161556378447"><ele>759.0</ele><time>2026-03-28T15:39:13Z</time></trkpt><trkpt lat="40.84358197542812" lon="14.671641106293327"><ele>759.0</ele><time>2026-03-28T15:39:14Z</time></trkpt><trkpt lat="40.84341868329023" lon="14.671662515860143"><ele>759.0</ele><time>2026-03-28T15:39:15Z</time></trkpt><trkpt lat="40.84325252803054" lon="14.671651606193258"><ele>761.8000000000001</ele><time>2026-03-28T15:39:16Z</time></trkpt><trkpt lat="40.84310206276712" lon="14.671622778396726"><ele>764.6</ele><time>2026-03-28T15:39:17Z</time></trkpt><trkpt lat="40.84298885325921" lon="14.671639164717039"><ele>767.4</ele><time>2026-03-28T15:39:18Z</time></trkpt><trkpt lat="40.84288812627174" lon="14.67163892676297"><ele>770.2</ele><time>2026-03-28T15:39:19Z</time></trkpt><trkpt lat="40.842811703746214" lon="14.671629647977886"><ele>773.0</ele><time>2026-03-28T15:39:20Z</time></trkpt><trkpt lat="40.84272657842827" lon="14.671581187438735"><ele>773.0</ele><time>2026-03-28T15:39:22Z</time></trkpt><trkpt lat="40.84277132488939" lon="14.67146353274378"><ele>773.0</ele><time>2026-03-28T15:39:24Z</time></trkpt><trkpt lat="40.84284919795176" lon="14.671428125390294"><ele>773.0</ele><time>2026-03-28T15:39:25Z</time></trkpt><trkpt lat="40.842950003894764" lon="14.671429406189155"><ele>773.0</ele><time>2026-03-28T15:39:26Z</time></trkpt><trkpt lat="40.84308311326135" lon="14.671425301366886"><ele>773.0</ele><time>2026-03-28T15:39:27Z</time></trkpt><trkpt lat="40.843222960901784" lon="14.671413935911737"><ele>773.0</ele><time>2026-03-28T15:39:28Z</time></trkpt><trkpt lat="40.8433463636219" lon="14.67136378604572"><ele>773.0</ele><time>2026-03-28T15:39:29Z</time></trkpt><trkpt lat="40.84350491391013" lon="14.671307886261518"><ele>773.0</ele><time>2026-03-28T15:39:30Z</time></trkpt><trkpt lat="40.84367691407174" lon="14.671236303718993"><ele>775.25</ele><time>2026-03-28T15:39:30.999Z</time></trkpt><trkpt lat="40.843828121038335" lon="14.671145604639664"><ele>777.5</ele><time>2026-03-28T15:39:31.999Z</time></trkpt><trkpt lat="40.84395826095182" lon="14.671065904408742"><ele>779.75</ele><time>2026-03-28T15:39:32.999Z</time></trkpt><trkpt lat="40.84406825130897" lon="14.670999484938884"><ele>782.0</ele><time>2026-03-28T15:39:33.999Z</time></trkpt><trkpt lat="40.84416231391398" lon="14.67092203033409"><ele>782.0</ele><time>2026-03-28T15:39:34.999Z</time></trkpt><trkpt lat="40.84422658940109" lon="14.670807064200051"><ele>782.0</ele><time>2026-03-28T15:39:35.999Z</time></trkpt><trkpt lat="40.84425412119675" lon="14.670693019360739"><ele>782.0</ele><time>2026-03-28T15:39:36.999Z</time></trkpt><trkpt lat="40.84424215664843" lon="14.67058088906788"><ele>782.0</ele><time>2026-03-28T15:39:37.999Z</time></trkpt><trkpt lat="40.844199000992106" lon="14.670464645662609"><ele>782.0</ele><time>2026-03-28T15:39:38.999Z</time></trkpt><trkpt lat="40.844124247505505" lon="14.670360208562265"><ele>783.25</ele><time>2026-03-28T15:39:39.999Z</time></trkpt><trkpt lat="40.84404781403228" lon="14.67026858808256"><ele>784.5</ele><time>2026-03-28T15:39:40.999Z</time></trkpt><trkpt lat="40.843924962662925" lon="14.670122872259071"><ele>785.75</ele><time>2026-03-28T15:39:41.999Z</time></trkpt><trkpt lat="40.843818093401545" lon="14.670029907899929"><ele>787.0</ele><time>2026-03-28T15:39:42.999Z</time></trkpt><trkpt lat="40.843727773153326" lon="14.669952581938338"><ele>787.0</ele><time>2026-03-28T15:39:43.999Z</time></trkpt><trkpt lat="40.84365095341475" lon="14.669869259727458"><ele>787.0</ele><time>2026-03-28T15:39:44.999Z</time></trkpt><trkpt lat="40.8435884980074" lon="14.669774668224635"><ele>787.0</ele><time>2026-03-28T15:39:45.999Z</time></trkpt><trkpt lat="40.8435490295754" lon="14.669686544358377"><ele>787.0</ele><time>2026-03-28T15:39:46.999Z</time></trkpt><trkpt lat="40.84352893054158" lon="14.669605445790712"><ele>787.0</ele><time>2026-03-28T15:39:47.998Z</time></trkpt><trkpt lat="40.84360280774589" lon="14.66949049321329"><ele>787.0</ele><time>2026-03-28T15:39:49.998Z</time></trkpt><trkpt lat="40.843680268068184" lon="14.669485608122061"><ele>787.0</ele><time>2026-03-28T15:39:50.998Z</time></trkpt><trkpt lat="40.843804159447664" lon="14.669548888724316"><ele>787.0</ele><time>2026-03-28T15:39:51.998Z</time></trkpt><trkpt lat="40.84391959945635" lon="14.66958593067229"><ele>787.0</ele><time>2026-03-28T15:39:52.998Z</time></trkpt><trkpt lat="40.844042923841386" lon="14.669601966980965"><ele>787.0</ele><time>2026-03-28T15:39:53.998Z</time></trkpt><trkpt lat="40.84417962862154" lon="14.669615910914333"><ele>787.0</ele><time>2026-03-28T15:39:54.998Z</time></trkpt><trkpt lat="40.84433086858782" lon="14.669624987644067"><ele>787.0</ele><time>2026-03-28T15:39:55.998Z</time></trkpt><trkpt lat="40.84447015391672" lon="14.669621202980467"><ele>787.0</ele><time>2026-03-28T15:39:56.998Z</time></trkpt><trkpt lat="40.84460964064778" lon="14.669570806449176"><ele>789.25</ele><time>2026-03-28T15:39:57.998Z</time></trkpt><trkpt lat="40.8447529093779" lon="14.66952828298412"><ele>791.5</ele><time>2026-03-28T15:39:58.998Z</time></trkpt><trkpt lat="40.84488451752201" lon="14.669483626205418"><ele>793.75</ele><time>2026-03-28T15:39:59.998Z</time></trkpt><trkpt lat="40.844982288416674" lon="14.6694326360757"><ele>796.0</ele><time>2026-03-28T15:40:00.998Z</time></trkpt><trkpt lat="40.84506472025318" lon="14.669376404399257"><ele>789.4</ele><time>2026-03-28T15:40:01.998Z</time></trkpt><trkpt lat="40.845134046736156" lon="14.66930878398393"><ele>782.8</ele><time>2026-03-28T15:40:02.998Z</time></trkpt><trkpt lat="40.845197737321605" lon="14.66921160830593"><ele>776.1999999999999</ele><time>2026-03-28T15:40:03.998Z</time></trkpt><trkpt lat="40.84524658258035" lon="14.669104122718434"><ele>769.5999999999999</ele><time>2026-03-28T15:40:04.998Z</time></trkpt><trkpt lat="40.84527476546404" lon="14.668995159539948"><ele>763.0</ele><time>2026-03-28T15:40:05.998Z</time></trkpt><trkpt lat="40.845296376131365" lon="14.668869696764503"><ele>763.0</ele><time>2026-03-28T15:40:06.998Z</time></trkpt><trkpt lat="40.845302364579844" lon="14.668741372355326"><ele>763.0</ele><time>2026-03-28T15:40:07.998Z</time></trkpt><trkpt lat="40.84527587980455" lon="14.668618634093377"><ele>763.0</ele><time>2026-03-28T15:40:08.998Z</time></trkpt><trkpt lat="40.845231620266446" lon="14.668498650341679"><ele>763.0</ele><time>2026-03-28T15:40:09.998Z</time></trkpt><trkpt lat="40.8452035631587" lon="14.66837984069899"><ele>763.0</ele><time>2026-03-28T15:40:10.998Z</time></trkpt><trkpt lat="40.84520367026505" lon="14.668245140376046"><ele>765.75</ele><time>2026-03-28T15:40:11.998Z</time></trkpt><trkpt lat="40.84522890977736" lon="14.668095977352822"><ele>768.5</ele><time>2026-03-28T15:40:12.998Z</time></trkpt><trkpt lat="40.84528948071035" lon="14.667955138706267"><ele>771.25</ele><time>2026-03-28T15:40:13.998Z</time></trkpt><trkpt lat="40.84532859904913" lon="14.667822438355842"><ele>774.0</ele><time>2026-03-28T15:40:14.998Z</time></trkpt><trkpt lat="40.84535126588073" lon="14.667666837082177"><ele>774.6</ele><time>2026-03-28T15:40:15.998Z</time></trkpt><trkpt lat="40.84535961415584" lon="14.667519820047133"><ele>775.2</ele><time>2026-03-28T15:40:16.998Z</time></trkpt><trkpt lat="40.84536254810171" lon="14.667382022211434"><ele>775.8000000000001</ele><time>2026-03-28T15:40:17.998Z</time></trkpt><trkpt lat="40.84536005921501" lon="14.66727227499619"><ele>776.4000000000001</ele><time>2026-03-28T15:40:18.998Z</time></trkpt><trkpt lat="40.84533857599366" lon="14.66715655050171"><ele>777.0</ele><time>2026-03-28T15:40:20.998Z</time></trkpt><trkpt lat="40.84527482363642" lon="14.667183309733668"><ele>777.0</ele><time>2026-03-28T15:40:23.998Z</time></trkpt><trkpt lat="40.84522763886034" lon="14.667307193295047"><ele>777.0</ele><time>2026-03-28T15:40:25.998Z</time></trkpt><trkpt lat="40.845204353862634" lon="14.667427180375128"><ele>777.0</ele><time>2026-03-28T15:40:26.998Z</time></trkpt><trkpt lat="40.8451788913423" lon="14.667563094045565"><ele>777.0</ele><time>2026-03-28T15:40:27.998Z</time></trkpt><trkpt lat="40.84513880776324" lon="14.667694102225122"><ele>777.0</ele><time>2026-03-28T15:40:28.998Z</time></trkpt><trkpt lat="40.84507293694924" lon="14.6678509011575"><ele>783.2</ele><time>2026-03-28T15:40:29.998Z</time></trkpt><trkpt lat="40.84502460157734" lon="14.66797272994821"><ele>789.4000000000001</ele><time>2026-03-28T15:40:30.998Z</time></trkpt><trkpt lat="40.844997262090644" lon="14.668059177301506"><ele>795.5999999999999</ele><time>2026-03-28T15:40:31.998Z</time></trkpt><trkpt lat="40.84493068726078" lon="14.668126935746391"><ele>801.8</ele><time>2026-03-28T15:40:33.998Z</time></trkpt><trkpt lat="40.844861203174204" lon="14.668058582382416"><ele>808.0</ele><time>2026-03-28T15:40:35.998Z</time></trkpt><trkpt lat="40.84489711912512" lon="14.667903459836209"><ele>808.0</ele><time>2026-03-28T15:40:37.998Z</time></trkpt><trkpt lat="40.84493672979159" lon="14.667787268872544"><ele>808.0</ele><time>2026-03-28T15:40:38.998Z</time></trkpt><trkpt lat="40.844946115355405" lon="14.667635469474046"><ele>808.0</ele><time>2026-03-28T15:40:39.998Z</time></trkpt><trkpt lat="40.84494526693681" lon="14.667485965528016"><ele>808.0</ele><time>2026-03-28T15:40:40.998Z</time></trkpt><trkpt lat="40.84493440601732" lon="14.667360617743084"><ele>808.0</ele><time>2026-03-28T15:40:41.998Z</time></trkpt><trkpt lat="40.84491927122282" lon="14.667231557446462"><ele>808.5999999999999</ele><time>2026-03-28T15:40:42.998Z</time></trkpt><trkpt lat="40.84489536235059" lon="14.667091704860521"><ele>809.1999999999999</ele><time>2026-03-28T15:40:43.998Z</time></trkpt><trkpt lat="40.8448568122794" lon="14.666951069965895"><ele>809.8</ele><time>2026-03-28T15:40:44.998Z</time></trkpt><trkpt lat="40.84480355480971" lon="14.666821086452254"><ele>810.4</ele><time>2026-03-28T15:40:45.998Z</time></trkpt><trkpt lat="40.84475253491295" lon="14.666700205738705"><ele>811.0</ele><time>2026-03-28T15:40:46.998Z</time></trkpt><trkpt lat="40.84470942391279" lon="14.66660667046711"><ele>811.0</ele><time>2026-03-28T15:40:47.998Z</time></trkpt><trkpt lat="40.84467792178687" lon="14.666504382769332"><ele>811.0</ele><time>2026-03-28T15:40:48.998Z</time></trkpt><trkpt lat="40.84467493351469" lon="14.666379003952779"><ele>811.0</ele><time>2026-03-28T15:40:49.998Z</time></trkpt><trkpt lat="40.84470775852345" lon="14.666252128015723"><ele>811.0</ele><time>2026-03-28T15:40:50.998Z</time></trkpt><trkpt lat="40.844773112248575" lon="14.66614546869751"><ele>811.0</ele><time>2026-03-28T15:40:51.998Z</time></trkpt><trkpt lat="40.8448456142307" lon="14.66604488899159"><ele>814.0</ele><time>2026-03-28T15:40:52.998Z</time></trkpt><trkpt lat="40.844920364482796" lon="14.665936777534723"><ele>817.0</ele><time>2026-03-28T15:40:53.998Z</time></trkpt><trkpt lat="40.84499149366542" lon="14.665792184476544"><ele>820.0</ele><time>2026-03-28T15:40:54.998Z</time></trkpt><trkpt lat="40.84504680450966" lon="14.66563644374749"><ele>823.0</ele><time>2026-03-28T15:40:55.998Z</time></trkpt><trkpt lat="40.84509043488186" lon="14.665472703240356"><ele>818.5</ele><time>2026-03-28T15:40:56.998Z</time></trkpt><trkpt lat="40.84513501106015" lon="14.665297673127744"><ele>814.0</ele><time>2026-03-28T15:40:57.998Z</time></trkpt><trkpt lat="40.845183829803126" lon="14.665130658856064"><ele>809.5</ele><time>2026-03-28T15:40:58.998Z</time></trkpt><trkpt lat="40.84524080966084" lon="14.664974322581667"><ele>805.0</ele><time>2026-03-28T15:40:59.998Z</time></trkpt><trkpt lat="40.84532015035669" lon="14.66482263354164"><ele>805.0</ele><time>2026-03-28T15:41:00.998Z</time></trkpt><trkpt lat="40.845401116716886" lon="14.664657716905845"><ele>805.0</ele><time>2026-03-28T15:41:01.998Z</time></trkpt><trkpt lat="40.845465903950036" lon="14.664488416281994"><ele>805.0</ele><time>2026-03-28T15:41:02.998Z</time></trkpt><trkpt lat="40.84551452601127" lon="14.664340433629809"><ele>805.0</ele><time>2026-03-28T15:41:03.998Z</time></trkpt><trkpt lat="40.84556272042855" lon="14.664205176598792"><ele>808.5</ele><time>2026-03-28T15:41:04.998Z</time></trkpt><trkpt lat="40.84561555632538" lon="14.664069154894193"><ele>812.0</ele><time>2026-03-28T15:41:05.998Z</time></trkpt><trkpt lat="40.84567130528257" lon="14.663935021376277"><ele>815.5</ele><time>2026-03-28T15:41:06.998Z</time></trkpt><trkpt lat="40.845731093405746" lon="14.663809266627679"><ele>819.0</ele><time>2026-03-28T15:41:07.998Z</time></trkpt><trkpt lat="40.84580407537662" lon="14.663678054987162"><ele>816.5</ele><time>2026-03-28T15:41:08.998Z</time></trkpt><trkpt lat="40.845904242909526" lon="14.663556863993252"><ele>814.0</ele><time>2026-03-28T15:41:09.998Z</time></trkpt><trkpt lat="40.84599860147064" lon="14.663458470385152"><ele>811.5</ele><time>2026-03-28T15:41:10.998Z</time></trkpt><trkpt lat="40.846074885257686" lon="14.663360380320972"><ele>809.0</ele><time>2026-03-28T15:41:11.998Z</time></trkpt><trkpt lat="40.84613563045218" lon="14.663258725622905"><ele>809.0000000000001</ele><time>2026-03-28T15:41:12.998Z</time></trkpt><trkpt lat="40.84617271227622" lon="14.663153325239632"><ele>809.0</ele><time>2026-03-28T15:41:13.998Z</time></trkpt><trkpt lat="40.84618780032927" lon="14.663040878282407"><ele>809.0</ele><time>2026-03-28T15:41:14.998Z</time></trkpt><trkpt lat="40.84615910374189" lon="14.662945055594589"><ele>809.0</ele><time>2026-03-28T15:41:15.998Z</time></trkpt><trkpt lat="40.84610205308141" lon="14.662870269054842"><ele>809.0000000000001</ele><time>2026-03-28T15:41:16.998Z</time></trkpt><trkpt lat="40.846016306887755" lon="14.662811737634518"><ele>809.0</ele><time>2026-03-28T15:41:17.998Z</time></trkpt><trkpt lat="40.84591463292785" lon="14.662754115004105"><ele>811.5</ele><time>2026-03-28T15:41:19Z</time></trkpt><trkpt lat="40.845812329271396" lon="14.662682259219524"><ele>814.0</ele><time>2026-03-28T15:41:20Z</time></trkpt><trkpt lat="40.84571752516827" lon="14.662603694554909"><ele>816.5</ele><time>2026-03-28T15:41:21Z</time></trkpt><trkpt lat="40.84562943040999" lon="14.662515063523225"><ele>819.0</ele><time>2026-03-28T15:41:22Z</time></trkpt><trkpt lat="40.845538932298226" lon="14.662417626425079"><ele>819.0</ele><time>2026-03-28T15:41:23Z</time></trkpt><trkpt lat="40.84544737359601" lon="14.662320412098877"><ele>819.0</ele><time>2026-03-28T15:41:24Z</time></trkpt><trkpt lat="40.84534740644662" lon="14.66221688006088"><ele>819.0</ele><time>2026-03-28T15:41:25Z</time></trkpt><trkpt lat="40.84525653335245" lon="14.662128055484429"><ele>819.0</ele><time>2026-03-28T15:41:26Z</time></trkpt><trkpt lat="40.84515843824795" lon="14.66206253521895"><ele>819.2</ele><time>2026-03-28T15:41:27Z</time></trkpt><trkpt lat="40.84503975952045" lon="14.662015878028052"><ele>819.4000000000001</ele><time>2026-03-28T15:41:28Z</time></trkpt><trkpt lat="40.84493328411773" lon="14.661997852663221"><ele>819.6</ele><time>2026-03-28T15:41:29Z</time></trkpt><trkpt lat="40.844844077627975" lon="14.661978521678165"><ele>819.8</ele><time>2026-03-28T15:41:30Z</time></trkpt><trkpt lat="40.844780208307355" lon="14.661932472509088"><ele>820.0</ele><time>2026-03-28T15:41:31Z</time></trkpt><trkpt lat="40.84473178638491" lon="14.661862118882564"><ele>820.0</ele><time>2026-03-28T15:41:32Z</time></trkpt><trkpt lat="40.8447019492749" lon="14.661759001178815"><ele>820.0</ele><time>2026-03-28T15:41:33Z</time></trkpt><trkpt lat="40.84468644891466" lon="14.66162670764759"><ele>820.0</ele><time>2026-03-28T15:41:34Z</time></trkpt><trkpt lat="40.84468231618817" lon="14.661481860332088"><ele>820.0</ele><time>2026-03-28T15:41:35Z</time></trkpt><trkpt lat="40.84469136204246" lon="14.661325867044319"><ele>820.0</ele><time>2026-03-28T15:41:36Z</time></trkpt><trkpt lat="40.84467968649413" lon="14.661137766466748"><ele>817.25</ele><time>2026-03-28T15:41:37Z</time></trkpt><trkpt lat="40.84465827866623" lon="14.660947745405252"><ele>814.5</ele><time>2026-03-28T15:41:38Z</time></trkpt><trkpt lat="40.84460981384711" lon="14.66079071574961"><ele>811.75</ele><time>2026-03-28T15:41:39Z</time></trkpt><trkpt lat="40.84453190550618" lon="14.660649389713074"><ele>809.0</ele><time>2026-03-28T15:41:40Z</time></trkpt><trkpt lat="40.84444977276307" lon="14.66052313239515"><ele>809.0</ele><time>2026-03-28T15:41:41Z</time></trkpt><trkpt lat="40.84435667605623" lon="14.660412248690161"><ele>809.0</ele><time>2026-03-28T15:41:42Z</time></trkpt><trkpt lat="40.84425744234182" lon="14.66029189067381"><ele>809.0</ele><time>2026-03-28T15:41:43Z</time></trkpt><trkpt lat="40.844126433318294" lon="14.660131190493662"><ele>809.0</ele><time>2026-03-28T15:41:44Z</time></trkpt><trkpt lat="40.844009740644275" lon="14.659989509656759"><ele>815.5</ele><time>2026-03-28T15:41:45Z</time></trkpt><trkpt lat="40.84389846527824" lon="14.659868464653208"><ele>822.0</ele><time>2026-03-28T15:41:46Z</time></trkpt><trkpt lat="40.84377768062947" lon="14.659761866117927"><ele>828.5</ele><time>2026-03-28T15:41:47Z</time></trkpt><trkpt lat="40.8436479873492" lon="14.659658629155158"><ele>835.0</ele><time>2026-03-28T15:41:48Z</time></trkpt><trkpt lat="40.84351214230663" lon="14.659558542107213"><ele>838.0</ele><time>2026-03-28T15:41:49Z</time></trkpt><trkpt lat="40.84339293745291" lon="14.659434931884"><ele>841.0</ele><time>2026-03-28T15:41:50Z</time></trkpt><trkpt lat="40.84329498220983" lon="14.659279347019005"><ele>844.0</ele><time>2026-03-28T15:41:51Z</time></trkpt><trkpt lat="40.84319144063805" lon="14.659127398893492"><ele>844.0</ele><time>2026-03-28T15:41:52Z</time></trkpt><trkpt lat="40.84306566606606" lon="14.659001336473139"><ele>844.0</ele><time>2026-03-28T15:41:53Z</time></trkpt><trkpt lat="40.84292681975066" lon="14.658896388136261"><ele>844.0</ele><time>2026-03-28T15:41:54Z</time></trkpt><trkpt lat="40.84278692024176" lon="14.658797934258555"><ele>844.0</ele><time>2026-03-28T15:41:54.999Z</time></trkpt><trkpt lat="40.84265262308188" lon="14.658686886036326"><ele>844.0</ele><time>2026-03-28T15:41:55.999Z</time></trkpt><trkpt lat="40.842539142626386" lon="14.658552455763155"><ele>844.0</ele><time>2026-03-28T15:41:56.999Z</time></trkpt><trkpt lat="40.84243480712172" lon="14.658411210482686"><ele>847.0</ele><time>2026-03-28T15:41:57.999Z</time></trkpt><trkpt lat="40.842337685405404" lon="14.658290951438701"><ele>850.0</ele><time>2026-03-28T15:41:58.999Z</time></trkpt><trkpt lat="40.84223058602827" lon="14.658190340995931"><ele>853.0</ele><time>2026-03-28T15:41:59.999Z</time></trkpt><trkpt lat="40.842105027586214" lon="14.658103844700726"><ele>856.0</ele><time>2026-03-28T15:42:00.999Z</time></trkpt><trkpt lat="40.84198855259852" lon="14.658026003893799"><ele>856.0</ele><time>2026-03-28T15:42:01.999Z</time></trkpt><trkpt lat="40.84190147514253" lon="14.657931229369028"><ele>855.9999999999999</ele><time>2026-03-28T15:42:02.999Z</time></trkpt><trkpt lat="40.841845490166634" lon="14.657816465196868"><ele>855.9999999999999</ele><time>2026-03-28T15:42:03.999Z</time></trkpt><trkpt lat="40.841800238949276" lon="14.65770736993769"><ele>856.0</ele><time>2026-03-28T15:42:04.999Z</time></trkpt><trkpt lat="40.84176661436019" lon="14.657608070546035"><ele>856.0</ele><time>2026-03-28T15:42:05.999Z</time></trkpt><trkpt lat="40.841741963212485" lon="14.657499322554264"><ele>858.1999999999999</ele><time>2026-03-28T15:42:06.999Z</time></trkpt><trkpt lat="40.84173253155766" lon="14.657376606280629"><ele>860.3999999999999</ele><time>2026-03-28T15:42:07.999Z</time></trkpt><trkpt lat="40.84174222259254" lon="14.657238324976271"><ele>862.6</ele><time>2026-03-28T15:42:08.999Z</time></trkpt><trkpt lat="40.84174970321878" lon="14.657117300145343"><ele>864.8</ele><time>2026-03-28T15:42:09.999Z</time></trkpt><trkpt lat="40.84173101522019" lon="14.65701002590098"><ele>867.0</ele><time>2026-03-28T15:42:10.999Z</time></trkpt><trkpt lat="40.84167048229961" lon="14.65690650271821"><ele>867.4000000000001</ele><time>2026-03-28T15:42:11.999Z</time></trkpt><trkpt lat="40.84159298413574" lon="14.656820871329453"><ele>867.8000000000001</ele><time>2026-03-28T15:42:12.999Z</time></trkpt><trkpt lat="40.841509618560046" lon="14.656756675860057"><ele>868.2</ele><time>2026-03-28T15:42:13.999Z</time></trkpt><trkpt lat="40.84143022150853" lon="14.656699586898604"><ele>868.6</ele><time>2026-03-28T15:42:14.999Z</time></trkpt><trkpt lat="40.841344257745384" lon="14.656626618757317"><ele>869.0</ele><time>2026-03-28T15:42:15.999Z</time></trkpt><trkpt lat="40.841252369854494" lon="14.656529690338335"><ele>869.0</ele><time>2026-03-28T15:42:16.999Z</time></trkpt><trkpt lat="40.841149534410455" lon="14.656426239154074"><ele>869.0</ele><time>2026-03-28T15:42:17.999Z</time></trkpt><trkpt lat="40.84105408491728" lon="14.65632794503162"><ele>869.0</ele><time>2026-03-28T15:42:18.999Z</time></trkpt><trkpt lat="40.84096768381517" lon="14.65623617185357"><ele>869.0</ele><time>2026-03-28T15:42:19.999Z</time></trkpt><trkpt lat="40.84087906360339" lon="14.656133757423087"><ele>868.5</ele><time>2026-03-28T15:42:20.999Z</time></trkpt><trkpt lat="40.84078132825376" lon="14.656023820373"><ele>868.0</ele><time>2026-03-28T15:42:21.999Z</time></trkpt><trkpt lat="40.84068878301508" lon="14.655921761196062"><ele>867.5</ele><time>2026-03-28T15:42:22.999Z</time></trkpt><trkpt lat="40.840610158390334" lon="14.65582830589733"><ele>867.0</ele><time>2026-03-28T15:42:23.999Z</time></trkpt><trkpt lat="40.8405329568347" lon="14.655736532364736"><ele>867.0</ele><time>2026-03-28T15:42:24.999Z</time></trkpt><trkpt lat="40.84044882407118" lon="14.655631298031885"><ele>867.0</ele><time>2026-03-28T15:42:25.999Z</time></trkpt><trkpt lat="40.840370300844256" lon="14.655533381755442"><ele>867.0</ele><time>2026-03-28T15:42:26.999Z</time></trkpt><trkpt lat="40.840297516101955" lon="14.655436320687564"><ele>867.0</ele><time>2026-03-28T15:42:27.999Z</time></trkpt><trkpt lat="40.84022443542174" lon="14.655344673350296"><ele>867.0</ele><time>2026-03-28T15:42:28.999Z</time></trkpt><trkpt lat="40.84015114214749" lon="14.655255453802068"><ele>864.25</ele><time>2026-03-28T15:42:29.999Z</time></trkpt><trkpt lat="40.84007340367678" lon="14.655148759403005"><ele>861.5</ele><time>2026-03-28T15:42:30.999Z</time></trkpt><trkpt lat="40.83998515186385" lon="14.655045777067276"><ele>858.75</ele><time>2026-03-28T15:42:31.999Z</time></trkpt><trkpt lat="40.83987961681072" lon="14.654974044058955"><ele>856.0</ele><time>2026-03-28T15:42:32.999Z</time></trkpt><trkpt lat="40.83975569111677" lon="14.654938767220854"><ele>856.0</ele><time>2026-03-28T15:42:33.999Z</time></trkpt><trkpt lat="40.83963473006456" lon="14.654915308524687"><ele>856.0</ele><time>2026-03-28T15:42:34.999Z</time></trkpt><trkpt lat="40.8395225069" lon="14.654880323812291"><ele>856.0</ele><time>2026-03-28T15:42:35.999Z</time></trkpt><trkpt lat="40.83941033869989" lon="14.654833347367711"><ele>856.0</ele><time>2026-03-28T15:42:36.999Z</time></trkpt><trkpt lat="40.83929617324832" lon="14.654782413220964"><ele>853.75</ele><time>2026-03-28T15:42:37.999Z</time></trkpt><trkpt lat="40.83918275382666" lon="14.654732301971427"><ele>851.5</ele><time>2026-03-28T15:42:38.999Z</time></trkpt><trkpt lat="40.83906757925534" lon="14.65469047035119"><ele>849.25</ele><time>2026-03-28T15:42:39.999Z</time></trkpt><trkpt lat="40.83895135612581" lon="14.654650772040977"><ele>847.0</ele><time>2026-03-28T15:42:40.999Z</time></trkpt><trkpt lat="40.838844737494604" lon="14.65460042226924"><ele>846.9999999999999</ele><time>2026-03-28T15:42:41.999Z</time></trkpt><trkpt lat="40.838743537262424" lon="14.654551481874394"><ele>847.0</ele><time>2026-03-28T15:42:42.999Z</time></trkpt><trkpt lat="40.83864922286197" lon="14.654520313273437"><ele>847.0</ele><time>2026-03-28T15:42:43.999Z</time></trkpt><trkpt lat="40.838568235077325" lon="14.65447037686438"><ele>847.0</ele><time>2026-03-28T15:42:44.999Z</time></trkpt><trkpt lat="40.83849123487442" lon="14.654437477973515"><ele>846.9999999999999</ele><time>2026-03-28T15:42:45.999Z</time></trkpt><trkpt lat="40.83842269889767" lon="14.654407642547095"><ele>847.0</ele><time>2026-03-28T15:42:46.999Z</time></trkpt><trkpt lat="40.838357778222715" lon="14.654377753344042"><ele>846.4000000000001</ele><time>2026-03-28T15:42:47.999Z</time></trkpt><trkpt lat="40.83829137560662" lon="14.65433814548349"><ele>845.8000000000001</ele><time>2026-03-28T15:42:49.999Z</time></trkpt><trkpt lat="40.83821499206234" lon="14.65429617533073"><ele>845.2</ele><time>2026-03-28T15:42:51.999Z</time></trkpt><trkpt lat="40.838175561758476" lon="14.654214066341805"><ele>844.6</ele><time>2026-03-28T15:42:52.999Z</time></trkpt><trkpt lat="40.83810281913608" lon="14.654127579107996"><ele>844.0</ele><time>2026-03-28T15:42:53.998Z</time></trkpt><trkpt lat="40.83802864101501" lon="14.65399557940389"><ele>844.0</ele><time>2026-03-28T15:42:54.998Z</time></trkpt><trkpt lat="40.83792533068989" lon="14.65385783630683"><ele>844.0</ele><time>2026-03-28T15:42:55.998Z</time></trkpt><trkpt lat="40.83781537330507" lon="14.653724671127339"><ele>844.0</ele><time>2026-03-28T15:42:56.998Z</time></trkpt><trkpt lat="40.83772441318257" lon="14.653612858421395"><ele>844.0</ele><time>2026-03-28T15:42:57.998Z</time></trkpt><trkpt lat="40.83763595769285" lon="14.653491431845634"><ele>843.25</ele><time>2026-03-28T15:42:58.998Z</time></trkpt><trkpt lat="40.83754857338199" lon="14.653364729872624"><ele>842.5</ele><time>2026-03-28T15:42:59.998Z</time></trkpt><trkpt lat="40.837442384003076" lon="14.653252216492676"><ele>841.75</ele><time>2026-03-28T15:43:00.998Z</time></trkpt><trkpt lat="40.83736560254171" lon="14.65311554739091"><ele>841.0</ele><time>2026-03-28T15:43:01.998Z</time></trkpt><trkpt lat="40.837296968466674" lon="14.652982022928917"><ele>841.0</ele><time>2026-03-28T15:43:02.998Z</time></trkpt><trkpt lat="40.83724289247213" lon="14.652856465922296"><ele>841.0</ele><time>2026-03-28T15:43:03.998Z</time></trkpt><trkpt lat="40.837188071092434" lon="14.65273015721051"><ele>841.0</ele><time>2026-03-28T15:43:04.998Z</time></trkpt><trkpt lat="40.83713159610455" lon="14.652620235026209"><ele>841.0</ele><time>2026-03-28T15:43:05.998Z</time></trkpt><trkpt lat="40.83707029322691" lon="14.652530423052276"><ele>841.0</ele><time>2026-03-28T15:43:06.998Z</time></trkpt><trkpt lat="40.83700316389984" lon="14.652431157066387"><ele>840.5999999999999</ele><time>2026-03-28T15:43:07.998Z</time></trkpt><trkpt lat="40.836923498003905" lon="14.652318255477521"><ele>840.2</ele><time>2026-03-28T15:43:08.998Z</time></trkpt><trkpt lat="40.83684443151279" lon="14.652219022255105"><ele>839.8</ele><time>2026-03-28T15:43:09.998Z</time></trkpt><trkpt lat="40.83677786225993" lon="14.652140139957691"><ele>839.4000000000001</ele><time>2026-03-28T15:43:10.998Z</time></trkpt><trkpt lat="40.83672401721346" lon="14.652064415499352"><ele>839.0</ele><time>2026-03-28T15:43:11.998Z</time></trkpt><trkpt lat="40.83668570868129" lon="14.651968648701521"><ele>839.0</ele><time>2026-03-28T15:43:12.998Z</time></trkpt><trkpt lat="40.836665965602336" lon="14.651846872632293"><ele>839.0</ele><time>2026-03-28T15:43:13.998Z</time></trkpt><trkpt lat="40.836650408716274" lon="14.651706060158237"><ele>839.0</ele><time>2026-03-28T15:43:14.998Z</time></trkpt><trkpt lat="40.83663277584108" lon="14.651535218178608"><ele>839.0</ele><time>2026-03-28T15:43:15.998Z</time></trkpt><trkpt lat="40.83661059292891" lon="14.651360389233004"><ele>839.0</ele><time>2026-03-28T15:43:16.998Z</time></trkpt><trkpt lat="40.83657652604921" lon="14.651207416228635"><ele>839.0</ele><time>2026-03-28T15:43:17.998Z</time></trkpt><trkpt lat="40.83653966605389" lon="14.651092200069993"><ele>839.0</ele><time>2026-03-28T15:43:18.998Z</time></trkpt><trkpt lat="40.83650563667374" lon="14.650980695483995"><ele>839.0</ele><time>2026-03-28T15:43:19.998Z</time></trkpt><trkpt lat="40.836461629021066" lon="14.65086205332803"><ele>839.0</ele><time>2026-03-28T15:43:20.998Z</time></trkpt><trkpt lat="40.8363989599452" lon="14.65075712233729"><ele>840.4000000000001</ele><time>2026-03-28T15:43:21.998Z</time></trkpt><trkpt lat="40.836327227514694" lon="14.650652174125423"><ele>841.8</ele><time>2026-03-28T15:43:22.998Z</time></trkpt><trkpt lat="40.836261828878875" lon="14.650553235454236"><ele>843.2</ele><time>2026-03-28T15:43:23.998Z</time></trkpt><trkpt lat="40.836220063193814" lon="14.650446608802666"><ele>844.5999999999999</ele><time>2026-03-28T15:43:25Z</time></trkpt><trkpt lat="40.836185823345545" lon="14.650314753685254"><ele>846.0</ele><time>2026-03-28T15:43:26Z</time></trkpt><trkpt lat="40.83616192621812" lon="14.650175521930187"><ele>848.25</ele><time>2026-03-28T15:43:27Z</time></trkpt><trkpt lat="40.83615092464521" lon="14.650036734674039"><ele>850.5</ele><time>2026-03-28T15:43:28Z</time></trkpt><trkpt lat="40.83614024832892" lon="14.64985676676503"><ele>852.75</ele><time>2026-03-28T15:43:29Z</time></trkpt><trkpt lat="40.83611817403918" lon="14.649676746386174"><ele>855.0</ele><time>2026-03-28T15:43:30Z</time></trkpt><trkpt lat="40.836098461409456" lon="14.649507641079115"><ele>856.25</ele><time>2026-03-28T15:43:31Z</time></trkpt><trkpt lat="40.83607981215853" lon="14.649351039205541"><ele>857.5</ele><time>2026-03-28T15:43:32Z</time></trkpt><trkpt lat="40.8360744541979" lon="14.649193759198699"><ele>858.75</ele><time>2026-03-28T15:43:33Z</time></trkpt><trkpt lat="40.83608344776574" lon="14.649031314476705"><ele>860.0</ele><time>2026-03-28T15:43:34Z</time></trkpt><trkpt lat="40.836094528711634" lon="14.64884322936073"><ele>860.0</ele><time>2026-03-28T15:43:35Z</time></trkpt><trkpt lat="40.83610253556264" lon="14.648631671021699"><ele>860.0</ele><time>2026-03-28T15:43:36Z</time></trkpt><trkpt lat="40.836097330324556" lon="14.648437469389878"><ele>860.0</ele><time>2026-03-28T15:43:37Z</time></trkpt><trkpt lat="40.83608640661535" lon="14.648229478459498"><ele>862.3333333333334</ele><time>2026-03-28T15:43:38Z</time></trkpt><trkpt lat="40.83607471377981" lon="14.648014161685449"><ele>864.6666666666667</ele><time>2026-03-28T15:43:39Z</time></trkpt><trkpt lat="40.836056229864106" lon="14.647798047808656"><ele>867.0</ele><time>2026-03-28T15:43:40Z</time></trkpt><trkpt lat="40.8360363728836" lon="14.647588382813495"><ele>869.25</ele><time>2026-03-28T15:43:41Z</time></trkpt><trkpt lat="40.83601680929561" lon="14.6473963331265"><ele>871.5</ele><time>2026-03-28T15:43:42Z</time></trkpt><trkpt lat="40.83599861461473" lon="14.647223972630682"><ele>873.75</ele><time>2026-03-28T15:43:43Z</time></trkpt><trkpt lat="40.835986402290814" lon="14.647041477059078"><ele>876.0</ele><time>2026-03-28T15:43:44Z</time></trkpt><trkpt lat="40.83599105847276" lon="14.646850693733136"><ele>878.0</ele><time>2026-03-28T15:43:45Z</time></trkpt><trkpt lat="40.83599548447614" lon="14.646653572544814"><ele>880.0</ele><time>2026-03-28T15:43:46Z</time></trkpt><trkpt lat="40.83598485378534" lon="14.646445189215205"><ele>882.0</ele><time>2026-03-28T15:43:47Z</time></trkpt><trkpt lat="40.83596440737737" lon="14.64622096655345"><ele>877.5</ele><time>2026-03-28T15:43:48Z</time></trkpt><trkpt lat="40.835947747864374" lon="14.645994752613936"><ele>873.0</ele><time>2026-03-28T15:43:49Z</time></trkpt><trkpt lat="40.83594637408717" lon="14.645791330716184"><ele>868.5</ele><time>2026-03-28T15:43:50Z</time></trkpt><trkpt lat="40.835950968636794" lon="14.645631611813146"><ele>864.0</ele><time>2026-03-28T15:43:51Z</time></trkpt><trkpt lat="40.835954844335255" lon="14.645495758244138"><ele>864.0</ele><time>2026-03-28T15:43:52Z</time></trkpt><trkpt lat="40.83593988345876" lon="14.645362056829727"><ele>864.0000000000001</ele><time>2026-03-28T15:43:53Z</time></trkpt><trkpt lat="40.835909520234615" lon="14.645230089932436"><ele>864.0000000000001</ele><time>2026-03-28T15:43:54Z</time></trkpt><trkpt lat="40.83588551280607" lon="14.645110475000777"><ele>864.0</ele><time>2026-03-28T15:43:55Z</time></trkpt><trkpt lat="40.83588436810023" lon="14.644961207480673"><ele>864.0</ele><time>2026-03-28T15:43:56Z</time></trkpt><trkpt lat="40.83590489666349" lon="14.644789999547596"><ele>864.5</ele><time>2026-03-28T15:43:57Z</time></trkpt><trkpt lat="40.83592447724738" lon="14.644611129566231"><ele>865.0</ele><time>2026-03-28T15:43:58Z</time></trkpt><trkpt lat="40.835937967332406" lon="14.644418040605789"><ele>865.5</ele><time>2026-03-28T15:43:59Z</time></trkpt><trkpt lat="40.83593501782783" lon="14.644214549065472"><ele>866.0</ele><time>2026-03-28T15:44:00Z</time></trkpt><trkpt lat="40.835939115700874" lon="14.644026240044004"><ele>866.0</ele><time>2026-03-28T15:44:01Z</time></trkpt><trkpt lat="40.83595194488672" lon="14.643841680273166"><ele>866.0</ele><time>2026-03-28T15:44:02Z</time></trkpt><trkpt lat="40.83596484897107" lon="14.643650422440912"><ele>866.0</ele><time>2026-03-28T15:44:03Z</time></trkpt><trkpt lat="40.83597184006695" lon="14.643446361580331"><ele>866.0</ele><time>2026-03-28T15:44:04Z</time></trkpt><trkpt lat="40.83598456471163" lon="14.643232475696788"><ele>869.25</ele><time>2026-03-28T15:44:05Z</time></trkpt><trkpt lat="40.836000168350225" lon="14.64302497075298"><ele>872.5</ele><time>2026-03-28T15:44:05.999Z</time></trkpt><trkpt lat="40.83602606785897" lon="14.642833536721945"><ele>875.75</ele><time>2026-03-28T15:44:06.999Z</time></trkpt><trkpt lat="40.83605367343792" lon="14.642664904991129"><ele>879.0</ele><time>2026-03-28T15:44:07.999Z</time></trkpt><trkpt lat="40.83607518484187" lon="14.642523893436264"><ele>879.25</ele><time>2026-03-28T15:44:08.999Z</time></trkpt><trkpt lat="40.836089611168894" lon="14.642377118847365"><ele>879.5</ele><time>2026-03-28T15:44:09.999Z</time></trkpt><trkpt lat="40.836094856221045" lon="14.642212287306506"><ele>879.75</ele><time>2026-03-28T15:44:10.999Z</time></trkpt><trkpt lat="40.836104864722905" lon="14.642042273587888"><ele>880.0</ele><time>2026-03-28T15:44:11.999Z</time></trkpt><trkpt lat="40.83611990510861" lon="14.641857727786116"><ele>880.5</ele><time>2026-03-28T15:44:12.999Z</time></trkpt><trkpt lat="40.836137996544494" lon="14.641661448176885"><ele>881.0</ele><time>2026-03-28T15:44:13.999Z</time></trkpt><trkpt lat="40.83615536216424" lon="14.641468123564504"><ele>881.5</ele><time>2026-03-28T15:44:14.999Z</time></trkpt><trkpt lat="40.83616897187106" lon="14.641298934147517"><ele>882.0</ele><time>2026-03-28T15:44:15.999Z</time></trkpt><trkpt lat="40.83617493151749" lon="14.641144582550583"><ele>883.75</ele><time>2026-03-28T15:44:16.999Z</time></trkpt><trkpt lat="40.83618049931703" lon="14.640984636468946"><ele>885.5</ele><time>2026-03-28T15:44:17.999Z</time></trkpt><trkpt lat="40.8361972161326" lon="14.640818748469831"><ele>887.25</ele><time>2026-03-28T15:44:18.999Z</time></trkpt><trkpt lat="40.836237262259246" lon="14.640648128083663"><ele>889.0</ele><time>2026-03-28T15:44:19.999Z</time></trkpt><trkpt lat="40.836295167446" lon="14.640467771803882"><ele>889.0</ele><time>2026-03-28T15:44:20.999Z</time></trkpt><trkpt lat="40.83634315545799" lon="14.640304791919567"><ele>889.0000000000001</ele><time>2026-03-28T15:44:21.999Z</time></trkpt><trkpt lat="40.836382310015615" lon="14.640170676263754"><ele>889.0000000000001</ele><time>2026-03-28T15:44:22.999Z</time></trkpt><trkpt lat="40.83641181443501" lon="14.6400434953959"><ele>889.0</ele><time>2026-03-28T15:44:23.999Z</time></trkpt><trkpt lat="40.83643345995514" lon="14.639935338297812"><ele>889.0</ele><time>2026-03-28T15:44:24.999Z</time></trkpt><trkpt lat="40.836520560226376" lon="14.63982426071175"><ele>890.6666666666666</ele><time>2026-03-28T15:44:26.999Z</time></trkpt><trkpt lat="40.83660834271059" lon="14.639803209930962"><ele>892.3333333333333</ele><time>2026-03-28T15:44:28.999Z</time></trkpt><trkpt lat="40.836540912120924" lon="14.639726231396288"><ele>894.0</ele><time>2026-03-28T15:44:44.999Z</time></trkpt><trkpt lat="40.83664157979833" lon="14.639781619650957"><ele>895.6666666666667</ele><time>2026-03-28T15:48:28.999Z</time></trkpt><trkpt lat="40.83671074392493" lon="14.639799829641266"><ele>897.3333333333334</ele><time>2026-03-28T15:48:29.999Z</time></trkpt><trkpt lat="40.83678374820452" lon="14.639828605875906"><ele>899.0</ele><time>2026-03-28T15:48:30.999Z</time></trkpt><trkpt lat="40.83685045058275" lon="14.639875234305192"><ele>902.0000000000001</ele><time>2026-03-28T15:48:31.999Z</time></trkpt><trkpt lat="40.83694305823677" lon="14.639924823592871"><ele>905.0</ele><time>2026-03-28T15:48:33.999Z</time></trkpt><trkpt lat="40.83699582099037" lon="14.639856271609185"><ele>908.0</ele><time>2026-03-28T15:48:35.999Z</time></trkpt><trkpt lat="40.83695168079048" lon="14.639732901309904"><ele>911.0</ele><time>2026-03-28T15:48:37.999Z</time></trkpt><trkpt lat="40.83691075060404" lon="14.639655009495549"><ele>914.0000000000001</ele><time>2026-03-28T15:48:38.999Z</time></trkpt><trkpt lat="40.83687764046663" lon="14.639568525130082"><ele>917.0</ele><time>2026-03-28T15:48:39.999Z</time></trkpt><trkpt lat="40.836816383166045" lon="14.639441081882604"><ele>915.8333333333334</ele><time>2026-03-28T15:48:41.999Z</time></trkpt><trkpt lat="40.836780350657655" lon="14.639361470196373"><ele>914.6666666666667</ele><time>2026-03-28T15:48:42.999Z</time></trkpt><trkpt lat="40.836688198829584" lon="14.639239793860437"><ele>913.5</ele><time>2026-03-28T15:48:44.999Z</time></trkpt><trkpt lat="40.836625775205434" lon="14.639190950347533"><ele>912.3333333333333</ele><time>2026-03-28T15:48:45.999Z</time></trkpt><trkpt lat="40.83656605047874" lon="14.639157870451186"><ele>911.1666666666666</ele><time>2026-03-28T15:48:46.999Z</time></trkpt><trkpt lat="40.83650333378525" lon="14.63913859154558"><ele>910.0</ele><time>2026-03-28T15:48:47.999Z</time></trkpt><trkpt lat="40.836386625432795" lon="14.639195797960047"><ele>910.0</ele><time>2026-03-28T15:48:49.999Z</time></trkpt><trkpt lat="40.83633048207993" lon="14.63925571928945"><ele>910.0</ele><time>2026-03-28T15:48:50.999Z</time></trkpt><trkpt lat="40.83624391548242" lon="14.639209182768795"><ele>910.0</ele><time>2026-03-28T15:48:53.999Z</time></trkpt><trkpt lat="40.836276836786006" lon="14.639042590161484"><ele>910.0</ele><time>2026-03-28T15:48:55.999Z</time></trkpt><trkpt lat="40.836321432654906" lon="14.638938904501291"><ele>910.0</ele><time>2026-03-28T15:48:56.999Z</time></trkpt><trkpt lat="40.836349812462444" lon="14.6388313642204"><ele>909.9999999999999</ele><time>2026-03-28T15:48:57.999Z</time></trkpt><trkpt lat="40.836355249794025" lon="14.638732064921957"><ele>910.0</ele><time>2026-03-28T15:48:58.999Z</time></trkpt><trkpt lat="40.836368574006265" lon="14.638640937285842"><ele>910.0</ele><time>2026-03-28T15:48:59.999Z</time></trkpt><trkpt lat="40.836394748265064" lon="14.638563722070854"><ele>910.0</ele><time>2026-03-28T15:49:00.999Z</time></trkpt><trkpt lat="40.836433221960334" lon="14.63847761438267"><ele>909.9999999999999</ele><time>2026-03-28T15:49:01.999Z</time></trkpt><trkpt lat="40.83649580742365" lon="14.638350765009509"><ele>910.0</ele><time>2026-03-28T15:49:03.999Z</time></trkpt><trkpt lat="40.83656277390236" lon="14.638217717824626"><ele>909.1666666666666</ele><time>2026-03-28T15:49:05.999Z</time></trkpt><trkpt lat="40.836608003228726" lon="14.638112926535182"><ele>908.3333333333333</ele><time>2026-03-28T15:49:07.999Z</time></trkpt><trkpt lat="40.83664131750339" lon="14.63803786468612"><ele>907.5</ele><time>2026-03-28T15:49:08.999Z</time></trkpt><trkpt lat="40.83668481774673" lon="14.63794824963554"><ele>906.6666666666667</ele><time>2026-03-28T15:49:09.999Z</time></trkpt><trkpt lat="40.836728917753" lon="14.637855635264515"><ele>905.8333333333334</ele><time>2026-03-28T15:49:10.999Z</time></trkpt><trkpt lat="40.836770159497924" lon="14.637777466848881"><ele>905.0</ele><time>2026-03-28T15:49:11.999Z</time></trkpt><trkpt lat="40.83681525173813" lon="14.637687270222493"><ele>908.8333333333334</ele><time>2026-03-28T15:49:12.999Z</time></trkpt><trkpt lat="40.836862748492074" lon="14.637585890063818"><ele>912.6666666666667</ele><time>2026-03-28T15:49:13.999Z</time></trkpt><trkpt lat="40.836907810727105" lon="14.637496631471874"><ele>916.5</ele><time>2026-03-28T15:49:14.999Z</time></trkpt><trkpt lat="40.83695127645697" lon="14.637414887397398"><ele>920.3333333333333</ele><time>2026-03-28T15:49:15.999Z</time></trkpt><trkpt lat="40.83701078149666" lon="14.637320482244714"><ele>924.1666666666666</ele><time>2026-03-28T15:49:16.999Z</time></trkpt><trkpt lat="40.8370773343036" lon="14.637233763337063"><ele>928.0</ele><time>2026-03-28T15:49:17.999Z</time></trkpt><trkpt lat="40.83713704775768" lon="14.637168206815637"><ele>928.0</ele><time>2026-03-28T15:49:18.999Z</time></trkpt><trkpt lat="40.837191640754554" lon="14.637117212142119"><ele>928.0</ele><time>2026-03-28T15:49:19.999Z</time></trkpt><trkpt lat="40.83729494073022" lon="14.637012160819895"><ele>928.0</ele><time>2026-03-28T15:49:21.999Z</time></trkpt><trkpt lat="40.837378473183605" lon="14.636925676426008"><ele>928.0</ele><time>2026-03-28T15:49:23.999Z</time></trkpt><trkpt lat="40.83745736975629" lon="14.636871605237927"><ele>928.0</ele><time>2026-03-28T15:49:25.999Z</time></trkpt><trkpt lat="40.837546971276765" lon="14.636807603470364"><ele>927.0</ele><time>2026-03-28T15:49:27.998Z</time></trkpt><trkpt lat="40.83766208291629" lon="14.636751815689925"><ele>926.0</ele><time>2026-03-28T15:49:29.998Z</time></trkpt><trkpt lat="40.83778540180901" lon="14.636712132712757"><ele>925.0</ele><time>2026-03-28T15:49:31.998Z</time></trkpt><trkpt lat="40.83785318768455" lon="14.636684664305715"><ele>924.0</ele><time>2026-03-28T15:49:32.998Z</time></trkpt><trkpt lat="40.83791531282648" lon="14.63666498584897"><ele>923.0</ele><time>2026-03-28T15:49:33.998Z</time></trkpt><trkpt lat="40.838013991096474" lon="14.636632138501536"><ele>923.0</ele><time>2026-03-28T15:49:35.998Z</time></trkpt><trkpt lat="40.838079332182055" lon="14.636583689241366"><ele>923.0</ele><time>2026-03-28T15:49:37.998Z</time></trkpt><trkpt lat="40.83811591733321" lon="14.636510876283278"><ele>923.0</ele><time>2026-03-28T15:49:38.998Z</time></trkpt><trkpt lat="40.83817615020943" lon="14.636363356537524"><ele>923.0</ele><time>2026-03-28T15:49:40.998Z</time></trkpt><trkpt lat="40.83824249336702" lon="14.636237549570351"><ele>923.0</ele><time>2026-03-28T15:49:43Z</time></trkpt><trkpt lat="40.8383247512003" lon="14.636124586953887"><ele>923.0000000000001</ele><time>2026-03-28T15:49:45Z</time></trkpt><trkpt lat="40.838435477737605" lon="14.636048665514025"><ele>923.0</ele><time>2026-03-28T15:49:47Z</time></trkpt><trkpt lat="40.838481241688605" lon="14.635985491068475"><ele>923.0</ele><time>2026-03-28T15:49:48Z</time></trkpt><trkpt lat="40.83852066800782" lon="14.635911282829731"><ele>923.0</ele><time>2026-03-28T15:49:49Z</time></trkpt><trkpt lat="40.83855897018991" lon="14.635828431006567"><ele>923.0000000000001</ele><time>2026-03-28T15:49:50Z</time></trkpt><trkpt lat="40.83860171733186" lon="14.635759237237734"><ele>923.0</ele><time>2026-03-28T15:49:51Z</time></trkpt><trkpt lat="40.83865137712097" lon="14.635704305276244"><ele>923.0000000000001</ele><time>2026-03-28T15:49:52Z</time></trkpt><trkpt lat="40.838722933702414" lon="14.635584945318463"><ele>923.0</ele><time>2026-03-28T15:49:54Z</time></trkpt><trkpt lat="40.838720396764636" lon="14.635484295087918"><ele>923.0</ele><time>2026-03-28T15:49:55Z</time></trkpt><trkpt lat="40.83871376235857" lon="14.63539236171665"><ele>923.0</ele><time>2026-03-28T15:49:56Z</time></trkpt><trkpt lat="40.838733797775035" lon="14.635301239513467"><ele>923.0000000000001</ele><time>2026-03-28T15:49:57Z</time></trkpt><trkpt lat="40.83876895712788" lon="14.635214493202046"><ele>923.0</ele><time>2026-03-28T15:49:58Z</time></trkpt><trkpt lat="40.83881162969943" lon="14.635133176414014"><ele>918.1666666666667</ele><time>2026-03-28T15:49:59Z</time></trkpt><trkpt lat="40.83885420972784" lon="14.635046037433328"><ele>913.3333333333334</ele><time>2026-03-28T15:50:00Z</time></trkpt><trkpt lat="40.838918027673316" lon="14.634996281683188"><ele>908.5</ele><time>2026-03-28T15:50:01Z</time></trkpt><trkpt lat="40.83899065731114" lon="14.63493748983991"><ele>903.6666666666667</ele><time>2026-03-28T15:50:02Z</time></trkpt><trkpt lat="40.83906776939623" lon="14.63487542548313"><ele>898.8333333333334</ele><time>2026-03-28T15:50:03Z</time></trkpt><trkpt lat="40.83913939423831" lon="14.634814393965705"><ele>894.0</ele><time>2026-03-28T15:50:04Z</time></trkpt><trkpt lat="40.839206585004305" lon="14.634736455395561"><ele>894.0</ele><time>2026-03-28T15:50:05Z</time></trkpt><trkpt lat="40.83927720472894" lon="14.634648114390135"><ele>894.0</ele><time>2026-03-28T15:50:06Z</time></trkpt><trkpt lat="40.83933801991124" lon="14.634573654497913"><ele>894.0</ele><time>2026-03-28T15:50:07Z</time></trkpt><trkpt lat="40.83939724098886" lon="14.634495029622366"><ele>894.0</ele><time>2026-03-28T15:50:08Z</time></trkpt><trkpt lat="40.83945796432402" lon="14.634406842981239"><ele>894.0</ele><time>2026-03-28T15:50:09Z</time></trkpt><trkpt lat="40.839509815291116" lon="14.634335195447935"><ele>894.0</ele><time>2026-03-28T15:50:10Z</time></trkpt><trkpt lat="40.839555002655" lon="14.634267386855711"><ele>893.8000000000001</ele><time>2026-03-28T15:50:11Z</time></trkpt><trkpt lat="40.83963069666464" lon="14.634128005055393"><ele>893.6000000000001</ele><time>2026-03-28T15:50:13Z</time></trkpt><trkpt lat="40.8396655015175" lon="14.63404917447474"><ele>893.4</ele><time>2026-03-28T15:50:14Z</time></trkpt><trkpt lat="40.839738037445365" lon="14.6339686658889"><ele>893.2</ele><time>2026-03-28T15:50:16Z</time></trkpt><trkpt lat="40.83985646488872" lon="14.633939343223798"><ele>893.0</ele><time>2026-03-28T15:50:18Z</time></trkpt><trkpt lat="40.83993152888983" lon="14.6339342980952"><ele>893.0</ele><time>2026-03-28T15:50:19Z</time></trkpt><trkpt lat="40.84000352343217" lon="14.633925772766409"><ele>893.0</ele><time>2026-03-28T15:50:20Z</time></trkpt><trkpt lat="40.84010564965078" lon="14.63389740164663"><ele>893.0</ele><time>2026-03-28T15:50:22Z</time></trkpt><trkpt lat="40.84016837824667" lon="14.633815638769969"><ele>893.0</ele><time>2026-03-28T15:50:24Z</time></trkpt><trkpt lat="40.840176870934584" lon="14.633655256997153"><ele>893.0</ele><time>2026-03-28T15:50:26Z</time></trkpt><trkpt lat="40.84019245961572" lon="14.63354486610743"><ele>890.6666666666667</ele><time>2026-03-28T15:50:27Z</time></trkpt><trkpt lat="40.84022491490744" lon="14.633463869942174"><ele>888.3333333333334</ele><time>2026-03-28T15:50:28Z</time></trkpt><trkpt lat="40.84026877481322" lon="14.633393391684338"><ele>886.0</ele><time>2026-03-28T15:50:29Z</time></trkpt><trkpt lat="40.840315398946466" lon="14.633318488936295"><ele>883.6666666666667</ele><time>2026-03-28T15:50:30Z</time></trkpt><trkpt lat="40.84038703749769" lon="14.633260682589908"><ele>881.3333333333334</ele><time>2026-03-28T15:50:31Z</time></trkpt><trkpt lat="40.840458849369185" lon="14.633204821525615"><ele>879.0</ele><time>2026-03-28T15:50:32Z</time></trkpt><trkpt lat="40.84051796310178" lon="14.633134035407137"><ele>879.0</ele><time>2026-03-28T15:50:33Z</time></trkpt><trkpt lat="40.840556491825666" lon="14.63304292034476"><ele>879.0</ele><time>2026-03-28T15:50:34Z</time></trkpt><trkpt lat="40.84060208951568" lon="14.632958300252588"><ele>879.0</ele><time>2026-03-28T15:50:35Z</time></trkpt><trkpt lat="40.84066160189347" lon="14.63288552618629"><ele>879.0</ele><time>2026-03-28T15:50:36Z</time></trkpt><trkpt lat="40.8407319222781" lon="14.632827593608189"><ele>879.0</ele><time>2026-03-28T15:50:36.999Z</time></trkpt><trkpt lat="40.840801843611786" lon="14.632777006418703"><ele>879.0</ele><time>2026-03-28T15:50:37.999Z</time></trkpt><trkpt lat="40.84087162394186" lon="14.632726169681005"><ele>876.5</ele><time>2026-03-28T15:50:38.999Z</time></trkpt><trkpt lat="40.840939512224736" lon="14.63267860304436"><ele>874.0</ele><time>2026-03-28T15:50:39.999Z</time></trkpt><trkpt lat="40.84101373481128" lon="14.632641013271842"><ele>871.5</ele><time>2026-03-28T15:50:40.999Z</time></trkpt><trkpt lat="40.84108784127019" lon="14.632606476393724"><ele>869.0</ele><time>2026-03-28T15:50:41.999Z</time></trkpt><trkpt lat="40.84116646183673" lon="14.632569188082542"><ele>866.5</ele><time>2026-03-28T15:50:42.999Z</time></trkpt><trkpt lat="40.84124537708756" lon="14.632542333071887"><ele>864.0</ele><time>2026-03-28T15:50:43.999Z</time></trkpt><trkpt lat="40.84132256458448" lon="14.632543953132556"><ele>864.0</ele><time>2026-03-28T15:50:44.999Z</time></trkpt><trkpt lat="40.8413891654275" lon="14.63251874963997"><ele>864.0</ele><time>2026-03-28T15:50:45.999Z</time></trkpt><trkpt lat="40.84143879752366" lon="14.63246695201965"><ele>864.0</ele><time>2026-03-28T15:50:46.999Z</time></trkpt><trkpt lat="40.841501301017956" lon="14.632326785240222"><ele>864.0</ele><time>2026-03-28T15:50:48.999Z</time></trkpt><trkpt lat="40.84150330912266" lon="14.632219562425904"><ele>864.0</ele><time>2026-03-28T15:50:49.999Z</time></trkpt><trkpt lat="40.841489750697285" lon="14.63210918571934"><ele>864.0</ele><time>2026-03-28T15:50:50.999Z</time></trkpt><trkpt lat="40.84148908823059" lon="14.631978789879922"><ele>860.5</ele><time>2026-03-28T15:50:51.999Z</time></trkpt><trkpt lat="40.84148507037963" lon="14.631830125628717"><ele>857.0</ele><time>2026-03-28T15:50:52.999Z</time></trkpt><trkpt lat="40.841482293127164" lon="14.631670924483588"><ele>853.5</ele><time>2026-03-28T15:50:53.999Z</time></trkpt><trkpt lat="40.84149160026639" lon="14.63149556225251"><ele>850.0</ele><time>2026-03-28T15:50:54.999Z</time></trkpt><trkpt lat="40.84150686249645" lon="14.631305199397818"><ele>848.75</ele><time>2026-03-28T15:50:55.999Z</time></trkpt><trkpt lat="40.84152671763946" lon="14.631106018943608"><ele>847.5</ele><time>2026-03-28T15:50:56.999Z</time></trkpt><trkpt lat="40.84155415781873" lon="14.63091004157203"><ele>846.25</ele><time>2026-03-28T15:50:57.999Z</time></trkpt><trkpt lat="40.841595822941386" lon="14.6307412126887"><ele>845.0</ele><time>2026-03-28T15:50:58.999Z</time></trkpt><trkpt lat="40.84163567959846" lon="14.630561775739553"><ele>845.0</ele><time>2026-03-28T15:50:59.999Z</time></trkpt><trkpt lat="40.84167777105226" lon="14.630376372650549"><ele>845.0</ele><time>2026-03-28T15:51:00.999Z</time></trkpt><trkpt lat="40.84172280428516" lon="14.630194775894282"><ele>845.0</ele><time>2026-03-28T15:51:01.999Z</time></trkpt><trkpt lat="40.84177407302656" lon="14.630021849588694"><ele>845.0</ele><time>2026-03-28T15:51:02.999Z</time></trkpt><trkpt lat="40.84182413317247" lon="14.62985220026921"><ele>845.3333333333334</ele><time>2026-03-28T15:51:03.999Z</time></trkpt><trkpt lat="40.84186572230692" lon="14.629671296917946"><ele>845.6666666666667</ele><time>2026-03-28T15:51:04.999Z</time></trkpt><trkpt lat="40.841896859285455" lon="14.629471404860261"><ele>846.0</ele><time>2026-03-28T15:51:05.999Z</time></trkpt><trkpt lat="40.841931833508546" lon="14.629263304486916"><ele>844.3333333333333</ele><time>2026-03-28T15:51:06.999Z</time></trkpt><trkpt lat="40.84197656710466" lon="14.629058617904782"><ele>842.6666666666666</ele><time>2026-03-28T15:51:07.999Z</time></trkpt><trkpt lat="40.84202559648993" lon="14.628857434072392"><ele>841.0</ele><time>2026-03-28T15:51:08.999Z</time></trkpt><trkpt lat="40.84207046937825" lon="14.628662560921287"><ele>839.75</ele><time>2026-03-28T15:51:09.999Z</time></trkpt><trkpt lat="40.84211290304762" lon="14.628470171907386"><ele>838.5</ele><time>2026-03-28T15:51:10.999Z</time></trkpt><trkpt lat="40.842154705741656" lon="14.628286499398776"><ele>837.25</ele><time>2026-03-28T15:51:11.999Z</time></trkpt><trkpt lat="40.8421972400179" lon="14.62811094922117"><ele>836.0</ele><time>2026-03-28T15:51:12.999Z</time></trkpt><trkpt lat="40.842243342788684" lon="14.627934485000523"><ele>835.25</ele><time>2026-03-28T15:51:13.999Z</time></trkpt><trkpt lat="40.84229076712935" lon="14.62775752331956"><ele>834.5</ele><time>2026-03-28T15:51:14.999Z</time></trkpt><trkpt lat="40.842335988406646" lon="14.627576784310813"><ele>833.75</ele><time>2026-03-28T15:51:15.999Z</time></trkpt><trkpt lat="40.84237656108284" lon="14.627392491954044"><ele>833.0</ele><time>2026-03-28T15:51:16.999Z</time></trkpt><trkpt lat="40.84240768599289" lon="14.627223014792754"><ele>833.0</ele><time>2026-03-28T15:51:17.999Z</time></trkpt><trkpt lat="40.84244184712085" lon="14.627078309841588"><ele>833.0</ele><time>2026-03-28T15:51:18.999Z</time></trkpt><trkpt lat="40.84249530495279" lon="14.626963329748165"><ele>833.0</ele><time>2026-03-28T15:51:19.999Z</time></trkpt><trkpt lat="40.84256458016154" lon="14.626861713457496"><ele>833.0</ele><time>2026-03-28T15:51:20.999Z</time></trkpt><trkpt lat="40.842656297664895" lon="14.626753454613885"><ele>833.0</ele><time>2026-03-28T15:51:21.999Z</time></trkpt><trkpt lat="40.842754944868844" lon="14.626639718895694"><ele>832.25</ele><time>2026-03-28T15:51:22.999Z</time></trkpt><trkpt lat="40.84285955668568" lon="14.626520318489979"><ele>831.5</ele><time>2026-03-28T15:51:23.999Z</time></trkpt><trkpt lat="40.84296082299224" lon="14.626407624266083"><ele>830.75</ele><time>2026-03-28T15:51:24.999Z</time></trkpt><trkpt lat="40.843053394864306" lon="14.62629608155161"><ele>830.0</ele><time>2026-03-28T15:51:25.999Z</time></trkpt><trkpt lat="40.843136478428264" lon="14.626188039159809"><ele>830.0</ele><time>2026-03-28T15:51:26.999Z</time></trkpt><trkpt lat="40.843216977867534" lon="14.626071812321632"><ele>830.0</ele><time>2026-03-28T15:51:27.999Z</time></trkpt><trkpt lat="40.84330203109622" lon="14.625955530961544"><ele>830.0</ele><time>2026-03-28T15:51:28.999Z</time></trkpt><trkpt lat="40.84339818639814" lon="14.62583912987476"><ele>830.0</ele><time>2026-03-28T15:51:29.999Z</time></trkpt><trkpt lat="40.84350319158204" lon="14.625723635432056"><ele>830.0</ele><time>2026-03-28T15:51:30.999Z</time></trkpt><trkpt lat="40.84360330034097" lon="14.625610171715104"><ele>830.0</ele><time>2026-03-28T15:51:31.999Z</time></trkpt><trkpt lat="40.84369836769929" lon="14.625499374812467"><ele>830.0</ele><time>2026-03-28T15:51:32.999Z</time></trkpt><trkpt lat="40.84379375442935" lon="14.625385075032572"><ele>830.0</ele><time>2026-03-28T15:51:33.999Z</time></trkpt><trkpt lat="40.843892902513815" lon="14.625252966405514"><ele>829.75</ele><time>2026-03-28T15:51:34.999Z</time></trkpt><trkpt lat="40.84398585849108" lon="14.625106561355038"><ele>829.5</ele><time>2026-03-28T15:51:35.998Z</time></trkpt><trkpt lat="40.84406779314914" lon="14.624959029115818"><ele>829.25</ele><time>2026-03-28T15:51:36.998Z</time></trkpt><trkpt lat="40.84414408948455" lon="14.624831022827989"><ele>829.0</ele><time>2026-03-28T15:51:37.998Z</time></trkpt><trkpt lat="40.84420677544755" lon="14.624727417237745"><ele>829.0</ele><time>2026-03-28T15:51:38.998Z</time></trkpt><trkpt lat="40.8442573927669" lon="14.624610197360232"><ele>829.0</ele><time>2026-03-28T15:51:39.998Z</time></trkpt><trkpt lat="40.844299085537614" lon="14.624464051871115"><ele>829.0</ele><time>2026-03-28T15:51:40.998Z</time></trkpt><trkpt lat="40.84432699945042" lon="14.624297407377963"><ele>829.0</ele><time>2026-03-28T15:51:41.998Z</time></trkpt><trkpt lat="40.844356515755614" lon="14.624144818197589"><ele>829.6</ele><time>2026-03-28T15:51:42.998Z</time></trkpt><trkpt lat="40.84439767690968" lon="14.624007332524226"><ele>830.2</ele><time>2026-03-28T15:51:43.998Z</time></trkpt><trkpt lat="40.8444488220047" lon="14.62388053862273"><ele>830.8000000000001</ele><time>2026-03-28T15:51:44.998Z</time></trkpt><trkpt lat="40.84450208814861" lon="14.623757056664045"><ele>831.4000000000001</ele><time>2026-03-28T15:51:45.998Z</time></trkpt><trkpt lat="40.84454593217146" lon="14.623614283146123"><ele>832.0</ele><time>2026-03-28T15:51:46.998Z</time></trkpt><trkpt lat="40.844579115432325" lon="14.623449494858777"><ele>827.0</ele><time>2026-03-28T15:51:48Z</time></trkpt><trkpt lat="40.84460276645547" lon="14.6232799134043"><ele>822.0</ele><time>2026-03-28T15:51:49Z</time></trkpt><trkpt lat="40.84462895354711" lon="14.623115461250466"><ele>817.0</ele><time>2026-03-28T15:51:50Z</time></trkpt><trkpt lat="40.84465962815584" lon="14.62294992532687"><ele>812.0</ele><time>2026-03-28T15:51:51Z</time></trkpt><trkpt lat="40.84469971109825" lon="14.622780446668443"><ele>809.25</ele><time>2026-03-28T15:51:52Z</time></trkpt><trkpt lat="40.844744618523876" lon="14.622626048830682"><ele>806.5</ele><time>2026-03-28T15:51:53Z</time></trkpt><trkpt lat="40.84480331911519" lon="14.622488847456385"><ele>803.75</ele><time>2026-03-28T15:51:54Z</time></trkpt><trkpt lat="40.84487355219862" lon="14.622355130695858"><ele>801.0</ele><time>2026-03-28T15:51:55Z</time></trkpt><trkpt lat="40.8449469398096" lon="14.622201411379951"><ele>801.0</ele><time>2026-03-28T15:51:56Z</time></trkpt><trkpt lat="40.845003267557864" lon="14.622039519053782"><ele>801.0</ele><time>2026-03-28T15:51:57Z</time></trkpt><trkpt lat="40.8450549659229" lon="14.621871488833621"><ele>801.0</ele><time>2026-03-28T15:51:58Z</time></trkpt><trkpt lat="40.845105658281156" lon="14.621695384677393"><ele>801.0</ele><time>2026-03-28T15:51:59Z</time></trkpt><trkpt lat="40.84515669960186" lon="14.62151607057397"><ele>798.25</ele><time>2026-03-28T15:52:00Z</time></trkpt><trkpt lat="40.845198580013445" lon="14.621345555080708"><ele>795.5</ele><time>2026-03-28T15:52:01Z</time></trkpt><trkpt lat="40.84523113452188" lon="14.621182460843963"><ele>792.75</ele><time>2026-03-28T15:52:02Z</time></trkpt><trkpt lat="40.845259478282316" lon="14.621024336748022"><ele>790.0</ele><time>2026-03-28T15:52:03Z</time></trkpt><trkpt lat="40.84528924999933" lon="14.62086269144843"><ele>788.75</ele><time>2026-03-28T15:52:04Z</time></trkpt><trkpt lat="40.845328974499175" lon="14.620703804267254"><ele>787.5</ele><time>2026-03-28T15:52:05Z</time></trkpt><trkpt lat="40.845378354615505" lon="14.620542896582185"><ele>786.25</ele><time>2026-03-28T15:52:06Z</time></trkpt><trkpt lat="40.845432931432825" lon="14.620378034599442"><ele>785.0</ele><time>2026-03-28T15:52:07Z</time></trkpt><trkpt lat="40.84549342021556" lon="14.620236600996646"><ele>784.5</ele><time>2026-03-28T15:52:08Z</time></trkpt><trkpt lat="40.845556323246825" lon="14.620109889713836"><ele>784.0</ele><time>2026-03-28T15:52:09Z</time></trkpt><trkpt lat="40.845614371806604" lon="14.619976185330648"><ele>783.5</ele><time>2026-03-28T15:52:10Z</time></trkpt><trkpt lat="40.845656966050065" lon="14.619813932689546"><ele>783.0</ele><time>2026-03-28T15:52:11Z</time></trkpt><trkpt lat="40.84567329791167" lon="14.619654059604342"><ele>783.0</ele><time>2026-03-28T15:52:12Z</time></trkpt><trkpt lat="40.84566016812104" lon="14.619485987751945"><ele>783.0</ele><time>2026-03-28T15:52:13Z</time></trkpt><trkpt lat="40.84564052753887" lon="14.61931235036066"><ele>783.0</ele><time>2026-03-28T15:52:14Z</time></trkpt><trkpt lat="40.845631317013186" lon="14.619143231518718"><ele>783.0</ele><time>2026-03-28T15:52:15Z</time></trkpt><trkpt lat="40.84562999723932" lon="14.61897858157112"><ele>781.5</ele><time>2026-03-28T15:52:16Z</time></trkpt><trkpt lat="40.845625769858245" lon="14.618812756473154"><ele>780.0</ele><time>2026-03-28T15:52:17Z</time></trkpt><trkpt lat="40.84562163221775" lon="14.618656279918996"><ele>778.5</ele><time>2026-03-28T15:52:18Z</time></trkpt><trkpt lat="40.84561655922999" lon="14.618498130247502"><ele>777.0</ele><time>2026-03-28T15:52:19Z</time></trkpt><trkpt lat="40.845596230000154" lon="14.618333816983279"><ele>775.75</ele><time>2026-03-28T15:52:20Z</time></trkpt><trkpt lat="40.84555686271601" lon="14.618181664678618"><ele>774.5</ele><time>2026-03-28T15:52:21Z</time></trkpt><trkpt lat="40.84551145961469" lon="14.618043767438262"><ele>773.25</ele><time>2026-03-28T15:52:22Z</time></trkpt><trkpt lat="40.84548096800686" lon="14.617894305101453"><ele>772.0</ele><time>2026-03-28T15:52:23Z</time></trkpt><trkpt lat="40.84547237076418" lon="14.617734739564572"><ele>770.2</ele><time>2026-03-28T15:52:24Z</time></trkpt><trkpt lat="40.84547300065536" lon="14.617574681866712"><ele>768.4000000000001</ele><time>2026-03-28T15:52:25Z</time></trkpt><trkpt lat="40.84547164523242" lon="14.617424181162292"><ele>766.5999999999999</ele><time>2026-03-28T15:52:26Z</time></trkpt><trkpt lat="40.84546582015282" lon="14.617282310472092"><ele>764.8</ele><time>2026-03-28T15:52:27Z</time></trkpt><trkpt lat="40.8454590517439" lon="14.617154683759875"><ele>763.0</ele><time>2026-03-28T15:52:28Z</time></trkpt><trkpt lat="40.84545565211767" lon="14.617038367296812"><ele>762.5999999999999</ele><time>2026-03-28T15:52:29Z</time></trkpt><trkpt lat="40.84546650196215" lon="14.616937353528488"><ele>762.1999999999999</ele><time>2026-03-28T15:52:30Z</time></trkpt><trkpt lat="40.84550179884926" lon="14.61683567547374"><ele>761.8</ele><time>2026-03-28T15:52:31Z</time></trkpt><trkpt lat="40.84554724922732" lon="14.61672357553201"><ele>761.4</ele><time>2026-03-28T15:52:32Z</time></trkpt><trkpt lat="40.84558082962167" lon="14.61660522639642"><ele>761.0</ele><time>2026-03-28T15:52:33Z</time></trkpt><trkpt lat="40.84559501864053" lon="14.616462897609615"><ele>761.0</ele><time>2026-03-28T15:52:34Z</time></trkpt><trkpt lat="40.845600400947106" lon="14.616328569748145"><ele>761.0</ele><time>2026-03-28T15:52:35Z</time></trkpt><trkpt lat="40.845610908933416" lon="14.616218398878818"><ele>761.0</ele><time>2026-03-28T15:52:36Z</time></trkpt><trkpt lat="40.84562418541104" lon="14.616133297359939"><ele>761.0</ele><time>2026-03-28T15:52:37Z</time></trkpt><trkpt lat="40.845639422829166" lon="14.61604186698749"><ele>761.0</ele><time>2026-03-28T15:52:39Z</time></trkpt><trkpt lat="40.84570484130249" lon="14.615894189623486"><ele>760.1666666666666</ele><time>2026-03-28T15:53:10.999Z</time></trkpt><trkpt lat="40.84574892842214" lon="14.615793838504814"><ele>759.3333333333333</ele><time>2026-03-28T15:53:11.999Z</time></trkpt><trkpt lat="40.84578102785493" lon="14.615716798416758"><ele>758.5</ele><time>2026-03-28T15:53:12.999Z</time></trkpt><trkpt lat="40.845821304593784" lon="14.615629541062974"><ele>757.6666666666666</ele><time>2026-03-28T15:53:13.999Z</time></trkpt><trkpt lat="40.84586745145802" lon="14.61551863256786"><ele>756.8333333333334</ele><time>2026-03-28T15:53:14.999Z</time></trkpt><trkpt lat="40.84592892247484" lon="14.615400618254617"><ele>756.0</ele><time>2026-03-28T15:53:15.999Z</time></trkpt><trkpt lat="40.846009931402236" lon="14.615303461207613"><ele>755.75</ele><time>2026-03-28T15:53:16.999Z</time></trkpt><trkpt lat="40.84611282914341" lon="14.615221828240058"><ele>755.5</ele><time>2026-03-28T15:53:17.999Z</time></trkpt><trkpt lat="40.84621780503912" lon="14.615151650337292"><ele>755.25</ele><time>2026-03-28T15:53:18.999Z</time></trkpt><trkpt lat="40.84632571833569" lon="14.615100856856646"><ele>755.0</ele><time>2026-03-28T15:53:19.999Z</time></trkpt><trkpt lat="40.84643691097813" lon="14.615085739646588"><ele>755.0</ele><time>2026-03-28T15:53:20.999Z</time></trkpt><trkpt lat="40.84653891207664" lon="14.615089796762918"><ele>755.0</ele><time>2026-03-28T15:53:21.999Z</time></trkpt><trkpt lat="40.84663262770043" lon="14.615105933097464"><ele>755.0</ele><time>2026-03-28T15:53:22.999Z</time></trkpt><trkpt lat="40.846721704451056" lon="14.615107024751472"><ele>755.0</ele><time>2026-03-28T15:53:23.999Z</time></trkpt><trkpt lat="40.846803853625836" lon="14.615096521064677"><ele>755.0</ele><time>2026-03-28T15:53:24.999Z</time></trkpt><trkpt lat="40.84687236987902" lon="14.615094390287398"><ele>755.0</ele><time>2026-03-28T15:53:25.999Z</time></trkpt><trkpt lat="40.84697036281569" lon="14.61509183570651"><ele>752.6</ele><time>2026-03-28T15:53:27.999Z</time></trkpt><trkpt lat="40.847066546710266" lon="14.615081130441515"><ele>750.2</ele><time>2026-03-28T15:53:29.999Z</time></trkpt><trkpt lat="40.847198903066435" lon="14.61506613169147"><ele>747.8</ele><time>2026-03-28T15:53:31.999Z</time></trkpt><trkpt lat="40.84726297520075" lon="14.615040173836864"><ele>745.4</ele><time>2026-03-28T15:53:32.999Z</time></trkpt><trkpt lat="40.847368298901365" lon="14.614947541780847"><ele>743.0</ele><time>2026-03-28T15:53:34.999Z</time></trkpt><trkpt lat="40.84742999172613" lon="14.614885442829705"><ele>743.0</ele><time>2026-03-28T15:53:35.999Z</time></trkpt><trkpt lat="40.84749834312855" lon="14.614816100483882"><ele>743.0</ele><time>2026-03-28T15:53:36.999Z</time></trkpt><trkpt lat="40.84758163639994" lon="14.61473243723744"><ele>743.0</ele><time>2026-03-28T15:53:37.999Z</time></trkpt><trkpt lat="40.84766116825292" lon="14.61464256460896"><ele>743.0</ele><time>2026-03-28T15:53:38.999Z</time></trkpt><trkpt lat="40.84773252579685" lon="14.614561646562473"><ele>743.0</ele><time>2026-03-28T15:53:39.999Z</time></trkpt><trkpt lat="40.84780319737982" lon="14.614495069703219"><ele>741.8</ele><time>2026-03-28T15:53:40.999Z</time></trkpt><trkpt lat="40.84788244172964" lon="14.614414861483091"><ele>740.5999999999999</ele><time>2026-03-28T15:53:41.999Z</time></trkpt><trkpt lat="40.847965901414035" lon="14.614336623904908"><ele>739.4000000000001</ele><time>2026-03-28T15:53:42.999Z</time></trkpt><trkpt lat="40.84805766442863" lon="14.614264152298238"><ele>738.2</ele><time>2026-03-28T15:53:43.999Z</time></trkpt><trkpt lat="40.848166752577264" lon="14.614174153032701"><ele>737.0</ele><time>2026-03-28T15:53:44.999Z</time></trkpt><trkpt lat="40.84827572685066" lon="14.614090800474425"><ele>737.0</ele><time>2026-03-28T15:53:45.999Z</time></trkpt><trkpt lat="40.84836431560379" lon="14.614019512162283"><ele>737.0</ele><time>2026-03-28T15:53:46.998Z</time></trkpt><trkpt lat="40.84844017209916" lon="14.61394140339903"><ele>737.0</ele><time>2026-03-28T15:53:47.998Z</time></trkpt><trkpt lat="40.848517572773204" lon="14.613823321591648"><ele>737.0</ele><time>2026-03-28T15:53:48.998Z</time></trkpt><trkpt lat="40.84859097394778" lon="14.613696515430934"><ele>737.0</ele><time>2026-03-28T15:53:49.998Z</time></trkpt><trkpt lat="40.84866641407378" lon="14.613586625980746"><ele>738.2</ele><time>2026-03-28T15:53:50.998Z</time></trkpt><trkpt lat="40.8487422407471" lon="14.613501088166283"><ele>739.4000000000001</ele><time>2026-03-28T15:53:51.998Z</time></trkpt><trkpt lat="40.84882761224756" lon="14.613436134958759"><ele>740.5999999999999</ele><time>2026-03-28T15:53:52.998Z</time></trkpt><trkpt lat="40.84891395114237" lon="14.613392504733286"><ele>741.8</ele><time>2026-03-28T15:53:54Z</time></trkpt><trkpt lat="40.84900941826217" lon="14.613369428609525"><ele>743.0</ele><time>2026-03-28T15:53:55Z</time></trkpt><trkpt lat="40.84912800840798" lon="14.613361293803603"><ele>743.0</ele><time>2026-03-28T15:53:56Z</time></trkpt><trkpt lat="40.84925020755416" lon="14.61335257122372"><ele>743.0</ele><time>2026-03-28T15:53:57Z</time></trkpt><trkpt lat="40.84936569222725" lon="14.613337989349702"><ele>743.0</ele><time>2026-03-28T15:53:58Z</time></trkpt><trkpt lat="40.849462774456704" lon="14.613311870909214"><ele>743.0</ele><time>2026-03-28T15:53:59Z</time></trkpt><trkpt lat="40.84954474724779" lon="14.613278477733331"><ele>743.0</ele><time>2026-03-28T15:54:00Z</time></trkpt><trkpt lat="40.849640580350936" lon="14.613241698707514"><ele>744.4</ele><time>2026-03-28T15:54:01Z</time></trkpt><trkpt lat="40.84974713607651" lon="14.613212577474854"><ele>745.8</ele><time>2026-03-28T15:54:02Z</time></trkpt><trkpt lat="40.849831936742454" lon="14.613199478900817"><ele>747.2</ele><time>2026-03-28T15:54:03Z</time></trkpt><trkpt lat="40.849913707001775" lon="14.613174066867629"><ele>748.6</ele><time>2026-03-28T15:54:04Z</time></trkpt><trkpt lat="40.84999697093511" lon="14.613127323288637"><ele>750.0</ele><time>2026-03-28T15:54:05Z</time></trkpt><trkpt lat="40.850082757685996" lon="14.613067623975477"><ele>750.6666666666666</ele><time>2026-03-28T15:54:06Z</time></trkpt><trkpt lat="40.85016951049599" lon="14.613021475360664"><ele>751.3333333333334</ele><time>2026-03-28T15:54:07Z</time></trkpt><trkpt lat="40.85024920035464" lon="14.612984415871995"><ele>752.0</ele><time>2026-03-28T15:54:08Z</time></trkpt><trkpt lat="40.850325079560946" lon="14.612944170643877"><ele>752.6666666666667</ele><time>2026-03-28T15:54:09Z</time></trkpt><trkpt lat="40.85039931599788" lon="14.612892130492101"><ele>753.3333333333334</ele><time>2026-03-28T15:54:10Z</time></trkpt><trkpt lat="40.85045957572382" lon="14.612839511323331"><ele>754.0</ele><time>2026-03-28T15:54:11Z</time></trkpt><trkpt lat="40.85052971460354" lon="14.612679059625485"><ele>754.75</ele><time>2026-03-28T15:54:13Z</time></trkpt><trkpt lat="40.850576734963376" lon="14.612546914002001"><ele>755.5</ele><time>2026-03-28T15:54:14Z</time></trkpt><trkpt lat="40.85062950494017" lon="14.61240438561502"><ele>756.25</ele><time>2026-03-28T15:54:15Z</time></trkpt><trkpt lat="40.85068625940056" lon="14.61226407664548"><ele>757.0</ele><time>2026-03-28T15:54:16Z</time></trkpt><trkpt lat="40.850734342169055" lon="14.612130471550183"><ele>757.0</ele><time>2026-03-28T15:54:17Z</time></trkpt><trkpt lat="40.85078359966099" lon="14.612010192712512"><ele>757.0</ele><time>2026-03-28T15:54:18Z</time></trkpt><trkpt lat="40.8508443478922" lon="14.611896915604238"><ele>757.0</ele><time>2026-03-28T15:54:19Z</time></trkpt><trkpt lat="40.850924634465045" lon="14.611762768158464"><ele>757.0</ele><time>2026-03-28T15:54:20Z</time></trkpt><trkpt lat="40.85099162031269" lon="14.611633068287327"><ele>757.0</ele><time>2026-03-28T15:54:21Z</time></trkpt><trkpt lat="40.85104273808377" lon="14.611514736191445"><ele>757.0</ele><time>2026-03-28T15:54:22Z</time></trkpt><trkpt lat="40.8510927643369" lon="14.611390001120988"><ele>757.0</ele><time>2026-03-28T15:54:23Z</time></trkpt><trkpt lat="40.85114784875039" lon="14.611248696847682"><ele>757.0</ele><time>2026-03-28T15:54:24Z</time></trkpt><trkpt lat="40.851209682828305" lon="14.611139092070262"><ele>757.0</ele><time>2026-03-28T15:54:25Z</time></trkpt><trkpt lat="40.85129891344393" lon="14.61107956829007"><ele>757.8</ele><time>2026-03-28T15:54:26Z</time></trkpt><trkpt lat="40.85140587171906" lon="14.611018041803966"><ele>758.6</ele><time>2026-03-28T15:54:27Z</time></trkpt><trkpt lat="40.85150921641379" lon="14.610964053729065"><ele>759.4</ele><time>2026-03-28T15:54:28Z</time></trkpt><trkpt lat="40.85160456982113" lon="14.610902291964107"><ele>760.1999999999999</ele><time>2026-03-28T15:54:29Z</time></trkpt><trkpt lat="40.851705405040384" lon="14.6108356104"><ele>761.0</ele><time>2026-03-28T15:54:30Z</time></trkpt><trkpt lat="40.8518087050423" lon="14.61077971955975"><ele>761.5999999999999</ele><time>2026-03-28T15:54:31Z</time></trkpt><trkpt lat="40.85192120534166" lon="14.610750528789962"><ele>762.2</ele><time>2026-03-28T15:54:32Z</time></trkpt><trkpt lat="40.852029066231495" lon="14.61075198594839"><ele>762.8</ele><time>2026-03-28T15:54:33Z</time></trkpt><trkpt lat="40.85213786494209" lon="14.610774046397648"><ele>763.4000000000001</ele><time>2026-03-28T15:54:34Z</time></trkpt><trkpt lat="40.8522446558431" lon="14.610792994938796"><ele>764.0</ele><time>2026-03-28T15:54:35Z</time></trkpt><trkpt lat="40.85233960560024" lon="14.6108037382896"><ele>764.0</ele><time>2026-03-28T15:54:36Z</time></trkpt><trkpt lat="40.85244685613319" lon="14.610809325349608"><ele>764.0</ele><time>2026-03-28T15:54:37Z</time></trkpt><trkpt lat="40.852556554080756" lon="14.610815021544818"><ele>764.0</ele><time>2026-03-28T15:54:38Z</time></trkpt><trkpt lat="40.85266272948055" lon="14.610824226445239"><ele>764.0</ele><time>2026-03-28T15:54:39Z</time></trkpt><trkpt lat="40.85276607933895" lon="14.610832523842012"><ele>764.0</ele><time>2026-03-28T15:54:40Z</time></trkpt><trkpt lat="40.852869327995" lon="14.6108381576485"><ele>765.6</ele><time>2026-03-28T15:54:41Z</time></trkpt><trkpt lat="40.852964573300405" lon="14.61085228521568"><ele>767.2</ele><time>2026-03-28T15:54:42Z</time></trkpt><trkpt lat="40.85304858737783" lon="14.610873508935589"><ele>768.8000000000001</ele><time>2026-03-28T15:54:43Z</time></trkpt><trkpt lat="40.85312567656727" lon="14.610875416152853"><ele>770.4000000000001</ele><time>2026-03-28T15:54:44Z</time></trkpt><trkpt lat="40.85324295543672" lon="14.610858977960426"><ele>772.0</ele><time>2026-03-28T15:54:46Z</time></trkpt><trkpt lat="40.85332386561618" lon="14.610819467869337"><ele>771.9999999999999</ele><time>2026-03-28T15:54:49Z</time></trkpt><trkpt lat="40.85336135608403" lon="14.610751164194825"><ele>772.0</ele><time>2026-03-28T15:54:50Z</time></trkpt><trkpt lat="40.85338266788918" lon="14.61065362582479"><ele>772.0</ele><time>2026-03-28T15:54:51Z</time></trkpt><trkpt lat="40.853380525171026" lon="14.610518206187871"><ele>772.0</ele><time>2026-03-28T15:54:52Z</time></trkpt><trkpt lat="40.853373776967324" lon="14.6103852101122"><ele>771.9999999999999</ele><time>2026-03-28T15:54:53Z</time></trkpt><trkpt lat="40.853389415525" lon="14.610280370341288"><ele>772.0</ele><time>2026-03-28T15:54:54Z</time></trkpt><trkpt lat="40.85338359008997" lon="14.610184627591885"><ele>772.0</ele><time>2026-03-28T15:54:55Z</time></trkpt><trkpt lat="40.853340339977315" lon="14.610097075904793"><ele>772.0</ele><time>2026-03-28T15:54:56Z</time></trkpt><trkpt lat="40.8532713866693" lon="14.610007981670032"><ele>772.0</ele><time>2026-03-28T15:54:57Z</time></trkpt><trkpt lat="40.85317292408858" lon="14.609911955732924"><ele>772.0</ele><time>2026-03-28T15:54:57.999Z</time></trkpt><trkpt lat="40.85308501521881" lon="14.609835411151513"><ele>772.0</ele><time>2026-03-28T15:54:58.999Z</time></trkpt><trkpt lat="40.853023238784765" lon="14.609772828886301"><ele>772.0</ele><time>2026-03-28T15:54:59.999Z</time></trkpt><trkpt lat="40.85295884066102" lon="14.609665827036672"><ele>772.0</ele><time>2026-03-28T15:55:00.999Z</time></trkpt><trkpt lat="40.85289306923667" lon="14.609526766761984"><ele>772.0</ele><time>2026-03-28T15:55:01.999Z</time></trkpt><trkpt lat="40.852835193113435" lon="14.609399247899935"><ele>772.0</ele><time>2026-03-28T15:55:02.999Z</time></trkpt><trkpt lat="40.85277067789517" lon="14.609304458065438"><ele>772.0</ele><time>2026-03-28T15:55:03.999Z</time></trkpt><trkpt lat="40.8527181633806" lon="14.609214369816591"><ele>772.6666666666666</ele><time>2026-03-28T15:55:04.999Z</time></trkpt><trkpt lat="40.85267841079045" lon="14.609109238446655"><ele>773.3333333333333</ele><time>2026-03-28T15:55:05.999Z</time></trkpt><trkpt lat="40.85263748600104" lon="14.608990800509412"><ele>774.0</ele><time>2026-03-28T15:55:06.999Z</time></trkpt><trkpt lat="40.85260138536858" lon="14.60888725152178"><ele>774.6666666666667</ele><time>2026-03-28T15:55:07.999Z</time></trkpt><trkpt lat="40.85256596446159" lon="14.60879286012061"><ele>775.3333333333334</ele><time>2026-03-28T15:55:08.999Z</time></trkpt><trkpt lat="40.85253227104038" lon="14.608701657857901"><ele>776.0</ele><time>2026-03-28T15:55:09.999Z</time></trkpt><trkpt lat="40.85252176191121" lon="14.608590509615068"><ele>772.25</ele><time>2026-03-28T15:55:10.999Z</time></trkpt><trkpt lat="40.85253188978011" lon="14.608455162077178"><ele>768.5</ele><time>2026-03-28T15:55:11.999Z</time></trkpt><trkpt lat="40.8525464876834" lon="14.60830835649505"><ele>764.75</ele><time>2026-03-28T15:55:12.999Z</time></trkpt><trkpt lat="40.85256735261972" lon="14.608161108601593"><ele>761.0</ele><time>2026-03-28T15:55:13.999Z</time></trkpt><trkpt lat="40.85260847470512" lon="14.608003385593534"><ele>765.25</ele><time>2026-03-28T15:55:14.999Z</time></trkpt><trkpt lat="40.852651923240984" lon="14.607867174466637"><ele>769.5</ele><time>2026-03-28T15:55:15.999Z</time></trkpt><trkpt lat="40.852681730155915" lon="14.607741803010482"><ele>773.75</ele><time>2026-03-28T15:55:16.999Z</time></trkpt><trkpt lat="40.852702505946574" lon="14.607569882064931"><ele>778.0</ele><time>2026-03-28T15:55:17.999Z</time></trkpt><trkpt lat="40.85269883332465" lon="14.607418607457966"><ele>778.0</ele><time>2026-03-28T15:55:18.999Z</time></trkpt><trkpt lat="40.85268980073609" lon="14.607270322132356"><ele>778.0</ele><time>2026-03-28T15:55:19.999Z</time></trkpt><trkpt lat="40.85270238872171" lon="14.60711355387469"><ele>778.0</ele><time>2026-03-28T15:55:20.999Z</time></trkpt><trkpt lat="40.852732671313326" lon="14.6069752460447"><ele>778.0</ele><time>2026-03-28T15:55:21.999Z</time></trkpt><trkpt lat="40.85276076112903" lon="14.606838903575001"><ele>778.0</ele><time>2026-03-28T15:55:22.999Z</time></trkpt><trkpt lat="40.85277690660606" lon="14.60670730988216"><ele>777.1666666666666</ele><time>2026-03-28T15:55:23.999Z</time></trkpt><trkpt lat="40.85277497449038" lon="14.606587757436335"><ele>776.3333333333333</ele><time>2026-03-28T15:55:24.999Z</time></trkpt><trkpt lat="40.85277393993919" lon="14.60649260323738"><ele>775.5</ele><time>2026-03-28T15:55:25.999Z</time></trkpt><trkpt lat="40.85277387264335" lon="14.606401618164208"><ele>774.6666666666667</ele><time>2026-03-28T15:55:26.999Z</time></trkpt><trkpt lat="40.85276020354982" lon="14.606291199105943"><ele>773.8333333333334</ele><time>2026-03-28T15:55:28.999Z</time></trkpt><trkpt lat="40.85274544412349" lon="14.60620548556394"><ele>773.0</ele><time>2026-03-28T15:55:48.999Z</time></trkpt><trkpt lat="40.852745735674596" lon="14.606348561069629"><ele>773.0000000000001</ele><time>2026-03-28T15:56:17Z</time></trkpt><trkpt lat="40.85274878498686" lon="14.606450165254143"><ele>773.0</ele><time>2026-03-28T15:56:18Z</time></trkpt><trkpt lat="40.85274807863844" lon="14.606536611021232"><ele>773.0</ele><time>2026-03-28T15:56:19Z</time></trkpt><trkpt lat="40.85274818698556" lon="14.60668959184812"><ele>773.0</ele><time>2026-03-28T15:56:21Z</time></trkpt><trkpt lat="40.85272002924439" lon="14.606775951443984"><ele>773.0000000000001</ele><time>2026-03-28T15:56:24Z</time></trkpt><trkpt lat="40.852639606490456" lon="14.606717665108778"><ele>773.0</ele><time>2026-03-28T15:56:27Z</time></trkpt><trkpt lat="40.85261419225333" lon="14.606611220563313"><ele>768.5999999999999</ele><time>2026-03-28T15:56:29Z</time></trkpt><trkpt lat="40.85257406672902" lon="14.606513199223315"><ele>764.1999999999999</ele><time>2026-03-28T15:56:31Z</time></trkpt><trkpt lat="40.85251958781835" lon="14.606419684314114"><ele>759.8</ele><time>2026-03-28T15:56:33Z</time></trkpt><trkpt lat="40.85245475996206" lon="14.60630890650352"><ele>755.4</ele><time>2026-03-28T15:56:35Z</time></trkpt><trkpt lat="40.85239811263131" lon="14.606153980075323"><ele>751.0</ele><time>2026-03-28T15:56:37Z</time></trkpt><trkpt lat="40.852386298640745" lon="14.606066566129789"><ele>750.0</ele><time>2026-03-28T15:56:38Z</time></trkpt><trkpt lat="40.85236971335916" lon="14.605903514536335"><ele>749.0</ele><time>2026-03-28T15:56:40Z</time></trkpt><trkpt lat="40.85234719623008" lon="14.605820531990695"><ele>748.0</ele><time>2026-03-28T15:56:41Z</time></trkpt><trkpt lat="40.852319532684135" lon="14.605742979908815"><ele>747.0</ele><time>2026-03-28T15:56:42Z</time></trkpt><trkpt lat="40.85226484740517" lon="14.60561622164355"><ele>746.0</ele><time>2026-03-28T15:56:44Z</time></trkpt><trkpt lat="40.85222083395208" lon="14.605546588351412"><ele>745.0</ele><time>2026-03-28T15:56:45Z</time></trkpt><trkpt lat="40.85216108351361" lon="14.605474626114674"><ele>745.0</ele><time>2026-03-28T15:56:46Z</time></trkpt><trkpt lat="40.85208897030836" lon="14.605390998600404"><ele>745.0</ele><time>2026-03-28T15:56:47Z</time></trkpt><trkpt lat="40.85200971508022" lon="14.605308583276885"><ele>745.0</ele><time>2026-03-28T15:56:48Z</time></trkpt><trkpt lat="40.85194565042944" lon="14.605248853112402"><ele>745.0</ele><time>2026-03-28T15:56:49Z</time></trkpt><trkpt lat="40.851884448278476" lon="14.60518507609357"><ele>745.0</ele><time>2026-03-28T15:56:50Z</time></trkpt><trkpt lat="40.85182913472175" lon="14.605101846664734"><ele>745.0</ele><time>2026-03-28T15:56:51Z</time></trkpt><trkpt lat="40.851786176856464" lon="14.604989749052779"><ele>744.4</ele><time>2026-03-28T15:56:52Z</time></trkpt><trkpt lat="40.85173960435893" lon="14.604863320647802"><ele>743.8</ele><time>2026-03-28T15:56:53Z</time></trkpt><trkpt lat="40.85169131592008" lon="14.604741036663327"><ele>743.2</ele><time>2026-03-28T15:56:54Z</time></trkpt><trkpt lat="40.85168718295073" lon="14.604630343643935"><ele>742.6</ele><time>2026-03-28T15:56:55Z</time></trkpt><trkpt lat="40.851672129744" lon="14.604486089580266"><ele>742.0</ele><time>2026-03-28T15:56:56Z</time></trkpt><trkpt lat="40.8516754534288" lon="14.604309006055605"><ele>741.25</ele><time>2026-03-28T15:56:57Z</time></trkpt><trkpt lat="40.8516904529015" lon="14.604120838587084"><ele>740.5</ele><time>2026-03-28T15:56:58Z</time></trkpt><trkpt lat="40.85171247377724" lon="14.603957743229351"><ele>739.75</ele><time>2026-03-28T15:56:59Z</time></trkpt><trkpt lat="40.85170233982852" lon="14.6037929851892"><ele>739.0</ele><time>2026-03-28T15:57:00Z</time></trkpt><trkpt lat="40.85169211375611" lon="14.603654654337815"><ele>738.75</ele><time>2026-03-28T15:57:01Z</time></trkpt><trkpt lat="40.85169220460317" lon="14.60352465289524"><ele>738.5</ele><time>2026-03-28T15:57:02Z</time></trkpt><trkpt lat="40.85170520656263" lon="14.603392522853628"><ele>738.25</ele><time>2026-03-28T15:57:03Z</time></trkpt><trkpt lat="40.8517270861649" lon="14.603241138551189"><ele>738.0</ele><time>2026-03-28T15:57:04Z</time></trkpt><trkpt lat="40.85175453425811" lon="14.603049327764435"><ele>738.0</ele><time>2026-03-28T15:57:05Z</time></trkpt><trkpt lat="40.85177440811753" lon="14.602868610409182"><ele>738.0</ele><time>2026-03-28T15:57:06Z</time></trkpt><trkpt lat="40.85179927665947" lon="14.602694748113182"><ele>738.0</ele><time>2026-03-28T15:57:07Z</time></trkpt><trkpt lat="40.85182681335468" lon="14.602545040877828"><ele>738.0</ele><time>2026-03-28T15:57:08Z</time></trkpt><trkpt lat="40.85185238481291" lon="14.602417638249694"><ele>734.25</ele><time>2026-03-28T15:57:08.999Z</time></trkpt><trkpt lat="40.851887074800665" lon="14.60224321858492"><ele>730.5</ele><time>2026-03-28T15:57:09.999Z</time></trkpt><trkpt lat="40.851910040112486" lon="14.602100634164673"><ele>726.75</ele><time>2026-03-28T15:57:10.999Z</time></trkpt><trkpt lat="40.85193161744904" lon="14.601969678158614"><ele>723.0</ele><time>2026-03-28T15:57:11.999Z</time></trkpt><trkpt lat="40.85193806292351" lon="14.60182764430423"><ele>721.8</ele><time>2026-03-28T15:57:12.999Z</time></trkpt><trkpt lat="40.851924206750084" lon="14.601700244362343"><ele>720.5999999999999</ele><time>2026-03-28T15:57:13.999Z</time></trkpt><trkpt lat="40.85189788517365" lon="14.601561873930889"><ele>719.4000000000001</ele><time>2026-03-28T15:57:14.999Z</time></trkpt><trkpt lat="40.85185374193468" lon="14.601420625963787"><ele>718.2</ele><time>2026-03-28T15:57:15.999Z</time></trkpt><trkpt lat="40.85176517166821" lon="14.601332073428258"><ele>717.0</ele><time>2026-03-28T15:57:16.999Z</time></trkpt><trkpt lat="40.851675690308056" lon="14.601253635592796"><ele>716.75</ele><time>2026-03-28T15:57:17.999Z</time></trkpt><trkpt lat="40.85156975002291" lon="14.601195710116999"><ele>716.5</ele><time>2026-03-28T15:57:18.999Z</time></trkpt><trkpt lat="40.85144816405516" lon="14.601160099198863"><ele>716.25</ele><time>2026-03-28T15:57:19.999Z</time></trkpt><trkpt lat="40.8513285365536" lon="14.601135928649061"><ele>716.0</ele><time>2026-03-28T15:57:20.999Z</time></trkpt><trkpt lat="40.85121189505539" lon="14.601088870516328"><ele>716.0</ele><time>2026-03-28T15:57:21.999Z</time></trkpt><trkpt lat="40.851092858798566" lon="14.601041886682895"><ele>716.0</ele><time>2026-03-28T15:57:22.999Z</time></trkpt><trkpt lat="40.85096866650688" lon="14.601010774806138"><ele>716.0</ele><time>2026-03-28T15:57:23.999Z</time></trkpt><trkpt lat="40.850846146931886" lon="14.6009898203735"><ele>716.0</ele><time>2026-03-28T15:57:24.999Z</time></trkpt><trkpt lat="40.85072610230393" lon="14.600973982973033"><ele>718.75</ele><time>2026-03-28T15:57:25.999Z</time></trkpt><trkpt lat="40.85061068191928" lon="14.600951970122862"><ele>721.5</ele><time>2026-03-28T15:57:26.999Z</time></trkpt><trkpt lat="40.850491317066094" lon="14.600920732584152"><ele>724.25</ele><time>2026-03-28T15:57:27.999Z</time></trkpt><trkpt lat="40.85035544816549" lon="14.600886695347429"><ele>727.0</ele><time>2026-03-28T15:57:28.999Z</time></trkpt><trkpt lat="40.850214702818555" lon="14.60086986128989"><ele>727.0</ele><time>2026-03-28T15:57:29.999Z</time></trkpt><trkpt lat="40.850056575092715" lon="14.600875226018"><ele>727.0</ele><time>2026-03-28T15:57:30.999Z</time></trkpt><trkpt lat="40.84990570435942" lon="14.600885038513415"><ele>727.0</ele><time>2026-03-28T15:57:31.999Z</time></trkpt><trkpt lat="40.849762636027776" lon="14.600905384068836"><ele>727.0</ele><time>2026-03-28T15:57:32.999Z</time></trkpt><trkpt lat="40.84963205891413" lon="14.600931729584039"><ele>727.0</ele><time>2026-03-28T15:57:33.999Z</time></trkpt><trkpt lat="40.849501161415496" lon="14.600955369413773"><ele>727.0</ele><time>2026-03-28T15:57:34.999Z</time></trkpt><trkpt lat="40.849362601263465" lon="14.600982400408798"><ele>727.0</ele><time>2026-03-28T15:57:35.999Z</time></trkpt><trkpt lat="40.84922508645607" lon="14.601026326245725"><ele>724.5</ele><time>2026-03-28T15:57:36.999Z</time></trkpt><trkpt lat="40.84908671816294" lon="14.601077478402704"><ele>722.0</ele><time>2026-03-28T15:57:37.999Z</time></trkpt><trkpt lat="40.848969478195535" lon="14.601145263155907"><ele>719.5</ele><time>2026-03-28T15:57:38.999Z</time></trkpt><trkpt lat="40.848863013969094" lon="14.601207434034652"><ele>717.0</ele><time>2026-03-28T15:57:39.999Z</time></trkpt><trkpt lat="40.84875713503182" lon="14.60128714138988"><ele>721.0</ele><time>2026-03-28T15:57:40.999Z</time></trkpt><trkpt lat="40.848641181897406" lon="14.601354504432635"><ele>725.0</ele><time>2026-03-28T15:57:41.999Z</time></trkpt><trkpt lat="40.84851020129827" lon="14.601387297161205"><ele>729.0</ele><time>2026-03-28T15:57:42.999Z</time></trkpt><trkpt lat="40.84837522808313" lon="14.601379993650722"><ele>733.0</ele><time>2026-03-28T15:57:43.999Z</time></trkpt><trkpt lat="40.84824882168627" lon="14.601394876166752"><ele>733.0</ele><time>2026-03-28T15:57:44.999Z</time></trkpt><trkpt lat="40.848150407596414" lon="14.601437485689427"><ele>733.0</ele><time>2026-03-28T15:57:45.999Z</time></trkpt><trkpt lat="40.84803543941927" lon="14.601453928894912"><ele>733.0</ele><time>2026-03-28T15:57:46.999Z</time></trkpt><trkpt lat="40.84791549822293" lon="14.601469845929431"><ele>733.0</ele><time>2026-03-28T15:57:47.999Z</time></trkpt><trkpt lat="40.84780156148201" lon="14.601489977292257"><ele>733.0</ele><time>2026-03-28T15:57:48.999Z</time></trkpt><trkpt lat="40.84769506453506" lon="14.601502766701165"><ele>733.0</ele><time>2026-03-28T15:57:49.999Z</time></trkpt><trkpt lat="40.847564742779646" lon="14.601503012883244"><ele>733.0</ele><time>2026-03-28T15:57:50.999Z</time></trkpt><trkpt lat="40.84742860917441" lon="14.601508074591724"><ele>733.0</ele><time>2026-03-28T15:57:51.999Z</time></trkpt><trkpt lat="40.84731454071236" lon="14.601505965862533"><ele>731.1666666666667</ele><time>2026-03-28T15:57:52.999Z</time></trkpt><trkpt lat="40.847203869614255" lon="14.601501987312297"><ele>729.3333333333334</ele><time>2026-03-28T15:57:53.999Z</time></trkpt><trkpt lat="40.84711208548013" lon="14.60147888087195"><ele>727.5</ele><time>2026-03-28T15:57:54.999Z</time></trkpt><trkpt lat="40.84701453103139" lon="14.601458259914105"><ele>725.6666666666666</ele><time>2026-03-28T15:57:55.999Z</time></trkpt><trkpt lat="40.84694008140064" lon="14.601441873433382"><ele>723.8333333333333</ele><time>2026-03-28T15:57:56.999Z</time></trkpt><trkpt lat="40.84687786941248" lon="14.601422292456023"><ele>722.0</ele><time>2026-03-28T15:57:57.999Z</time></trkpt><trkpt lat="40.846804579569586" lon="14.601331314200726"><ele>720.0</ele><time>2026-03-28T15:57:59.999Z</time></trkpt><trkpt lat="40.846773373558094" lon="14.601214660326102"><ele>718.0</ele><time>2026-03-28T15:58:01.999Z</time></trkpt><trkpt lat="40.846854752611655" lon="14.601116672912639"><ele>716.0</ele><time>2026-03-28T15:58:02.999Z</time></trkpt><trkpt lat="40.846932137986215" lon="14.601068395994707"><ele>714.0</ele><time>2026-03-28T15:58:03.999Z</time></trkpt><trkpt lat="40.84699471010777" lon="14.601030159345733"><ele>712.0</ele><time>2026-03-28T15:58:04.999Z</time></trkpt><trkpt lat="40.84705402768166" lon="14.601001665929177"><ele>710.0</ele><time>2026-03-28T15:58:06.001Z</time></trkpt><trkpt lat="40.84713185854902" lon="14.600990981005593"><ele>708.2</ele><time>2026-03-28T15:58:07.001Z</time></trkpt><trkpt lat="40.84720768283162" lon="14.600980348952785"><ele>706.4</ele><time>2026-03-28T15:58:08.001Z</time></trkpt><trkpt lat="40.84729176609223" lon="14.600967094955013"><ele>704.5999999999999</ele><time>2026-03-28T15:58:09.001Z</time></trkpt><trkpt lat="40.847380950325686" lon="14.600919077135133"><ele>702.8</ele><time>2026-03-28T15:58:10.001Z</time></trkpt><trkpt lat="40.84744483788453" lon="14.60085952629632"><ele>701.0</ele><time>2026-03-28T15:58:11.001Z</time></trkpt><trkpt lat="40.84754009534259" lon="14.600767680264617"><ele>701.8333333333333</ele><time>2026-03-28T15:58:13Z</time></trkpt><trkpt lat="40.84763238769155" lon="14.600721252820824"><ele>702.6666666666666</ele><time>2026-03-28T15:58:15Z</time></trkpt><trkpt lat="40.84769117447429" lon="14.600682094157362"><ele>703.5</ele><time>2026-03-28T15:58:16Z</time></trkpt><trkpt lat="40.84774512659444" lon="14.600621212225038"><ele>704.3333333333334</ele><time>2026-03-28T15:58:17Z</time></trkpt><trkpt lat="40.847795402883776" lon="14.600539464465365"><ele>705.1666666666667</ele><time>2026-03-28T15:58:18Z</time></trkpt><trkpt lat="40.84784296750635" lon="14.60046686571106"><ele>706.0</ele><time>2026-03-28T15:58:19Z</time></trkpt><trkpt lat="40.84791722494641" lon="14.600405914829892"><ele>706.0</ele><time>2026-03-28T15:58:20Z</time></trkpt><trkpt lat="40.848000619779256" lon="14.600356626792099"><ele>706.0</ele><time>2026-03-28T15:58:20.999Z</time></trkpt><trkpt lat="40.8480838165399" lon="14.60032366015821"><ele>706.0</ele><time>2026-03-28T15:58:21.999Z</time></trkpt><trkpt lat="40.848169827371386" lon="14.60030104636129"><ele>706.0</ele><time>2026-03-28T15:58:22.999Z</time></trkpt><trkpt lat="40.8482556046612" lon="14.600223866910476"><ele>706.0</ele><time>2026-03-28T15:58:23.999Z</time></trkpt><trkpt lat="40.84834033837053" lon="14.600104037574322"><ele>702.0</ele><time>2026-03-28T15:58:24.999Z</time></trkpt><trkpt lat="40.8483861877556" lon="14.599993432371551"><ele>698.0</ele><time>2026-03-28T15:58:25.999Z</time></trkpt><trkpt lat="40.84846748342508" lon="14.599874267516778"><ele>694.0</ele><time>2026-03-28T15:58:26.999Z</time></trkpt><trkpt lat="40.84857142462617" lon="14.599773256135677"><ele>690.0</ele><time>2026-03-28T15:58:27.999Z</time></trkpt><trkpt lat="40.8486779057684" lon="14.599722469892384"><ele>690.0</ele><time>2026-03-28T15:58:28.999Z</time></trkpt><trkpt lat="40.84876917369796" lon="14.599676769143327"><ele>690.0</ele><time>2026-03-28T15:58:29.999Z</time></trkpt><trkpt lat="40.848841017721234" lon="14.59962733561525"><ele>690.0</ele><time>2026-03-28T15:58:30.999Z</time></trkpt><trkpt lat="40.84890472210885" lon="14.599554844771303"><ele>690.0</ele><time>2026-03-28T15:58:31.999Z</time></trkpt><trkpt lat="40.84894939095774" lon="14.599447619681266"><ele>690.0</ele><time>2026-03-28T15:58:32.999Z</time></trkpt><trkpt lat="40.84896766589484" lon="14.599299181851901"><ele>686.8</ele><time>2026-03-28T15:58:33.999Z</time></trkpt><trkpt lat="40.84896670714767" lon="14.599164009696043"><ele>683.6</ele><time>2026-03-28T15:58:34.999Z</time></trkpt><trkpt lat="40.848966813629445" lon="14.599023787761052"><ele>680.4000000000001</ele><time>2026-03-28T15:58:35.999Z</time></trkpt><trkpt lat="40.84898141124591" lon="14.598872724553305"><ele>677.2</ele><time>2026-03-28T15:58:36.999Z</time></trkpt><trkpt lat="40.848977340897946" lon="14.598706436974107"><ele>674.0</ele><time>2026-03-28T15:58:37.999Z</time></trkpt><trkpt lat="40.8489959327299" lon="14.598558740693687"><ele>671.8000000000001</ele><time>2026-03-28T15:58:38.999Z</time></trkpt><trkpt lat="40.849039995581634" lon="14.598427839624271"><ele>669.6</ele><time>2026-03-28T15:58:39.999Z</time></trkpt><trkpt lat="40.84909869301701" lon="14.598310097399079"><ele>667.4</ele><time>2026-03-28T15:58:40.999Z</time></trkpt><trkpt lat="40.849182049177486" lon="14.598191836934618"><ele>665.2</ele><time>2026-03-28T15:58:41.999Z</time></trkpt><trkpt lat="40.84926092359967" lon="14.598101983638305"><ele>663.0</ele><time>2026-03-28T15:58:42.999Z</time></trkpt><trkpt lat="40.84935162534624" lon="14.598030986789778"><ele>662.0</ele><time>2026-03-28T15:58:43.999Z</time></trkpt><trkpt lat="40.84945257031847" lon="14.598017562610897"><ele>661.0</ele><time>2026-03-28T15:58:44.999Z</time></trkpt><trkpt lat="40.8495569097069" lon="14.598005112449936"><ele>660.0</ele><time>2026-03-28T15:58:45.999Z</time></trkpt><trkpt lat="40.84965897216792" lon="14.597977217868108"><ele>659.0</ele><time>2026-03-28T15:58:46.999Z</time></trkpt><trkpt lat="40.849761479400534" lon="14.597923026791738"><ele>658.0</ele><time>2026-03-28T15:58:47.999Z</time></trkpt><trkpt lat="40.84984108771285" lon="14.597835267238283"><ele>656.5</ele><time>2026-03-28T15:58:48.999Z</time></trkpt><trkpt lat="40.84990818140164" lon="14.597729167697056"><ele>655.0</ele><time>2026-03-28T15:58:49.999Z</time></trkpt><trkpt lat="40.84997347201921" lon="14.59762125813821"><ele>653.5</ele><time>2026-03-28T15:58:50.999Z</time></trkpt><trkpt lat="40.850047414452035" lon="14.597504657271937"><ele>652.0</ele><time>2026-03-28T15:58:51.999Z</time></trkpt><trkpt lat="40.85009516693239" lon="14.597341281407214"><ele>650.0</ele><time>2026-03-28T15:58:52.999Z</time></trkpt><trkpt lat="40.85014337022768" lon="14.597186381218215"><ele>648.0</ele><time>2026-03-28T15:58:53.999Z</time></trkpt><trkpt lat="40.85019321454073" lon="14.597051787690964"><ele>646.0</ele><time>2026-03-28T15:58:54.999Z</time></trkpt><trkpt lat="40.85026356659317" lon="14.596941063556763"><ele>644.0</ele><time>2026-03-28T15:58:55.999Z</time></trkpt><trkpt lat="40.850334425839584" lon="14.596820270149408"><ele>642.2</ele><time>2026-03-28T15:58:56.999Z</time></trkpt><trkpt lat="40.850392793118544" lon="14.596696689646407"><ele>640.4000000000001</ele><time>2026-03-28T15:58:57.999Z</time></trkpt><trkpt lat="40.85044322563955" lon="14.596568474218444"><ele>638.6</ele><time>2026-03-28T15:58:58.999Z</time></trkpt><trkpt lat="40.850497417153214" lon="14.596455771441013"><ele>636.8</ele><time>2026-03-28T15:58:59.999Z</time></trkpt><trkpt lat="40.85056110378524" lon="14.596328867357444"><ele>635.0</ele><time>2026-03-28T15:59:00.999Z</time></trkpt><trkpt lat="40.850604876520705" lon="14.596172600725598"><ele>633.8</ele><time>2026-03-28T15:59:01.999Z</time></trkpt><trkpt lat="40.85063083174954" lon="14.596024552418955"><ele>632.6</ele><time>2026-03-28T15:59:02.999Z</time></trkpt><trkpt lat="40.85064467306905" lon="14.595876865944511"><ele>631.4</ele><time>2026-03-28T15:59:03.999Z</time></trkpt><trkpt lat="40.85065454041551" lon="14.595735464323466"><ele>630.2</ele><time>2026-03-28T15:59:04.999Z</time></trkpt><trkpt lat="40.85064869384879" lon="14.595609435473515"><ele>629.0</ele><time>2026-03-28T15:59:05.999Z</time></trkpt><trkpt lat="40.8506343715906" lon="14.59548769510772"><ele>629.0</ele><time>2026-03-28T15:59:06.999Z</time></trkpt><trkpt lat="40.850632721680505" lon="14.59535564283923"><ele>629.0</ele><time>2026-03-28T15:59:07.999Z</time></trkpt><trkpt lat="40.85064858687617" lon="14.595228765160359"><ele>629.0</ele><time>2026-03-28T15:59:08.999Z</time></trkpt><trkpt lat="40.850706018625054" lon="14.595099406264055"><ele>629.0</ele><time>2026-03-28T15:59:09.999Z</time></trkpt><trkpt lat="40.85078973064077" lon="14.594982981274823"><ele>629.0</ele><time>2026-03-28T15:59:10.999Z</time></trkpt><trkpt lat="40.850895979398345" lon="14.594900860773008"><ele>628.2</ele><time>2026-03-28T15:59:11.999Z</time></trkpt><trkpt lat="40.85101362239225" lon="14.59484275088075"><ele>627.4</ele><time>2026-03-28T15:59:12.999Z</time></trkpt><trkpt lat="40.85112501459995" lon="14.594810383167209"><ele>626.6</ele><time>2026-03-28T15:59:13.999Z</time></trkpt><trkpt lat="40.851220390114264" lon="14.594757554849314"><ele>625.8</ele><time>2026-03-28T15:59:14.999Z</time></trkpt><trkpt lat="40.85130414844731" lon="14.594715068940658"><ele>625.0</ele><time>2026-03-28T15:59:15.999Z</time></trkpt><trkpt lat="40.85138380611411" lon="14.594679376316833"><ele>625.0</ele><time>2026-03-28T15:59:16.999Z</time></trkpt><trkpt lat="40.85146658332024" lon="14.594661041952213"><ele>625.0</ele><time>2026-03-28T15:59:17.998Z</time></trkpt><trkpt lat="40.85153476240461" lon="14.594644104807731"><ele>625.0</ele><time>2026-03-28T15:59:18.998Z</time></trkpt><trkpt lat="40.85161634509703" lon="14.594642002643418"><ele>625.0</ele><time>2026-03-28T15:59:19.998Z</time></trkpt><trkpt lat="40.851734263178756" lon="14.594627805315822"><ele>625.0</ele><time>2026-03-28T15:59:20.998Z</time></trkpt><trkpt lat="40.851829181126156" lon="14.594578065319588"><ele>626.25</ele><time>2026-03-28T15:59:21.998Z</time></trkpt><trkpt lat="40.85191548788182" lon="14.594484761960464"><ele>627.5</ele><time>2026-03-28T15:59:22.998Z</time></trkpt><trkpt lat="40.851990771201294" lon="14.594358009860176"><ele>628.75</ele><time>2026-03-28T15:59:23.998Z</time></trkpt><trkpt lat="40.852039808298706" lon="14.594222086581306"><ele>630.0</ele><time>2026-03-28T15:59:24.998Z</time></trkpt><trkpt lat="40.852058741183626" lon="14.594083536637825"><ele>630.0</ele><time>2026-03-28T15:59:25.998Z</time></trkpt><trkpt lat="40.85204050121953" lon="14.59393918731882"><ele>630.0</ele><time>2026-03-28T15:59:26.998Z</time></trkpt><trkpt lat="40.85199279575107" lon="14.593788662750425"><ele>630.0</ele><time>2026-03-28T15:59:27.998Z</time></trkpt><trkpt lat="40.85192700191033" lon="14.593660053794098"><ele>630.0</ele><time>2026-03-28T15:59:28.998Z</time></trkpt><trkpt lat="40.85187579624428" lon="14.593522769352678"><ele>630.2</ele><time>2026-03-28T15:59:29.998Z</time></trkpt><trkpt lat="40.851830978163854" lon="14.593388001003053"><ele>630.4</ele><time>2026-03-28T15:59:30.998Z</time></trkpt><trkpt lat="40.85178619477104" lon="14.59325966446202"><ele>630.6</ele><time>2026-03-28T15:59:31.998Z</time></trkpt><trkpt lat="40.851738666992595" lon="14.593127907539229"><ele>630.8</ele><time>2026-03-28T15:59:32.998Z</time></trkpt><trkpt lat="40.85168969785592" lon="14.592995011843106"><ele>631.0</ele><time>2026-03-28T15:59:33.998Z</time></trkpt><trkpt lat="40.851645712657074" lon="14.592857148421333"><ele>628.0</ele><time>2026-03-28T15:59:34.998Z</time></trkpt><trkpt lat="40.85159783353105" lon="14.592717983842393"><ele>625.0</ele><time>2026-03-28T15:59:35.998Z</time></trkpt><trkpt lat="40.85154647468967" lon="14.592568291537619"><ele>622.0</ele><time>2026-03-28T15:59:36.998Z</time></trkpt><trkpt lat="40.851493397929694" lon="14.592411199047433"><ele>619.0</ele><time>2026-03-28T15:59:37.998Z</time></trkpt><trkpt lat="40.85144345972983" lon="14.592243850263818"><ele>619.0</ele><time>2026-03-28T15:59:38.998Z</time></trkpt><trkpt lat="40.85140945713888" lon="14.592050900314716"><ele>619.0</ele><time>2026-03-28T15:59:39.998Z</time></trkpt><trkpt lat="40.851384655592625" lon="14.591850999230232"><ele>619.0</ele><time>2026-03-28T15:59:40.998Z</time></trkpt><trkpt lat="40.85135570564209" lon="14.591648737541464"><ele>618.5</ele><time>2026-03-28T15:59:41.998Z</time></trkpt><trkpt lat="40.85132511951501" lon="14.591448596316528"><ele>618.0</ele><time>2026-03-28T15:59:42.998Z</time></trkpt><trkpt lat="40.851283029470764" lon="14.591256666459424"><ele>617.5</ele><time>2026-03-28T15:59:43.998Z</time></trkpt><trkpt lat="40.851231275796756" lon="14.591086405060148"><ele>617.0</ele><time>2026-03-28T15:59:44.998Z</time></trkpt><trkpt lat="40.85118626805006" lon="14.590933427251125"><ele>615.0</ele><time>2026-03-28T15:59:45.998Z</time></trkpt><trkpt lat="40.85118572401327" lon="14.59074695232168"><ele>613.0</ele><time>2026-03-28T15:59:46.998Z</time></trkpt><trkpt lat="40.851205877158726" lon="14.590534043209882"><ele>611.0</ele><time>2026-03-28T15:59:47.998Z</time></trkpt><trkpt lat="40.85123903143968" lon="14.59032899189773"><ele>610.25</ele><time>2026-03-28T15:59:48.998Z</time></trkpt><trkpt lat="40.85127326218616" lon="14.59015599005329"><ele>609.5</ele><time>2026-03-28T15:59:49.998Z</time></trkpt><trkpt lat="40.85131507937726" lon="14.589995624279776"><ele>608.75</ele><time>2026-03-28T15:59:50.998Z</time></trkpt><trkpt lat="40.85133755872817" lon="14.58984865967042"><ele>608.0</ele><time>2026-03-28T15:59:51.998Z</time></trkpt><trkpt lat="40.8513294351835" lon="14.589655883711131"><ele>607.75</ele><time>2026-03-28T15:59:52.998Z</time></trkpt><trkpt lat="40.85129295135794" lon="14.58946636053639"><ele>607.5</ele><time>2026-03-28T15:59:53.998Z</time></trkpt><trkpt lat="40.85127092799029" lon="14.589275161964924"><ele>607.25</ele><time>2026-03-28T15:59:54.998Z</time></trkpt><trkpt lat="40.851275548482434" lon="14.589115246180818"><ele>607.0</ele><time>2026-03-28T15:59:55.998Z</time></trkpt><trkpt lat="40.851299543225956" lon="14.588974058585652"><ele>607.0</ele><time>2026-03-28T15:59:56.998Z</time></trkpt><trkpt lat="40.85134018227962" lon="14.58883062487591"><ele>607.0</ele><time>2026-03-28T15:59:57.998Z</time></trkpt><trkpt lat="40.851397903705625" lon="14.588665109335992"><ele>607.0</ele><time>2026-03-28T15:59:58.998Z</time></trkpt><trkpt lat="40.851472574156254" lon="14.588506302715677"><ele>607.0</ele><time>2026-03-28T15:59:59.998Z</time></trkpt><trkpt lat="40.851544680257625" lon="14.588358608308056"><ele>604.25</ele><time>2026-03-28T16:00:00.998Z</time></trkpt><trkpt lat="40.85161045237409" lon="14.588194569568616"><ele>601.5</ele><time>2026-03-28T16:00:01.998Z</time></trkpt><trkpt lat="40.85167106824607" lon="14.58803441803789"><ele>598.75</ele><time>2026-03-28T16:00:02.998Z</time></trkpt><trkpt lat="40.85171688336519" lon="14.587863969488078"><ele>596.0</ele><time>2026-03-28T16:00:03.998Z</time></trkpt><trkpt lat="40.85174093570206" lon="14.587669023498075"><ele>596.75</ele><time>2026-03-28T16:00:04.998Z</time></trkpt><trkpt lat="40.85176664242122" lon="14.58747163135154"><ele>597.5</ele><time>2026-03-28T16:00:05.998Z</time></trkpt><trkpt lat="40.851797187923566" lon="14.587292283744716"><ele>598.25</ele><time>2026-03-28T16:00:06.998Z</time></trkpt><trkpt lat="40.851830294177475" lon="14.587123254768969"><ele>599.0</ele><time>2026-03-28T16:00:07.998Z</time></trkpt><trkpt lat="40.85186158262347" lon="14.586959842941281"><ele>599.0</ele><time>2026-03-28T16:00:08.998Z</time></trkpt><trkpt lat="40.85190886068582" lon="14.586794013892195"><ele>599.0</ele><time>2026-03-28T16:00:09.998Z</time></trkpt><trkpt lat="40.85198304921719" lon="14.586610455715894"><ele>599.0</ele><time>2026-03-28T16:00:10.998Z</time></trkpt><trkpt lat="40.8520593766745" lon="14.586449896156262"><ele>599.0</ele><time>2026-03-28T16:00:12Z</time></trkpt><trkpt lat="40.8521290388983" lon="14.586290465473136"><ele>593.5</ele><time>2026-03-28T16:00:13Z</time></trkpt><trkpt lat="40.85219710390214" lon="14.586132521476863"><ele>588.0</ele><time>2026-03-28T16:00:14Z</time></trkpt><trkpt lat="40.85224775799371" lon="14.585977378876603"><ele>582.5</ele><time>2026-03-28T16:00:15Z</time></trkpt><trkpt lat="40.852279387731144" lon="14.585822451107477"><ele>577.0</ele><time>2026-03-28T16:00:16Z</time></trkpt><trkpt lat="40.852309361301046" lon="14.585683281581732"><ele>577.0</ele><time>2026-03-28T16:00:17Z</time></trkpt><trkpt lat="40.8523457337556" lon="14.585559441712517"><ele>577.0</ele><time>2026-03-28T16:00:18Z</time></trkpt><trkpt lat="40.85238381930307" lon="14.585465661250705"><ele>577.0</ele><time>2026-03-28T16:00:19Z</time></trkpt><trkpt lat="40.852410623458546" lon="14.58533434247711"><ele>577.0</ele><time>2026-03-28T16:00:21Z</time></trkpt><trkpt lat="40.852321453145386" lon="14.585289099684912"><ele>577.0</ele><time>2026-03-28T16:00:23Z</time></trkpt><trkpt lat="40.85226357726404" lon="14.585419270938912"><ele>577.0</ele><time>2026-03-28T16:00:25Z</time></trkpt><trkpt lat="40.852252014496095" lon="14.58556147197519"><ele>577.0</ele><time>2026-03-28T16:00:27Z</time></trkpt><trkpt lat="40.85222506149165" lon="14.58565139712951"><ele>577.0</ele><time>2026-03-28T16:00:28Z</time></trkpt><trkpt lat="40.85218000250657" lon="14.585722997733132"><ele>577.0</ele><time>2026-03-28T16:00:29Z</time></trkpt><trkpt lat="40.852138585381155" lon="14.585798258901095"><ele>577.0</ele><time>2026-03-28T16:00:30Z</time></trkpt><trkpt lat="40.85208028569825" lon="14.585912135662522"><ele>577.0</ele><time>2026-03-28T16:00:31.999Z</time></trkpt><trkpt lat="40.85200596766373" lon="14.585992845477666"><ele>577.0</ele><time>2026-03-28T16:00:33.999Z</time></trkpt><trkpt lat="40.85192792331645" lon="14.585948105929482"><ele>577.0</ele><time>2026-03-28T16:00:35.999Z</time></trkpt><trkpt lat="40.85192131380107" lon="14.585853578847601"><ele>577.0</ele><time>2026-03-28T16:00:36.999Z</time></trkpt><trkpt lat="40.85196182491689" lon="14.585767107698143"><ele>577.0</ele><time>2026-03-28T16:00:37.999Z</time></trkpt><trkpt lat="40.85202811225641" lon="14.585714444598873"><ele>577.0</ele><time>2026-03-28T16:00:38.999Z</time></trkpt><trkpt lat="40.85209094535565" lon="14.58564206280512"><ele>577.0</ele><time>2026-03-28T16:00:39.999Z</time></trkpt><trkpt lat="40.85213847860781" lon="14.585540311395272"><ele>577.0</ele><time>2026-03-28T16:00:40.999Z</time></trkpt><trkpt lat="40.85216294980826" lon="14.585415773892453"><ele>577.0</ele><time>2026-03-28T16:00:41.999Z</time></trkpt><trkpt lat="40.85216230694086" lon="14.585286035734978"><ele>577.0</ele><time>2026-03-28T16:00:42.999Z</time></trkpt><trkpt lat="40.85213034776327" lon="14.585152585321513"><ele>577.0</ele><time>2026-03-28T16:00:43.999Z</time></trkpt><trkpt lat="40.852093214505466" lon="14.585021221236241"><ele>577.0</ele><time>2026-03-28T16:00:44.999Z</time></trkpt><trkpt lat="40.85205729137841" lon="14.584888858608803"><ele>574.0</ele><time>2026-03-28T16:00:45.999Z</time></trkpt><trkpt lat="40.852023277883426" lon="14.584732296456163"><ele>571.0</ele><time>2026-03-28T16:00:46.999Z</time></trkpt><trkpt lat="40.85199600163878" lon="14.584569165564801"><ele>568.0</ele><time>2026-03-28T16:00:47.999Z</time></trkpt><trkpt lat="40.85198954175336" lon="14.584405233219776"><ele>565.0</ele><time>2026-03-28T16:00:48.999Z</time></trkpt><trkpt lat="40.851999069865506" lon="14.584233525415565"><ele>563.0</ele><time>2026-03-28T16:00:49.999Z</time></trkpt><trkpt lat="40.85201070733491" lon="14.584053705533261"><ele>561.0</ele><time>2026-03-28T16:00:50.999Z</time></trkpt><trkpt lat="40.85202606517808" lon="14.583878164115507"><ele>559.0</ele><time>2026-03-28T16:00:51.999Z</time></trkpt><trkpt lat="40.85204973626893" lon="14.583704934298359"><ele>557.0</ele><time>2026-03-28T16:00:52.999Z</time></trkpt><trkpt lat="40.85207275722293" lon="14.583529195257439"><ele>552.75</ele><time>2026-03-28T16:00:53.999Z</time></trkpt><trkpt lat="40.85209755782771" lon="14.58336518381679"><ele>548.5</ele><time>2026-03-28T16:00:54.999Z</time></trkpt><trkpt lat="40.85212878435118" lon="14.583202785894256"><ele>544.25</ele><time>2026-03-28T16:00:55.999Z</time></trkpt><trkpt lat="40.852172530043646" lon="14.583036700718269"><ele>540.0</ele><time>2026-03-28T16:00:56.999Z</time></trkpt><trkpt lat="40.85223306505973" lon="14.582869993763179"><ele>534.0</ele><time>2026-03-28T16:00:57.999Z</time></trkpt><trkpt lat="40.852306562054665" lon="14.582705290025926"><ele>528.0</ele><time>2026-03-28T16:00:58.999Z</time></trkpt><trkpt lat="40.85238071336806" lon="14.58254388054523"><ele>522.0</ele><time>2026-03-28T16:00:59.999Z</time></trkpt><trkpt lat="40.85244547958059" lon="14.582388260226482"><ele>516.0</ele><time>2026-03-28T16:01:00.999Z</time></trkpt><trkpt lat="40.85249909742318" lon="14.582232932701027"><ele>516.0</ele><time>2026-03-28T16:01:01.999Z</time></trkpt><trkpt lat="40.852549660586035" lon="14.582086927967762"><ele>516.0</ele><time>2026-03-28T16:01:02.999Z</time></trkpt><trkpt lat="40.85258802343671" lon="14.581942203472646"><ele>516.0</ele><time>2026-03-28T16:01:03.999Z</time></trkpt><trkpt lat="40.852634843048875" lon="14.581804381263604"><ele>516.0</ele><time>2026-03-28T16:01:04.999Z</time></trkpt><trkpt lat="40.85267638896896" lon="14.581677544138788"><ele>518.2</ele><time>2026-03-28T16:01:05.999Z</time></trkpt><trkpt lat="40.85271996657648" lon="14.581552127511781"><ele>520.4000000000001</ele><time>2026-03-28T16:01:06.999Z</time></trkpt><trkpt lat="40.852762816149344" lon="14.58143395630904"><ele>522.6</ele><time>2026-03-28T16:01:07.999Z</time></trkpt><trkpt lat="40.85281031282901" lon="14.581316935834444"><ele>524.8000000000001</ele><time>2026-03-28T16:01:08.999Z</time></trkpt><trkpt lat="40.85285796035684" lon="14.5811892674296"><ele>527.0</ele><time>2026-03-28T16:01:09.999Z</time></trkpt><trkpt lat="40.8529187272707" lon="14.581059312775663"><ele>519.0</ele><time>2026-03-28T16:01:10.999Z</time></trkpt><trkpt lat="40.85299255708283" lon="14.580938648656202"><ele>511.0</ele><time>2026-03-28T16:01:11.999Z</time></trkpt><trkpt lat="40.85307982850503" lon="14.58082434789251"><ele>503.0</ele><time>2026-03-28T16:01:12.999Z</time></trkpt><trkpt lat="40.8531825477561" lon="14.580735999872761"><ele>495.0</ele><time>2026-03-28T16:01:13.999Z</time></trkpt><trkpt lat="40.853285748697644" lon="14.580653232863174"><ele>495.0</ele><time>2026-03-28T16:01:14.999Z</time></trkpt><trkpt lat="40.85337843264619" lon="14.580568153191452"><ele>495.0</ele><time>2026-03-28T16:01:15.999Z</time></trkpt><trkpt lat="40.85347627989626" lon="14.580493419766075"><ele>495.0</ele><time>2026-03-28T16:01:16.999Z</time></trkpt><trkpt lat="40.853576281326696" lon="14.580425947549697"><ele>495.0</ele><time>2026-03-28T16:01:17.999Z</time></trkpt><trkpt lat="40.853674083413765" lon="14.580351567606776"><ele>492.0</ele><time>2026-03-28T16:01:18.999Z</time></trkpt><trkpt lat="40.85376589240744" lon="14.580286175459419"><ele>489.0</ele><time>2026-03-28T16:01:19.999Z</time></trkpt><trkpt lat="40.853862369428434" lon="14.580244037054118"><ele>486.0</ele><time>2026-03-28T16:01:20.999Z</time></trkpt><trkpt lat="40.85396433336307" lon="14.58021799442414"><ele>483.0</ele><time>2026-03-28T16:01:21.999Z</time></trkpt><trkpt lat="40.85406909359314" lon="14.580175446403379"><ele>480.0</ele><time>2026-03-28T16:01:22.999Z</time></trkpt><trkpt lat="40.85415296463285" lon="14.580090865245836"><ele>480.0</ele><time>2026-03-28T16:01:23.999Z</time></trkpt><trkpt lat="40.85422468181598" lon="14.579974025289141"><ele>480.0</ele><time>2026-03-28T16:01:24.999Z</time></trkpt><trkpt lat="40.85428219076088" lon="14.57983141079663"><ele>480.0</ele><time>2026-03-28T16:01:25.999Z</time></trkpt><trkpt lat="40.854330013000116" lon="14.579692432678534"><ele>480.0</ele><time>2026-03-28T16:01:26.999Z</time></trkpt><trkpt lat="40.854396314074144" lon="14.579577234259812"><ele>479.8</ele><time>2026-03-28T16:01:27.999Z</time></trkpt><trkpt lat="40.85448611223678" lon="14.579496469780894"><ele>479.6</ele><time>2026-03-28T16:01:28.999Z</time></trkpt><trkpt lat="40.85454521385933" lon="14.579384375979046"><ele>479.4</ele><time>2026-03-28T16:01:29.998Z</time></trkpt><trkpt lat="40.854567358777" lon="14.579251595686499"><ele>479.2</ele><time>2026-03-28T16:01:30.998Z</time></trkpt><trkpt lat="40.854587605925744" lon="14.57909872406921"><ele>479.0</ele><time>2026-03-28T16:01:31.998Z</time></trkpt><trkpt lat="40.85463573993143" lon="14.578961190642671"><ele>479.0</ele><time>2026-03-28T16:01:32.998Z</time></trkpt><trkpt lat="40.854707910233195" lon="14.578840627504215"><ele>479.0</ele><time>2026-03-28T16:01:33.998Z</time></trkpt><trkpt lat="40.85478568720845" lon="14.578735321340556"><ele>479.0</ele><time>2026-03-28T16:01:34.998Z</time></trkpt><trkpt lat="40.85486778660902" lon="14.578619533515885"><ele>479.0</ele><time>2026-03-28T16:01:35.998Z</time></trkpt><trkpt lat="40.85497067675519" lon="14.578539164969422"><ele>474.0</ele><time>2026-03-28T16:01:36.998Z</time></trkpt><trkpt lat="40.85508392805776" lon="14.578491436170067"><ele>469.0</ele><time>2026-03-28T16:01:37.998Z</time></trkpt><trkpt lat="40.855206732735134" lon="14.578462363402707"><ele>464.0</ele><time>2026-03-28T16:01:38.998Z</time></trkpt><trkpt lat="40.85533205495796" lon="14.578447109764506"><ele>459.0</ele><time>2026-03-28T16:01:39.998Z</time></trkpt><trkpt lat="40.85545556658917" lon="14.57842573919492"><ele>459.0</ele><time>2026-03-28T16:01:40.998Z</time></trkpt><trkpt lat="40.85557577154097" lon="14.578388179945158"><ele>459.0</ele><time>2026-03-28T16:01:41.998Z</time></trkpt><trkpt lat="40.85569139541083" lon="14.578323151978271"><ele>459.0</ele><time>2026-03-28T16:01:42.998Z</time></trkpt><trkpt lat="40.8557919504967" lon="14.578253586817276"><ele>459.0</ele><time>2026-03-28T16:01:43.998Z</time></trkpt><trkpt lat="40.855890325919155" lon="14.578192973024537"><ele>461.0</ele><time>2026-03-28T16:01:44.998Z</time></trkpt><trkpt lat="40.85598199199877" lon="14.578120340931301"><ele>463.0</ele><time>2026-03-28T16:01:45.998Z</time></trkpt><trkpt lat="40.856071734649284" lon="14.578028202070605"><ele>465.0</ele><time>2026-03-28T16:01:46.998Z</time></trkpt><trkpt lat="40.85615032229734" lon="14.577911563982683"><ele>467.0</ele><time>2026-03-28T16:01:47.998Z</time></trkpt><trkpt lat="40.85621971847285" lon="14.577774534378507"><ele>462.75</ele><time>2026-03-28T16:01:48.998Z</time></trkpt><trkpt lat="40.85628083531177" lon="14.577625503513882"><ele>458.5</ele><time>2026-03-28T16:01:49.998Z</time></trkpt><trkpt lat="40.856323522449024" lon="14.577463614011748"><ele>454.25</ele><time>2026-03-28T16:01:50.998Z</time></trkpt><trkpt lat="40.856350124059915" lon="14.577293443078128"><ele>450.0</ele><time>2026-03-28T16:01:51.998Z</time></trkpt><trkpt lat="40.8563753083451" lon="14.577131698092145"><ele>447.25</ele><time>2026-03-28T16:01:52.998Z</time></trkpt><trkpt lat="40.85640728539282" lon="14.576975646007305"><ele>444.5</ele><time>2026-03-28T16:01:53.998Z</time></trkpt><trkpt lat="40.856436376360804" lon="14.57681675549799"><ele>441.75</ele><time>2026-03-28T16:01:54.998Z</time></trkpt><trkpt lat="40.85645187718914" lon="14.57664990423238"><ele>439.0</ele><time>2026-03-28T16:01:55.998Z</time></trkpt><trkpt lat="40.85645772429898" lon="14.57647939400771"><ele>439.0</ele><time>2026-03-28T16:01:56.998Z</time></trkpt><trkpt lat="40.8564716912623" lon="14.576298536778785"><ele>439.0</ele><time>2026-03-28T16:01:57.998Z</time></trkpt><trkpt lat="40.856490170480754" lon="14.576122806698084"><ele>439.0</ele><time>2026-03-28T16:01:58.998Z</time></trkpt><trkpt lat="40.856515550322" lon="14.575922716046405"><ele>439.0</ele><time>2026-03-28T16:01:59.998Z</time></trkpt><trkpt lat="40.85655797229191" lon="14.575704625256009"><ele>437.0</ele><time>2026-03-28T16:02:00.998Z</time></trkpt><trkpt lat="40.856608442492785" lon="14.575482802719787"><ele>435.0</ele><time>2026-03-28T16:02:01.998Z</time></trkpt><trkpt lat="40.85665166299177" lon="14.575282369348063"><ele>433.0</ele><time>2026-03-28T16:02:02.998Z</time></trkpt><trkpt lat="40.856677912034534" lon="14.575089007424317"><ele>431.25</ele><time>2026-03-28T16:02:03.998Z</time></trkpt><trkpt lat="40.8566972665815" lon="14.574902263414804"><ele>429.5</ele><time>2026-03-28T16:02:04.998Z</time></trkpt><trkpt lat="40.85671418315857" lon="14.57472833723053"><ele>427.75</ele><time>2026-03-28T16:02:05.998Z</time></trkpt><trkpt lat="40.85673188067387" lon="14.5745602893018"><ele>426.0</ele><time>2026-03-28T16:02:06.998Z</time></trkpt><trkpt lat="40.85675638366052" lon="14.574385281725856"><ele>425.5</ele><time>2026-03-28T16:02:07.998Z</time></trkpt><trkpt lat="40.85679735215804" lon="14.57419939011078"><ele>425.0</ele><time>2026-03-28T16:02:08.998Z</time></trkpt><trkpt lat="40.85685396157465" lon="14.574014508125188"><ele>424.5</ele><time>2026-03-28T16:02:09.998Z</time></trkpt><trkpt lat="40.85691375931514" lon="14.573845911154823"><ele>424.0</ele><time>2026-03-28T16:02:10.998Z</time></trkpt><trkpt lat="40.856973452664064" lon="14.573688532603892"><ele>421.75</ele><time>2026-03-28T16:02:11.998Z</time></trkpt><trkpt lat="40.8570406111234" lon="14.573549717224715"><ele>419.5</ele><time>2026-03-28T16:02:12.998Z</time></trkpt><trkpt lat="40.85711879571091" lon="14.573425723920094"><ele>417.25</ele><time>2026-03-28T16:02:13.998Z</time></trkpt><trkpt lat="40.857208600450946" lon="14.573307295952056"><ele>415.0</ele><time>2026-03-28T16:02:14.998Z</time></trkpt><trkpt lat="40.8572987927823" lon="14.573194326067158"><ele>415.0</ele><time>2026-03-28T16:02:15.998Z</time></trkpt><trkpt lat="40.857381843247786" lon="14.573086163254432"><ele>415.0</ele><time>2026-03-28T16:02:16.998Z</time></trkpt><trkpt lat="40.85744766224027" lon="14.572969669824362"><ele>415.0</ele><time>2026-03-28T16:02:18Z</time></trkpt><trkpt lat="40.85750113346542" lon="14.572848670241573"><ele>415.0</ele><time>2026-03-28T16:02:19Z</time></trkpt><trkpt lat="40.85754342299329" lon="14.572741565294836"><ele>415.0</ele><time>2026-03-28T16:02:20Z</time></trkpt><trkpt lat="40.85756226877016" lon="14.572646233555542"><ele>412.6666666666667</ele><time>2026-03-28T16:02:21Z</time></trkpt><trkpt lat="40.85757590725004" lon="14.572537382633591"><ele>410.33333333333337</ele><time>2026-03-28T16:02:22Z</time></trkpt><trkpt lat="40.85753900791226" lon="14.572417359539013"><ele>408.0</ele><time>2026-03-28T16:02:23Z</time></trkpt><trkpt lat="40.85746649645738" lon="14.572323977370546"><ele>405.66666666666663</ele><time>2026-03-28T16:02:24Z</time></trkpt><trkpt lat="40.85740028118749" lon="14.572259085620232"><ele>403.3333333333333</ele><time>2026-03-28T16:02:25Z</time></trkpt><trkpt lat="40.857332725657216" lon="14.57221499957772"><ele>401.0</ele><time>2026-03-28T16:02:26Z</time></trkpt><trkpt lat="40.85725778901434" lon="14.57211489059537"><ele>398.0</ele><time>2026-03-28T16:02:28Z</time></trkpt><trkpt lat="40.857277155197416" lon="14.571968742052995"><ele>395.0</ele><time>2026-03-28T16:02:30Z</time></trkpt><trkpt lat="40.85734945850441" lon="14.571903448391236"><ele>392.0</ele><time>2026-03-28T16:02:31Z</time></trkpt><trkpt lat="40.8574447324072" lon="14.571881121629056"><ele>389.0</ele><time>2026-03-28T16:02:32Z</time></trkpt><trkpt lat="40.857537549264926" lon="14.571880982761941"><ele>386.0</ele><time>2026-03-28T16:02:33Z</time></trkpt><trkpt lat="40.8576160224165" lon="14.571905846517721"><ele>388.66666666666663</ele><time>2026-03-28T16:02:34Z</time></trkpt><trkpt lat="40.85768496871219" lon="14.5719323381976"><ele>391.3333333333333</ele><time>2026-03-28T16:02:35Z</time></trkpt><trkpt lat="40.85774829662074" lon="14.571921926205757"><ele>394.0</ele><time>2026-03-28T16:02:36Z</time></trkpt><trkpt lat="40.85780270247445" lon="14.571856542663284"><ele>396.66666666666663</ele><time>2026-03-28T16:02:37Z</time></trkpt><trkpt lat="40.85785060356347" lon="14.571752003001109"><ele>399.3333333333333</ele><time>2026-03-28T16:02:38Z</time></trkpt><trkpt lat="40.857862539126835" lon="14.57165038961685"><ele>402.0</ele><time>2026-03-28T16:02:39Z</time></trkpt><trkpt lat="40.85782102386571" lon="14.571534701560234"><ele>402.0</ele><time>2026-03-28T16:02:40Z</time></trkpt><trkpt lat="40.85776578195086" lon="14.571423394231834"><ele>402.0</ele><time>2026-03-28T16:02:40.999Z</time></trkpt><trkpt lat="40.85771563480598" lon="14.571319835848668"><ele>402.0</ele><time>2026-03-28T16:02:41.999Z</time></trkpt><trkpt lat="40.857661320499325" lon="14.571204747301119"><ele>402.0</ele><time>2026-03-28T16:02:42.999Z</time></trkpt><trkpt lat="40.85761414448317" lon="14.571101991031032"><ele>402.0</ele><time>2026-03-28T16:02:43.999Z</time></trkpt><trkpt lat="40.85757018364927" lon="14.571005689647217"><ele>397.20000000000005</ele><time>2026-03-28T16:02:44.999Z</time></trkpt><trkpt lat="40.857530144559014" lon="14.570917979306016"><ele>392.4</ele><time>2026-03-28T16:02:45.999Z</time></trkpt><trkpt lat="40.857493275977056" lon="14.570837214336823"><ele>387.6</ele><time>2026-03-28T16:02:46.999Z</time></trkpt><trkpt lat="40.85744966783751" lon="14.570725730079745"><ele>382.79999999999995</ele><time>2026-03-28T16:02:48.999Z</time></trkpt><trkpt lat="40.85730132219058" lon="14.570840468984446"><ele>378.0</ele><time>2026-03-28T16:02:53.999Z</time></trkpt><trkpt lat="40.85728349071598" lon="14.571016150464024"><ele>378.0</ele><time>2026-03-28T16:02:55.999Z</time></trkpt><trkpt lat="40.857306900489824" lon="14.571183717092259"><ele>378.0</ele><time>2026-03-28T16:02:57.999Z</time></trkpt><trkpt lat="40.85736972374762" lon="14.571314853952003"><ele>378.0</ele><time>2026-03-28T16:02:59.999Z</time></trkpt><trkpt lat="40.85736229130999" lon="14.571399533115947"><ele>378.0</ele><time>2026-03-28T16:03:01.999Z</time></trkpt><trkpt lat="40.857305535413005" lon="14.571440443541338"><ele>378.0</ele><time>2026-03-28T16:03:03.999Z</time></trkpt><trkpt lat="40.857173589283605" lon="14.57144678610285"><ele>378.4</ele><time>2026-03-28T16:03:05.999Z</time></trkpt><trkpt lat="40.857083467554446" lon="14.571419604992412"><ele>378.79999999999995</ele><time>2026-03-28T16:03:06.999Z</time></trkpt><trkpt lat="40.85699825023929" lon="14.57138864394384"><ele>379.2</ele><time>2026-03-28T16:03:07.999Z</time></trkpt><trkpt lat="40.856918715678134" lon="14.571359752388423"><ele>379.6</ele><time>2026-03-28T16:03:08.999Z</time></trkpt><trkpt lat="40.85682044818592" lon="14.571353475074208"><ele>380.0</ele><time>2026-03-28T16:03:10.999Z</time></trkpt><trkpt lat="40.85673216225783" lon="14.57144628971069"><ele>380.0</ele><time>2026-03-28T16:03:12.999Z</time></trkpt><trkpt lat="40.8566352009829" lon="14.571551644572427"><ele>380.0</ele><time>2026-03-28T16:03:14.999Z</time></trkpt><trkpt lat="40.85655725390138" lon="14.571593715499988"><ele>380.0</ele><time>2026-03-28T16:03:15.999Z</time></trkpt><trkpt lat="40.856487739700576" lon="14.571673021085234"><ele>380.0</ele><time>2026-03-28T16:03:16.999Z</time></trkpt><trkpt lat="40.85644598322454" lon="14.571772212096366"><ele>380.0</ele><time>2026-03-28T16:03:17.999Z</time></trkpt><trkpt lat="40.85638698130743" lon="14.571829870000087"><ele>380.0</ele><time>2026-03-28T16:03:18.999Z</time></trkpt><trkpt lat="40.85633126785692" lon="14.571919908934152"><ele>380.0</ele><time>2026-03-28T16:03:19.999Z</time></trkpt><trkpt lat="40.85627566263406" lon="14.572018751491056"><ele>380.0</ele><time>2026-03-28T16:03:20.999Z</time></trkpt><trkpt lat="40.85622902561985" lon="14.572104591192735"><ele>380.0</ele><time>2026-03-28T16:03:21.999Z</time></trkpt><trkpt lat="40.856184078735154" lon="14.572186712973608"><ele>380.0</ele><time>2026-03-28T16:03:22.999Z</time></trkpt><trkpt lat="40.85614729650916" lon="14.572279898445919"><ele>380.0</ele><time>2026-03-28T16:03:23.999Z</time></trkpt><trkpt lat="40.85608751499104" lon="14.57235727682098"><ele>379.5</ele><time>2026-03-28T16:03:24.999Z</time></trkpt><trkpt lat="40.856007267625465" lon="14.572436833373855"><ele>379.0</ele><time>2026-03-28T16:03:25.999Z</time></trkpt><trkpt lat="40.85592029510474" lon="14.57256399276159"><ele>378.5</ele><time>2026-03-28T16:03:26.999Z</time></trkpt><trkpt lat="40.85584328692098" lon="14.572702241549976"><ele>378.0</ele><time>2026-03-28T16:03:27.999Z</time></trkpt><trkpt lat="40.85577729981462" lon="14.572813783641388"><ele>382.0</ele><time>2026-03-28T16:03:28.999Z</time></trkpt><trkpt lat="40.85570160168939" lon="14.572941740874485"><ele>386.0</ele><time>2026-03-28T16:03:29.999Z</time></trkpt><trkpt lat="40.85562636455985" lon="14.573068978073358"><ele>390.0</ele><time>2026-03-28T16:03:30.999Z</time></trkpt><trkpt lat="40.85556000818532" lon="14.573226247975983"><ele>394.0</ele><time>2026-03-28T16:03:31.999Z</time></trkpt><trkpt lat="40.855461701154574" lon="14.573377198298967"><ele>394.0</ele><time>2026-03-28T16:03:32.999Z</time></trkpt><trkpt lat="40.85538087842658" lon="14.573538758732523"><ele>394.0</ele><time>2026-03-28T16:03:33.999Z</time></trkpt><trkpt lat="40.85533479648487" lon="14.573683797910457"><ele>394.0</ele><time>2026-03-28T16:03:34.999Z</time></trkpt><trkpt lat="40.8552595647898" lon="14.573803983537527"><ele>394.0</ele><time>2026-03-28T16:03:35.999Z</time></trkpt><trkpt lat="40.85520975617533" lon="14.57392669336889"><ele>395.79999999999995</ele><time>2026-03-28T16:03:36.999Z</time></trkpt><trkpt lat="40.85519807817343" lon="14.574060341073617"><ele>397.59999999999997</ele><time>2026-03-28T16:03:37.999Z</time></trkpt><trkpt lat="40.855171389589465" lon="14.574181066917541"><ele>399.4</ele><time>2026-03-28T16:03:38.999Z</time></trkpt><trkpt lat="40.85514968791337" lon="14.574311058802767"><ele>401.2</ele><time>2026-03-28T16:03:39.999Z</time></trkpt><trkpt lat="40.85514221198594" lon="14.57441106864491"><ele>403.0</ele><time>2026-03-28T16:03:40.998Z</time></trkpt><trkpt lat="40.85513517748151" lon="14.574522656293492"><ele>404.0</ele><time>2026-03-28T16:03:41.998Z</time></trkpt><trkpt lat="40.85513451710216" lon="14.574653691206144"><ele>405.0</ele><time>2026-03-28T16:03:42.998Z</time></trkpt><trkpt lat="40.85515320434393" lon="14.574776587174549"><ele>406.0</ele><time>2026-03-28T16:03:43.998Z</time></trkpt><trkpt lat="40.85518030107084" lon="14.574889115416871"><ele>407.0</ele><time>2026-03-28T16:03:44.998Z</time></trkpt><trkpt lat="40.85520854189815" lon="14.575026984652391"><ele>408.0</ele><time>2026-03-28T16:03:45.998Z</time></trkpt><trkpt lat="40.855225880334956" lon="14.575160964798334"><ele>408.0</ele><time>2026-03-28T16:03:46.998Z</time></trkpt><trkpt lat="40.855239749777795" lon="14.575269463707388"><ele>408.0</ele><time>2026-03-28T16:03:47.998Z</time></trkpt><trkpt lat="40.85525413415161" lon="14.57537111465388"><ele>408.0</ele><time>2026-03-28T16:03:48.998Z</time></trkpt><trkpt lat="40.855273655746295" lon="14.575488830081827"><ele>408.0</ele><time>2026-03-28T16:03:49.998Z</time></trkpt><trkpt lat="40.85527291698205" lon="14.575601440471532"><ele>408.0</ele><time>2026-03-28T16:03:50.998Z</time></trkpt><trkpt lat="40.85528395490666" lon="14.575737094148112"><ele>408.0</ele><time>2026-03-28T16:03:51.998Z</time></trkpt><trkpt lat="40.85529440125655" lon="14.575865872264428"><ele>408.5</ele><time>2026-03-28T16:03:52.998Z</time></trkpt><trkpt lat="40.85531495535668" lon="14.57599079660037"><ele>409.0</ele><time>2026-03-28T16:03:53.998Z</time></trkpt><trkpt lat="40.855324837261605" lon="14.576096727282339"><ele>409.5</ele><time>2026-03-28T16:03:54.998Z</time></trkpt><trkpt lat="40.855342312642414" lon="14.576185530039286"><ele>410.0</ele><time>2026-03-28T16:03:55.998Z</time></trkpt><trkpt lat="40.85536613217901" lon="14.576313613443395"><ele>410.5</ele><time>2026-03-28T16:03:57.998Z</time></trkpt><trkpt lat="40.85536614764475" lon="14.576430091362338"><ele>411.0</ele><time>2026-03-28T16:03:59.998Z</time></trkpt><trkpt lat="40.85528520504817" lon="14.576489390652792"><ele>410.4</ele><time>2026-03-28T16:04:01.998Z</time></trkpt><trkpt lat="40.855158044968505" lon="14.576431735531648"><ele>409.8</ele><time>2026-03-28T16:04:03.998Z</time></trkpt><trkpt lat="40.8550930593405" lon="14.57634817048473"><ele>409.2</ele><time>2026-03-28T16:04:04.998Z</time></trkpt><trkpt lat="40.85504007972781" lon="14.576242559025792"><ele>408.59999999999997</ele><time>2026-03-28T16:04:05.998Z</time></trkpt><trkpt lat="40.85499107936501" lon="14.576155910909833"><ele>408.0</ele><time>2026-03-28T16:04:06.998Z</time></trkpt><trkpt lat="40.854947622759234" lon="14.576092446129305"><ele>404.0</ele><time>2026-03-28T16:04:07.998Z</time></trkpt><trkpt lat="40.854880800511275" lon="14.575968845344207"><ele>400.0</ele><time>2026-03-28T16:04:09.998Z</time></trkpt><trkpt lat="40.85481383487136" lon="14.575862297701024"><ele>396.0</ele><time>2026-03-28T16:04:11.998Z</time></trkpt><trkpt lat="40.854746229620226" lon="14.57579872602162"><ele>392.0</ele><time>2026-03-28T16:04:13.998Z</time></trkpt><trkpt lat="40.85466300022591" lon="14.575736244548265"><ele>388.0</ele><time>2026-03-28T16:04:15.998Z</time></trkpt><trkpt lat="40.854548444061386" lon="14.575726630965677"><ele>388.0</ele><time>2026-03-28T16:04:17.998Z</time></trkpt><trkpt lat="40.85446829666769" lon="14.575778144917276"><ele>388.0</ele><time>2026-03-28T16:04:19.998Z</time></trkpt><trkpt lat="40.85440256441851" lon="14.57586553949505"><ele>388.0</ele><time>2026-03-28T16:04:22.998Z</time></trkpt><trkpt lat="40.854247902015224" lon="14.576005602714948"><ele>388.0</ele><time>2026-03-28T16:04:25Z</time></trkpt><trkpt lat="40.854171212687085" lon="14.576112570704211"><ele>387.79999999999995</ele><time>2026-03-28T16:04:27Z</time></trkpt><trkpt lat="40.85409470468004" lon="14.576216930352947"><ele>387.6</ele><time>2026-03-28T16:04:29Z</time></trkpt><trkpt lat="40.85402160784484" lon="14.576309678917523"><ele>387.4</ele><time>2026-03-28T16:04:31Z</time></trkpt><trkpt lat="40.85394737806036" lon="14.576399479969378"><ele>387.20000000000005</ele><time>2026-03-28T16:04:33Z</time></trkpt><trkpt lat="40.85386262132489" lon="14.576483451344263"><ele>387.0</ele><time>2026-03-28T16:04:35Z</time></trkpt><trkpt lat="40.853825482367284" lon="14.57655239907508"><ele>387.0</ele><time>2026-03-28T16:04:36Z</time></trkpt><trkpt lat="40.853760339431965" lon="14.576679828733866"><ele>387.0</ele><time>2026-03-28T16:04:38Z</time></trkpt><trkpt lat="40.85369114043713" lon="14.576805585404713"><ele>387.0</ele><time>2026-03-28T16:04:40Z</time></trkpt><trkpt lat="40.853638437228916" lon="14.576941821731104"><ele>387.0</ele><time>2026-03-28T16:04:42Z</time></trkpt><trkpt lat="40.853607741318186" lon="14.577022121409847"><ele>387.0</ele><time>2026-03-28T16:04:43Z</time></trkpt><trkpt lat="40.85360693937489" lon="14.577137715577974"><ele>390.6</ele><time>2026-03-28T16:04:44Z</time></trkpt><trkpt lat="40.85359616949785" lon="14.577233941810938"><ele>394.20000000000005</ele><time>2026-03-28T16:04:45Z</time></trkpt><trkpt lat="40.85356747071542" lon="14.577387019657534"><ele>397.8</ele><time>2026-03-28T16:04:47Z</time></trkpt><trkpt lat="40.85354400845966" lon="14.57753028533709"><ele>401.4</ele><time>2026-03-28T16:04:49Z</time></trkpt><trkpt lat="40.85351522678748" lon="14.577639117033764"><ele>405.0</ele><time>2026-03-28T16:04:51Z</time></trkpt><trkpt lat="40.85343704789489" lon="14.577751369051546"><ele>401.6666666666667</ele><time>2026-03-28T16:04:52.999Z</time></trkpt><trkpt lat="40.85336693285875" lon="14.57778430787824"><ele>398.33333333333337</ele><time>2026-03-28T16:04:53.999Z</time></trkpt><trkpt lat="40.853303764326185" lon="14.577822834283491"><ele>395.0</ele><time>2026-03-28T16:04:54.999Z</time></trkpt><trkpt lat="40.853265516150294" lon="14.577891072089932"><ele>391.6666666666667</ele><time>2026-03-28T16:04:55.999Z</time></trkpt><trkpt lat="40.85323934395085" lon="14.577993128736198"><ele>388.33333333333337</ele><time>2026-03-28T16:04:56.999Z</time></trkpt><trkpt lat="40.85320745219769" lon="14.578074585167844"><ele>385.0</ele><time>2026-03-28T16:04:57.999Z</time></trkpt><trkpt lat="40.85313133423114" lon="14.578178253130664"><ele>385.0</ele><time>2026-03-28T16:04:59.999Z</time></trkpt><trkpt lat="40.85305840582272" lon="14.578162914647313"><ele>385.0</ele><time>2026-03-28T16:05:01.999Z</time></trkpt><trkpt lat="40.852959186168675" lon="14.577935895574686"><ele>385.0</ele><time>2026-03-28T16:05:04.999Z</time></trkpt><trkpt lat="40.8529588565374" lon="14.577826476823164"><ele>385.0</ele><time>2026-03-28T16:05:05.999Z</time></trkpt><trkpt lat="40.85295938036174" lon="14.577725757179497"><ele>385.0</ele><time>2026-03-28T16:05:06.999Z</time></trkpt><trkpt lat="40.85295764111439" lon="14.57764163790867"><ele>380.0</ele><time>2026-03-28T16:05:07.999Z</time></trkpt><trkpt lat="40.852946777969805" lon="14.577491500850627"><ele>375.0</ele><time>2026-03-28T16:05:09.999Z</time></trkpt><trkpt lat="40.852886295226185" lon="14.577357506729863"><ele>370.0</ele><time>2026-03-28T16:05:11.999Z</time></trkpt><trkpt lat="40.85284424834462" lon="14.577275673235166"><ele>365.0</ele><time>2026-03-28T16:05:12.999Z</time></trkpt><trkpt lat="40.85279690653567" lon="14.577186957299357"><ele>360.0</ele><time>2026-03-28T16:05:13.999Z</time></trkpt><trkpt lat="40.85274968713849" lon="14.577106915878261"><ele>360.0</ele><time>2026-03-28T16:05:14.999Z</time></trkpt><trkpt lat="40.852700463201245" lon="14.577031846886563"><ele>360.0</ele><time>2026-03-28T16:05:15.999Z</time></trkpt><trkpt lat="40.852659282336276" lon="14.576958299943131"><ele>360.0</ele><time>2026-03-28T16:05:16.999Z</time></trkpt><trkpt lat="40.85262751261359" lon="14.576877711480176"><ele>360.0</ele><time>2026-03-28T16:05:17.999Z</time></trkpt><trkpt lat="40.85260008359229" lon="14.576786742646417"><ele>360.0</ele><time>2026-03-28T16:05:18.999Z</time></trkpt><trkpt lat="40.852582213910736" lon="14.576684608026452"><ele>360.0</ele><time>2026-03-28T16:05:19.999Z</time></trkpt><trkpt lat="40.85257411032286" lon="14.57657320988875"><ele>357.5</ele><time>2026-03-28T16:05:20.999Z</time></trkpt><trkpt lat="40.85257807063042" lon="14.576461771178783"><ele>355.0</ele><time>2026-03-28T16:05:21.999Z</time></trkpt><trkpt lat="40.85262547045589" lon="14.576379127121628"><ele>352.5</ele><time>2026-03-28T16:05:22.999Z</time></trkpt><trkpt lat="40.85267068449563" lon="14.576264217902251"><ele>350.0</ele><time>2026-03-28T16:05:23.999Z</time></trkpt><trkpt lat="40.8526487257926" lon="14.576139959022255"><ele>347.5</ele><time>2026-03-28T16:05:24.999Z</time></trkpt><trkpt lat="40.852633565601835" lon="14.576057139180163"><ele>345.0</ele><time>2026-03-28T16:05:25.999Z</time></trkpt><trkpt lat="40.85260528933702" lon="14.575919665056583"><ele>351.0</ele><time>2026-03-28T16:05:27.999Z</time></trkpt><trkpt lat="40.85257718603414" lon="14.575737759448726"><ele>357.0</ele><time>2026-03-28T16:05:29.999Z</time></trkpt><trkpt lat="40.852555132930135" lon="14.57561615614594"><ele>363.0</ele><time>2026-03-28T16:05:30.999Z</time></trkpt><trkpt lat="40.85252325065778" lon="14.575520919200777"><ele>369.0</ele><time>2026-03-28T16:05:31.999Z</time></trkpt><trkpt lat="40.85247963242476" lon="14.575441049419297"><ele>375.0</ele><time>2026-03-28T16:05:32.999Z</time></trkpt><trkpt lat="40.852438667731555" lon="14.575371055053541"><ele>372.6</ele><time>2026-03-28T16:05:33.999Z</time></trkpt><trkpt lat="40.85240773703706" lon="14.575292613172385"><ele>370.2</ele><time>2026-03-28T16:05:34.999Z</time></trkpt><trkpt lat="40.85234395216498" lon="14.575145960220746"><ele>367.79999999999995</ele><time>2026-03-28T16:05:36.999Z</time></trkpt><trkpt lat="40.85225711684786" lon="14.575024614910449"><ele>365.4</ele><time>2026-03-28T16:05:38.999Z</time></trkpt><trkpt lat="40.85219458643983" lon="14.574985852800989"><ele>363.0</ele><time>2026-03-28T16:05:39.999Z</time></trkpt><trkpt lat="40.85213257087171" lon="14.574966284447525"><ele>363.0</ele><time>2026-03-28T16:05:40.999Z</time></trkpt><trkpt lat="40.85200705871187" lon="14.574902845863424"><ele>363.0</ele><time>2026-03-28T16:05:42.999Z</time></trkpt><trkpt lat="40.851970773139634" lon="14.574831988714429"><ele>363.0</ele><time>2026-03-28T16:05:43.999Z</time></trkpt><trkpt lat="40.851929326235684" lon="14.574762126381396"><ele>363.0</ele><time>2026-03-28T16:05:44.999Z</time></trkpt><trkpt lat="40.851872827288574" lon="14.574705202619356"><ele>363.0</ele><time>2026-03-28T16:05:45.999Z</time></trkpt><trkpt lat="40.85180637281902" lon="14.574577163333789"><ele>365.79999999999995</ele><time>2026-03-28T16:05:47.999Z</time></trkpt><trkpt lat="40.85173922337221" lon="14.574501814172816"><ele>368.6</ele><time>2026-03-28T16:05:48.999Z</time></trkpt><trkpt lat="40.85166823608676" lon="14.574476108142258"><ele>371.4</ele><time>2026-03-28T16:05:49.999Z</time></trkpt><trkpt lat="40.851581449843856" lon="14.574442587919304"><ele>374.20000000000005</ele><time>2026-03-28T16:05:50.999Z</time></trkpt><trkpt lat="40.85147818483918" lon="14.574394662981682"><ele>377.0</ele><time>2026-03-28T16:05:51.998Z</time></trkpt><trkpt lat="40.851402178331625" lon="14.574331996979149"><ele>377.0</ele><time>2026-03-28T16:05:52.998Z</time></trkpt><trkpt lat="40.85132736329126" lon="14.574310697777108"><ele>377.0</ele><time>2026-03-28T16:05:53.998Z</time></trkpt><trkpt lat="40.85125711159131" lon="14.574317054365322"><ele>377.0</ele><time>2026-03-28T16:05:54.998Z</time></trkpt><trkpt lat="40.851182486454206" lon="14.574334845885899"><ele>377.0</ele><time>2026-03-28T16:05:55.998Z</time></trkpt><trkpt lat="40.85109883960162" lon="14.574366095391106"><ele>377.0</ele><time>2026-03-28T16:05:56.998Z</time></trkpt><trkpt lat="40.85100573064799" lon="14.574419930331763"><ele>377.0</ele><time>2026-03-28T16:05:57.998Z</time></trkpt><trkpt lat="40.85090182282669" lon="14.574478570197165"><ele>377.8</ele><time>2026-03-28T16:05:58.998Z</time></trkpt><trkpt lat="40.850811121280884" lon="14.57451891828202"><ele>378.6</ele><time>2026-03-28T16:05:59.998Z</time></trkpt><trkpt lat="40.85073383432278" lon="14.574503555810903"><ele>379.40000000000003</ele><time>2026-03-28T16:06:00.998Z</time></trkpt><trkpt lat="40.85064452817513" lon="14.574471842849418"><ele>380.20000000000005</ele><time>2026-03-28T16:06:01.998Z</time></trkpt><trkpt lat="40.85053024546842" lon="14.57445739348298"><ele>381.0</ele><time>2026-03-28T16:06:02.998Z</time></trkpt><trkpt lat="40.85043015419658" lon="14.574469336084318"><ele>381.0</ele><time>2026-03-28T16:06:03.998Z</time></trkpt><trkpt lat="40.850338465627104" lon="14.574488754311892"><ele>381.0</ele><time>2026-03-28T16:06:04.998Z</time></trkpt><trkpt lat="40.850265432430966" lon="14.574497995388272"><ele>381.0</ele><time>2026-03-28T16:06:05.998Z</time></trkpt><trkpt lat="40.850182643159215" lon="14.574499521317914"><ele>381.0</ele><time>2026-03-28T16:06:06.998Z</time></trkpt><trkpt lat="40.85009042780018" lon="14.574484927371229"><ele>381.0</ele><time>2026-03-28T16:06:07.998Z</time></trkpt><trkpt lat="40.849999927839754" lon="14.574479707281792"><ele>381.0</ele><time>2026-03-28T16:06:08.998Z</time></trkpt><trkpt lat="40.84991699977913" lon="14.574465697449844"><ele>381.0</ele><time>2026-03-28T16:06:09.998Z</time></trkpt><trkpt lat="40.84982851949718" lon="14.574445974418834"><ele>381.0</ele><time>2026-03-28T16:06:10.998Z</time></trkpt><trkpt lat="40.84972776980702" lon="14.574448016383904"><ele>381.0</ele><time>2026-03-28T16:06:11.998Z</time></trkpt><trkpt lat="40.849655419296184" lon="14.574451759590783"><ele>381.0</ele><time>2026-03-28T16:06:12.998Z</time></trkpt><trkpt lat="40.84957313455507" lon="14.574430823607718"><ele>381.0</ele><time>2026-03-28T16:06:13.998Z</time></trkpt><trkpt lat="40.849510220522326" lon="14.574385358650256"><ele>381.0</ele><time>2026-03-28T16:06:14.998Z</time></trkpt><trkpt lat="40.84945203977241" lon="14.574313787376422"><ele>381.0</ele><time>2026-03-28T16:06:15.998Z</time></trkpt><trkpt lat="40.8493857124643" lon="14.574211287649677"><ele>381.0</ele><time>2026-03-28T16:06:16.998Z</time></trkpt><trkpt lat="40.849329869111195" lon="14.574103599635412"><ele>381.0</ele><time>2026-03-28T16:06:17.998Z</time></trkpt><trkpt lat="40.84930578709707" lon="14.5740039581618"><ele>381.0</ele><time>2026-03-28T16:06:18.998Z</time></trkpt><trkpt lat="40.849280081041584" lon="14.573873140206915"><ele>381.0</ele><time>2026-03-28T16:06:19.998Z</time></trkpt><trkpt lat="40.84925010255881" lon="14.573726459406684"><ele>381.5</ele><time>2026-03-28T16:06:20.998Z</time></trkpt><trkpt lat="40.84921300892463" lon="14.573626725985832"><ele>382.0</ele><time>2026-03-28T16:06:21.998Z</time></trkpt><trkpt lat="40.84918043057094" lon="14.57353912748901"><ele>382.5</ele><time>2026-03-28T16:06:22.998Z</time></trkpt><trkpt lat="40.849137617671595" lon="14.57343920665011"><ele>383.0</ele><time>2026-03-28T16:06:23.998Z</time></trkpt><trkpt lat="40.849114574407466" lon="14.573303337471874"><ele>383.5</ele><time>2026-03-28T16:06:24.998Z</time></trkpt><trkpt lat="40.84911022696139" lon="14.573184737428228"><ele>384.0</ele><time>2026-03-28T16:06:25.998Z</time></trkpt><trkpt lat="40.84911520884887" lon="14.573089997423317"><ele>384.0</ele><time>2026-03-28T16:06:26.998Z</time></trkpt><trkpt lat="40.84912016318799" lon="14.572986297681268"><ele>384.0</ele><time>2026-03-28T16:06:27.998Z</time></trkpt><trkpt lat="40.84914754577764" lon="14.572840397344535"><ele>384.0</ele><time>2026-03-28T16:06:28.998Z</time></trkpt><trkpt lat="40.849144624076146" lon="14.572714019242829"><ele>384.0</ele><time>2026-03-28T16:06:30Z</time></trkpt><trkpt lat="40.849131842747994" lon="14.572614348063542"><ele>384.0</ele><time>2026-03-28T16:06:31Z</time></trkpt><trkpt lat="40.849135438252006" lon="14.572512840532927"><ele>384.0</ele><time>2026-03-28T16:06:32Z</time></trkpt><trkpt lat="40.849173332032464" lon="14.572385432210524"><ele>383.79999999999995</ele><time>2026-03-28T16:06:33Z</time></trkpt><trkpt lat="40.84922326347894" lon="14.572255452605864"><ele>383.59999999999997</ele><time>2026-03-28T16:06:34Z</time></trkpt><trkpt lat="40.849176875895246" lon="14.572187180138767"><ele>383.4</ele><time>2026-03-28T16:06:36Z</time></trkpt><trkpt lat="40.84923843054399" lon="14.57206335393132"><ele>383.2</ele><time>2026-03-28T16:06:38Z</time></trkpt><trkpt lat="40.84927685421573" lon="14.571976935895808"><ele>383.0</ele><time>2026-03-28T16:06:39Z</time></trkpt><trkpt lat="40.849324315542724" lon="14.57187723033269"><ele>381.0</ele><time>2026-03-28T16:06:40Z</time></trkpt><trkpt lat="40.84939469027916" lon="14.57179328307827"><ele>379.0</ele><time>2026-03-28T16:06:41Z</time></trkpt><trkpt lat="40.84944734498599" lon="14.571716810537582"><ele>377.0</ele><time>2026-03-28T16:06:42Z</time></trkpt><trkpt lat="40.849474064733855" lon="14.571637639236451"><ele>375.0</ele><time>2026-03-28T16:06:43Z</time></trkpt><trkpt lat="40.84950832357806" lon="14.571541598147466"><ele>373.0</ele><time>2026-03-28T16:06:44Z</time></trkpt><trkpt lat="40.84956277667022" lon="14.571470065657381"><ele>371.0</ele><time>2026-03-28T16:06:45Z</time></trkpt><trkpt lat="40.849606786745845" lon="14.57140031860735"><ele>371.0</ele><time>2026-03-28T16:06:46Z</time></trkpt><trkpt lat="40.849661515991656" lon="14.571304958018356"><ele>371.0</ele><time>2026-03-28T16:06:47Z</time></trkpt><trkpt lat="40.84975900128674" lon="14.57114606424325"><ele>371.0</ele><time>2026-03-28T16:06:48Z</time></trkpt><trkpt lat="40.84981976112017" lon="14.571044809006974"><ele>371.0</ele><time>2026-03-28T16:06:49Z</time></trkpt><trkpt lat="40.84986845772714" lon="14.570952911585849"><ele>371.0</ele><time>2026-03-28T16:06:50Z</time></trkpt><trkpt lat="40.849909239779315" lon="14.570863022472437"><ele>370.2857142857143</ele><time>2026-03-28T16:06:51Z</time></trkpt><trkpt lat="40.84993705566789" lon="14.570775409456228"><ele>369.57142857142856</ele><time>2026-03-28T16:06:52Z</time></trkpt><trkpt lat="40.849962575377745" lon="14.570679998380704"><ele>368.8571428571429</ele><time>2026-03-28T16:06:53Z</time></trkpt><trkpt lat="40.849976992900714" lon="14.570589748773042"><ele>368.1428571428571</ele><time>2026-03-28T16:06:54Z</time></trkpt><trkpt lat="40.84998714898802" lon="14.570487895162154"><ele>367.42857142857144</ele><time>2026-03-28T16:06:55Z</time></trkpt><trkpt lat="40.85000121718669" lon="14.570398477851175"><ele>366.7142857142857</ele><time>2026-03-28T16:06:56Z</time></trkpt><trkpt lat="40.850005792286986" lon="14.570310218511219"><ele>366.0</ele><time>2026-03-28T16:06:57Z</time></trkpt><trkpt lat="40.85003018038524" lon="14.570162729514625"><ele>365.1666666666667</ele><time>2026-03-28T16:06:59Z</time></trkpt><trkpt lat="40.85008101871809" lon="14.570039344155868"><ele>364.3333333333333</ele><time>2026-03-28T16:07:01Z</time></trkpt><trkpt lat="40.85011251355161" lon="14.569963997156464"><ele>363.5</ele><time>2026-03-28T16:07:01.999Z</time></trkpt><trkpt lat="40.850166415741725" lon="14.569850052317397"><ele>362.66666666666663</ele><time>2026-03-28T16:07:03.999Z</time></trkpt><trkpt lat="40.85020098908724" lon="14.569767782686782"><ele>361.8333333333333</ele><time>2026-03-28T16:07:04.999Z</time></trkpt><trkpt lat="40.85024739660909" lon="14.569654759726168"><ele>361.0</ele><time>2026-03-28T16:07:06.999Z</time></trkpt><trkpt lat="40.850310209813706" lon="14.56951699694675"><ele>356.20000000000005</ele><time>2026-03-28T16:07:08.999Z</time></trkpt><trkpt lat="40.85034711693827" lon="14.569347021443487"><ele>351.40000000000003</ele><time>2026-03-28T16:07:10.999Z</time></trkpt><trkpt lat="40.85036224556266" lon="14.569246453929914"><ele>346.6</ele><time>2026-03-28T16:07:11.999Z</time></trkpt><trkpt lat="40.85039004616511" lon="14.569153621437865"><ele>341.8</ele><time>2026-03-28T16:07:12.999Z</time></trkpt><trkpt lat="40.850416872524804" lon="14.569075810873453"><ele>337.0</ele><time>2026-03-28T16:07:13.999Z</time></trkpt><trkpt lat="40.85045157846759" lon="14.568913059957657"><ele>337.0</ele><time>2026-03-28T16:07:15.999Z</time></trkpt><trkpt lat="40.85046236775839" lon="14.568748358858278"><ele>337.0</ele><time>2026-03-28T16:07:17.999Z</time></trkpt><trkpt lat="40.850473869318584" lon="14.568660857466313"><ele>337.0</ele><time>2026-03-28T16:07:18.999Z</time></trkpt><trkpt lat="40.85050044982506" lon="14.56856663207378"><ele>337.0</ele><time>2026-03-28T16:07:19.999Z</time></trkpt><trkpt lat="40.85052960240871" lon="14.568464469903729"><ele>337.0</ele><time>2026-03-28T16:07:20.999Z</time></trkpt><trkpt lat="40.85055292275425" lon="14.568343449540114"><ele>337.0</ele><time>2026-03-28T16:07:21.999Z</time></trkpt><trkpt lat="40.85057562369563" lon="14.568231799814566"><ele>336.3333333333333</ele><time>2026-03-28T16:07:22.999Z</time></trkpt><trkpt lat="40.85059703838109" lon="14.568134256758581"><ele>335.66666666666663</ele><time>2026-03-28T16:07:23.999Z</time></trkpt><trkpt lat="40.85063269890372" lon="14.568038474538552"><ele>335.0</ele><time>2026-03-28T16:07:24.999Z</time></trkpt><trkpt lat="40.850679326894515" lon="14.5679412189154"><ele>334.3333333333333</ele><time>2026-03-28T16:07:25.999Z</time></trkpt><trkpt lat="40.85071896768986" lon="14.567861011162847"><ele>333.6666666666667</ele><time>2026-03-28T16:07:26.999Z</time></trkpt><trkpt lat="40.85075313773066" lon="14.56777484712315"><ele>333.0</ele><time>2026-03-28T16:07:27.999Z</time></trkpt><trkpt lat="40.850774895182504" lon="14.567677181376506"><ele>332.3333333333333</ele><time>2026-03-28T16:07:28.999Z</time></trkpt><trkpt lat="40.850786608169386" lon="14.567584984594863"><ele>331.6666666666667</ele><time>2026-03-28T16:07:29.999Z</time></trkpt><trkpt lat="40.85078444654533" lon="14.56749543623495"><ele>331.0</ele><time>2026-03-28T16:07:30.999Z</time></trkpt><trkpt lat="40.85076698455762" lon="14.567397869883973"><ele>330.33333333333337</ele><time>2026-03-28T16:07:31.999Z</time></trkpt><trkpt lat="40.85073810628878" lon="14.567269889401755"><ele>329.6666666666667</ele><time>2026-03-28T16:07:32.999Z</time></trkpt><trkpt lat="40.85070566847198" lon="14.567144238711014"><ele>329.0</ele><time>2026-03-28T16:07:33.999Z</time></trkpt><trkpt lat="40.85068985864708" lon="14.567038120207314"><ele>326.5</ele><time>2026-03-28T16:07:34.999Z</time></trkpt><trkpt lat="40.85068030222455" lon="14.566945012114921"><ele>324.0</ele><time>2026-03-28T16:07:35.999Z</time></trkpt><trkpt lat="40.85066314638074" lon="14.566837576551993"><ele>321.5</ele><time>2026-03-28T16:07:36.999Z</time></trkpt><trkpt lat="40.850637487046626" lon="14.566723990267052"><ele>319.0</ele><time>2026-03-28T16:07:37.999Z</time></trkpt><trkpt lat="40.85060811683496" lon="14.566608177695688"><ele>316.5</ele><time>2026-03-28T16:07:38.999Z</time></trkpt><trkpt lat="40.850590266375626" lon="14.566511401857717"><ele>314.0</ele><time>2026-03-28T16:07:39.999Z</time></trkpt><trkpt lat="40.85056400097954" lon="14.56641193459815"><ele>314.0</ele><time>2026-03-28T16:07:40.999Z</time></trkpt><trkpt lat="40.85052572092869" lon="14.56631148843333"><ele>314.0</ele><time>2026-03-28T16:07:41.999Z</time></trkpt><trkpt lat="40.85048943544605" lon="14.566216717118909"><ele>314.0</ele><time>2026-03-28T16:07:42.999Z</time></trkpt><trkpt lat="40.850463641498884" lon="14.566114384706925"><ele>314.0</ele><time>2026-03-28T16:07:43.999Z</time></trkpt><trkpt lat="40.85044526583454" lon="14.565987423119486"><ele>314.0</ele><time>2026-03-28T16:07:44.999Z</time></trkpt><trkpt lat="40.850419858055304" lon="14.565869164611358"><ele>314.0</ele><time>2026-03-28T16:07:45.999Z</time></trkpt><trkpt lat="40.850392436120046" lon="14.565778777414815"><ele>311.0</ele><time>2026-03-28T16:07:46.999Z</time></trkpt><trkpt lat="40.85035150634675" lon="14.565678968038661"><ele>308.0</ele><time>2026-03-28T16:07:47.999Z</time></trkpt><trkpt lat="40.850320089810054" lon="14.56556018278673"><ele>305.0</ele><time>2026-03-28T16:07:48.999Z</time></trkpt><trkpt lat="40.85025361911912" lon="14.565418231629206"><ele>302.0</ele><time>2026-03-28T16:07:49.999Z</time></trkpt><trkpt lat="40.85019394297462" lon="14.565307055819195"><ele>299.0</ele><time>2026-03-28T16:07:50.999Z</time></trkpt><trkpt lat="40.850141729128374" lon="14.56521465203835"><ele>301.0</ele><time>2026-03-28T16:07:51.999Z</time></trkpt><trkpt lat="40.85009095884685" lon="14.565111082773424"><ele>303.0</ele><time>2026-03-28T16:07:52.999Z</time></trkpt><trkpt lat="40.850042690030115" lon="14.565030090038613"><ele>305.0</ele><time>2026-03-28T16:07:53.999Z</time></trkpt><trkpt lat="40.849990628620304" lon="14.564946311809747"><ele>307.0</ele><time>2026-03-28T16:07:54.999Z</time></trkpt><trkpt lat="40.849947477766804" lon="14.564866081818982"><ele>309.0</ele><time>2026-03-28T16:07:55.999Z</time></trkpt><trkpt lat="40.84989999037802" lon="14.564794648410292"><ele>311.0</ele><time>2026-03-28T16:07:56.999Z</time></trkpt><trkpt lat="40.84985935131648" lon="14.564725725248351"><ele>311.0</ele><time>2026-03-28T16:07:57.999Z</time></trkpt><trkpt lat="40.84982227632807" lon="14.564652213812723"><ele>311.0</ele><time>2026-03-28T16:07:58.999Z</time></trkpt><trkpt lat="40.84977524666294" lon="14.564592821057154"><ele>311.0</ele><time>2026-03-28T16:07:59.998Z</time></trkpt><trkpt lat="40.84972925283706" lon="14.56451686918532"><ele>311.0</ele><time>2026-03-28T16:08:00.998Z</time></trkpt><trkpt lat="40.84968937520927" lon="14.564451004555206"><ele>311.0</ele><time>2026-03-28T16:08:01.998Z</time></trkpt><trkpt lat="40.84961345947579" lon="14.564354459739157"><ele>311.0</ele><time>2026-03-28T16:08:03.998Z</time></trkpt><trkpt lat="40.84954957633652" lon="14.564253292030772"><ele>308.40000000000003</ele><time>2026-03-28T16:08:05.998Z</time></trkpt><trkpt lat="40.84949269844471" lon="14.5641623817791"><ele>305.8</ele><time>2026-03-28T16:08:07.998Z</time></trkpt><trkpt lat="40.84936706962402" lon="14.564062269845842"><ele>303.20000000000005</ele><time>2026-03-28T16:08:10.998Z</time></trkpt><trkpt lat="40.849294785637056" lon="14.563995313696301"><ele>300.6</ele><time>2026-03-28T16:08:12.998Z</time></trkpt><trkpt lat="40.84920833568737" lon="14.563935372860731"><ele>298.0</ele><time>2026-03-28T16:08:14.998Z</time></trkpt><trkpt lat="40.84914083111689" lon="14.563871838313748"><ele>298.0</ele><time>2026-03-28T16:08:16.998Z</time></trkpt><trkpt lat="40.84905731898025" lon="14.563805207122092"><ele>298.0</ele><time>2026-03-28T16:08:18.998Z</time></trkpt><trkpt lat="40.848987315844795" lon="14.563770288295855"><ele>298.0</ele><time>2026-03-28T16:08:20.998Z</time></trkpt><trkpt lat="40.848927715115806" lon="14.563689921377133"><ele>298.0</ele><time>2026-03-28T16:08:23.998Z</time></trkpt><trkpt lat="40.84895657120253" lon="14.563610008319817"><ele>298.0</ele><time>2026-03-28T16:08:25.998Z</time></trkpt><trkpt lat="40.84904893056663" lon="14.56356192163117"><ele>298.0</ele><time>2026-03-28T16:08:27.998Z</time></trkpt><trkpt lat="40.84916097531869" lon="14.563567270124565"><ele>292.6</ele><time>2026-03-28T16:08:29.998Z</time></trkpt><trkpt lat="40.849280537320524" lon="14.563582389900978"><ele>287.20000000000005</ele><time>2026-03-28T16:08:31.998Z</time></trkpt><trkpt lat="40.849365083555114" lon="14.563597901342273"><ele>281.8</ele><time>2026-03-28T16:08:32.998Z</time></trkpt><trkpt lat="40.849466105702724" lon="14.56362530541032"><ele>276.40000000000003</ele><time>2026-03-28T16:08:33.998Z</time></trkpt><trkpt lat="40.84955098372439" lon="14.563650968414535"><ele>271.0</ele><time>2026-03-28T16:08:34.998Z</time></trkpt><trkpt lat="40.849646788245366" lon="14.563671387018802"><ele>273.16666666666663</ele><time>2026-03-28T16:08:36Z</time></trkpt><trkpt lat="40.849725413070004" lon="14.563705506961426"><ele>275.3333333333333</ele><time>2026-03-28T16:08:37Z</time></trkpt><trkpt lat="40.84980779822054" lon="14.56374005628451"><ele>277.5</ele><time>2026-03-28T16:08:38Z</time></trkpt><trkpt lat="40.84987833165972" lon="14.563787902155141"><ele>279.6666666666667</ele><time>2026-03-28T16:08:39Z</time></trkpt><trkpt lat="40.849940253656946" lon="14.563836537928886"><ele>281.83333333333337</ele><time>2026-03-28T16:08:40Z</time></trkpt><trkpt lat="40.85000679533479" lon="14.563875572395713"><ele>284.0</ele><time>2026-03-28T16:08:41Z</time></trkpt><trkpt lat="40.85007917250358" lon="14.563902834272172"><ele>279.5</ele><time>2026-03-28T16:08:42Z</time></trkpt><trkpt lat="40.85015450605251" lon="14.563943064652976"><ele>275.0</ele><time>2026-03-28T16:08:43Z</time></trkpt><trkpt lat="40.850226341972345" lon="14.56399062211541"><ele>270.5</ele><time>2026-03-28T16:08:44Z</time></trkpt><trkpt lat="40.85029759817456" lon="14.564041320140303"><ele>266.0</ele><time>2026-03-28T16:08:45Z</time></trkpt><trkpt lat="40.85036812432651" lon="14.564093902632727"><ele>261.5</ele><time>2026-03-28T16:08:46Z</time></trkpt><trkpt lat="40.8504403037969" lon="14.56415139269024"><ele>257.0</ele><time>2026-03-28T16:08:47Z</time></trkpt><trkpt lat="40.850502860620686" lon="14.564206308386678"><ele>257.0</ele><time>2026-03-28T16:08:48Z</time></trkpt><trkpt lat="40.85055828322706" lon="14.564257688551596"><ele>257.0</ele><time>2026-03-28T16:08:49Z</time></trkpt><trkpt lat="40.85061462851652" lon="14.564319350746866"><ele>257.0</ele><time>2026-03-28T16:08:50Z</time></trkpt><trkpt lat="40.85067231620671" lon="14.564381425568552"><ele>257.0</ele><time>2026-03-28T16:08:51Z</time></trkpt><trkpt lat="40.85073925887353" lon="14.564448791302027"><ele>257.0</ele><time>2026-03-28T16:08:52Z</time></trkpt><trkpt lat="40.8507991196594" lon="14.564519002843607"><ele>257.0</ele><time>2026-03-28T16:08:53Z</time></trkpt><trkpt lat="40.85085137077635" lon="14.564588465620853"><ele>254.00000000000003</ele><time>2026-03-28T16:08:54Z</time></trkpt><trkpt lat="40.85090473588032" lon="14.564657902382402"><ele>251.0</ele><time>2026-03-28T16:08:55Z</time></trkpt><trkpt lat="40.85094934907547" lon="14.564722499476975"><ele>248.0</ele><time>2026-03-28T16:08:56Z</time></trkpt><trkpt lat="40.851019514508174" lon="14.564850069717274"><ele>245.0</ele><time>2026-03-28T16:08:58Z</time></trkpt><trkpt lat="40.85107460289369" lon="14.564929011024207"><ele>242.00000000000003</ele><time>2026-03-28T16:09:00Z</time></trkpt><trkpt lat="40.85115476311213" lon="14.564865878507074"><ele>239.0</ele><time>2026-03-28T16:09:02Z</time></trkpt><trkpt lat="40.851118422439946" lon="14.564792622230408"><ele>239.00000000000003</ele><time>2026-03-28T16:09:04Z</time></trkpt><trkpt lat="40.85107537906987" lon="14.564707820102608"><ele>239.0</ele><time>2026-03-28T16:09:06Z</time></trkpt><trkpt lat="40.851020548539424" lon="14.564567783256868"><ele>239.0</ele><time>2026-03-28T16:09:08Z</time></trkpt><trkpt lat="40.850987860095636" lon="14.564494463148797"><ele>239.0</ele><time>2026-03-28T16:09:09Z</time></trkpt><trkpt lat="40.8509608141574" lon="14.564418328768891"><ele>239.00000000000003</ele><time>2026-03-28T16:09:10Z</time></trkpt><trkpt lat="40.850932533541275" lon="14.564341401143013"><ele>239.0</ele><time>2026-03-28T16:09:11Z</time></trkpt><trkpt lat="40.850902782670154" lon="14.564265388946197"><ele>241.5714285714286</ele><time>2026-03-28T16:09:12Z</time></trkpt><trkpt lat="40.85086785343906" lon="14.564182338053811"><ele>244.14285714285717</ele><time>2026-03-28T16:09:12.999Z</time></trkpt><trkpt lat="40.850827226899135" lon="14.564106458969913"><ele>246.71428571428572</ele><time>2026-03-28T16:09:13.999Z</time></trkpt><trkpt lat="40.85080251123084" lon="14.564023277993318"><ele>249.2857142857143</ele><time>2026-03-28T16:09:14.999Z</time></trkpt><trkpt lat="40.85076730292256" lon="14.563945664247626"><ele>251.8571428571429</ele><time>2026-03-28T16:09:15.999Z</time></trkpt><trkpt lat="40.85071569717411" lon="14.56387719353479"><ele>254.42857142857142</ele><time>2026-03-28T16:09:16.999Z</time></trkpt><trkpt lat="40.85064028738292" lon="14.563804220743307"><ele>257.0</ele><time>2026-03-28T16:09:17.999Z</time></trkpt><trkpt lat="40.85057204031916" lon="14.563734121980552"><ele>252.33333333333334</ele><time>2026-03-28T16:09:18.999Z</time></trkpt><trkpt lat="40.85051677849025" lon="14.563656982666322"><ele>247.66666666666669</ele><time>2026-03-28T16:09:19.999Z</time></trkpt><trkpt lat="40.85047367391799" lon="14.563573007304822"><ele>243.0</ele><time>2026-03-28T16:09:20.999Z</time></trkpt><trkpt lat="40.8504102592197" lon="14.563484665418617"><ele>238.33333333333331</ele><time>2026-03-28T16:09:21.999Z</time></trkpt><trkpt lat="40.85034391522629" lon="14.56338861729438"><ele>233.66666666666666</ele><time>2026-03-28T16:09:22.999Z</time></trkpt><trkpt lat="40.85028906967116" lon="14.563298857414177"><ele>229.0</ele><time>2026-03-28T16:09:23.999Z</time></trkpt><trkpt lat="40.85023455830701" lon="14.563220972811544"><ele>228.99999999999997</ele><time>2026-03-28T16:09:24.999Z</time></trkpt><trkpt lat="40.85017695661622" lon="14.56312967133174"><ele>229.0</ele><time>2026-03-28T16:09:25.999Z</time></trkpt><trkpt lat="40.85012268137044" lon="14.563027613518388"><ele>229.0</ele><time>2026-03-28T16:09:26.999Z</time></trkpt><trkpt lat="40.85007377702137" lon="14.562932927336325"><ele>229.0</ele><time>2026-03-28T16:09:27.999Z</time></trkpt><trkpt lat="40.85002365237877" lon="14.562841520665783"><ele>228.99999999999997</ele><time>2026-03-28T16:09:28.999Z</time></trkpt><trkpt lat="40.84997302551403" lon="14.562759565763196"><ele>229.0</ele><time>2026-03-28T16:09:29.999Z</time></trkpt><trkpt lat="40.84991829284909" lon="14.562674537521799"><ele>229.2</ele><time>2026-03-28T16:09:30.999Z</time></trkpt><trkpt lat="40.84988006209479" lon="14.562565432622671"><ele>229.39999999999998</ele><time>2026-03-28T16:09:31.999Z</time></trkpt><trkpt lat="40.849858569197835" lon="14.562459016690784"><ele>229.6</ele><time>2026-03-28T16:09:32.999Z</time></trkpt><trkpt lat="40.849815172443584" lon="14.562363115477842"><ele>229.8</ele><time>2026-03-28T16:09:33.999Z</time></trkpt><trkpt lat="40.849733945472884" lon="14.56225864579398"><ele>230.0</ele><time>2026-03-28T16:09:34.999Z</time></trkpt><trkpt lat="40.84967761085621" lon="14.562158256327281"><ele>230.00000000000003</ele><time>2026-03-28T16:09:35.999Z</time></trkpt><trkpt lat="40.84962473203843" lon="14.562072116216934"><ele>230.0</ele><time>2026-03-28T16:09:36.999Z</time></trkpt><trkpt lat="40.849574982115776" lon="14.56199135559454"><ele>230.0</ele><time>2026-03-28T16:09:37.999Z</time></trkpt><trkpt lat="40.84953289276348" lon="14.561917863105124"><ele>230.0</ele><time>2026-03-28T16:09:38.999Z</time></trkpt><trkpt lat="40.84947936183121" lon="14.561804849384455"><ele>230.00000000000003</ele><time>2026-03-28T16:09:40.999Z</time></trkpt><trkpt lat="40.84950798007723" lon="14.56169602803641"><ele>230.0</ele><time>2026-03-28T16:09:42.999Z</time></trkpt><trkpt lat="40.84963486029983" lon="14.56170910146178"><ele>230.00000000000003</ele><time>2026-03-28T16:09:44.999Z</time></trkpt><trkpt lat="40.84969765412537" lon="14.561765272747229"><ele>230.0</ele><time>2026-03-28T16:09:45.999Z</time></trkpt><trkpt lat="40.849768690439" lon="14.561845725926062"><ele>230.0</ele><time>2026-03-28T16:09:46.999Z</time></trkpt><trkpt lat="40.849843053171334" lon="14.561949028752798"><ele>230.0</ele><time>2026-03-28T16:09:47.999Z</time></trkpt><trkpt lat="40.84990064988562" lon="14.562030678704444"><ele>230.00000000000003</ele><time>2026-03-28T16:09:48.999Z</time></trkpt><trkpt lat="40.84995578852691" lon="14.562088173742533"><ele>230.0</ele><time>2026-03-28T16:09:49.999Z</time></trkpt><trkpt lat="40.85001620189622" lon="14.562135331289118"><ele>230.0</ele><time>2026-03-28T16:09:50.999Z</time></trkpt><trkpt lat="40.85009660803329" lon="14.562200906629034"><ele>230.0</ele><time>2026-03-28T16:09:51.999Z</time></trkpt><trkpt lat="40.850176825688976" lon="14.562261972895962"><ele>230.0</ele><time>2026-03-28T16:09:52.999Z</time></trkpt><trkpt lat="40.85026255441175" lon="14.562316635055346"><ele>230.0</ele><time>2026-03-28T16:09:53.999Z</time></trkpt><trkpt lat="40.85036997512312" lon="14.562369324248706"><ele>230.0</ele><time>2026-03-28T16:09:54.999Z</time></trkpt><trkpt lat="40.850452492448895" lon="14.56242349875531"><ele>225.00000000000003</ele><time>2026-03-28T16:09:55.999Z</time></trkpt><trkpt lat="40.85051021281639" lon="14.562484214872807"><ele>220.0</ele><time>2026-03-28T16:09:56.999Z</time></trkpt><trkpt lat="40.85057210368424" lon="14.562555515799676"><ele>215.0</ele><time>2026-03-28T16:09:58.999Z</time></trkpt><trkpt lat="40.85064105471815" lon="14.562561280053151"><ele>210.0</ele><time>2026-03-28T16:10:00.999Z</time></trkpt><trkpt lat="40.850662272125106" lon="14.562429099064326"><ele>205.00000000000003</ele><time>2026-03-28T16:10:02.999Z</time></trkpt><trkpt lat="40.85060853689601" lon="14.562284217681741"><ele>200.0</ele><time>2026-03-28T16:10:04.999Z</time></trkpt><trkpt lat="40.85056761749379" lon="14.562195132311764"><ele>200.00000000000003</ele><time>2026-03-28T16:10:05.999Z</time></trkpt><trkpt lat="40.85051611389263" lon="14.562100209287205"><ele>200.0</ele><time>2026-03-28T16:10:06.999Z</time></trkpt><trkpt lat="40.85045931767031" lon="14.562018229307844"><ele>200.0</ele><time>2026-03-28T16:10:07.999Z</time></trkpt><trkpt lat="40.85039293744555" lon="14.561945145427744"><ele>200.0</ele><time>2026-03-28T16:10:08.999Z</time></trkpt><trkpt lat="40.85032427765965" lon="14.56187723241416"><ele>200.00000000000003</ele><time>2026-03-28T16:10:09.999Z</time></trkpt><trkpt lat="40.850251366899734" lon="14.561805445043396"><ele>200.0</ele><time>2026-03-28T16:10:10.999Z</time></trkpt><trkpt lat="40.8501780403488" lon="14.561719147930843"><ele>200.2857142857143</ele><time>2026-03-28T16:10:11.998Z</time></trkpt><trkpt lat="40.850126840577154" lon="14.561629937368961"><ele>200.57142857142858</ele><time>2026-03-28T16:10:12.998Z</time></trkpt><trkpt lat="40.850085870841156" lon="14.56156588392116"><ele>200.85714285714286</ele><time>2026-03-28T16:10:13.998Z</time></trkpt><trkpt lat="40.85005505627132" lon="14.561479178595224"><ele>201.14285714285717</ele><time>2026-03-28T16:10:14.998Z</time></trkpt><trkpt lat="40.850030799558645" lon="14.561390832815862"><ele>201.42857142857142</ele><time>2026-03-28T16:10:15.998Z</time></trkpt><trkpt lat="40.85000538832774" lon="14.561309804840793"><ele>201.71428571428572</ele><time>2026-03-28T16:10:16.998Z</time></trkpt><trkpt lat="40.849980908759285" lon="14.561228317684023"><ele>202.0</ele><time>2026-03-28T16:10:17.998Z</time></trkpt><trkpt lat="40.849918983417616" lon="14.561083987332312"><ele>197.66666666666666</ele><time>2026-03-28T16:10:19.998Z</time></trkpt><trkpt lat="40.84988144250595" lon="14.561013821249029"><ele>193.33333333333331</ele><time>2026-03-28T16:10:20.998Z</time></trkpt><trkpt lat="40.84983998816492" lon="14.56095045209802"><ele>189.0</ele><time>2026-03-28T16:10:21.998Z</time></trkpt><trkpt lat="40.84976463850246" lon="14.560856621103396"><ele>184.66666666666666</ele><time>2026-03-28T16:10:23.998Z</time></trkpt><trkpt lat="40.84974901528392" lon="14.560753007229911"><ele>180.33333333333331</ele><time>2026-03-28T16:10:26.998Z</time></trkpt><trkpt lat="40.849829280736046" lon="14.56074202596242"><ele>176.0</ele><time>2026-03-28T16:10:28.998Z</time></trkpt><trkpt lat="40.849901543878964" lon="14.560818676972445"><ele>176.0</ele><time>2026-03-28T16:10:30.998Z</time></trkpt><trkpt lat="40.849977822978715" lon="14.560897364833178"><ele>176.0</ele><time>2026-03-28T16:10:32.998Z</time></trkpt><trkpt lat="40.850035756364285" lon="14.560970337769628"><ele>176.0</ele><time>2026-03-28T16:10:34.998Z</time></trkpt><trkpt lat="40.850100410005005" lon="14.561046120001922"><ele>176.0</ele><time>2026-03-28T16:10:36.998Z</time></trkpt><trkpt lat="40.85018395694657" lon="14.561137114453599"><ele>176.0</ele><time>2026-03-28T16:10:38.998Z</time></trkpt><trkpt lat="40.85026928164097" lon="14.561227954149851"><ele>174.4</ele><time>2026-03-28T16:10:40.998Z</time></trkpt><trkpt lat="40.85035472696979" lon="14.561320635972837"><ele>172.8</ele><time>2026-03-28T16:10:43Z</time></trkpt><trkpt lat="40.85044100405643" lon="14.56140729630694"><ele>171.20000000000002</ele><time>2026-03-28T16:10:45Z</time></trkpt><trkpt lat="40.85054628450032" lon="14.56148597955237"><ele>169.60000000000002</ele><time>2026-03-28T16:10:47Z</time></trkpt><trkpt lat="40.85059964872746" lon="14.561531314666315"><ele>168.0</ele><time>2026-03-28T16:10:48Z</time></trkpt><trkpt lat="40.850651764738494" lon="14.561582503447452"><ele>168.0</ele><time>2026-03-28T16:10:49Z</time></trkpt><trkpt lat="40.85074816971702" lon="14.561654422104317"><ele>168.0</ele><time>2026-03-28T16:10:51Z</time></trkpt><trkpt lat="40.85085620082937" lon="14.561745412095776"><ele>168.0</ele><time>2026-03-28T16:10:53Z</time></trkpt><trkpt lat="40.85090578057056" lon="14.56181530743734"><ele>168.0</ele><time>2026-03-28T16:10:54Z</time></trkpt><trkpt lat="40.85094907545368" lon="14.56190156512966"><ele>168.0</ele><time>2026-03-28T16:10:55Z</time></trkpt><trkpt lat="40.85098828325583" lon="14.56200359194933"><ele>166.66666666666666</ele><time>2026-03-28T16:10:56Z</time></trkpt><trkpt lat="40.851017955285144" lon="14.562090996329747"><ele>165.33333333333334</ele><time>2026-03-28T16:10:57Z</time></trkpt><trkpt lat="40.85108560119241" lon="14.562206808230135"><ele>164.0</ele><time>2026-03-28T16:10:59Z</time></trkpt><trkpt lat="40.85112961314613" lon="14.562284372407724"><ele>162.66666666666669</ele><time>2026-03-28T16:11:00Z</time></trkpt><trkpt lat="40.851194010752" lon="14.562371769553643"><ele>161.33333333333334</ele><time>2026-03-28T16:11:01Z</time></trkpt><trkpt lat="40.8512679782199" lon="14.56243565409994"><ele>160.0</ele><time>2026-03-28T16:11:02Z</time></trkpt><trkpt lat="40.85133648714769" lon="14.562476968654538"><ele>160.0</ele><time>2026-03-28T16:11:03Z</time></trkpt><trkpt lat="40.85140115800428" lon="14.56251282105625"><ele>160.0</ele><time>2026-03-28T16:11:04Z</time></trkpt><trkpt lat="40.85146422524259" lon="14.562550957406808"><ele>160.0</ele><time>2026-03-28T16:11:05Z</time></trkpt><trkpt lat="40.851572135907" lon="14.562615225182999"><ele>160.0</ele><time>2026-03-28T16:11:07Z</time></trkpt><trkpt lat="40.85165876947408" lon="14.562690358830038"><ele>160.0</ele><time>2026-03-28T16:11:09Z</time></trkpt><trkpt lat="40.851733604194756" lon="14.56272832091319"><ele>160.0</ele><time>2026-03-28T16:11:11Z</time></trkpt><trkpt lat="40.851762263645675" lon="14.562607901797755"><ele>160.0</ele><time>2026-03-28T16:11:14Z</time></trkpt><trkpt lat="40.85167605330234" lon="14.562508583756673"><ele>160.0</ele><time>2026-03-28T16:11:16Z</time></trkpt><trkpt lat="40.85157986013129" lon="14.56244490178881"><ele>160.0</ele><time>2026-03-28T16:11:18Z</time></trkpt><trkpt lat="40.851489906557504" lon="14.56237258083947"><ele>160.0</ele><time>2026-03-28T16:11:20Z</time></trkpt><trkpt lat="40.85140333127676" lon="14.562307213018391"><ele>160.0</ele><time>2026-03-28T16:11:22Z</time></trkpt><trkpt lat="40.85134945329992" lon="14.562245266798206"><ele>160.0</ele><time>2026-03-28T16:11:23.999Z</time></trkpt><trkpt lat="40.85126097333309" lon="14.562153269952695"><ele>160.0</ele><time>2026-03-28T16:11:25.999Z</time></trkpt><trkpt lat="40.85121351761942" lon="14.562014705451253"><ele>160.0</ele><time>2026-03-28T16:11:27.999Z</time></trkpt><trkpt lat="40.85119928046804" lon="14.561933030528959"><ele>160.0</ele><time>2026-03-28T16:11:28.999Z</time></trkpt><trkpt lat="40.85118159802794" lon="14.561790091831826"><ele>160.0</ele><time>2026-03-28T16:11:30.999Z</time></trkpt><trkpt lat="40.85119270226783" lon="14.56163530118285"><ele>155.5</ele><time>2026-03-28T16:11:32.999Z</time></trkpt><trkpt lat="40.851189855922385" lon="14.561477820185276"><ele>151.0</ele><time>2026-03-28T16:11:34.999Z</time></trkpt><trkpt lat="40.85115653660879" lon="14.561392069938904"><ele>146.5</ele><time>2026-03-28T16:11:35.999Z</time></trkpt><trkpt lat="40.8511263012583" lon="14.561317766318897"><ele>142.0</ele><time>2026-03-28T16:11:36.999Z</time></trkpt><trkpt lat="40.85108638242069" lon="14.561247150152859"><ele>137.5</ele><time>2026-03-28T16:11:37.999Z</time></trkpt><trkpt lat="40.85104491386117" lon="14.561183784159816"><ele>133.0</ele><time>2026-03-28T16:11:38.999Z</time></trkpt><trkpt lat="40.85096711735369" lon="14.561064218460276"><ele>135.4</ele><time>2026-03-28T16:11:40.999Z</time></trkpt><trkpt lat="40.850894274473355" lon="14.56095839220439"><ele>137.8</ele><time>2026-03-28T16:11:42.999Z</time></trkpt><trkpt lat="40.85083054025271" lon="14.560857269273694"><ele>140.2</ele><time>2026-03-28T16:11:44.999Z</time></trkpt><trkpt lat="40.85078993662987" lon="14.56075611932989"><ele>142.6</ele><time>2026-03-28T16:11:46.999Z</time></trkpt><trkpt lat="40.850735990951705" lon="14.560652916511556"><ele>145.0</ele><time>2026-03-28T16:11:48.999Z</time></trkpt><trkpt lat="40.85066136115354" lon="14.56058274676702"><ele>145.0</ele><time>2026-03-28T16:11:50.999Z</time></trkpt><trkpt lat="40.850577394627784" lon="14.560531417765677"><ele>145.0</ele><time>2026-03-28T16:11:52.999Z</time></trkpt><trkpt lat="40.85050525836686" lon="14.560476385241973"><ele>145.0</ele><time>2026-03-28T16:11:54.999Z</time></trkpt><trkpt lat="40.85045986593795" lon="14.560405012534476"><ele>145.0</ele><time>2026-03-28T16:11:56.999Z</time></trkpt><trkpt lat="40.85039187005833" lon="14.560327951204036"><ele>145.0</ele><time>2026-03-28T16:11:59.999Z</time></trkpt><trkpt lat="40.85034053819274" lon="14.560274818678925"><ele>145.0</ele><time>2026-03-28T16:12:01.999Z</time></trkpt><trkpt lat="40.850378795222966" lon="14.56017782260535"><ele>145.0</ele><time>2026-03-28T16:12:04.999Z</time></trkpt><trkpt lat="40.850489736959645" lon="14.56024993192025"><ele>145.0</ele><time>2026-03-28T16:12:06.999Z</time></trkpt><trkpt lat="40.8505395052591" lon="14.560322063882568"><ele>145.0</ele><time>2026-03-28T16:12:07.999Z</time></trkpt><trkpt lat="40.85058312794776" lon="14.56038523789543"><ele>145.0</ele><time>2026-03-28T16:12:08.999Z</time></trkpt><trkpt lat="40.85070594868242" lon="14.560449337457445"><ele>145.0</ele><time>2026-03-28T16:12:10.999Z</time></trkpt><trkpt lat="40.85076984855574" lon="14.560478961740808"><ele>145.0</ele><time>2026-03-28T16:12:11.999Z</time></trkpt><trkpt lat="40.850830077608826" lon="14.560523423858685"><ele>145.0</ele><time>2026-03-28T16:12:12.999Z</time></trkpt><trkpt lat="40.850929427143996" lon="14.56062204614637"><ele>145.0</ele><time>2026-03-28T16:12:14.999Z</time></trkpt><trkpt lat="40.85098634513121" lon="14.560672503687252"><ele>145.0</ele><time>2026-03-28T16:12:15.999Z</time></trkpt><trkpt lat="40.851048872945256" lon="14.560730790399557"><ele>145.0</ele><time>2026-03-28T16:12:16.999Z</time></trkpt><trkpt lat="40.851094568364196" lon="14.560791700474354"><ele>145.0</ele><time>2026-03-28T16:12:17.999Z</time></trkpt><trkpt lat="40.851185077694495" lon="14.560882275654278"><ele>143.28571428571428</ele><time>2026-03-28T16:12:19.999Z</time></trkpt><trkpt lat="40.85124594445912" lon="14.560932393300922"><ele>141.57142857142858</ele><time>2026-03-28T16:12:20.999Z</time></trkpt><trkpt lat="40.85130599791332" lon="14.560986361445565"><ele>139.85714285714286</ele><time>2026-03-28T16:12:21.999Z</time></trkpt><trkpt lat="40.85136752689952" lon="14.561051539308885"><ele>138.14285714285714</ele><time>2026-03-28T16:12:22.998Z</time></trkpt><trkpt lat="40.85141773162352" lon="14.561112990827967"><ele>136.42857142857144</ele><time>2026-03-28T16:12:23.998Z</time></trkpt><trkpt lat="40.85146576210783" lon="14.561185632681937"><ele>134.71428571428572</ele><time>2026-03-28T16:12:24.998Z</time></trkpt><trkpt lat="40.851512820110806" lon="14.561265622388719"><ele>133.0</ele><time>2026-03-28T16:12:25.998Z</time></trkpt><trkpt lat="40.85154358336839" lon="14.561356481127811"><ele>133.0</ele><time>2026-03-28T16:12:26.998Z</time></trkpt><trkpt lat="40.85155984915571" lon="14.561450288136964"><ele>133.0</ele><time>2026-03-28T16:12:27.998Z</time></trkpt><trkpt lat="40.85156325149709" lon="14.561610556126098"><ele>133.0</ele><time>2026-03-28T16:12:29.998Z</time></trkpt><trkpt lat="40.85160293015676" lon="14.561697864279948"><ele>133.0</ele><time>2026-03-28T16:12:30.998Z</time></trkpt><trkpt lat="40.851662001308995" lon="14.56177043644472"><ele>133.0</ele><time>2026-03-28T16:12:31.998Z</time></trkpt><trkpt lat="40.851735553634924" lon="14.561814351507195"><ele>133.0</ele><time>2026-03-28T16:12:32.998Z</time></trkpt><trkpt lat="40.851810541377716" lon="14.56185921768779"><ele>131.20000000000002</ele><time>2026-03-28T16:12:33.998Z</time></trkpt><trkpt lat="40.85188386703792" lon="14.561911435827668"><ele>129.4</ele><time>2026-03-28T16:12:34.998Z</time></trkpt><trkpt lat="40.85196013264735" lon="14.561967876510034"><ele>127.60000000000001</ele><time>2026-03-28T16:12:35.998Z</time></trkpt><trkpt lat="40.85204551306588" lon="14.562033069264086"><ele>125.80000000000001</ele><time>2026-03-28T16:12:36.998Z</time></trkpt><trkpt lat="40.852125665496395" lon="14.56209772248172"><ele>124.0</ele><time>2026-03-28T16:12:37.998Z</time></trkpt><trkpt lat="40.85220295902981" lon="14.562159682461253"><ele>124.0</ele><time>2026-03-28T16:12:38.998Z</time></trkpt><trkpt lat="40.852287142703815" lon="14.56222911073895"><ele>124.0</ele><time>2026-03-28T16:12:39.998Z</time></trkpt><trkpt lat="40.85236363983448" lon="14.562311447099793"><ele>124.0</ele><time>2026-03-28T16:12:40.998Z</time></trkpt><trkpt lat="40.852438485587555" lon="14.562397372253972"><ele>124.0</ele><time>2026-03-28T16:12:41.998Z</time></trkpt><trkpt lat="40.8525112290358" lon="14.5624804321861"><ele>124.0</ele><time>2026-03-28T16:12:42.998Z</time></trkpt><trkpt lat="40.85257869342206" lon="14.562551607313337"><ele>123.50000000000001</ele><time>2026-03-28T16:12:43.998Z</time></trkpt><trkpt lat="40.852643894291155" lon="14.56261800724167"><ele>123.0</ele><time>2026-03-28T16:12:44.998Z</time></trkpt><trkpt lat="40.85271258473174" lon="14.562690638252011"><ele>122.5</ele><time>2026-03-28T16:12:45.998Z</time></trkpt><trkpt lat="40.85275903313863" lon="14.56278437096011"><ele>122.0</ele><time>2026-03-28T16:12:47Z</time></trkpt><trkpt lat="40.85279033688916" lon="14.562874576524845"><ele>121.50000000000001</ele><time>2026-03-28T16:12:48Z</time></trkpt><trkpt lat="40.852811070372184" lon="14.56295719802605"><ele>121.0</ele><time>2026-03-28T16:12:49Z</time></trkpt><trkpt lat="40.852842145794106" lon="14.563062277799858"><ele>121.0</ele><time>2026-03-28T16:12:51Z</time></trkpt><trkpt lat="40.85290909435419" lon="14.56313562855957"><ele>121.0</ele><time>2026-03-28T16:12:54Z</time></trkpt><trkpt lat="40.85296354324606" lon="14.563055619567043"><ele>121.0</ele><time>2026-03-28T16:12:57Z</time></trkpt><trkpt lat="40.852933312802264" lon="14.562908413176089"><ele>121.0</ele><time>2026-03-28T16:12:59Z</time></trkpt><trkpt lat="40.85290228715432" lon="14.56277054167076"><ele>121.0</ele><time>2026-03-28T16:13:01Z</time></trkpt><trkpt lat="40.85289657571489" lon="14.562669761644168"><ele>120.19999999999999</ele><time>2026-03-28T16:13:02Z</time></trkpt><trkpt lat="40.852889274883" lon="14.562574700720589"><ele>119.39999999999999</ele><time>2026-03-28T16:13:03Z</time></trkpt><trkpt lat="40.8528793971937" lon="14.562451644677818"><ele>118.6</ele><time>2026-03-28T16:13:05Z</time></trkpt><trkpt lat="40.85285298818349" lon="14.562300330268027"><ele>117.8</ele><time>2026-03-28T16:13:07Z</time></trkpt><trkpt lat="40.852832159563576" lon="14.56214552466587"><ele>117.0</ele><time>2026-03-28T16:13:08.999Z</time></trkpt><trkpt lat="40.852809258468795" lon="14.561987123102108"><ele>117.0</ele><time>2026-03-28T16:13:10.999Z</time></trkpt><trkpt lat="40.85277877066406" lon="14.56183543850988"><ele>117.0</ele><time>2026-03-28T16:13:12.999Z</time></trkpt><trkpt lat="40.852759922396224" lon="14.56175262044943"><ele>117.0</ele><time>2026-03-28T16:13:13.999Z</time></trkpt><trkpt lat="40.85274252833602" lon="14.561672422000136"><ele>117.0</ele><time>2026-03-28T16:13:14.999Z</time></trkpt><trkpt lat="40.85272441379249" lon="14.561586552100861"><ele>117.0</ele><time>2026-03-28T16:13:15.999Z</time></trkpt><trkpt lat="40.85270468674112" lon="14.56150338425132"><ele>117.0</ele><time>2026-03-28T16:13:16.999Z</time></trkpt><trkpt lat="40.85268002253881" lon="14.56141809746338"><ele>117.0</ele><time>2026-03-28T16:13:17.999Z</time></trkpt><trkpt lat="40.852654244544674" lon="14.561336230676808"><ele>117.00000000000001</ele><time>2026-03-28T16:13:18.999Z</time></trkpt><trkpt lat="40.85262593014397" lon="14.5612551696114"><ele>117.0</ele><time>2026-03-28T16:13:19.999Z</time></trkpt><trkpt lat="40.85259450122767" lon="14.56117635457948"><ele>117.0</ele><time>2026-03-28T16:13:20.999Z</time></trkpt><trkpt lat="40.85256163570083" lon="14.561093753316946"><ele>117.00000000000001</ele><time>2026-03-28T16:13:21.999Z</time></trkpt><trkpt lat="40.85253204878563" lon="14.561009526348533"><ele>117.0</ele><time>2026-03-28T16:13:22.999Z</time></trkpt><trkpt lat="40.8525027820316" lon="14.56093259373265"><ele>117.0</ele><time>2026-03-28T16:13:23.999Z</time></trkpt><trkpt lat="40.85246773019336" lon="14.560855526470958"><ele>115.28571428571429</ele><time>2026-03-28T16:13:24.999Z</time></trkpt><trkpt lat="40.85242200211729" lon="14.560794846013529"><ele>113.57142857142858</ele><time>2026-03-28T16:13:25.999Z</time></trkpt><trkpt lat="40.85238317672319" lon="14.560712763357373"><ele>111.85714285714286</ele><time>2026-03-28T16:13:26.999Z</time></trkpt><trkpt lat="40.85234487551251" lon="14.560640613988175"><ele>110.14285714285714</ele><time>2026-03-28T16:13:27.999Z</time></trkpt><trkpt lat="40.852306355837705" lon="14.560560055194685"><ele>108.42857142857143</ele><time>2026-03-28T16:13:28.998Z</time></trkpt><trkpt lat="40.85227018950556" lon="14.560475943845182"><ele>106.71428571428572</ele><time>2026-03-28T16:13:29.998Z</time></trkpt><trkpt lat="40.852231221185605" lon="14.560393784923141"><ele>105.0</ele><time>2026-03-28T16:13:30.998Z</time></trkpt><trkpt lat="40.852193576550555" lon="14.560311866300108"><ele>104.16666666666667</ele><time>2026-03-28T16:13:31.998Z</time></trkpt><trkpt lat="40.85215045604896" lon="14.560225858286838"><ele>103.33333333333334</ele><time>2026-03-28T16:13:32.998Z</time></trkpt><trkpt lat="40.85210424206413" lon="14.56013802841274"><ele>102.5</ele><time>2026-03-28T16:13:33.998Z</time></trkpt><trkpt lat="40.85206386237182" lon="14.560057003146008"><ele>101.66666666666667</ele><time>2026-03-28T16:13:34.998Z</time></trkpt><trkpt lat="40.85202509833136" lon="14.559971616462164"><ele>100.83333333333334</ele><time>2026-03-28T16:13:35.998Z</time></trkpt><trkpt lat="40.85198455257684" lon="14.559893351038413"><ele>100.0</ele><time>2026-03-28T16:13:36.998Z</time></trkpt><trkpt lat="40.85194246881195" lon="14.559806066842343"><ele>100.00000000000001</ele><time>2026-03-28T16:13:37.998Z</time></trkpt><trkpt lat="40.851903875186295" lon="14.55970976678537"><ele>100.0</ele><time>2026-03-28T16:13:38.998Z</time></trkpt><trkpt lat="40.85187619614772" lon="14.559612379283998"><ele>100.0</ele><time>2026-03-28T16:13:39.998Z</time></trkpt><trkpt lat="40.85185103357714" lon="14.559510591852828"><ele>100.0</ele><time>2026-03-28T16:13:40.998Z</time></trkpt><trkpt lat="40.85182641236721" lon="14.559410287227312"><ele>100.00000000000001</ele><time>2026-03-28T16:13:41.998Z</time></trkpt><trkpt lat="40.851800352768954" lon="14.559322195468358"><ele>100.0</ele><time>2026-03-28T16:13:42.998Z</time></trkpt><trkpt lat="40.851774384966106" lon="14.559229667812335"><ele>98.57142857142858</ele><time>2026-03-28T16:13:43.998Z</time></trkpt><trkpt lat="40.85174082679304" lon="14.55913317852978"><ele>97.14285714285714</ele><time>2026-03-28T16:13:44.998Z</time></trkpt><trkpt lat="40.851706616707546" lon="14.559040898750645"><ele>95.71428571428572</ele><time>2026-03-28T16:13:45.998Z</time></trkpt><trkpt lat="40.85167733668693" lon="14.558948337632282"><ele>94.28571428571429</ele><time>2026-03-28T16:13:46.999Z</time></trkpt><trkpt lat="40.85165472134027" lon="14.558860510613169"><ele>92.85714285714286</ele><time>2026-03-28T16:13:47.999Z</time></trkpt><trkpt lat="40.85163812273956" lon="14.558773377784684"><ele>91.42857142857143</ele><time>2026-03-28T16:13:48.999Z</time></trkpt><trkpt lat="40.85163047261753" lon="14.55868535610009"><ele>90.0</ele><time>2026-03-28T16:13:49.999Z</time></trkpt><trkpt lat="40.85165446698023" lon="14.558604206499606"><ele>88.8</ele><time>2026-03-28T16:13:50.999Z</time></trkpt><trkpt lat="40.85166318035562" lon="14.558434328011675"><ele>87.6</ele><time>2026-03-28T16:13:52.999Z</time></trkpt><trkpt lat="40.851683250048325" lon="14.558332201370048"><ele>86.4</ele><time>2026-03-28T16:13:53.999Z</time></trkpt><trkpt lat="40.851705935969235" lon="14.558224752287863"><ele>85.2</ele><time>2026-03-28T16:13:54.999Z</time></trkpt><trkpt lat="40.85175125859915" lon="14.558131237920973"><ele>84.0</ele><time>2026-03-28T16:13:55.999Z</time></trkpt><trkpt lat="40.85176787960386" lon="14.558026565422184"><ele>84.5</ele><time>2026-03-28T16:13:56.999Z</time></trkpt><trkpt lat="40.85180132136768" lon="14.55795003517818"><ele>85.0</ele><time>2026-03-28T16:13:57.999Z</time></trkpt><trkpt lat="40.851816420614746" lon="14.557858050773604"><ele>85.5</ele><time>2026-03-28T16:13:58.999Z</time></trkpt><trkpt lat="40.851797003615495" lon="14.557752316335506"><ele>86.0</ele><time>2026-03-28T16:13:59.999Z</time></trkpt><trkpt lat="40.851776367464254" lon="14.557634364528873"><ele>86.5</ele><time>2026-03-28T16:14:00.999Z</time></trkpt><trkpt lat="40.85172681115781" lon="14.557530185366385"><ele>87.0</ele><time>2026-03-28T16:14:01.999Z</time></trkpt><trkpt lat="40.85167152598132" lon="14.557437829366172"><ele>85.83333333333333</ele><time>2026-03-28T16:14:02.999Z</time></trkpt><trkpt lat="40.851623936799086" lon="14.557369558326178"><ele>84.66666666666667</ele><time>2026-03-28T16:14:03.999Z</time></trkpt><trkpt lat="40.851580304190435" lon="14.55730931815048"><ele>83.5</ele><time>2026-03-28T16:14:04.999Z</time></trkpt><trkpt lat="40.85153488235191" lon="14.557245892217946"><ele>82.33333333333334</ele><time>2026-03-28T16:14:05.999Z</time></trkpt><trkpt lat="40.85146194561379" lon="14.557128059267676"><ele>81.16666666666667</ele><time>2026-03-28T16:14:07.999Z</time></trkpt><trkpt lat="40.85139300911318" lon="14.55711908112983"><ele>80.0</ele><time>2026-03-28T16:14:08.999Z</time></trkpt><trkpt lat="40.85140692565383" lon="14.557010784470387"><ele>79.0</ele><time>2026-03-28T16:14:10.999Z</time></trkpt><trkpt lat="40.851526253607666" lon="14.556939128722535"><ele>78.0</ele><time>2026-03-28T16:14:12.999Z</time></trkpt><trkpt lat="40.85160172818749" lon="14.556922679802899"><ele>77.0</ele><time>2026-03-28T16:14:13.999Z</time></trkpt><trkpt lat="40.85167692525619" lon="14.556912942698359"><ele>76.0</ele><time>2026-03-28T16:14:14.999Z</time></trkpt><trkpt lat="40.8517496896153" lon="14.556893186448345"><ele>75.0</ele><time>2026-03-28T16:14:15.999Z</time></trkpt><trkpt lat="40.85181648765682" lon="14.556868539413866"><ele>74.0</ele><time>2026-03-28T16:14:16.999Z</time></trkpt><trkpt lat="40.851936488151736" lon="14.556831256719736"><ele>73.83333333333334</ele><time>2026-03-28T16:14:18.999Z</time></trkpt><trkpt lat="40.85199862003619" lon="14.55680886894194"><ele>73.66666666666667</ele><time>2026-03-28T16:14:19.999Z</time></trkpt><trkpt lat="40.85205034033136" lon="14.55674868729646"><ele>73.5</ele><time>2026-03-28T16:14:20.999Z</time></trkpt><trkpt lat="40.8520817563029" lon="14.556658612514893"><ele>73.33333333333333</ele><time>2026-03-28T16:14:21.999Z</time></trkpt><trkpt lat="40.852087993315344" lon="14.556542104210049"><ele>73.16666666666666</ele><time>2026-03-28T16:14:22.999Z</time></trkpt><trkpt lat="40.852089751876015" lon="14.556428695207451"><ele>73.0</ele><time>2026-03-28T16:14:23.999Z</time></trkpt><trkpt lat="40.85209222087303" lon="14.556325105279898"><ele>73.0</ele><time>2026-03-28T16:14:24.999Z</time></trkpt><trkpt lat="40.852096238253296" lon="14.556203615859648"><ele>73.0</ele><time>2026-03-28T16:14:25.999Z</time></trkpt><trkpt lat="40.85210641023436" lon="14.556077077607593"><ele>73.0</ele><time>2026-03-28T16:14:26.999Z</time></trkpt><trkpt lat="40.852115462466465" lon="14.555960789706175"><ele>73.0</ele><time>2026-03-28T16:14:27.999Z</time></trkpt><trkpt lat="40.852123698608956" lon="14.555833348495524"><ele>73.0</ele><time>2026-03-28T16:14:28.999Z</time></trkpt><trkpt lat="40.852132373671665" lon="14.555695443236456"><ele>72.16666666666666</ele><time>2026-03-28T16:14:29.999Z</time></trkpt><trkpt lat="40.85214004685153" lon="14.555570264476302"><ele>71.33333333333333</ele><time>2026-03-28T16:14:30.998Z</time></trkpt><trkpt lat="40.852146060925264" lon="14.555460928437972"><ele>70.5</ele><time>2026-03-28T16:14:31.998Z</time></trkpt><trkpt lat="40.85214536859047" lon="14.555362092573846"><ele>69.66666666666667</ele><time>2026-03-28T16:14:32.998Z</time></trkpt><trkpt lat="40.85214382126463" lon="14.555253232313298"><ele>68.83333333333334</ele><time>2026-03-28T16:14:33.998Z</time></trkpt><trkpt lat="40.85214642371816" lon="14.555155086903317"><ele>68.0</ele><time>2026-03-28T16:14:34.998Z</time></trkpt><trkpt lat="40.85214659419105" lon="14.555054636024831"><ele>67.33333333333334</ele><time>2026-03-28T16:14:35.998Z</time></trkpt><trkpt lat="40.85214407875962" lon="14.554954359922048"><ele>66.66666666666667</ele><time>2026-03-28T16:14:36.998Z</time></trkpt><trkpt lat="40.85213754545806" lon="14.554859128843027"><ele>66.0</ele><time>2026-03-28T16:14:37.998Z</time></trkpt><trkpt lat="40.852129271854224" lon="14.55476655711825"><ele>65.33333333333333</ele><time>2026-03-28T16:14:38.998Z</time></trkpt><trkpt lat="40.85212502634677" lon="14.554656627799663"><ele>64.66666666666666</ele><time>2026-03-28T16:14:39.998Z</time></trkpt><trkpt lat="40.85212281180029" lon="14.5545592848442"><ele>64.0</ele><time>2026-03-28T16:14:40.998Z</time></trkpt><trkpt lat="40.852117783233474" lon="14.554461685954344"><ele>63.285714285714285</ele><time>2026-03-28T16:14:41.998Z</time></trkpt><trkpt lat="40.85211534977081" lon="14.55435877521905"><ele>62.57142857142857</ele><time>2026-03-28T16:14:42.998Z</time></trkpt><trkpt lat="40.85210402046711" lon="14.554261774118446"><ele>61.857142857142854</ele><time>2026-03-28T16:14:43.998Z</time></trkpt><trkpt lat="40.852085368522516" lon="14.554169073413224"><ele>61.14285714285714</ele><time>2026-03-28T16:14:44.998Z</time></trkpt><trkpt lat="40.85205834664266" lon="14.554085645258812"><ele>60.42857142857143</ele><time>2026-03-28T16:14:45.998Z</time></trkpt><trkpt lat="40.85202191635676" lon="14.5540091070502"><ele>59.71428571428571</ele><time>2026-03-28T16:14:46.998Z</time></trkpt><trkpt lat="40.85198356957793" lon="14.553939615573501"><ele>59.0</ele><time>2026-03-28T16:14:47.998Z</time></trkpt><trkpt lat="40.85191390864537" lon="14.553819905033011"><ele>59.00000000000001</ele><time>2026-03-28T16:14:49.998Z</time></trkpt><trkpt lat="40.85184840932169" lon="14.553709346368077"><ele>59.0</ele><time>2026-03-28T16:14:51.998Z</time></trkpt><trkpt lat="40.85180544173772" lon="14.553634038228392"><ele>59.0</ele><time>2026-03-28T16:14:54Z</time></trkpt><trkpt lat="40.85178020800251" lon="14.553557377760782"><ele>59.0</ele><time>2026-03-28T16:15:00Z</time></trkpt><trkpt lat="40.85175870456023" lon="14.553456793156176"><ele>59.00000000000001</ele><time>2026-03-28T16:15:06Z</time></trkpt><trkpt lat="40.85172018861385" lon="14.553359647388179"><ele>59.0</ele><time>2026-03-28T16:15:07Z</time></trkpt><trkpt lat="40.851682779999294" lon="14.553262280147377"><ele>59.25</ele><time>2026-03-28T16:15:08Z</time></trkpt><trkpt lat="40.85163911256066" lon="14.553141475047509"><ele>59.5</ele><time>2026-03-28T16:15:09Z</time></trkpt><trkpt lat="40.85158130773167" lon="14.552970692306832"><ele>59.75</ele><time>2026-03-28T16:15:10Z</time></trkpt><trkpt lat="40.85151003292745" lon="14.55278121770003"><ele>60.0</ele><time>2026-03-28T16:15:11Z</time></trkpt><trkpt lat="40.85144363881776" lon="14.552593420194869"><ele>59.33333333333333</ele><time>2026-03-28T16:15:12Z</time></trkpt><trkpt lat="40.85137950891764" lon="14.552403609327062"><ele>58.666666666666664</ele><time>2026-03-28T16:15:13Z</time></trkpt><trkpt lat="40.85131401627919" lon="14.552212263508194"><ele>58.0</ele><time>2026-03-28T16:15:14Z</time></trkpt><trkpt lat="40.851244676348216" lon="14.552033120852178"><ele>57.25</ele><time>2026-03-28T16:15:15Z</time></trkpt><trkpt lat="40.85117518840781" lon="14.551865249988971"><ele>56.5</ele><time>2026-03-28T16:15:16Z</time></trkpt><trkpt lat="40.8510992950495" lon="14.551693045464004"><ele>55.75</ele><time>2026-03-28T16:15:17Z</time></trkpt><trkpt lat="40.85101858312698" lon="14.551532702065613"><ele>55.0</ele><time>2026-03-28T16:15:18Z</time></trkpt><trkpt lat="40.8509342376782" lon="14.551383717685551"><ele>54.666666666666664</ele><time>2026-03-28T16:15:19Z</time></trkpt><trkpt lat="40.850841576878594" lon="14.551232497958898"><ele>54.33333333333333</ele><time>2026-03-28T16:15:20Z</time></trkpt><trkpt lat="40.85073596951218" lon="14.551081385432449"><ele>54.0</ele><time>2026-03-28T16:15:21Z</time></trkpt><trkpt lat="40.850614840519604" lon="14.550934427094473"><ele>53.75</ele><time>2026-03-28T16:15:22Z</time></trkpt><trkpt lat="40.85048890399182" lon="14.550808378251196"><ele>53.5</ele><time>2026-03-28T16:15:23Z</time></trkpt><trkpt lat="40.85037276652522" lon="14.550705166922194"><ele>53.25</ele><time>2026-03-28T16:15:24Z</time></trkpt><trkpt lat="40.85025686442525" lon="14.550608165364732"><ele>53.0</ele><time>2026-03-28T16:15:25Z</time></trkpt><trkpt lat="40.85013365164839" lon="14.550511137099434"><ele>52.5</ele><time>2026-03-28T16:15:26Z</time></trkpt><trkpt lat="40.85001810022915" lon="14.550428809684474"><ele>52.0</ele><time>2026-03-28T16:15:27Z</time></trkpt><trkpt lat="40.84990587434687" lon="14.550348171880454"><ele>51.5</ele><time>2026-03-28T16:15:28Z</time></trkpt><trkpt lat="40.84980968567794" lon="14.550268487117343"><ele>51.0</ele><time>2026-03-28T16:15:29Z</time></trkpt><trkpt lat="40.84972905258169" lon="14.550185602064687"><ele>50.4</ele><time>2026-03-28T16:15:30Z</time></trkpt><trkpt lat="40.84967657787938" lon="14.55009110918073"><ele>49.8</ele><time>2026-03-28T16:15:31Z</time></trkpt><trkpt lat="40.84964425563126" lon="14.549991170346953"><ele>49.199999999999996</ele><time>2026-03-28T16:15:32Z</time></trkpt><trkpt lat="40.84958024622402" lon="14.549902962232965"><ele>48.599999999999994</ele><time>2026-03-28T16:15:33Z</time></trkpt><trkpt lat="40.84947353939502" lon="14.549832272667269"><ele>48.0</ele><time>2026-03-28T16:15:34Z</time></trkpt><trkpt lat="40.84934965930208" lon="14.549774195910869"><ele>47.75</ele><time>2026-03-28T16:15:35Z</time></trkpt><trkpt lat="40.849235430804825" lon="14.549711759960257"><ele>47.5</ele><time>2026-03-28T16:15:36Z</time></trkpt><trkpt lat="40.849127381773215" lon="14.549627095897037"><ele>47.25</ele><time>2026-03-28T16:15:37Z</time></trkpt><trkpt lat="40.84901084500669" lon="14.54952871722312"><ele>47.0</ele><time>2026-03-28T16:15:38Z</time></trkpt><trkpt lat="40.84888788531122" lon="14.549425408259316"><ele>46.5</ele><time>2026-03-28T16:15:39Z</time></trkpt><trkpt lat="40.84877830187647" lon="14.549325113910406"><ele>46.0</ele><time>2026-03-28T16:15:40Z</time></trkpt><trkpt lat="40.84869172484672" lon="14.549240623940502"><ele>45.5</ele><time>2026-03-28T16:15:41Z</time></trkpt><trkpt lat="40.848606465592056" lon="14.5491730873097"><ele>45.0</ele><time>2026-03-28T16:15:42Z</time></trkpt><trkpt lat="40.848503194522245" lon="14.549096675521968"><ele>44.75</ele><time>2026-03-28T16:15:42.999Z</time></trkpt><trkpt lat="40.84839498785951" lon="14.549026195106018"><ele>44.5</ele><time>2026-03-28T16:15:43.999Z</time></trkpt><trkpt lat="40.848294413951855" lon="14.548962241187256"><ele>44.25</ele><time>2026-03-28T16:15:44.999Z</time></trkpt><trkpt lat="40.8481819275928" lon="14.548896409066362"><ele>44.0</ele><time>2026-03-28T16:15:45.999Z</time></trkpt><trkpt lat="40.848058998718116" lon="14.548829658718473"><ele>44.0</ele><time>2026-03-28T16:15:46.999Z</time></trkpt><trkpt lat="40.84792964808358" lon="14.548761052486434"><ele>44.0</ele><time>2026-03-28T16:15:47.999Z</time></trkpt><trkpt lat="40.84780105304268" lon="14.548692260527883"><ele>44.0</ele><time>2026-03-28T16:15:48.999Z</time></trkpt><trkpt lat="40.84766770600454" lon="14.548623292942164"><ele>44.0</ele><time>2026-03-28T16:15:49.999Z</time></trkpt><trkpt lat="40.84754183454058" lon="14.548560043072182"><ele>43.75</ele><time>2026-03-28T16:15:50.999Z</time></trkpt><trkpt lat="40.847439407178825" lon="14.548497011406226"><ele>43.5</ele><time>2026-03-28T16:15:51.999Z</time></trkpt><trkpt lat="40.84734200743732" lon="14.548430344848912"><ele>43.25</ele><time>2026-03-28T16:15:52.999Z</time></trkpt><trkpt lat="40.8472303729631" lon="14.548356229736333"><ele>43.0</ele><time>2026-03-28T16:15:53.999Z</time></trkpt><trkpt lat="40.84712571050219" lon="14.548285506186376"><ele>43.0</ele><time>2026-03-28T16:15:54.999Z</time></trkpt><trkpt lat="40.84701605493573" lon="14.548218238061"><ele>43.0</ele><time>2026-03-28T16:15:55.999Z</time></trkpt><trkpt lat="40.846905633962635" lon="14.548153966973427"><ele>43.0</ele><time>2026-03-28T16:15:56.999Z</time></trkpt><trkpt lat="40.846813004280804" lon="14.548099162737415"><ele>43.0</ele><time>2026-03-28T16:15:57.999Z</time></trkpt><trkpt lat="40.84670635277579" lon="14.548042318022006"><ele>42.599999999999994</ele><time>2026-03-28T16:15:58.999Z</time></trkpt><trkpt lat="40.84660222775214" lon="14.547994426341983"><ele>42.199999999999996</ele><time>2026-03-28T16:15:59.999Z</time></trkpt><trkpt lat="40.84649335928533" lon="14.547939508155155"><ele>41.8</ele><time>2026-03-28T16:16:00.999Z</time></trkpt><trkpt lat="40.84639610117957" lon="14.547881239353117"><ele>41.4</ele><time>2026-03-28T16:16:01.999Z</time></trkpt><trkpt lat="40.846315280007964" lon="14.547823446185802"><ele>41.0</ele><time>2026-03-28T16:16:02.999Z</time></trkpt><trkpt lat="40.846230102407425" lon="14.547760542763529"><ele>41.0</ele><time>2026-03-28T16:16:03.999Z</time></trkpt><trkpt lat="40.84612436801233" lon="14.54769200225433"><ele>41.0</ele><time>2026-03-28T16:16:04.999Z</time></trkpt><trkpt lat="40.84604053578874" lon="14.547623004007423"><ele>41.0</ele><time>2026-03-28T16:16:05.999Z</time></trkpt><trkpt lat="40.84598182281393" lon="14.547548004022522"><ele>41.0</ele><time>2026-03-28T16:16:06.999Z</time></trkpt><trkpt lat="40.845895542486026" lon="14.547476794428153"><ele>41.0</ele><time>2026-03-28T16:16:07.999Z</time></trkpt><trkpt lat="40.84580381246838" lon="14.547395072537368"><ele>41.0</ele><time>2026-03-28T16:16:08.999Z</time></trkpt><trkpt lat="40.845725885492634" lon="14.547331444683152"><ele>41.0</ele><time>2026-03-28T16:16:09.999Z</time></trkpt><trkpt lat="40.845649972240494" lon="14.54727177928469"><ele>41.0</ele><time>2026-03-28T16:16:10.999Z</time></trkpt><trkpt lat="40.84556180874107" lon="14.547238368676012"><ele>41.0</ele><time>2026-03-28T16:16:11.999Z</time></trkpt><trkpt lat="40.84548780760593" lon="14.547187050229798"><ele>41.0</ele><time>2026-03-28T16:16:12.999Z</time></trkpt><trkpt lat="40.84540274695871" lon="14.54713281972618"><ele>41.0</ele><time>2026-03-28T16:16:13.999Z</time></trkpt><trkpt lat="40.84530556406211" lon="14.547079528731304"><ele>41.0</ele><time>2026-03-28T16:16:14.999Z</time></trkpt><trkpt lat="40.84522167857506" lon="14.54704919627862"><ele>41.0</ele><time>2026-03-28T16:16:15.999Z</time></trkpt><trkpt lat="40.84514824459836" lon="14.547001276929796"><ele>41.0</ele><time>2026-03-28T16:16:16.999Z</time></trkpt><trkpt lat="40.84508435082324" lon="14.546942627758042"><ele>41.0</ele><time>2026-03-28T16:16:17.999Z</time></trkpt><trkpt lat="40.84503197676195" lon="14.54686980652297"><ele>41.0</ele><time>2026-03-28T16:16:18.999Z</time></trkpt><trkpt lat="40.844968589179075" lon="14.546765980665938"><ele>41.199999999999996</ele><time>2026-03-28T16:16:19.999Z</time></trkpt><trkpt lat="40.844909182185866" lon="14.546689046301442"><ele>41.4</ele><time>2026-03-28T16:16:20.999Z</time></trkpt><trkpt lat="40.84482925112908" lon="14.54660268726423"><ele>41.6</ele><time>2026-03-28T16:16:21.999Z</time></trkpt><trkpt lat="40.84477314526248" lon="14.546513888124895"><ele>41.8</ele><time>2026-03-28T16:16:22.999Z</time></trkpt><trkpt lat="40.8446984258587" lon="14.546480480391843"><ele>42.0</ele><time>2026-03-28T16:16:26.999Z</time></trkpt><trkpt lat="40.84479636717179" lon="14.546519085973584"><ele>42.0</ele><time>2026-03-28T16:16:33.999Z</time></trkpt><trkpt lat="40.84491341299548" lon="14.546472934689106"><ele>42.0</ele><time>2026-03-28T16:16:35.999Z</time></trkpt><trkpt lat="40.84498008714504" lon="14.546384404860426"><ele>42.0</ele><time>2026-03-28T16:16:36.999Z</time></trkpt><trkpt lat="40.84505726202904" lon="14.54629273596445"><ele>42.0</ele><time>2026-03-28T16:16:37.999Z</time></trkpt><trkpt lat="40.84514955657141" lon="14.54619418068456"><ele>42.0</ele><time>2026-03-28T16:16:38.999Z</time></trkpt><trkpt lat="40.84526501635629" lon="14.54607306868305"><ele>43.0</ele><time>2026-03-28T16:16:39.999Z</time></trkpt><trkpt lat="40.84539678777399" lon="14.545947318415392"><ele>44.0</ele><time>2026-03-28T16:16:40.999Z</time></trkpt><trkpt lat="40.845543837077926" lon="14.545819263858968"><ele>45.0</ele><time>2026-03-28T16:16:41.998Z</time></trkpt><trkpt lat="40.84569485671015" lon="14.545698966769677"><ele>45.0</ele><time>2026-03-28T16:16:42.998Z</time></trkpt><trkpt lat="40.84585734756688" lon="14.545565870137068"><ele>45.0</ele><time>2026-03-28T16:16:43.998Z</time></trkpt><trkpt lat="40.84602013191196" lon="14.545414298788556"><ele>45.0</ele><time>2026-03-28T16:16:44.998Z</time></trkpt><trkpt lat="40.84618817969325" lon="14.545261208745103"><ele>47.66666666666667</ele><time>2026-03-28T16:16:45.998Z</time></trkpt><trkpt lat="40.84633175550332" lon="14.545134957153"><ele>50.333333333333336</ele><time>2026-03-28T16:16:46.998Z</time></trkpt><trkpt lat="40.84647021533618" lon="14.545014314915905"><ele>53.0</ele><time>2026-03-28T16:16:47.998Z</time></trkpt><trkpt lat="40.84660867736144" lon="14.544888541638702"><ele>53.0</ele><time>2026-03-28T16:16:48.998Z</time></trkpt><trkpt lat="40.8467247452314" lon="14.544775277514967"><ele>53.0</ele><time>2026-03-28T16:16:49.998Z</time></trkpt><trkpt lat="40.846824991215776" lon="14.544665779966461"><ele>53.0</ele><time>2026-03-28T16:16:50.998Z</time></trkpt><trkpt lat="40.84692254615659" lon="14.544524100098492"><ele>53.0</ele><time>2026-03-28T16:16:51.998Z</time></trkpt><trkpt lat="40.84700686202508" lon="14.544365897411687"><ele>53.75</ele><time>2026-03-28T16:16:52.998Z</time></trkpt><trkpt lat="40.847064085128196" lon="14.544186583856407"><ele>54.5</ele><time>2026-03-28T16:16:53.998Z</time></trkpt><trkpt lat="40.84710347961111" lon="14.54399823742241"><ele>55.25</ele><time>2026-03-28T16:16:54.998Z</time></trkpt><trkpt lat="40.84711695974193" lon="14.543821554638239"><ele>56.0</ele><time>2026-03-28T16:16:55.998Z</time></trkpt><trkpt lat="40.84710673897112" lon="14.543637742536399"><ele>56.66666666666667</ele><time>2026-03-28T16:16:56.998Z</time></trkpt><trkpt lat="40.847069923496406" lon="14.54344720375485"><ele>57.33333333333333</ele><time>2026-03-28T16:16:57.998Z</time></trkpt><trkpt lat="40.84700968517915" lon="14.543259765827742"><ele>58.0</ele><time>2026-03-28T16:16:59Z</time></trkpt><trkpt lat="40.84693437236483" lon="14.543072723059543"><ele>58.0</ele><time>2026-03-28T16:17:00Z</time></trkpt><trkpt lat="40.84686134305893" lon="14.54291041837964"><ele>58.0</ele><time>2026-03-28T16:17:01Z</time></trkpt><trkpt lat="40.846785743587596" lon="14.542740306123122"><ele>58.0</ele><time>2026-03-28T16:17:02Z</time></trkpt><trkpt lat="40.84670496963271" lon="14.542558981585628"><ele>57.33333333333333</ele><time>2026-03-28T16:17:03Z</time></trkpt><trkpt lat="40.846610836633104" lon="14.542358223061845"><ele>56.66666666666667</ele><time>2026-03-28T16:17:04Z</time></trkpt><trkpt lat="40.84651936145291" lon="14.5421549574215"><ele>56.0</ele><time>2026-03-28T16:17:05Z</time></trkpt><trkpt lat="40.84644478945144" lon="14.541982589073724"><ele>56.0</ele><time>2026-03-28T16:17:06Z</time></trkpt><trkpt lat="40.84637751724296" lon="14.541827825157942"><ele>56.0</ele><time>2026-03-28T16:17:07Z</time></trkpt><trkpt lat="40.84630174775928" lon="14.541671875010099"><ele>56.0</ele><time>2026-03-28T16:17:08Z</time></trkpt><trkpt lat="40.84620347293908" lon="14.541526074800304"><ele>56.0</ele><time>2026-03-28T16:17:09Z</time></trkpt><trkpt lat="40.846091899806396" lon="14.541393038144378"><ele>56.0</ele><time>2026-03-28T16:17:10Z</time></trkpt><trkpt lat="40.84596532539372" lon="14.541278637695594"><ele>56.0</ele><time>2026-03-28T16:17:11Z</time></trkpt><trkpt lat="40.84583936242491" lon="14.541161234790511"><ele>56.0</ele><time>2026-03-28T16:17:12Z</time></trkpt><trkpt lat="40.84571755911157" lon="14.541033718070974"><ele>55.333333333333336</ele><time>2026-03-28T16:17:13Z</time></trkpt><trkpt lat="40.84559577255823" lon="14.540902133444657"><ele>54.66666666666667</ele><time>2026-03-28T16:17:14Z</time></trkpt><trkpt lat="40.84547203770457" lon="14.54076727639408"><ele>54.0</ele><time>2026-03-28T16:17:15Z</time></trkpt><trkpt lat="40.845350172360064" lon="14.540625903976538"><ele>54.0</ele><time>2026-03-28T16:17:16Z</time></trkpt><trkpt lat="40.84523718183428" lon="14.540470909152068"><ele>54.0</ele><time>2026-03-28T16:17:17Z</time></trkpt><trkpt lat="40.8451377924268" lon="14.540303867500525"><ele>54.0</ele><time>2026-03-28T16:17:18Z</time></trkpt><trkpt lat="40.84505074765081" lon="14.540126485496934"><ele>53.75</ele><time>2026-03-28T16:17:19Z</time></trkpt><trkpt lat="40.844982549097566" lon="14.539955060659459"><ele>53.5</ele><time>2026-03-28T16:17:20Z</time></trkpt><trkpt lat="40.844932446647" lon="14.539797581247361"><ele>53.25</ele><time>2026-03-28T16:17:21Z</time></trkpt><trkpt lat="40.84489334187966" lon="14.53963490523701"><ele>53.0</ele><time>2026-03-28T16:17:22Z</time></trkpt><trkpt lat="40.84486481754546" lon="14.539450191482588"><ele>53.0</ele><time>2026-03-28T16:17:23Z</time></trkpt><trkpt lat="40.84485068696229" lon="14.539254034910046"><ele>53.0</ele><time>2026-03-28T16:17:24Z</time></trkpt><trkpt lat="40.844838689023454" lon="14.539051224399014"><ele>53.0</ele><time>2026-03-28T16:17:25Z</time></trkpt><trkpt lat="40.84481733345064" lon="14.538849845103377"><ele>53.25</ele><time>2026-03-28T16:17:26Z</time></trkpt><trkpt lat="40.84479285402963" lon="14.538685540567862"><ele>53.5</ele><time>2026-03-28T16:17:27Z</time></trkpt><trkpt lat="40.84475251412055" lon="14.538523936081692"><ele>53.75</ele><time>2026-03-28T16:17:28Z</time></trkpt><trkpt lat="40.844687361441814" lon="14.538354705146379"><ele>54.0</ele><time>2026-03-28T16:17:29Z</time></trkpt><trkpt lat="40.844604748279714" lon="14.538158094512417"><ele>54.0</ele><time>2026-03-28T16:17:30Z</time></trkpt><trkpt lat="40.84451785496077" lon="14.537956289742569"><ele>54.0</ele><time>2026-03-28T16:17:31Z</time></trkpt><trkpt lat="40.84444611323409" lon="14.537760735472956"><ele>54.0</ele><time>2026-03-28T16:17:32Z</time></trkpt><trkpt lat="40.84435199553105" lon="14.537557246409694"><ele>54.33333333333333</ele><time>2026-03-28T16:17:33Z</time></trkpt><trkpt lat="40.84424989437229" lon="14.537344474440536"><ele>54.666666666666664</ele><time>2026-03-28T16:17:34Z</time></trkpt><trkpt lat="40.84415405418649" lon="14.537146023018728"><ele>55.0</ele><time>2026-03-28T16:17:35Z</time></trkpt><trkpt lat="40.84405137248633" lon="14.536960515179665"><ele>55.33333333333333</ele><time>2026-03-28T16:17:36Z</time></trkpt><trkpt lat="40.84396371804041" lon="14.536759372737645"><ele>55.66666666666667</ele><time>2026-03-28T16:17:37Z</time></trkpt><trkpt lat="40.84385411408483" lon="14.536565774838987"><ele>56.0</ele><time>2026-03-28T16:17:38Z</time></trkpt><trkpt lat="40.843760435614705" lon="14.536317759514876"><ele>57.0</ele><time>2026-03-28T16:17:39Z</time></trkpt><trkpt lat="40.8436335243095" lon="14.536044304558963"><ele>58.0</ele><time>2026-03-28T16:17:40Z</time></trkpt><trkpt lat="40.84348879314676" lon="14.535743163371734"><ele>57.5</ele><time>2026-03-28T16:17:41Z</time></trkpt><trkpt lat="40.843321453791994" lon="14.535444531425608"><ele>57.0</ele><time>2026-03-28T16:17:42Z</time></trkpt><trkpt lat="40.84320310151533" lon="14.535160699117997"><ele>57.0</ele><time>2026-03-28T16:17:43Z</time></trkpt><trkpt lat="40.84308611088883" lon="14.534911718675579"><ele>57.0</ele><time>2026-03-28T16:17:44Z</time></trkpt><trkpt lat="40.842970108468066" lon="14.534666526480905"><ele>57.0</ele><time>2026-03-28T16:17:45Z</time></trkpt><trkpt lat="40.84285632816791" lon="14.534429249108106"><ele>57.0</ele><time>2026-03-28T16:17:46Z</time></trkpt><trkpt lat="40.842724645450254" lon="14.534157349038999"><ele>57.0</ele><time>2026-03-28T16:17:47Z</time></trkpt><trkpt lat="40.842574077295225" lon="14.533905384746129"><ele>57.66666666666667</ele><time>2026-03-28T16:17:48Z</time></trkpt><trkpt lat="40.84246305327994" lon="14.533667637968655"><ele>58.333333333333336</ele><time>2026-03-28T16:17:49Z</time></trkpt><trkpt lat="40.84236563474668" lon="14.533458508107076"><ele>59.0</ele><time>2026-03-28T16:17:50Z</time></trkpt><trkpt lat="40.84227127663424" lon="14.533262059048706"><ele>59.0</ele><time>2026-03-28T16:17:51Z</time></trkpt><trkpt lat="40.84216877676364" lon="14.533050552956329"><ele>59.0</ele><time>2026-03-28T16:17:51.999Z</time></trkpt><trkpt lat="40.84207598878993" lon="14.532848131251901"><ele>59.0</ele><time>2026-03-28T16:17:52.999Z</time></trkpt><trkpt lat="40.84199287835841" lon="14.532664406195087"><ele>59.25</ele><time>2026-03-28T16:17:53.999Z</time></trkpt><trkpt lat="40.8419125639" lon="14.532497670463618"><ele>59.5</ele><time>2026-03-28T16:17:54.999Z</time></trkpt><trkpt lat="40.84185272749427" lon="14.532331120982063"><ele>59.75</ele><time>2026-03-28T16:17:55.999Z</time></trkpt><trkpt lat="40.841778703213464" lon="14.532185967568385"><ele>60.0</ele><time>2026-03-28T16:17:56.999Z</time></trkpt><trkpt lat="40.841694306137306" lon="14.532033472196781"><ele>59.25</ele><time>2026-03-28T16:17:57.999Z</time></trkpt><trkpt lat="40.841601172084765" lon="14.531867825037516"><ele>58.5</ele><time>2026-03-28T16:17:58.999Z</time></trkpt><trkpt lat="40.841508047006144" lon="14.531702193893942"><ele>57.75</ele><time>2026-03-28T16:17:59.999Z</time></trkpt><trkpt lat="40.84142632759528" lon="14.531558789715188"><ele>57.0</ele><time>2026-03-28T16:18:00.999Z</time></trkpt><trkpt lat="40.841336907669906" lon="14.53143914152224"><ele>57.0</ele><time>2026-03-28T16:18:01.999Z</time></trkpt><trkpt lat="40.84125898074746" lon="14.531312779991183"><ele>57.0</ele><time>2026-03-28T16:18:02.999Z</time></trkpt><trkpt lat="40.84118073396241" lon="14.531149920416905"><ele>57.0</ele><time>2026-03-28T16:18:03.999Z</time></trkpt><trkpt lat="40.841091166516726" lon="14.5310063029059"><ele>57.0</ele><time>2026-03-28T16:18:04.999Z</time></trkpt><trkpt lat="40.841010653872864" lon="14.53089103362257"><ele>56.8</ele><time>2026-03-28T16:18:05.999Z</time></trkpt><trkpt lat="40.84094172219657" lon="14.530780076841214"><ele>56.6</ele><time>2026-03-28T16:18:06.999Z</time></trkpt><trkpt lat="40.84087327366283" lon="14.530677356800968"><ele>56.39999999999999</ele><time>2026-03-28T16:18:07.999Z</time></trkpt><trkpt lat="40.840806051804094" lon="14.53057661845402"><ele>56.199999999999996</ele><time>2026-03-28T16:18:08.999Z</time></trkpt><trkpt lat="40.8407221546513" lon="14.530452670649836"><ele>56.0</ele><time>2026-03-28T16:18:09.999Z</time></trkpt><trkpt lat="40.84064577569502" lon="14.530341370464114"><ele>55.8</ele><time>2026-03-28T16:18:10.999Z</time></trkpt><trkpt lat="40.840575886909136" lon="14.530239527624275"><ele>55.599999999999994</ele><time>2026-03-28T16:18:11.999Z</time></trkpt><trkpt lat="40.84050713453885" lon="14.53016503189513"><ele>55.4</ele><time>2026-03-28T16:18:12.999Z</time></trkpt><trkpt lat="40.84044073636713" lon="14.530036983201564"><ele>55.2</ele><time>2026-03-28T16:18:14.999Z</time></trkpt><trkpt lat="40.84037757187392" lon="14.530011731480181"><ele>55.0</ele><time>2026-03-28T16:18:15.999Z</time></trkpt><trkpt lat="40.84028787121631" lon="14.530068931536162"><ele>54.99999999999999</ele><time>2026-03-28T16:18:16.999Z</time></trkpt><trkpt lat="40.84020857007409" lon="14.53006838099904"><ele>55.0</ele><time>2026-03-28T16:18:17.999Z</time></trkpt><trkpt lat="40.84013679057064" lon="14.530071974272902"><ele>55.0</ele><time>2026-03-28T16:18:18.999Z</time></trkpt><trkpt lat="40.84007726774057" lon="14.530023434746637"><ele>55.0</ele><time>2026-03-28T16:18:19.999Z</time></trkpt><trkpt lat="40.84002280470921" lon="14.529936499189155"><ele>54.99999999999999</ele><time>2026-03-28T16:18:20.999Z</time></trkpt><trkpt lat="40.83994485575942" lon="14.529823497434906"><ele>55.0</ele><time>2026-03-28T16:18:21.999Z</time></trkpt><trkpt lat="40.8398778640188" lon="14.52971121609179"><ele>54.4</ele><time>2026-03-28T16:18:22.999Z</time></trkpt><trkpt lat="40.83976457217605" lon="14.52965055572588"><ele>53.8</ele><time>2026-03-28T16:18:24.999Z</time></trkpt><trkpt lat="40.83968300953139" lon="14.529666123278806"><ele>53.2</ele><time>2026-03-28T16:18:25.999Z</time></trkpt><trkpt lat="40.839587238927706" lon="14.52972415475385"><ele>52.6</ele><time>2026-03-28T16:18:26.999Z</time></trkpt><trkpt lat="40.83946586147411" lon="14.52981284439115"><ele>52.0</ele><time>2026-03-28T16:18:27.999Z</time></trkpt><trkpt lat="40.83936355947689" lon="14.529884606746476"><ele>51.6</ele><time>2026-03-28T16:18:28.999Z</time></trkpt><trkpt lat="40.83928452137827" lon="14.529927920889877"><ele>51.2</ele><time>2026-03-28T16:18:29.999Z</time></trkpt><trkpt lat="40.83920905782238" lon="14.529951260397088"><ele>50.8</ele><time>2026-03-28T16:18:30.999Z</time></trkpt><trkpt lat="40.83911637840237" lon="14.529957564970925"><ele>50.4</ele><time>2026-03-28T16:18:31.999Z</time></trkpt><trkpt lat="40.839018496595266" lon="14.529958994967503"><ele>50.0</ele><time>2026-03-28T16:18:32.999Z</time></trkpt><trkpt lat="40.838920761491416" lon="14.529973432954154"><ele>50.0</ele><time>2026-03-28T16:18:33.999Z</time></trkpt><trkpt lat="40.838839689523645" lon="14.529997500134439"><ele>50.0</ele><time>2026-03-28T16:18:34.999Z</time></trkpt><trkpt lat="40.83874360682137" lon="14.530027794945186"><ele>50.0</ele><time>2026-03-28T16:18:35.999Z</time></trkpt><trkpt lat="40.83864373813741" lon="14.5300514756487"><ele>50.0</ele><time>2026-03-28T16:18:36.999Z</time></trkpt><trkpt lat="40.838549382378076" lon="14.530074092639822"><ele>50.0</ele><time>2026-03-28T16:18:37.999Z</time></trkpt><trkpt lat="40.838442019110225" lon="14.53011795100227"><ele>50.333333333333336</ele><time>2026-03-28T16:18:38.999Z</time></trkpt><trkpt lat="40.838322338937346" lon="14.530156554175287"><ele>50.66666666666667</ele><time>2026-03-28T16:18:39.999Z</time></trkpt><trkpt lat="40.83816474363787" lon="14.53018330396072"><ele>51.0</ele><time>2026-03-28T16:18:40.999Z</time></trkpt><trkpt lat="40.83798983896565" lon="14.53020690898192"><ele>51.0</ele><time>2026-03-28T16:18:41.999Z</time></trkpt><trkpt lat="40.83780093914337" lon="14.530229360731644"><ele>51.0</ele><time>2026-03-28T16:18:42.999Z</time></trkpt><trkpt lat="40.837630878793014" lon="14.530252112425442"><ele>51.0</ele><time>2026-03-28T16:18:43.999Z</time></trkpt><trkpt lat="40.83750168153499" lon="14.530271316482413"><ele>51.166666666666664</ele><time>2026-03-28T16:18:44.999Z</time></trkpt><trkpt lat="40.83739874165353" lon="14.53029117320764"><ele>51.33333333333333</ele><time>2026-03-28T16:18:45.999Z</time></trkpt><trkpt lat="40.837311949742755" lon="14.530308746053716"><ele>51.5</ele><time>2026-03-28T16:18:46.999Z</time></trkpt><trkpt lat="40.8372452703807" lon="14.53032045613103"><ele>51.666666666666664</ele><time>2026-03-28T16:18:47.999Z</time></trkpt><trkpt lat="40.83716344516657" lon="14.530324631940855"><ele>51.83333333333333</ele><time>2026-03-28T16:18:48.999Z</time></trkpt><trkpt lat="40.83708371563255" lon="14.53030246440268"><ele>52.0</ele><time>2026-03-28T16:18:49.999Z</time></trkpt><trkpt lat="40.83702012861504" lon="14.530242950888034"><ele>52.0</ele><time>2026-03-28T16:18:50.998Z</time></trkpt><trkpt lat="40.83697358103405" lon="14.530157728718704"><ele>52.0</ele><time>2026-03-28T16:18:51.998Z</time></trkpt><trkpt lat="40.836957629839645" lon="14.53005410631731"><ele>52.0</ele><time>2026-03-28T16:18:52.998Z</time></trkpt><trkpt lat="40.83698316587623" lon="14.529932828902336"><ele>52.0</ele><time>2026-03-28T16:18:53.998Z</time></trkpt><trkpt lat="40.83702448008414" lon="14.529784115709363"><ele>52.0</ele><time>2026-03-28T16:18:54.998Z</time></trkpt><trkpt lat="40.83707180630839" lon="14.529579951876062"><ele>52.33333333333333</ele><time>2026-03-28T16:18:55.998Z</time></trkpt><trkpt lat="40.83711822440772" lon="14.529346982198328"><ele>52.66666666666667</ele><time>2026-03-28T16:18:56.998Z</time></trkpt><trkpt lat="40.837170800634965" lon="14.52908957838873"><ele>53.0</ele><time>2026-03-28T16:18:57.998Z</time></trkpt><trkpt lat="40.83723276042863" lon="14.528812502301864"><ele>54.0</ele><time>2026-03-28T16:18:58.998Z</time></trkpt><trkpt lat="40.837295529753035" lon="14.52851645842571"><ele>55.0</ele><time>2026-03-28T16:18:59.998Z</time></trkpt><trkpt lat="40.837332616224806" lon="14.528198375140123"><ele>55.0</ele><time>2026-03-28T16:19:00.998Z</time></trkpt><trkpt lat="40.83738175636721" lon="14.527917400554655"><ele>55.0</ele><time>2026-03-28T16:19:01.998Z</time></trkpt><trkpt lat="40.83743149553765" lon="14.527652924287535"><ele>55.0</ele><time>2026-03-28T16:19:02.998Z</time></trkpt><trkpt lat="40.8374762577139" lon="14.527405279881688"><ele>55.0</ele><time>2026-03-28T16:19:03.998Z</time></trkpt><trkpt lat="40.83751067853825" lon="14.527180812378361"><ele>55.0</ele><time>2026-03-28T16:19:05Z</time></trkpt><trkpt lat="40.83754367970733" lon="14.526972098320163"><ele>55.0</ele><time>2026-03-28T16:19:06Z</time></trkpt><trkpt lat="40.83756839840634" lon="14.526773953482897"><ele>55.0</ele><time>2026-03-28T16:19:07Z</time></trkpt><trkpt lat="40.83758001347664" lon="14.52657907816839"><ele>55.0</ele><time>2026-03-28T16:19:08Z</time></trkpt><trkpt lat="40.83758892593238" lon="14.526373122928835"><ele>55.0</ele><time>2026-03-28T16:19:09Z</time></trkpt><trkpt lat="40.83759785721386" lon="14.526161877011168"><ele>55.5</ele><time>2026-03-28T16:19:10Z</time></trkpt><trkpt lat="40.837600686833106" lon="14.525977186795167"><ele>56.0</ele><time>2026-03-28T16:19:11Z</time></trkpt><trkpt lat="40.83760504944098" lon="14.525815424709593"><ele>56.5</ele><time>2026-03-28T16:19:12Z</time></trkpt><trkpt lat="40.83761436252887" lon="14.525670049558881"><ele>57.0</ele><time>2026-03-28T16:19:13Z</time></trkpt><trkpt lat="40.837625201825865" lon="14.525546089318473"><ele>57.0</ele><time>2026-03-28T16:19:14Z</time></trkpt><trkpt lat="40.837636446460756" lon="14.52542383049903"><ele>57.0</ele><time>2026-03-28T16:19:15Z</time></trkpt><trkpt lat="40.83764364563377" lon="14.525299285621774"><ele>57.0</ele><time>2026-03-28T16:19:16Z</time></trkpt><trkpt lat="40.837649693254065" lon="14.52517347075769"><ele>57.0</ele><time>2026-03-28T16:19:17Z</time></trkpt><trkpt lat="40.837655678128414" lon="14.52505839062495"><ele>57.0</ele><time>2026-03-28T16:19:18Z</time></trkpt><trkpt lat="40.83765803681446" lon="14.52496360121799"><ele>57.0</ele><time>2026-03-28T16:19:19Z</time></trkpt><trkpt lat="40.837656162132696" lon="14.524824371774878"><ele>57.333333333333336</ele><time>2026-03-28T16:19:21Z</time></trkpt><trkpt lat="40.83765663070052" lon="14.524723612648028"><ele>57.66666666666667</ele><time>2026-03-28T16:19:23Z</time></trkpt><trkpt lat="40.837690031159916" lon="14.524615891888116"><ele>58.0</ele><time>2026-03-28T16:19:26Z</time></trkpt><trkpt lat="40.83769388128729" lon="14.524514020227008"><ele>58.333333333333336</ele><time>2026-03-28T16:19:27Z</time></trkpt><trkpt lat="40.837685796472286" lon="14.52438653014826"><ele>58.66666666666667</ele><time>2026-03-28T16:19:28Z</time></trkpt><trkpt lat="40.83768564681021" lon="14.524243015309382"><ele>59.0</ele><time>2026-03-28T16:19:29Z</time></trkpt><trkpt lat="40.837698845610866" lon="14.524027323463704"><ele>59.0</ele><time>2026-03-28T16:19:30Z</time></trkpt><trkpt lat="40.83770896948412" lon="14.523805385044614"><ele>59.0</ele><time>2026-03-28T16:19:31Z</time></trkpt><trkpt lat="40.837730177330165" lon="14.523540051560913"><ele>59.0</ele><time>2026-03-28T16:19:32Z</time></trkpt><trkpt lat="40.83774743330957" lon="14.523252444580395"><ele>59.0</ele><time>2026-03-28T16:19:33Z</time></trkpt><trkpt lat="40.83776447865685" lon="14.522961628133734"><ele>59.0</ele><time>2026-03-28T16:19:34Z</time></trkpt><trkpt lat="40.837784939876684" lon="14.522641634733887"><ele>60.0</ele><time>2026-03-28T16:19:35Z</time></trkpt><trkpt lat="40.83780404185688" lon="14.52229796503886"><ele>61.0</ele><time>2026-03-28T16:19:36Z</time></trkpt><trkpt lat="40.837819283624" lon="14.522001261456316"><ele>61.666666666666664</ele><time>2026-03-28T16:19:37Z</time></trkpt><trkpt lat="40.837835743666815" lon="14.521730984643945"><ele>62.33333333333333</ele><time>2026-03-28T16:19:38Z</time></trkpt><trkpt lat="40.83785029004306" lon="14.521464594953322"><ele>63.0</ele><time>2026-03-28T16:19:39Z</time></trkpt><trkpt lat="40.83786162199839" lon="14.521231284524267"><ele>63.33333333333333</ele><time>2026-03-28T16:19:40Z</time></trkpt><trkpt lat="40.83787500825488" lon="14.521005610296006"><ele>63.666666666666664</ele><time>2026-03-28T16:19:41Z</time></trkpt><trkpt lat="40.837888742437954" lon="14.520802649330047"><ele>64.0</ele><time>2026-03-28T16:19:42Z</time></trkpt><trkpt lat="40.837911812265936" lon="14.520629961174"><ele>64.0</ele><time>2026-03-28T16:19:43Z</time></trkpt><trkpt lat="40.83794136372246" lon="14.520483353247064"><ele>64.0</ele><time>2026-03-28T16:19:44Z</time></trkpt><trkpt lat="40.837987993110936" lon="14.520358646650115"><ele>64.0</ele><time>2026-03-28T16:19:45Z</time></trkpt><trkpt lat="40.83806171416723" lon="14.520254156322213"><ele>64.0</ele><time>2026-03-28T16:19:46Z</time></trkpt><trkpt lat="40.83816090412318" lon="14.52016323687574"><ele>64.0</ele><time>2026-03-28T16:19:47Z</time></trkpt><trkpt lat="40.838282419225436" lon="14.520109698567063"><ele>64.33333333333333</ele><time>2026-03-28T16:19:48Z</time></trkpt><trkpt lat="40.838420184371806" lon="14.52009454470363"><ele>64.66666666666667</ele><time>2026-03-28T16:19:49Z</time></trkpt><trkpt lat="40.838581722918214" lon="14.520103953042565"><ele>65.0</ele><time>2026-03-28T16:19:50Z</time></trkpt><trkpt lat="40.83873386966868" lon="14.520115989015547"><ele>65.5</ele><time>2026-03-28T16:19:51Z</time></trkpt><trkpt lat="40.83886895117911" lon="14.520123157111199"><ele>66.0</ele><time>2026-03-28T16:19:52Z</time></trkpt><trkpt lat="40.83899520916304" lon="14.520118542059926"><ele>66.5</ele><time>2026-03-28T16:19:53Z</time></trkpt><trkpt lat="40.83910691425715" lon="14.520112782264388"><ele>67.0</ele><time>2026-03-28T16:19:54Z</time></trkpt><trkpt lat="40.839215075894" lon="14.52009321839306"><ele>67.4</ele><time>2026-03-28T16:19:55Z</time></trkpt><trkpt lat="40.83931065923951" lon="14.520036996296382"><ele>67.80000000000001</ele><time>2026-03-28T16:19:56Z</time></trkpt><trkpt lat="40.839385842810266" lon="14.519955473063058"><ele>68.2</ele><time>2026-03-28T16:19:57Z</time></trkpt><trkpt lat="40.83944526995036" lon="14.519845664238987"><ele>68.60000000000001</ele><time>2026-03-28T16:19:58Z</time></trkpt><trkpt lat="40.83948786514311" lon="14.519699355464487"><ele>69.0</ele><time>2026-03-28T16:19:59Z</time></trkpt><trkpt lat="40.839510726808165" lon="14.51953084418115"><ele>69.33333333333333</ele><time>2026-03-28T16:20:00Z</time></trkpt><trkpt lat="40.8395226109856" lon="14.519326762778915"><ele>69.66666666666666</ele><time>2026-03-28T16:20:01Z</time></trkpt><trkpt lat="40.83954347058958" lon="14.51910374724444"><ele>70.0</ele><time>2026-03-28T16:20:02Z</time></trkpt><trkpt lat="40.8395659047703" lon="14.518882734607436"><ele>71.0</ele><time>2026-03-28T16:20:02.999Z</time></trkpt><trkpt lat="40.83959406607767" lon="14.518640104438298"><ele>72.0</ele><time>2026-03-28T16:20:03.999Z</time></trkpt><trkpt lat="40.83962529279389" lon="14.518416051407804"><ele>73.0</ele><time>2026-03-28T16:20:04.999Z</time></trkpt><trkpt lat="40.83966923166418" lon="14.518202331804744"><ele>73.0</ele><time>2026-03-28T16:20:05.999Z</time></trkpt><trkpt lat="40.83972020318988" lon="14.517995404017377"><ele>73.0</ele><time>2026-03-28T16:20:06.999Z</time></trkpt><trkpt lat="40.83979283714642" lon="14.517789001364234"><ele>73.0</ele><time>2026-03-28T16:20:07.999Z</time></trkpt><trkpt lat="40.839897204493745" lon="14.517546528489834"><ele>73.0</ele><time>2026-03-28T16:20:08.999Z</time></trkpt><trkpt lat="40.840012061298516" lon="14.517264532035101"><ele>73.0</ele><time>2026-03-28T16:20:09.999Z</time></trkpt><trkpt lat="40.84008844331965" lon="14.516994798807392"><ele>73.33333333333333</ele><time>2026-03-28T16:20:10.999Z</time></trkpt><trkpt lat="40.840175566029316" lon="14.516747083133806"><ele>73.66666666666667</ele><time>2026-03-28T16:20:11.999Z</time></trkpt><trkpt lat="40.84025450990503" lon="14.51652221384235"><ele>74.0</ele><time>2026-03-28T16:20:12.999Z</time></trkpt><trkpt lat="40.840337892928" lon="14.516320586378795"><ele>74.33333333333334</ele><time>2026-03-28T16:20:13.999Z</time></trkpt><trkpt lat="40.84043391866936" lon="14.516113495808396"><ele>74.66666666666667</ele><time>2026-03-28T16:20:14.999Z</time></trkpt><trkpt lat="40.84055273936196" lon="14.515906579349117"><ele>75.0</ele><time>2026-03-28T16:20:15.999Z</time></trkpt><trkpt lat="40.84067856086402" lon="14.51568932080472"><ele>75.0</ele><time>2026-03-28T16:20:16.999Z</time></trkpt><trkpt lat="40.84079662709047" lon="14.515482619016366"><ele>75.0</ele><time>2026-03-28T16:20:17.999Z</time></trkpt><trkpt lat="40.84092369401957" lon="14.515295486732999"><ele>75.0</ele><time>2026-03-28T16:20:18.999Z</time></trkpt><trkpt lat="40.841034642366516" lon="14.515123158029297"><ele>75.66666666666667</ele><time>2026-03-28T16:20:19.999Z</time></trkpt><trkpt lat="40.84114514934602" lon="14.514960766562218"><ele>76.33333333333334</ele><time>2026-03-28T16:20:20.999Z</time></trkpt><trkpt lat="40.84125823945352" lon="14.514791795926206"><ele>77.0</ele><time>2026-03-28T16:20:21.999Z</time></trkpt><trkpt lat="40.84136971484017" lon="14.514603387355518"><ele>77.66666666666667</ele><time>2026-03-28T16:20:22.999Z</time></trkpt><trkpt lat="40.841474790635374" lon="14.514405970663065"><ele>78.33333333333333</ele><time>2026-03-28T16:20:23.999Z</time></trkpt><trkpt lat="40.84157636392897" lon="14.514207728511112"><ele>79.0</ele><time>2026-03-28T16:20:24.999Z</time></trkpt><trkpt lat="40.841676718581674" lon="14.514004520601905"><ele>79.0</ele><time>2026-03-28T16:20:25.999Z</time></trkpt><trkpt lat="40.84177450060908" lon="14.513810633072959"><ele>79.0</ele><time>2026-03-28T16:20:26.999Z</time></trkpt><trkpt lat="40.84186869700645" lon="14.513618699677826"><ele>79.0</ele><time>2026-03-28T16:20:27.999Z</time></trkpt><trkpt lat="40.84195285519179" lon="14.51342154312146"><ele>79.0</ele><time>2026-03-28T16:20:28.999Z</time></trkpt><trkpt lat="40.84203685383302" lon="14.513221813021087"><ele>79.0</ele><time>2026-03-28T16:20:29.999Z</time></trkpt><trkpt lat="40.84211547964739" lon="14.513040581836169"><ele>79.0</ele><time>2026-03-28T16:20:30.999Z</time></trkpt><trkpt lat="40.84219242879554" lon="14.512849743543311"><ele>79.33333333333333</ele><time>2026-03-28T16:20:31.999Z</time></trkpt><trkpt lat="40.84226990596862" lon="14.512639579693158"><ele>79.66666666666667</ele><time>2026-03-28T16:20:32.999Z</time></trkpt><trkpt lat="40.842333784785275" lon="14.512437824484293"><ele>80.0</ele><time>2026-03-28T16:20:33.999Z</time></trkpt><trkpt lat="40.84238475107418" lon="14.512263857002852"><ele>80.0</ele><time>2026-03-28T16:20:34.999Z</time></trkpt><trkpt lat="40.8424266880077" lon="14.51210970503312"><ele>80.0</ele><time>2026-03-28T16:20:35.999Z</time></trkpt><trkpt lat="40.84246126329286" lon="14.511964175607497"><ele>80.0</ele><time>2026-03-28T16:20:36.999Z</time></trkpt><trkpt lat="40.84249495873106" lon="14.511803233480155"><ele>80.0</ele><time>2026-03-28T16:20:37.999Z</time></trkpt><trkpt lat="40.842530615769675" lon="14.511629135068079"><ele>80.75</ele><time>2026-03-28T16:20:38.999Z</time></trkpt><trkpt lat="40.842569206298506" lon="14.511458982239645"><ele>81.5</ele><time>2026-03-28T16:20:39.999Z</time></trkpt><trkpt lat="40.84261759474937" lon="14.511291420167879"><ele>82.25</ele><time>2026-03-28T16:20:40.999Z</time></trkpt><trkpt lat="40.84268504260716" lon="14.511119529914428"><ele>83.0</ele><time>2026-03-28T16:20:41.999Z</time></trkpt><trkpt lat="40.84275795910603" lon="14.510953998647063"><ele>83.25</ele><time>2026-03-28T16:20:42.999Z</time></trkpt><trkpt lat="40.842818827587244" lon="14.510821311904476"><ele>83.5</ele><time>2026-03-28T16:20:43.999Z</time></trkpt><trkpt lat="40.84288417947241" lon="14.510695503018184"><ele>83.75</ele><time>2026-03-28T16:20:44.999Z</time></trkpt><trkpt lat="40.842951241326176" lon="14.51056512169048"><ele>84.0</ele><time>2026-03-28T16:20:45.999Z</time></trkpt><trkpt lat="40.84300957290361" lon="14.510453531020914"><ele>84.25</ele><time>2026-03-28T16:20:46.999Z</time></trkpt><trkpt lat="40.84306832650915" lon="14.510332236293493"><ele>84.5</ele><time>2026-03-28T16:20:47.999Z</time></trkpt><trkpt lat="40.843134195759305" lon="14.510198101566454"><ele>84.75</ele><time>2026-03-28T16:20:48.999Z</time></trkpt><trkpt lat="40.843214182120384" lon="14.510044158692644"><ele>85.0</ele><time>2026-03-28T16:20:49.999Z</time></trkpt><trkpt lat="40.84329114547955" lon="14.509917395545653"><ele>85.0</ele><time>2026-03-28T16:20:50.999Z</time></trkpt><trkpt lat="40.84336594326156" lon="14.5097909279806"><ele>85.0</ele><time>2026-03-28T16:20:51.999Z</time></trkpt><trkpt lat="40.84343862177966" lon="14.509630392415005"><ele>85.0</ele><time>2026-03-28T16:20:52.999Z</time></trkpt><trkpt lat="40.843534815259474" lon="14.509434385535206"><ele>85.0</ele><time>2026-03-28T16:20:53.999Z</time></trkpt><trkpt lat="40.84365390558578" lon="14.509227888845354"><ele>86.0</ele><time>2026-03-28T16:20:54.999Z</time></trkpt><trkpt lat="40.843776833304595" lon="14.509012102138223"><ele>87.0</ele><time>2026-03-28T16:20:55.999Z</time></trkpt><trkpt lat="40.843891106575896" lon="14.50881010940123"><ele>88.0</ele><time>2026-03-28T16:20:56.999Z</time></trkpt><trkpt lat="40.843976088640034" lon="14.508651428441647"><ele>88.60000000000001</ele><time>2026-03-28T16:20:57.999Z</time></trkpt><trkpt lat="40.84405201803599" lon="14.508517381734542"><ele>89.2</ele><time>2026-03-28T16:20:58.999Z</time></trkpt><trkpt lat="40.844109345106865" lon="14.508402994946918"><ele>89.8</ele><time>2026-03-28T16:20:59.999Z</time></trkpt><trkpt lat="40.844152225184466" lon="14.508307632938227"><ele>90.4</ele><time>2026-03-28T16:21:00.999Z</time></trkpt><trkpt lat="40.84421301809852" lon="14.508178491823703"><ele>91.0</ele><time>2026-03-28T16:21:02.998Z</time></trkpt><trkpt lat="40.84425728767685" lon="14.508108029690412"><ele>90.8</ele><time>2026-03-28T16:21:04.998Z</time></trkpt><trkpt lat="40.84446924996253" lon="14.508082328245797"><ele>90.6</ele><time>2026-03-28T16:21:17Z</time></trkpt><trkpt lat="40.84454620939269" lon="14.508117026723209"><ele>90.4</ele><time>2026-03-28T16:21:22Z</time></trkpt><trkpt lat="40.84461008700208" lon="14.50812710152589"><ele>90.2</ele><time>2026-03-28T16:21:26Z</time></trkpt><trkpt lat="40.844700470864346" lon="14.508138929024812"><ele>90.0</ele><time>2026-03-28T16:21:30Z</time></trkpt><trkpt lat="40.84477409523783" lon="14.50816401277352"><ele>90.0</ele><time>2026-03-28T16:21:33Z</time></trkpt><trkpt lat="40.84488855919054" lon="14.508058936697484"><ele>90.0</ele><time>2026-03-28T16:21:37Z</time></trkpt><trkpt lat="40.8448984696515" lon="14.507955015594348"><ele>90.0</ele><time>2026-03-28T16:21:38Z</time></trkpt><trkpt lat="40.84491866967961" lon="14.507834637415105"><ele>90.0</ele><time>2026-03-28T16:21:39Z</time></trkpt><trkpt lat="40.84494651912247" lon="14.5076950660438"><ele>90.0</ele><time>2026-03-28T16:21:40Z</time></trkpt><trkpt lat="40.844980429122046" lon="14.507512390101892"><ele>90.33333333333333</ele><time>2026-03-28T16:21:41Z</time></trkpt><trkpt lat="40.84503009818194" lon="14.507295884189219"><ele>90.66666666666666</ele><time>2026-03-28T16:21:42Z</time></trkpt><trkpt lat="40.845077828866735" lon="14.50704948163737"><ele>91.0</ele><time>2026-03-28T16:21:43Z</time></trkpt><trkpt lat="40.84513952870372" lon="14.506770646237083"><ele>92.0</ele><time>2026-03-28T16:21:44Z</time></trkpt><trkpt lat="40.84520170268591" lon="14.506466822137922"><ele>93.0</ele><time>2026-03-28T16:21:45Z</time></trkpt><trkpt lat="40.84524762012417" lon="14.506146244226814"><ele>93.66666666666667</ele><time>2026-03-28T16:21:46Z</time></trkpt><trkpt lat="40.84528359937841" lon="14.505840374051184"><ele>94.33333333333334</ele><time>2026-03-28T16:21:47Z</time></trkpt><trkpt lat="40.84530725136638" lon="14.505577039472152"><ele>95.0</ele><time>2026-03-28T16:21:48Z</time></trkpt><trkpt lat="40.845321391142896" lon="14.505315518953042"><ele>95.66666666666667</ele><time>2026-03-28T16:21:49Z</time></trkpt><trkpt lat="40.84532986701426" lon="14.505081170097009"><ele>96.33333333333334</ele><time>2026-03-28T16:21:50Z</time></trkpt><trkpt lat="40.84534177196313" lon="14.504896287217456"><ele>97.0</ele><time>2026-03-28T16:21:51Z</time></trkpt><trkpt lat="40.84535337810047" lon="14.504715719391184"><ele>97.33333333333334</ele><time>2026-03-28T16:21:52Z</time></trkpt><trkpt lat="40.84535683662059" lon="14.5045465875401"><ele>97.66666666666667</ele><time>2026-03-28T16:21:53Z</time></trkpt><trkpt lat="40.84536669313694" lon="14.504406622560053"><ele>98.0</ele><time>2026-03-28T16:21:54Z</time></trkpt><trkpt lat="40.845379451606185" lon="14.504295139645032"><ele>98.33333333333334</ele><time>2026-03-28T16:21:55Z</time></trkpt><trkpt lat="40.845384570820535" lon="14.50421046133848"><ele>98.66666666666667</ele><time>2026-03-28T16:21:56Z</time></trkpt><trkpt lat="40.845360139383246" lon="14.504131184331518"><ele>99.0</ele><time>2026-03-28T16:21:58Z</time></trkpt><trkpt lat="40.84524008950223" lon="14.504064532354667"><ele>99.0</ele><time>2026-03-28T16:22:01Z</time></trkpt><trkpt lat="40.84514680376053" lon="14.504062065273644"><ele>99.0</ele><time>2026-03-28T16:22:02Z</time></trkpt><trkpt lat="40.845059438082146" lon="14.504067985007538"><ele>99.0</ele><time>2026-03-28T16:22:03Z</time></trkpt><trkpt lat="40.84492733784613" lon="14.50406042617555"><ele>99.0</ele><time>2026-03-28T16:22:04Z</time></trkpt><trkpt lat="40.84476409570392" lon="14.5040569103537"><ele>99.0</ele><time>2026-03-28T16:22:05Z</time></trkpt><trkpt lat="40.84457633036081" lon="14.504053018489397"><ele>99.0</ele><time>2026-03-28T16:22:06Z</time></trkpt><trkpt lat="40.844403799335375" lon="14.504060311070129"><ele>99.0</ele><time>2026-03-28T16:22:07Z</time></trkpt><trkpt lat="40.84427441907566" lon="14.504054715882413"><ele>99.0</ele><time>2026-03-28T16:22:08Z</time></trkpt><trkpt lat="40.844171044790215" lon="14.504060779617378"><ele>99.0</ele><time>2026-03-28T16:22:09Z</time></trkpt><trkpt lat="40.84405629890333" lon="14.504051697102028"><ele>99.0</ele><time>2026-03-28T16:22:10Z</time></trkpt><trkpt lat="40.84392166333285" lon="14.50403479304846"><ele>99.0</ele><time>2026-03-28T16:22:11Z</time></trkpt><trkpt lat="40.84378452645514" lon="14.504028990259371"><ele>99.0</ele><time>2026-03-28T16:22:12Z</time></trkpt><trkpt lat="40.84367868269169" lon="14.50402101414603"><ele>99.0</ele><time>2026-03-28T16:22:13Z</time></trkpt><trkpt lat="40.843579908533265" lon="14.504038498977451"><ele>99.0</ele><time>2026-03-28T16:22:14Z</time></trkpt><trkpt lat="40.84350084476793" lon="14.504028216925015"><ele>99.0</ele><time>2026-03-28T16:22:14.999Z</time></trkpt><trkpt lat="40.843392350795234" lon="14.504008950993"><ele>99.0</ele><time>2026-03-28T16:22:16.999Z</time></trkpt><trkpt lat="40.84331693164534" lon="14.50403843423106"><ele>98.6</ele><time>2026-03-28T16:22:18.999Z</time></trkpt><trkpt lat="40.843324224145" lon="14.504143241364677"><ele>98.2</ele><time>2026-03-28T16:22:21.999Z</time></trkpt><trkpt lat="40.84328505211192" lon="14.504228236138786"><ele>97.8</ele><time>2026-03-28T16:22:25.999Z</time></trkpt><trkpt lat="40.84321872418986" lon="14.504291832136452"><ele>97.39999999999999</ele><time>2026-03-28T16:22:28.999Z</time></trkpt><trkpt lat="40.84316824838236" lon="14.50440315321034"><ele>97.0</ele><time>2026-03-28T16:22:29.999Z</time></trkpt><trkpt lat="40.84318079366692" lon="14.504553942572006"><ele>97.0</ele><time>2026-03-28T16:22:31.999Z</time></trkpt><trkpt lat="40.843169731784236" lon="14.504688170216419"><ele>96.0</ele><time>2026-03-28T16:22:33.999Z</time></trkpt><trkpt lat="40.84320912409961" lon="14.504758631731843"><ele>96.0</ele><time>2026-03-28T16:22:43.999Z</time></trkpt></trkseg></trk></gpx>